# Wetter Temperatur Luftdruck Luftfeuchtigkeit Sichtweite Windgeschwindigkeit Windrichtung Zeit
1 Rain 5 999 86 10000 7.7 250 09:40 29.01.2020
2 Rain 5 999 86 10000 7.7 250 09:21 29.01.2020
3 Clouds 5 996 80 10000 7.7 250 08:57 29.01.2020
4 Clouds 5 996 80 10000 7.7 250 08:39 29.01.2020
5 Clouds 5 998 80 10000 9.3 250 08:20 29.01.2020
6 Clouds 5 996 80 10000 8.2 250 07:45 29.01.2020
7 Clouds 5 997 75 10000 7.7 250 07:24 29.01.2020
8 Clouds 5 995 86 10000 7.2 250 06:55 29.01.2020
9 Clouds 5 995 86 10000 7.2 250 06:37 29.01.2020
10 Clouds 5 997 75 10000 7.7 260 06:18 29.01.2020
11 Clouds 5 995 86 10000 8.2 250 05:44 29.01.2020
12 Clouds 5 996 81 10000 6.7 250 05:25 29.01.2020
13 Clouds 5 994 86 10000 6.7 250 04:37 29.01.2020
14 Rain 4 994 86 8000 5.7 240 03:49 29.01.2020
15 Clouds 4 994 86 10000 5.7 240 02:33 29.01.2020
16 Rain 4 993 86 10000 6.2 230 00:43 29.01.2020
17 Rain 4 994 86 10000 6.2 230 00:25 29.01.2020
18 Clouds 4 993 86 10000 6.2 240 23:58 28.01.2020
19 Clouds 4 993 86 10000 6.2 240 23:37 28.01.2020
20 Clouds 3 994 86 10000 1.5 230 23:18 28.01.2020
21 Clouds 3 993 86 10000 6.7 250 22:41 28.01.2020
22 Drizzle 3 994 86 10000 3.1 240 22:21 28.01.2020
23 Clouds 3 992 80 10000 7.7 250 21:54 28.01.2020
24 Clouds 3 992 80 10000 7.7 250 21:36 28.01.2020
25 Clouds 3 994 86 10000 4.6 240 21:18 28.01.2020
26 Clouds 3 992 80 10000 7.2 250 20:42 28.01.2020
27 Clouds 4 994 86 10000 5.1 250 20:23 28.01.2020
28 Clouds 4 991 80 10000 8.2 260 19:55 28.01.2020
29 Clouds 4 993 80 10000 5.7 250 19:36 28.01.2020
30 Clouds 4 993 80 10000 5.7 250 19:18 28.01.2020
31 Clouds 4 993 80 10000 7.2 260 18:41 28.01.2020
32 Rain 4 992 86 10000 5.7 250 18:22 28.01.2020
33 Rain 4 989 86 10000 11.3 260 17:59 28.01.2020
34 Rain 4 989 86 10000 11.3 260 17:39 28.01.2020
35 Rain 4 988 86 10000 12.3 270 17:21 28.01.2020
36 Snow 4 988 93 10000 12.9 270 16:56 28.01.2020
37 Snow 4 988 93 10000 12.9 270 16:37 28.01.2020
38 Clouds 4 990 80 10000 7.7 260 16:19 28.01.2020
39 Clouds 4 989 80 10000 7.2 260 15:44 28.01.2020
40 Clouds 4 988 93 10000 5.7 250 15:19 28.01.2020
41 Clouds 3 986 88 2500 5.1 240 14:57 28.01.2020
42 Clouds 3 986 88 2500 5.1 240 14:39 28.01.2020
43 Clouds 3 986 88 2500 5.1 240 14:39 28.01.2020
44 Snow 3 988 93 3700 8.7 260 14:18 28.01.2020
45 Rain 3 985 93 10000 7.2 230 13:41 28.01.2020
46 Rain 3 986 93 4600 8.7 250 13:23 28.01.2020
47 Rain 4 985 87 5000 4.6 210 12:43 28.01.2020
48 Drizzle 4 986 93 10000 6.2 240 12:24 28.01.2020
49 Rain 5 985 87 10000 3.6 200 11:58 28.01.2020
50 Rain 5 985 87 10000 3.6 200 11:39 28.01.2020
51 Clouds 6 985 87 10000 5.7 190 11:20 28.01.2020
52 Clouds 6 986 87 10000 4.1 200 10:42 28.01.2020
53 Clouds 5 985 93 10000 4.6 200 10:24 28.01.2020
54 Clouds 5 986 86 10000 4.1 200 09:58 28.01.2020
55 Clouds 5 986 86 10000 4.1 200 09:38 28.01.2020
56 Clouds 5 986 81 10000 4.6 210 09:19 28.01.2020
57 Clouds 5 987 87 10000 5.7 220 08:44 28.01.2020
58 Clouds 5 987 93 10000 5.7 200 08:25 28.01.2020
59 Clouds 6 987 87 10000 5.7 220 07:42 28.01.2020
60 Clouds 6 987 87 10000 8.2 220 07:23 28.01.2020
61 Rain 6 987 87 10000 5.7 220 06:44 28.01.2020
62 Clouds 6 988 93 10000 7.7 210 06:23 28.01.2020
63 Clouds 6 988 87 10000 5.7 220 05:37 28.01.2020
64 Drizzle 6 988 93 6000 6.2 210 05:19 28.01.2020
65 Drizzle 6 988 93 8000 6.2 160 03:46 28.01.2020
66 Drizzle 6 989 93 8000 5.1 150 02:44 28.01.2020
67 Drizzle 6 989 93 10000 5.1 160 02:25 28.01.2020
68 Drizzle 6 991 93 8000 5.1 150 01:53 28.01.2020
69 Drizzle 6 993 93 8000 4.6 150 01:20 28.01.2020
70 Drizzle 6 993 93 8000 4.6 150 00:43 28.01.2020
71 Rain 6 992 93 10000 4.6 150 00:19 28.01.2020
72 Clouds 7 995 93 8000 3.1 160 23:43 27.01.2020
73 Clouds 7 996 93 8000 3.6 160 23:19 27.01.2020
74 Clouds 7 996 93 10000 4.1 170 22:45 27.01.2020
75 Clouds 7 996 93 10000 4.1 170 22:20 27.01.2020
76 Clouds 7 996 93 10000 4.1 170 22:20 27.01.2020
77 Clouds 7 996 93 10000 4.1 170 22:20 27.01.2020
78 Clouds 7 997 93 10000 3.6 170 21:57 27.01.2020
79 Clouds 7 997 93 10000 3.6 170 21:57 27.01.2020
80 Clouds 7 997 93 10000 3.6 170 21:39 27.01.2020
81 Clouds 7 997 93 10000 4.1 170 21:19 27.01.2020
82 Clouds 7 999 93 10000 3.6 180 20:57 27.01.2020
83 Clouds 7 999 93 10000 3.6 180 20:38 27.01.2020
84 Clouds 7 998 93 10000 3.6 170 20:19 27.01.2020
85 Clouds 7 1000 93 10000 3.1 180 19:56 27.01.2020
86 Clouds 7 1000 93 10000 3.1 180 19:38 27.01.2020
87 Clouds 7 999 93 10000 3.6 170 19:19 27.01.2020
88 Clouds 8 1000 93 10000 3.1 180 18:40 27.01.2020
89 Clouds 8 1000 93 10000 3.6 190 18:21 27.01.2020
90 Clouds 8 1001 93 10000 3.6 180 17:58 27.01.2020
91 Clouds 8 1001 93 10000 3.6 180 17:38 27.01.2020
92 Clouds 8 1001 93 10000 4.1 180 17:19 27.01.2020
93 Clouds 8 1001 87 10000 3.1 190 16:56 27.01.2020
94 Clouds 9 1001 87 10000 3.1 190 16:37 27.01.2020
95 Clouds 9 1002 87 10000 3.1 200 16:19 27.01.2020
96 Clouds 9 1002 81 10000 5.1 200 15:41 27.01.2020
97 Clouds 9 1002 87 10000 4.1 190 15:20 27.01.2020
98 Clouds 9 1003 87 10000 6.2 210 14:59 27.01.2020
99 Clouds 9 1003 87 10000 6.2 210 14:40 27.01.2020
100 Clouds 9 1003 87 10000 5.7 210 14:21 27.01.2020
101 Clouds 9 1003 87 10000 5.1 210 13:46 27.01.2020
102 Clouds 9 1003 87 10000 5.7 210 13:24 27.01.2020
103 Clouds 9 1004 87 10000 5.1 210 12:58 27.01.2020
104 Rain 9 1004 93 10000 5.7 200 12:39 27.01.2020
105 Clouds 8 1004 87 10000 6.2 210 12:21 27.01.2020
106 Clouds 8 1004 93 10000 5.1 210 11:43 27.01.2020
107 Clouds 8 1004 93 10000 5.1 210 11:43 27.01.2020
108 Clouds 8 1004 100 10000 5.7 200 11:22 27.01.2020
109 Clouds 8 1005 87 10000 4.6 200 10:57 27.01.2020
110 Clouds 8 1005 87 10000 4.6 200 10:39 27.01.2020
111 Clouds 8 1005 87 10000 4.6 200 10:20 27.01.2020
112 Clouds 8 1005 87 10000 5.1 220 09:40 27.01.2020
113 Clouds 8 1005 93 9000 4.6 200 09:19 27.01.2020
114 Clouds 8 1005 93 10000 5.1 210 08:57 27.01.2020
115 Clouds 7 1005 93 10000 5.1 210 08:39 27.01.2020
116 Clouds 7 1005 93 10000 5.7 200 08:19 27.01.2020
117 Drizzle 7 1005 93 6000 5.7 210 07:47 27.01.2020
118 Drizzle 7 1005 93 6000 5.7 210 07:47 27.01.2020
119 Clouds 7 1005 100 10000 6.2 200 07:29 27.01.2020
120 Drizzle 7 1005 93 4500 5.7 210 06:39 27.01.2020
121 Drizzle 7 1006 100 4500 5.1 190 05:51 27.01.2020
122 Drizzle 7 1006 93 9000 7.2 200 05:18 27.01.2020
123 Drizzle 6 1007 93 6000 5.7 190 03:36 27.01.2020
124 Clouds 7 1009 87 10000 4.1 190 01:57 27.01.2020
125 Clouds 7 1008 87 10000 6.2 190 01:28 27.01.2020
126 Clouds 7 1008 87 10000 6.2 190 01:28 27.01.2020
127 Clouds 6 1009 87 10000 5.1 180 00:42 27.01.2020
128 Clouds 6 1009 87 10000 5.1 180 00:22 27.01.2020
129 Clouds 6 1009 87 10000 5.1 180 00:22 27.01.2020
130 Clouds 6 1010 93 10000 3.6 180 23:58 26.01.2020
131 Clouds 6 1010 93 10000 3.6 180 23:39 26.01.2020
132 Clouds 6 1010 93 10000 4.1 180 23:18 26.01.2020
133 Clouds 6 1011 93 9000 3.6 180 22:39 26.01.2020
134 Clouds 6 1010 87 10000 4.6 190 22:20 26.01.2020
135 Clouds 6 1011 93 9000 3.6 180 21:58 26.01.2020
136 Clouds 6 1011 93 9000 3.6 180 21:40 26.01.2020
137 Clouds 5 1011 93 8000 4.1 180 21:21 26.01.2020
138 Clouds 5 1011 86 8000 4.1 180 20:58 26.01.2020
139 Clouds 5 1011 86 8000 4.1 180 20:39 26.01.2020
140 Clear 5 1011 93 7000 3.6 170 20:20 26.01.2020
141 Clouds 5 1012 93 8000 2.6 180 19:59 26.01.2020
142 Clouds 5 1012 93 8000 2.6 180 19:39 26.01.2020
143 Clouds 5 1012 93 8000 2.6 180 19:39 26.01.2020
144 Clouds 5 1011 93 7000 3.6 170 19:21 26.01.2020
145 Clouds 5 1012 93 8000 2.6 180 18:58 26.01.2020
146 Clouds 5 1012 93 8000 2.6 180 18:39 26.01.2020
147 Clear 5 1012 93 7000 2.6 160 18:21 26.01.2020
148 Clouds 5 1012 93 8000 3.1 170 17:57 26.01.2020
149 Clouds 5 1012 93 8000 3.1 170 17:38 26.01.2020
150 Clear 5 1012 93 8000 2.6 190 17:18 26.01.2020
151 Clear 5 1012 93 8000 2.6 190 17:18 26.01.2020
152 Clouds 5 1013 86 9000 3.6 170 16:57 26.01.2020
153 Clouds 5 1013 86 9000 3.6 170 16:39 26.01.2020
154 Clear 6 1012 87 8000 3.1 180 16:20 26.01.2020
155 Clear 6 1012 87 8000 3.1 180 16:20 26.01.2020
156 Clouds 6 1013 86 9000 4.1 190 15:46 26.01.2020
157 Clouds 6 1013 86 8000 4.1 180 15:22 26.01.2020
158 Clouds 6 1013 86 8000 4.1 180 14:58 26.01.2020
159 Clouds 6 1013 86 8000 4.1 180 14:39 26.01.2020
160 Clouds 5 1014 86 8000 3.6 180 14:19 26.01.2020
161 Clouds 5 1014 93 7000 3.6 170 13:42 26.01.2020
162 Clouds 4 1014 93 6000 4.1 170 13:20 26.01.2020
163 Clouds 4 1014 94 0 2.68 172 12:57 26.01.2020
164 Clouds 4 1014 95 0 2.68 338 12:39 26.01.2020
165 Mist 3 1015 93 1600 4.6 170 12:21 26.01.2020
166 Mist 3 1015 93 1600 4.6 170 12:21 26.01.2020
167 Clouds 3 1015 95 0 2.68 177 11:57 26.01.2020
168 Clouds 3 1015 95 0 2.68 177 11:57 26.01.2020
169 Clouds 3 1015 95 0 2.68 146 11:38 26.01.2020
170 Fog 2 1016 83 300 5.1 170 11:18 26.01.2020
171 Mist 2 1015 100 1600 3.6 150 10:58 26.01.2020
172 Mist 2 1015 100 1600 3.6 150 10:38 26.01.2020
173 Mist 1 1015 100 1600 3.6 150 10:20 26.01.2020
174 Fog 1 1015 100 800 4.1 160 09:57 26.01.2020
175 Fog 1 1015 100 600 4.1 160 09:39 26.01.2020
176 Fog 1 1015 100 600 4.1 160 09:20 26.01.2020
177 Mist 1 1016 83 3000 4.6 170 08:43 26.01.2020
178 Fog 1 1015 100 900 4.1 150 08:22 26.01.2020
179 Mist 1 1016 78 5000 3.6 170 07:56 26.01.2020
180 Mist 1 1016 78 5000 3.6 170 07:38 26.01.2020
181 Fog 1 1016 100 750 4.6 160 07:20 26.01.2020
182 Mist 1 1016 100 1700 4.1 160 06:30 26.01.2020
183 Mist 1 1017 78 2300 3.6 160 05:31 26.01.2020
184 Clouds 1 1017 93 7000 3.1 190 04:45 26.01.2020
185 Clouds 2 1017 81 7000 3.1 190 02:42 26.01.2020
186 Clouds 2 1018 86 7000 4.1 180 01:48 26.01.2020
187 Mist 2 1018 93 4100 3.6 180 01:24 26.01.2020
188 Clouds 2 1018 93 6000 3.6 190 00:48 26.01.2020
189 Mist 2 1019 93 4200 4.1 190 00:29 26.01.2020
190 Clouds 2 1019 93 6000 3.6 210 23:41 25.01.2020
191 Clouds 2 1019 93 6000 3.6 210 23:22 25.01.2020
192 Clouds 2 1019 93 6000 3.6 210 22:59 25.01.2020
193 Clouds 2 1019 93 6000 3.6 210 22:40 25.01.2020
194 Clouds 2 1017 91 0 0.45 242 22:19 25.01.2020
195 Clouds 2 1019 91 0 2.24 174 21:57 25.01.2020
196 Mist 2 1019 93 5000 3.6 200 21:38 25.01.2020
197 Mist 2 1019 93 5000 3.6 200 21:38 25.01.2020
198 Mist 2 1019 93 5000 3.6 200 21:20 25.01.2020
199 Clouds 2 1019 85 0 5.22 203 20:44 25.01.2020
200 Mist 2 1019 93 4500 4.1 210 20:44 25.01.2020
201 Mist 2 1019 93 4500 4.1 210 20:25 25.01.2020
202 Mist 2 1019 93 4500 4.1 210 20:25 25.01.2020
203 Clouds 3 1019 82 0 4.89 197 19:56 25.01.2020
204 Clouds 2 1019 91 0 2.24 185 19:37 25.01.2020
205 Clouds 3 1019 91 0 2.24 338 19:18 25.01.2020
206 Mist 3 1019 86 4500 3.6 210 18:43 25.01.2020
207 Mist 3 1019 86 4500 3.6 210 18:22 25.01.2020
208 Mist 3 1019 86 4500 3.6 210 17:58 25.01.2020
209 Mist 3 1019 86 4500 3.6 210 17:38 25.01.2020
210 Mist 3 1019 93 4500 3.6 220 17:19 25.01.2020
211 Mist 3 1019 93 4500 3.6 220 16:56 25.01.2020
212 Mist 3 1019 93 4500 3.6 220 16:36 25.01.2020
213 Mist 3 1020 93 4000 3.6 220 16:18 25.01.2020
214 Mist 3 1020 93 3800 4.1 210 15:42 25.01.2020
215 Mist 3 1020 93 3800 4.1 210 15:23 25.01.2020
216 Mist 3 1020 93 3800 4.1 210 14:46 25.01.2020
217 Drizzle 3 1020 93 3500 4.1 220 14:19 25.01.2020
218 Drizzle 3 1020 93 3500 4.1 220 13:57 25.01.2020
219 Drizzle 3 1020 93 3500 4.1 220 13:39 25.01.2020
220 Drizzle 3 1021 93 3500 3.6 220 13:18 25.01.2020
221 Drizzle 3 1021 93 3500 4.1 220 12:42 25.01.2020
222 Drizzle 3 1021 93 3500 4.1 220 12:21 25.01.2020
223 Drizzle 3 1021 93 3500 4.1 220 11:45 25.01.2020
224 Mist 3 1021 93 3200 4.6 200 11:21 25.01.2020
225 Drizzle 3 1020 93 3000 3.6 220 10:58 25.01.2020
226 Drizzle 3 1020 93 3000 3.6 220 10:40 25.01.2020
227 Mist 3 1020 93 2800 5.1 200 10:20 25.01.2020
228 Drizzle 3 1020 93 2500 3.6 220 09:41 25.01.2020
229 Mist 3 1020 93 3000 4.6 200 09:22 25.01.2020
230 Drizzle 3 1020 93 3000 2.6 230 08:44 25.01.2020
231 Mist 3 1020 93 2800 5.1 200 08:22 25.01.2020
232 Drizzle 3 1020 93 3500 2.6 220 07:49 25.01.2020
233 Drizzle 3 1019 93 3000 2.6 230 06:51 25.01.2020
234 Drizzle 3 1019 93 3000 2.6 230 06:51 25.01.2020
235 Mist 3 1020 93 2400 3.6 210 06:27 25.01.2020
236 Drizzle 3 1019 93 3000 2.6 220 05:46 25.01.2020
237 Drizzle 3 1020 93 3000 3.1 230 04:50 25.01.2020
238 Drizzle 3 1020 93 3000 2.6 230 03:51 25.01.2020
239 Drizzle 3 1020 93 2500 3.1 230 02:57 25.01.2020
240 Drizzle 3 1021 100 2200 3.6 210 02:18 25.01.2020
241 Drizzle 3 1020 93 3500 3.6 230 01:43 25.01.2020
242 Mist 3 1020 93 3500 4.1 220 00:44 25.01.2020
243 Mist 3 1021 93 2800 3.6 210 00:26 25.01.2020
244 Mist 3 1021 93 3500 3.6 220 23:58 24.01.2020
245 Mist 3 1021 93 3500 3.6 220 23:40 24.01.2020
246 Mist 3 1021 93 2700 4.6 210 23:22 24.01.2020
247 Mist 3 1021 93 3500 4.1 220 22:44 24.01.2020
248 Mist 3 1021 93 3100 4.6 210 22:25 24.01.2020
249 Mist 3 1021 93 2000 3.6 220 21:43 24.01.2020
250 Mist 3 1021 93 3200 4.6 210 21:21 24.01.2020
251 Mist 3 1021 93 2000 3.6 230 20:59 24.01.2020
252 Mist 3 1021 93 2000 3.6 230 20:40 24.01.2020
253 Mist 3 1021 93 3400 4.1 210 20:21 24.01.2020
254 Mist 3 1021 93 2000 3.6 220 19:57 24.01.2020
255 Mist 3 1021 93 2000 3.6 220 19:38 24.01.2020
256 Mist 3 1021 93 4500 3.6 210 19:20 24.01.2020
257 Drizzle 3 1021 93 1800 3.6 220 18:43 24.01.2020
258 Mist 3 1021 93 4800 4.1 210 18:24 24.01.2020
259 Drizzle 3 1021 93 50 2.6 230 17:56 24.01.2020
260 Drizzle 3 1021 93 50 2.6 230 17:38 24.01.2020
261 Mist 3 1021 86 3800 3.6 220 17:18 24.01.2020
262 Mist 3 1021 93 2200 3.1 220 16:39 24.01.2020
263 Mist 3 1021 93 3500 3.1 220 16:21 24.01.2020
264 Drizzle 3 1021 93 2000 4.1 230 15:43 24.01.2020
265 Mist 3 1021 93 3000 4.6 220 15:23 24.01.2020
266 Mist 3 1021 93 2500 3.6 220 14:59 24.01.2020
267 Mist 3 1021 93 2500 3.6 220 14:40 24.01.2020
268 Mist 3 1021 93 3100 4.6 210 14:22 24.01.2020
269 Mist 3 1021 93 2500 4.6 220 13:43 24.01.2020
270 Mist 3 1021 93 2500 4.6 230 13:23 24.01.2020
271 Mist 3 1022 93 3000 4.1 240 12:45 24.01.2020
272 Mist 2 1023 93 3200 4.6 210 12:23 24.01.2020
273 Mist 2 1022 93 2000 3.6 220 11:58 24.01.2020
274 Mist 2 1022 93 2000 3.6 220 11:39 24.01.2020
275 Mist 2 1022 93 2000 3.6 230 11:18 24.01.2020
276 Mist 2 1022 100 1500 3.6 210 10:43 24.01.2020
277 Mist 2 1022 100 1500 2.6 220 10:21 24.01.2020
278 Mist 2 1022 93 3000 3.1 210 09:56 24.01.2020
279 Mist 2 1022 93 3000 3.1 210 09:37 24.01.2020
280 Mist 2 1023 93 1500 2.6 240 09:18 24.01.2020
281 Mist 2 1023 100 1500 2.1 240 08:40 24.01.2020
282 Mist 2 1022 100 2000 4.1 210 08:19 24.01.2020
283 Mist 2 1022 100 2000 2.6 220 07:49 24.01.2020
284 Mist 2 1023 100 1600 3.6 220 07:28 24.01.2020
285 Mist 2 1022 100 1500 2.6 230 06:46 24.01.2020
286 Mist 2 1023 93 1300 3.6 200 06:28 24.01.2020
287 Drizzle 2 1022 100 800 3.1 200 05:57 24.01.2020
288 Fog 2 1023 100 700 3.6 200 04:52 24.01.2020
289 Mist 2 1024 93 1200 3.6 210 02:53 24.01.2020
290 Mist 2 1025 100 1900 2.6 170 02:23 24.01.2020
291 Mist 2 1025 100 3500 2.6 210 01:40 24.01.2020
292 Mist 2 1026 100 1700 2.1 180 01:19 24.01.2020
293 Mist 2 1026 100 3200 2.6 220 00:20 24.01.2020
294 Mist 2 1026 100 3500 3.1 230 23:48 23.01.2020
295 Mist 2 1027 100 2200 2.1 220 23:30 23.01.2020
296 Mist 2 1027 93 3500 2.6 220 22:59 23.01.2020
297 Mist 2 1027 93 3500 2.6 220 22:37 23.01.2020
298 Mist 2 1027 100 1300 2.1 210 22:19 23.01.2020
299 Clouds 2 1027 93 7000 2.1 220 21:57 23.01.2020
300 Clouds 3 1027 93 7000 2.1 220 21:38 23.01.2020
301 Fog 3 1028 100 900 2.1 220 21:20 23.01.2020
302 Clouds 3 1028 93 7000 2.6 240 20:58 23.01.2020
303 Clouds 3 1028 93 7000 2.6 240 20:38 23.01.2020
304 Fog 3 1028 100 900 3.1 180 20:19 23.01.2020
305 Clouds 3 1028 93 8000 2.6 220 19:54 23.01.2020
306 Clouds 3 1028 93 8000 2.6 220 19:36 23.01.2020
307 Mist 3 1028 100 1600 2.1 170 19:18 23.01.2020
308 Clouds 3 1028 93 10000 2.6 220 18:42 23.01.2020
309 Clouds 4 1029 93 6000 1.5 180 18:20 23.01.2020
310 Clouds 4 1029 93 10000 2.1 220 17:58 23.01.2020
311 Clouds 4 1029 93 10000 2.1 220 17:40 23.01.2020
312 Clouds 4 1029 93 10000 1.5 180 17:20 23.01.2020
313 Clouds 4 1029 93 10000 2.6 230 16:56 23.01.2020
314 Clouds 4 1029 93 10000 2.6 230 16:36 23.01.2020
315 Clouds 4 1029 93 10000 2.6 200 16:18 23.01.2020
316 Clouds 4 1029 86 10000 3.6 250 15:54 23.01.2020
317 Clouds 4 1029 86 10000 3.6 250 15:36 23.01.2020
318 Clouds 4 1030 93 10000 2.1 220 15:18 23.01.2020
319 Clouds 4 1030 93 10000 2.1 220 15:18 23.01.2020
320 Clouds 4 1030 93 10000 2.6 240 14:54 23.01.2020
321 Clouds 4 1030 93 10000 2.6 240 14:36 23.01.2020
322 Clouds 4 1031 93 10000 3.1 240 14:18 23.01.2020
323 Clouds 4 1031 100 10000 2.1 220 13:39 23.01.2020
324 Clouds 4 1031 100 10000 2.1 220 13:39 23.01.2020
325 Clouds 4 1032 93 7000 2.1 210 13:20 23.01.2020
326 Fog 3 1032 93 800 2.1 220 12:47 23.01.2020
327 Fog 3 1033 100 200 1.5 200 12:25 23.01.2020
328 Fog 3 1033 93 200 1.5 170 11:59 23.01.2020
329 Fog 2 1033 93 200 1.5 170 11:39 23.01.2020
330 Fog 2 1033 93 200 1 160 11:19 23.01.2020
331 Fog 1 1033 87 200 1.5 0 10:45 23.01.2020
332 Mist 1 1033 100 5000 1 0 10:23 23.01.2020
333 Fog 1 1034 100 200 1 190 09:59 23.01.2020
334 Fog 1 1034 100 200 1 190 09:39 23.01.2020
335 Mist 1 1034 90 2500 1 140 09:20 23.01.2020
336 Fog 1 1034 100 200 1 230 08:43 23.01.2020
337 Fog 1 1034 87 500 0.5 170 08:24 23.01.2020
338 Fog 0 1034 100 500 0.5 230 07:49 23.01.2020
339 Fog 0 1034 85 250 1 190 07:27 23.01.2020
340 Fog 0 1034 100 400 1 0 06:54 23.01.2020
341 Fog 0 1034 85 500 0.5 160 06:24 23.01.2020
342 Fog 0 1034 100 300 1 260 05:59 23.01.2020
343 Fog 1 1035 86 300 1 250 04:24 23.01.2020
344 Fog 1 1035 86 500 1 230 02:48 23.01.2020
345 Fog 1 1035 87 500 1.5 210 01:50 23.01.2020
346 Fog 1 1035 88 600 1.5 270 00:41 23.01.2020
347 Fog 2 1036 88 400 0.5 250 00:20 23.01.2020
348 Fog 2 1035 100 10000 1 260 23:45 22.01.2020
349 Fog 2 1036 88 350 0.5 250 23:27 22.01.2020
350 Fog 3 1035 100 10000 1.5 320 22:43 22.01.2020
351 Fog 3 1036 90 550 1 250 22:24 22.01.2020
352 Fog 3 1035 93 10000 1.5 290 21:58 22.01.2020
353 Fog 3 1035 93 10000 1.5 290 21:36 22.01.2020
354 Fog 3 1035 93 10000 1.5 290 21:36 22.01.2020
355 Clouds 4 1035 93 10000 1.5 310 21:18 22.01.2020
356 Clouds 4 1035 93 10000 1.5 310 20:42 22.01.2020
357 Clouds 5 1035 86 10000 2.1 300 20:23 22.01.2020
358 Clouds 5 1035 86 10000 2.1 300 19:59 22.01.2020
359 Clouds 5 1035 86 10000 2.1 300 19:41 22.01.2020
360 Clouds 5 1035 87 10000 1.5 320 19:20 22.01.2020
361 Clouds 5 1035 87 10000 1.5 320 18:58 22.01.2020
362 Clouds 6 1035 87 10000 1.5 320 18:39 22.01.2020
363 Clouds 6 1035 93 10000 1.5 290 18:21 22.01.2020
364 Clouds 6 1034 87 10000 2.6 300 17:57 22.01.2020
365 Clouds 6 1034 87 10000 2.6 300 17:57 22.01.2020
366 Clouds 6 1034 87 10000 2.6 300 17:39 22.01.2020
367 Clouds 6 1034 87 10000 2.6 300 17:39 22.01.2020
368 Clouds 7 1035 87 10000 2.6 330 17:19 22.01.2020
369 Clouds 7 1034 81 10000 4.1 330 16:55 22.01.2020
370 Clouds 7 1034 81 10000 4.1 330 16:55 22.01.2020
371 Clouds 7 1034 81 10000 4.1 330 16:37 22.01.2020
372 Clouds 7 1035 87 10000 2.1 350 16:18 22.01.2020
373 Clouds 8 1034 75 10000 5.1 330 15:41 22.01.2020
374 Clouds 8 1034 75 10000 5.1 340 15:23 22.01.2020
375 Clouds 8 1034 75 10000 5.1 340 14:59 22.01.2020
376 Clouds 8 1034 75 10000 5.1 340 14:38 22.01.2020
377 Clouds 8 1035 87 10000 3.6 320 14:20 22.01.2020
378 Clouds 8 1035 75 10000 5.1 340 13:56 22.01.2020
379 Clouds 8 1035 75 10000 5.1 340 13:37 22.01.2020
380 Clouds 8 1035 87 10000 3.6 310 13:19 22.01.2020
381 Clouds 8 1034 81 10000 3.6 320 12:56 22.01.2020
382 Clouds 8 1034 81 10000 3.6 320 12:56 22.01.2020
383 Clouds 8 1034 81 10000 3.6 320 12:38 22.01.2020
384 Clouds 8 1034 87 10000 3.1 320 12:19 22.01.2020
385 Clouds 7 1034 87 10000 3.1 320 11:56 22.01.2020
386 Clouds 7 1034 87 10000 3.1 320 11:38 22.01.2020
387 Clouds 7 1035 87 10000 4.1 330 11:19 22.01.2020
388 Clouds 7 1035 87 10000 4.1 330 11:19 22.01.2020
389 Clouds 7 1034 93 10000 2.6 310 10:45 22.01.2020
390 Mist 7 1035 100 3600 2.1 290 10:21 22.01.2020
391 Clouds 7 1034 93 10000 2.6 320 09:58 22.01.2020
392 Clouds 7 1034 93 10000 2.6 320 09:40 22.01.2020
393 Clouds 6 1034 93 8000 4.1 330 09:21 22.01.2020
394 Drizzle 6 1034 93 5000 3.6 310 08:55 22.01.2020
395 Drizzle 6 1034 93 5000 3.6 310 08:37 22.01.2020
396 Drizzle 6 1033 93 4000 3.1 320 08:19 22.01.2020
397 Drizzle 6 1033 100 1600 2.6 300 07:44 22.01.2020
398 Drizzle 6 1033 100 1600 4.1 290 07:26 22.01.2020
399 Drizzle 5 1033 100 2500 4.1 280 06:36 22.01.2020
400 Drizzle 5 1033 100 1500 4.1 280 05:57 22.01.2020
401 Drizzle 4 1034 93 3000 4.6 260 04:26 22.01.2020
402 Mist 4 1034 93 3000 4.1 250 03:27 22.01.2020
403 Mist 4 1035 86 4500 4.1 250 02:48 22.01.2020
404 Clouds 4 1036 86 9000 3.6 250 00:48 22.01.2020
405 Mist 4 1037 100 1900 4.1 230 00:28 22.01.2020
406 Clouds 4 1036 86 9000 3.6 250 23:59 21.01.2020
407 Clouds 4 1036 86 9000 3.6 250 23:37 21.01.2020
408 Mist 4 1037 100 2300 4.1 220 23:19 21.01.2020
409 Clouds 4 1036 86 10000 2.6 240 22:42 21.01.2020
410 Mist 4 1037 93 1200 3.6 230 22:23 21.01.2020
411 Clouds 4 1037 81 10000 3.1 260 21:58 21.01.2020
412 Clouds 4 1037 81 10000 3.1 260 21:39 21.01.2020
413 Mist 4 1037 100 3200 4.1 230 21:21 21.01.2020
414 Clouds 4 1037 86 10000 3.6 250 20:57 21.01.2020
415 Clouds 5 1037 86 10000 3.6 250 20:39 21.01.2020
416 Mist 5 1038 100 3100 2.6 240 20:20 21.01.2020
417 Clouds 5 1037 86 10000 5.1 270 19:58 21.01.2020
418 Clouds 5 1037 86 10000 5.1 270 19:39 21.01.2020
419 Mist 5 1038 100 3400 4.6 240 19:21 21.01.2020
420 Clouds 4 1037 86 10000 4.6 260 18:57 21.01.2020
421 Clouds 5 1037 86 10000 4.6 260 18:39 21.01.2020
422 Clouds 5 1037 86 10000 4.6 260 18:39 21.01.2020
423 Mist 5 1038 100 3200 3.1 230 18:20 21.01.2020
424 Clouds 5 1037 86 10000 4.1 260 17:56 21.01.2020
425 Clouds 5 1037 86 10000 4.1 260 17:38 21.01.2020
426 Mist 5 1038 93 4300 4.1 220 17:18 21.01.2020
427 Clouds 5 1037 86 7000 4.6 220 16:38 21.01.2020
428 Mist 6 1039 87 5000 3.6 240 16:19 21.01.2020
429 Mist 6 1038 86 5000 4.1 230 15:59 21.01.2020
430 Mist 6 1038 86 5000 4.1 230 15:38 21.01.2020
431 Clouds 6 1039 87 9000 4.1 250 15:19 21.01.2020
432 Mist 6 1039 93 4500 4.1 250 14:40 21.01.2020
433 Clear 6 1039 81 9000 4.6 230 14:21 21.01.2020
434 Clouds 6 1040 87 8000 4.1 240 13:55 21.01.2020
435 Mist 5 1039 93 3000 4.1 250 13:37 21.01.2020
436 Clouds 5 1040 93 6000 4.1 230 13:18 21.01.2020
437 Mist 4 1040 93 4000 4.6 250 12:42 21.01.2020
438 Mist 4 1040 93 4000 5.7 260 12:24 21.01.2020
439 Mist 4 1040 93 4000 4.1 260 11:56 21.01.2020
440 Mist 4 1040 93 4000 4.1 260 11:38 21.01.2020
441 Clouds 3 1041 93 6000 4.6 240 11:19 21.01.2020
442 Mist 3 1040 93 4500 5.7 260 10:43 21.01.2020
443 Mist 2 1041 93 4200 3.1 210 10:23 21.01.2020
444 Mist 2 1040 93 4000 4.6 250 09:56 21.01.2020
445 Mist 2 1040 93 4000 4.6 250 09:38 21.01.2020
446 Mist 2 1040 89 3200 2.6 230 09:20 21.01.2020
447 Mist 2 1040 93 4000 6.2 240 08:44 21.01.2020
448 Mist 2 1041 100 2700 4.6 230 08:26 21.01.2020
449 Mist 3 1040 100 2500 5.1 230 07:43 21.01.2020
450 Mist 3 1041 100 2600 5.1 210 07:25 21.01.2020
451 Mist 3 1040 100 2000 4.6 240 06:58 21.01.2020
452 Mist 3 1040 100 2000 4.6 240 06:38 21.01.2020
453 Mist 3 1041 100 2300 4.6 220 06:20 21.01.2020
454 Mist 3 1040 93 1800 5.1 240 05:40 21.01.2020
455 Mist 3 1040 100 4000 4.1 230 04:38 21.01.2020
456 Mist 3 1042 100 3700 4.1 200 02:29 21.01.2020
457 Clouds 3 1042 93 10000 3.6 210 01:36 21.01.2020
458 Clouds 3 1042 93 10000 3.1 230 00:52 21.01.2020
459 Clear 3 1043 100 7000 4.6 210 00:29 21.01.2020
460 Clouds 3 1042 93 8000 3.6 220 23:56 20.01.2020
461 Clouds 3 1042 93 8000 3.6 220 23:36 20.01.2020
462 Clouds 3 1042 93 8000 3.6 220 23:36 20.01.2020
463 Clear 3 1043 100 6000 3.6 210 23:18 20.01.2020
464 Clouds 3 1043 100 8000 2.6 230 22:55 20.01.2020
465 Clouds 3 1043 100 8000 2.6 230 22:36 20.01.2020
466 Clear 4 1044 100 6000 3.6 210 22:18 20.01.2020
467 Clouds 4 1043 93 10000 3.1 230 21:55 20.01.2020
468 Clouds 4 1043 93 10000 3.1 230 21:36 20.01.2020
469 Clear 4 1044 100 7000 3.6 220 21:18 20.01.2020
470 Clouds 4 1044 93 10000 3.1 240 20:54 20.01.2020
471 Clouds 4 1044 93 10000 3.1 240 20:36 20.01.2020
472 Clouds 4 1044 93 10000 3.6 210 20:18 20.01.2020
473 Clouds 4 1044 93 10000 3.1 210 19:54 20.01.2020
474 Clouds 4 1044 93 10000 3.1 210 19:36 20.01.2020
475 Clouds 5 1044 93 10000 3.1 210 19:18 20.01.2020
476 Clouds 5 1044 86 10000 2.1 230 18:42 20.01.2020
477 Clouds 5 1044 93 10000 3.6 220 18:21 20.01.2020
478 Clouds 6 1044 93 10000 3.1 240 17:39 20.01.2020
479 Clouds 6 1044 87 10000 3.1 230 17:19 20.01.2020
480 Clouds 6 1044 81 10000 3.1 240 16:55 20.01.2020
481 Clouds 7 1044 81 10000 3.1 240 16:36 20.01.2020
482 Clouds 7 1045 87 10000 4.1 230 16:18 20.01.2020
483 Clouds 7 1044 81 10000 3.6 250 15:41 20.01.2020
484 Clouds 7 1045 87 10000 3.6 230 15:22 20.01.2020
485 Clouds 7 1045 81 10000 4.6 230 14:59 20.01.2020
486 Clouds 7 1045 81 10000 4.6 230 14:41 20.01.2020
487 Clouds 7 1046 87 10000 4.1 230 14:21 20.01.2020
488 Clouds 7 1045 93 10000 3.6 230 13:57 20.01.2020
489 Clouds 6 1045 93 10000 3.6 230 13:38 20.01.2020
490 Clouds 6 1046 93 10000 3.6 220 13:20 20.01.2020
491 Clouds 6 1046 87 10000 3.6 230 12:44 20.01.2020
492 Clouds 6 1046 93 10000 3.1 210 12:25 20.01.2020
493 Clouds 5 1046 93 10000 3.1 210 12:25 20.01.2020
494 Clouds 5 1046 93 10000 2.1 240 11:56 20.01.2020
495 Clouds 5 1046 93 10000 2.1 240 11:37 20.01.2020
496 Clouds 5 1046 93 10000 2.6 230 11:19 20.01.2020
497 Clouds 4 1046 93 10000 2.1 240 10:47 20.01.2020
498 Clouds 4 1046 100 9000 2.1 240 10:21 20.01.2020
499 Clouds 4 1046 93 10000 2.1 230 09:42 20.01.2020
500 Clouds 4 1046 100 8000 2.1 210 09:24 20.01.2020
501 Clouds 3 1045 100 9000 2.1 240 08:59 20.01.2020
502 Clouds 3 1045 100 9000 2.1 240 08:39 20.01.2020
503 Clouds 3 1046 100 6000 3.1 230 08:20 20.01.2020
504 Clouds 3 1045 100 8000 1.5 200 07:42 20.01.2020
505 Fog 3 1045 93 6000 2.1 250 07:22 20.01.2020
506 Fog 3 1045 93 6000 2.1 250 06:45 20.01.2020
507 Fog 3 1045 100 6000 2.1 260 06:25 20.01.2020
508 Fog 2 1045 100 6000 2.1 260 05:41 20.01.2020
509 Mist 2 1045 85 3800 1.5 200 05:21 20.01.2020
510 Mist 2 1045 100 5000 2.6 220 04:33 20.01.2020
511 Fog 2 1045 93 3000 1.5 260 02:55 20.01.2020
512 Fog 2 1045 100 1600 2.6 250 01:42 20.01.2020
513 Fog 2 1045 100 2000 2.1 240 01:23 20.01.2020
514 Fog 2 1045 93 10000 1 250 00:43 20.01.2020
515 Mist 3 1045 85 2900 1 270 00:22 20.01.2020
516 Clouds 3 1044 100 10000 1.5 310 23:39 19.01.2020
517 Clear 4 1044 93 10000 2.6 320 23:19 19.01.2020
518 Clear 4 1044 93 10000 2.6 320 22:56 19.01.2020
519 Clear 4 1044 93 10000 2.6 320 22:38 19.01.2020
520 Clear 4 1044 93 10000 2.6 320 22:38 19.01.2020
521 Clouds 4 1044 93 7000 1.5 290 22:19 19.01.2020
522 Clouds 4 1043 93 10000 2.1 340 21:56 19.01.2020
523 Clouds 4 1043 93 10000 2.1 340 21:38 19.01.2020
524 Clouds 4 1044 93 10000 2.1 280 21:20 19.01.2020
525 Clouds 4 1042 93 10000 2.1 330 20:57 19.01.2020
526 Clouds 4 1042 93 10000 2.1 330 20:38 19.01.2020
527 Clouds 4 1043 93 9000 1.5 280 20:20 19.01.2020
528 Clouds 5 1042 86 10000 3.1 320 19:57 19.01.2020
529 Clouds 5 1042 86 10000 3.1 320 19:38 19.01.2020
530 Clouds 5 1043 86 10000 1 300 19:20 19.01.2020
531 Clouds 5 1041 93 10000 2.6 310 18:56 19.01.2020
532 Clouds 5 1041 93 10000 2.6 310 18:38 19.01.2020
533 Clouds 5 1042 93 10000 1.5 300 18:20 19.01.2020
534 Clouds 6 1041 87 10000 2.6 310 17:58 19.01.2020
535 Clouds 6 1041 87 10000 2.6 310 17:40 19.01.2020
536 Clouds 6 1041 81 10000 2.6 310 17:21 19.01.2020
537 Clear 6 1041 87 10000 2.1 320 16:59 19.01.2020
538 Clouds 6 1040 81 10000 3.6 330 16:39 19.01.2020
539 Clouds 7 1040 81 10000 3.6 320 16:21 19.01.2020
540 Clouds 7 1039 75 10000 5.1 320 15:58 19.01.2020
541 Clouds 7 1039 75 10000 5.1 320 15:38 19.01.2020
542 Clouds 8 1039 70 10000 4.6 340 15:20 19.01.2020
543 Clouds 8 1038 70 10000 5.1 340 14:58 19.01.2020
544 Clouds 8 1038 70 10000 5.1 340 14:39 19.01.2020
545 Clouds 8 1039 70 10000 5.7 340 14:18 19.01.2020
546 Clouds 8 1037 70 10000 6.2 350 13:57 19.01.2020
547 Clouds 8 1037 70 10000 6.2 350 13:38 19.01.2020
548 Clouds 8 1039 75 10000 2.6 320 13:19 19.01.2020
549 Clouds 7 1037 65 10000 4.1 350 12:55 19.01.2020
550 Clouds 7 1037 65 10000 4.1 350 12:37 19.01.2020
551 Clouds 7 1037 65 10000 4.1 350 12:37 19.01.2020
552 Clouds 7 1038 81 10000 3.1 310 12:19 19.01.2020
553 Clouds 6 1036 75 10000 3.1 340 11:42 19.01.2020
554 Rain 6 1037 80 10000 3.6 10 11:21 19.01.2020
555 Clouds 5 1035 81 10000 2.6 320 10:57 19.01.2020
556 Clouds 5 1035 81 10000 2.6 320 10:39 19.01.2020
557 Clouds 5 1035 81 10000 2.6 320 10:39 19.01.2020
558 Clouds 5 1036 93 10000 2.1 300 10:19 19.01.2020
559 Clouds 4 1034 93 10000 1 300 09:56 19.01.2020
560 Clouds 4 1034 93 10000 1 300 09:56 19.01.2020
561 Clouds 4 1034 93 10000 1 300 09:56 19.01.2020
562 Clouds 4 1034 93 10000 1 300 09:56 19.01.2020
563 Clouds 4 1034 93 10000 1 300 09:56 19.01.2020
564 Clouds 4 1034 93 10000 1 300 09:37 19.01.2020
565 Clouds 4 1035 93 10000 2.1 340 09:19 19.01.2020
566 Rain 4 1033 86 10000 5.1 320 08:52 19.01.2020
567 Clouds 3 1033 93 10000 1.5 300 08:30 19.01.2020
568 Clouds 3 1032 86 10000 4.6 10 07:46 19.01.2020
569 Clouds 3 1032 86 10000 2.1 340 07:27 19.01.2020
570 Clouds 3 1030 93 10000 2.1 300 06:54 19.01.2020
571 Rain 3 1031 86 10000 2.6 310 06:21 19.01.2020
572 Clouds 2 1028 93 10000 3.6 270 03:51 19.01.2020
573 Rain 2 1028 100 10000 2.1 250 02:28 19.01.2020
574 Clouds 3 1027 93 10000 2.6 240 01:38 19.01.2020
575 Clouds 3 1028 86 10000 3.1 270 01:18 19.01.2020
576 Clouds 3 1028 86 10000 3.1 270 01:18 19.01.2020
577 Clouds 3 1026 86 10000 3.1 250 00:41 19.01.2020
578 Clouds 3 1026 80 10000 3.6 270 00:19 19.01.2020
579 Clouds 3 1026 80 10000 3.6 270 23:45 18.01.2020
580 Rain 3 1027 93 5000 1.5 0 23:25 18.01.2020
581 Clouds 3 1025 86 10000 4.1 260 22:58 18.01.2020
582 Clouds 3 1025 86 10000 4.1 260 22:40 18.01.2020
583 Rain 3 1025 86 7000 3.1 250 22:21 18.01.2020
584 Clouds 3 1025 86 10000 3.6 290 21:58 18.01.2020
585 Clouds 3 1025 86 10000 3.6 290 21:38 18.01.2020
586 Rain 4 1024 86 10000 2.6 330 21:20 18.01.2020
587 Rain 3 1024 86 10000 2.6 330 20:56 18.01.2020
588 Rain 3 1024 86 10000 2.6 330 20:38 18.01.2020
589 Clouds 3 1025 93 10000 3.6 240 20:18 18.01.2020
590 Clouds 4 1023 86 10000 2.6 280 19:43 18.01.2020
591 Rain 4 1025 86 5000 3.1 310 19:24 18.01.2020
592 Clouds 4 1023 93 10000 2.6 230 18:43 18.01.2020
593 Rain 4 1024 80 10000 3.6 310 18:25 18.01.2020
594 Rain 4 1024 80 10000 3.6 310 18:25 18.01.2020
595 Clouds 4 1022 80 10000 3.1 270 17:59 18.01.2020
596 Clouds 4 1022 80 10000 3.1 270 17:40 18.01.2020
597 Clouds 4 1023 80 10000 3.1 260 17:20 18.01.2020
598 Clouds 5 1021 80 10000 3.1 270 16:57 18.01.2020
599 Clouds 5 1021 80 10000 3.1 270 16:38 18.01.2020
600 Clouds 5 1022 81 10000 3.6 250 16:19 18.01.2020
601 Clouds 5 1022 81 10000 3.6 250 16:19 18.01.2020
602 Clouds 5 1021 86 10000 2.1 250 15:47 18.01.2020
603 Clouds 5 1021 86 10000 2.1 250 15:47 18.01.2020
604 Clouds 5 1020 86 10000 4.6 240 15:26 18.01.2020
605 Clouds 6 1020 86 10000 4.6 240 15:00 18.01.2020
606 Clouds 6 1020 86 10000 4.6 240 14:41 18.01.2020
607 Clouds 6 1020 86 10000 4.1 240 14:19 18.01.2020
608 Rain 6 1020 86 10000 4.6 240 13:57 18.01.2020
609 Rain 6 1020 86 10000 4.6 240 13:36 18.01.2020
610 Rain 6 1020 86 10000 4.6 240 13:36 18.01.2020
611 Clouds 6 1021 81 10000 5.7 260 13:18 18.01.2020
612 Rain 6 1020 93 10000 5.7 250 12:43 18.01.2020
613 Clouds 6 1021 81 10000 6.7 240 12:22 18.01.2020
614 Rain 5 1019 86 8000 5.7 240 11:58 18.01.2020
615 Rain 5 1019 86 8000 5.7 240 11:40 18.01.2020
616 Clouds 5 1020 93 10000 5.1 210 11:20 18.01.2020
617 Rain 4 1019 93 4500 5.1 250 10:43 18.01.2020
618 Rain 4 1019 93 7000 4.6 230 10:22 18.01.2020
619 Clouds 4 1018 86 10000 5.1 220 09:57 18.01.2020
620 Clouds 4 1018 86 10000 5.1 220 09:39 18.01.2020
621 Clouds 3 1019 93 10000 5.7 210 09:19 18.01.2020
622 Clouds 3 1017 93 10000 5.1 230 08:42 18.01.2020
623 Clouds 3 1018 93 10000 5.7 210 08:20 18.01.2020
624 Clouds 4 1017 93 10000 5.1 220 07:59 18.01.2020
625 Clouds 3 1017 93 10000 5.1 220 07:39 18.01.2020
626 Clouds 3 1018 93 10000 6.2 220 07:18 18.01.2020
627 Clouds 3 1017 86 10000 5.7 220 06:44 18.01.2020
628 Clouds 4 1016 86 10000 5.1 220 05:52 18.01.2020
629 Clouds 4 1017 86 10000 5.7 210 04:25 18.01.2020
630 Clouds 4 1015 80 10000 6.7 240 02:49 18.01.2020
631 Rain 5 1014 81 10000 7.7 250 01:40 18.01.2020
632 Rain 6 1014 87 4500 8.2 250 00:39 18.01.2020
633 Clouds 6 1014 86 10000 8.2 250 00:20 18.01.2020
634 Clouds 6 1013 81 10000 8.2 240 23:59 17.01.2020
635 Clouds 6 1013 81 10000 8.2 240 23:40 17.01.2020
636 Clouds 6 1014 87 10000 8.2 250 23:18 17.01.2020
637 Clouds 7 1012 81 10000 6.7 230 22:42 17.01.2020
638 Clouds 7 1013 81 10000 8.7 220 22:20 17.01.2020
639 Clouds 7 1012 87 10000 6.2 230 21:57 17.01.2020
640 Clouds 7 1012 87 10000 6.2 230 21:38 17.01.2020
641 Clouds 7 1012 87 10000 6.2 230 21:38 17.01.2020
642 Clouds 8 1012 81 10000 9.3 230 21:20 17.01.2020
643 Clouds 8 1012 87 10000 3.6 210 20:55 17.01.2020
644 Clouds 8 1012 87 10000 3.6 210 20:36 17.01.2020
645 Clouds 8 1012 93 10000 6.2 210 20:18 17.01.2020
646 Clouds 8 1012 93 10000 6.2 210 20:18 17.01.2020
647 Clouds 8 1012 87 8000 4.6 220 19:54 17.01.2020
648 Clouds 8 1012 87 8000 4.6 220 19:54 17.01.2020
649 Clouds 8 1012 87 8000 4.6 220 19:36 17.01.2020
650 Clouds 8 1012 93 10000 5.1 210 19:18 17.01.2020
651 Drizzle 8 1011 93 7000 4.1 220 18:44 17.01.2020
652 Clouds 8 1011 93 10000 5.7 210 18:26 17.01.2020
653 Drizzle 8 1011 93 7000 4.1 210 17:56 17.01.2020
654 Drizzle 8 1011 93 7000 4.1 210 17:38 17.01.2020
655 Clouds 8 1011 93 10000 5.1 200 17:20 17.01.2020
656 Drizzle 9 1011 87 7000 4.6 220 16:42 17.01.2020
657 Drizzle 9 1011 87 7000 4.6 220 16:42 17.01.2020
658 Clouds 9 1011 93 10000 5.1 200 16:20 17.01.2020
659 Drizzle 9 1011 81 10000 4.6 210 15:49 17.01.2020
660 Drizzle 9 1011 93 8000 5.1 200 15:28 17.01.2020
661 Drizzle 9 1011 81 6000 4.6 220 14:59 17.01.2020
662 Drizzle 9 1011 81 6000 4.6 220 14:40 17.01.2020
663 -273 0 0 0 0 0 14:22 17.01.2020
664 Clouds 9 1012 71 10000 4.6 200 13:42 17.01.2020
665 Clouds 9 1012 87 10000 5.1 210 13:22 17.01.2020
666 Clouds 9 1012 71 10000 4.6 200 12:46 17.01.2020
667 Clouds 9 1012 81 10000 4.6 200 12:23 17.01.2020
668 Clouds 9 1013 76 10000 4.6 190 11:41 17.01.2020
669 Clouds 9 1013 76 10000 4.6 190 11:41 17.01.2020
670 Clouds 9 1012 76 10000 5.1 180 11:20 17.01.2020
671 Clouds 9 1013 70 10000 6.7 180 10:56 17.01.2020
672 Clouds 9 1013 70 10000 6.7 180 10:38 17.01.2020
673 Clouds 8 1012 76 10000 5.7 180 10:20 17.01.2020
674 Clouds 8 1013 81 10000 4.6 160 09:44 17.01.2020
675 Clouds 7 1012 81 10000 4.6 170 09:21 17.01.2020
676 Clouds 7 1013 81 10000 3.6 170 08:58 17.01.2020
677 Clouds 7 1013 81 10000 3.6 170 08:40 17.01.2020
678 Clouds 7 1013 81 10000 3.6 160 08:21 17.01.2020
679 Clouds 7 1013 81 10000 4.1 140 07:46 17.01.2020
680 Clouds 7 1013 81 10000 3.1 160 07:28 17.01.2020
681 Clouds 7 1014 81 10000 4.6 170 06:55 17.01.2020
682 Clouds 7 1014 81 10000 4.6 170 06:35 17.01.2020
683 Clouds 8 1014 76 10000 5.1 170 05:19 17.01.2020
684 Clouds 7 1016 81 10000 3.6 170 03:38 17.01.2020
685 Clouds 8 1017 81 10000 5.1 170 02:42 17.01.2020
686 Clouds 7 1018 81 10000 4.6 170 01:45 17.01.2020
687 Clouds 7 1018 81 10000 4.6 170 01:27 17.01.2020
688 Clouds 8 1018 81 10000 4.6 170 00:43 17.01.2020
689 Clouds 7 1019 81 10000 4.6 170 00:19 17.01.2020
690 Clouds 7 1017 81 10000 5.7 160 23:41 16.01.2020
691 Clouds 7 1017 81 10000 5.7 160 23:23 16.01.2020
692 Clouds 7 1019 81 10000 5.1 160 22:43 16.01.2020
693 -273 0 0 0 0 0 22:22 16.01.2020
694 Clouds 7 1020 81 10000 4.1 160 21:57 16.01.2020
695 Clouds 7 1020 81 10000 4.1 160 21:39 16.01.2020
696 Clouds 7 1019 81 10000 5.1 160 21:19 16.01.2020
697 Clouds 7 1021 81 10000 4.6 160 20:59 16.01.2020
698 Clouds 7 1021 81 10000 4.6 160 20:39 16.01.2020
699 Clouds 7 1020 81 10000 5.1 160 20:20 16.01.2020
700 Clouds 7 1021 87 10000 3.6 150 19:57 16.01.2020
701 Clouds 7 1021 87 10000 3.6 150 19:39 16.01.2020
702 Clouds 7 1020 87 10000 4.6 150 19:20 16.01.2020
703 Clouds 7 1022 81 10000 3.6 150 18:56 16.01.2020
704 Clouds 7 1022 81 10000 3.6 150 18:37 16.01.2020
705 Clouds 7 1020 81 10000 4.1 150 18:18 16.01.2020
706 Clouds 7 1020 81 10000 4.1 150 18:18 16.01.2020
707 Clouds 7 1020 81 10000 4.1 150 18:18 16.01.2020
708 Clouds 7 1022 81 10000 3.1 150 17:56 16.01.2020
709 Clouds 7 1022 81 10000 3.1 150 17:38 16.01.2020
710 Clouds 7 1021 87 10000 3.6 150 17:20 16.01.2020
711 Clouds 8 1022 87 10000 3.1 150 16:40 16.01.2020
712 Clouds 8 1021 81 10000 3.6 150 16:21 16.01.2020
713 Clouds 8 1023 81 10000 4.1 170 15:57 16.01.2020
714 Clouds 8 1023 81 10000 4.1 170 15:38 16.01.2020
715 Clouds 9 1022 81 10000 4.1 160 15:20 16.01.2020
716 Clouds 9 1023 81 10000 3.6 180 14:42 16.01.2020
717 Clouds 8 1023 87 10000 3.6 160 14:24 16.01.2020
718 Clouds 8 1024 87 10000 4.1 190 13:55 16.01.2020
719 Clouds 8 1024 87 10000 4.1 190 13:37 16.01.2020
720 Clouds 7 1023 87 10000 3.6 170 13:19 16.01.2020
721 Clouds 7 1024 87 10000 3.6 200 12:41 16.01.2020
722 Clouds 6 1024 93 10000 3.6 170 12:21 16.01.2020
723 Clouds 6 1025 87 10000 5.1 200 11:43 16.01.2020
724 Clouds 6 1024 93 8000 3.1 160 11:24 16.01.2020
725 Clouds 5 1025 93 8000 4.1 200 10:59 16.01.2020
726 Clouds 5 1025 93 8000 4.1 200 10:38 16.01.2020
727 Mist 5 1024 93 5000 4.1 190 10:20 16.01.2020
728 Clouds 5 1024 93 6000 4.6 210 09:56 16.01.2020
729 Clouds 4 1024 93 6000 4.6 210 09:37 16.01.2020
730 Mist 4 1024 100 4300 4.6 200 09:18 16.01.2020
731 Clouds 5 1024 93 6000 5.7 220 08:44 16.01.2020
732 Clouds 5 1023 93 6000 5.1 220 08:23 16.01.2020
733 Clouds 5 1023 93 8000 5.7 210 07:44 16.01.2020
734 Clouds 4 1023 93 6000 4.6 200 07:25 16.01.2020
735 Clouds 5 1022 93 8000 5.1 210 06:59 16.01.2020
736 Clouds 5 1022 93 8000 5.1 210 06:37 16.01.2020
737 Clouds 5 1022 93 8000 4.6 220 05:58 16.01.2020
738 Clouds 5 1022 93 8000 4.6 220 05:39 16.01.2020
739 Clouds 5 1021 93 8000 4.1 220 04:37 16.01.2020
740 Clouds 5 1021 93 8000 4.1 220 04:37 16.01.2020
741 Clear 5 1020 100 8000 4.6 210 03:28 16.01.2020
742 Clouds 6 1019 87 10000 4.1 220 02:36 16.01.2020
743 Clouds 6 1018 87 10000 5.7 230 00:53 16.01.2020
744 Clouds 5 1018 93 10000 5.7 210 00:24 16.01.2020
745 Clouds 6 1017 87 10000 5.7 230 23:48 15.01.2020
746 Clouds 6 1017 93 10000 5.7 220 23:23 15.01.2020
747 Clouds 6 1016 87 10000 4.6 230 22:57 15.01.2020
748 Clouds 6 1016 87 10000 4.6 230 22:39 15.01.2020
749 Clouds 6 1016 93 10000 5.1 210 22:19 15.01.2020
750 Clouds 6 1014 87 10000 4.6 230 21:57 15.01.2020
751 Clouds 6 1014 87 10000 4.6 230 21:38 15.01.2020
752 Clouds 6 1014 93 10000 5.1 220 21:20 15.01.2020
753 Clouds 6 1013 87 10000 4.1 230 20:58 15.01.2020
754 Clouds 6 1013 87 10000 4.1 230 20:58 15.01.2020
755 Clouds 6 1013 87 10000 4.1 230 20:40 15.01.2020
756 Rain 6 1013 93 10000 5.7 220 20:20 15.01.2020
757 Clouds 6 1012 87 10000 2.6 250 19:55 15.01.2020
758 Clouds 7 1012 87 10000 2.6 250 19:37 15.01.2020
759 Rain 7 1012 93 10000 4.6 220 19:19 15.01.2020
760 Rain 7 1010 87 10000 5.7 280 18:57 15.01.2020
761 Rain 7 1010 87 10000 5.7 280 18:38 15.01.2020
762 Drizzle 7 1010 93 10000 3.1 260 18:20 15.01.2020
763 Drizzle 7 1010 93 10000 3.1 260 18:20 15.01.2020
764 Rain 8 1008 81 7000 8.7 230 17:58 15.01.2020
765 Rain 8 1008 81 7000 8.7 230 17:40 15.01.2020
766 Rain 8 1007 81 7000 8.7 230 17:21 15.01.2020
767 Rain 9 1007 76 7000 10.8 230 16:55 15.01.2020
768 Rain 9 1007 76 7000 10.8 230 16:55 15.01.2020
769 Rain 10 1007 76 7000 10.8 230 16:36 15.01.2020
770 Drizzle 10 1006 81 10000 11.8 210 16:18 15.01.2020
771 Clouds 11 1006 71 10000 8.7 220 15:42 15.01.2020
772 Clouds 11 1006 81 10000 8.2 210 15:20 15.01.2020
773 Rain 10 1005 62 9000 11.3 220 14:55 15.01.2020
774 Drizzle 10 1006 81 6000 8.2 210 14:37 15.01.2020
775 Drizzle 11 1006 81 6000 8.2 210 14:18 15.01.2020
776 Clouds 11 1005 62 10000 9.8 210 13:41 15.01.2020
777 Rain 11 1005 71 10000 7.2 190 13:23 15.01.2020
778 Clouds 12 1005 62 10000 9.3 210 12:55 15.01.2020
779 Clouds 12 1005 62 10000 9.3 210 12:55 15.01.2020
780 Clouds 12 1005 62 10000 9.3 210 12:37 15.01.2020
781 Clouds 12 1005 66 10000 9.3 200 12:18 15.01.2020
782 Clouds 12 1005 62 10000 10.8 210 11:38 15.01.2020
783 Clouds 12 1005 66 10000 10.3 200 11:20 15.01.2020
784 Clouds 11 1005 66 10000 10.3 210 10:58 15.01.2020
785 Clouds 11 1005 66 10000 10.3 210 10:40 15.01.2020
786 Clouds 12 1004 66 10000 9.3 200 10:21 15.01.2020
787 Clouds 11 1004 71 10000 9.8 210 09:41 15.01.2020
788 Clouds 11 1004 71 10000 9.3 200 09:21 15.01.2020
789 Clouds 11 1003 66 10000 10.3 210 08:45 15.01.2020
790 Clouds 11 1003 76 10000 10.8 200 08:26 15.01.2020
791 Clouds 11 1003 71 10000 10.3 220 07:56 15.01.2020
792 Clouds 12 1003 71 10000 10.3 220 07:33 15.01.2020
793 Clouds 12 1003 71 10000 11.3 210 06:54 15.01.2020
794 Rain 12 1002 76 10000 10.8 200 06:32 15.01.2020
795 Clouds 11 1002 76 10000 9.3 210 05:43 15.01.2020
796 Rain 11 1002 87 8000 9.8 220 03:35 15.01.2020
797 Rain 11 1002 81 10000 11.3 220 01:50 15.01.2020
798 Clouds 11 1002 93 10000 10.8 210 01:22 15.01.2020
799 Clouds 12 1001 76 10000 12.3 210 00:44 15.01.2020
800 Clouds 12 1001 76 10000 12.3 210 00:25 15.01.2020
801 Clouds 12 1001 76 10000 10.8 210 23:47 14.01.2020
802 Clouds 12 1000 81 10000 10.8 200 23:29 14.01.2020
803 Clouds 12 1000 76 10000 12.3 210 22:59 14.01.2020
804 Clouds 12 1000 76 10000 12.3 210 22:40 14.01.2020
805 Clouds 12 1000 81 10000 11.8 200 22:19 14.01.2020
806 Clouds 12 1000 81 10000 11.8 210 21:58 14.01.2020
807 Clouds 12 1000 81 10000 11.8 210 21:39 14.01.2020
808 Clouds 12 999 76 10000 12.3 210 21:20 14.01.2020
809 Clouds 11 1000 76 10000 11.3 210 20:56 14.01.2020
810 Clouds 11 1000 76 10000 11.3 210 20:38 14.01.2020
811 Clouds 11 1000 81 10000 9.3 200 20:19 14.01.2020
812 Clouds 11 1000 81 10000 9.3 200 19:55 14.01.2020
813 Clouds 11 1000 81 10000 9.3 200 19:37 14.01.2020
814 Clouds 10 1000 81 10000 10.3 200 19:18 14.01.2020
815 Clouds 10 1000 87 10000 9.8 190 18:41 14.01.2020
816 Drizzle 10 1001 93 8000 6.7 190 18:21 14.01.2020
817 Drizzle 10 1001 93 8000 6.7 190 17:59 14.01.2020
818 Drizzle 9 1001 93 8000 6.7 190 17:37 14.01.2020
819 Clouds 10 1001 87 10000 9.3 190 17:19 14.01.2020
820 Drizzle 9 1002 87 9000 6.2 200 16:55 14.01.2020
821 Drizzle 9 1002 87 9000 6.2 200 16:37 14.01.2020
822 Rain 9 1001 87 10000 8.2 190 16:19 14.01.2020
823 Clouds 9 1002 81 10000 7.2 210 15:42 14.01.2020
824 Drizzle 10 1002 87 10000 6.2 200 15:19 14.01.2020
825 Drizzle 10 1002 87 10000 6.2 200 15:19 14.01.2020
826 Clouds 10 1002 81 10000 6.7 210 14:47 14.01.2020
827 Clouds 10 1002 87 10000 6.2 200 14:23 14.01.2020
828 Clouds 10 1002 81 10000 7.2 220 13:59 14.01.2020
829 Clouds 10 1002 81 10000 7.2 220 13:40 14.01.2020
830 Clouds 10 1002 81 10000 6.7 220 13:19 14.01.2020
831 Clouds 9 1003 87 10000 6.7 220 12:42 14.01.2020
832 Clouds 9 1003 87 10000 6.7 210 12:24 14.01.2020
833 Clouds 9 1002 87 10000 5.7 230 11:58 14.01.2020
834 Clouds 9 1002 87 10000 5.7 230 11:40 14.01.2020
835 Clouds 9 1002 87 10000 7.2 220 11:22 14.01.2020
836 Clouds 9 1001 93 10000 5.1 230 10:56 14.01.2020
837 Clouds 9 1001 93 10000 5.1 230 10:37 14.01.2020
838 Clouds 8 1001 87 10000 8.7 220 10:19 14.01.2020
839 Drizzle 8 1001 93 8000 6.2 240 09:43 14.01.2020
840 Drizzle 8 1001 93 4000 7.7 250 09:24 14.01.2020
841 Rain 8 1000 93 4700 8.2 250 08:59 14.01.2020
842 Drizzle 9 999 87 6000 9.8 220 08:40 14.01.2020
843 Rain 9 999 93 6000 9.8 210 08:21 14.01.2020
844 Drizzle 9 999 93 7000 10.3 200 07:51 14.01.2020
845 Rain 9 999 93 3900 9.3 200 07:24 14.01.2020
846 Drizzle 9 999 93 5000 8.2 200 06:43 14.01.2020
847 Drizzle 9 999 93 5000 8.2 190 05:59 14.01.2020
848 Drizzle 9 1000 87 7000 6.7 190 04:51 14.01.2020
849 Rain 9 1000 81 10000 8.7 180 03:47 14.01.2020
850 Clouds 9 1001 81 10000 7.7 180 02:40 14.01.2020
851 Clouds 9 1002 81 10000 9.3 180 01:31 14.01.2020
852 Clouds 9 1004 81 10000 8.2 180 00:48 14.01.2020
853 Clouds 8 1003 81 10000 9.3 180 00:26 14.01.2020
854 Clouds 8 1005 81 10000 8.7 180 23:47 13.01.2020
855 Clouds 8 1004 81 10000 8.2 180 23:19 13.01.2020
856 Clouds 8 1006 81 10000 7.7 180 22:59 13.01.2020
857 Clouds 8 1006 81 10000 7.7 180 22:40 13.01.2020
858 Clouds 7 1005 81 10000 8.2 170 22:20 13.01.2020
859 Clouds 7 1007 81 10000 7.2 180 21:56 13.01.2020
860 Clouds 7 1007 81 10000 7.2 180 21:37 13.01.2020
861 Clouds 7 1006 81 10000 8.2 180 21:18 13.01.2020
862 Clouds 7 1008 87 10000 6.7 170 20:58 13.01.2020
863 Clouds 7 1008 87 10000 6.7 170 20:40 13.01.2020
864 Clouds 7 1008 81 10000 7.2 170 20:22 13.01.2020
865 Clouds 6 1010 81 10000 5.7 170 19:58 13.01.2020
866 Clouds 6 1010 81 10000 5.7 170 19:39 13.01.2020
867 Clouds 6 1009 87 10000 5.7 170 19:20 13.01.2020
868 Clouds 6 1011 81 10000 4.6 170 18:56 13.01.2020
869 Clouds 6 1011 81 10000 4.6 170 18:37 13.01.2020
870 Clouds 6 1011 81 10000 4.6 170 18:37 13.01.2020
871 Clouds 6 1010 87 10000 4.6 160 18:18 13.01.2020
872 Clouds 6 1012 81 10000 4.6 190 17:43 13.01.2020
873 Clouds 6 1011 87 10000 4.6 160 17:24 13.01.2020
874 Clouds 6 1011 87 10000 4.6 160 17:24 13.01.2020
875 Clouds 6 1013 81 10000 4.1 200 16:57 13.01.2020
876 Clouds 6 1013 81 10000 4.1 200 16:38 13.01.2020
877 Clouds 7 1013 81 10000 4.1 200 16:20 13.01.2020
878 Clouds 7 1013 86 0 3.13 192 15:44 13.01.2020
879 Clouds 7 1013 86 0 3.13 174 15:24 13.01.2020
880 Clouds 7 1014 86 0 3.13 338 14:59 13.01.2020
881 Clouds 8 1014 86 0 3.13 165 14:40 13.01.2020
882 Clouds 8 1014 86 0 3.58 227 14:22 13.01.2020
883 Clouds 7 1012 86 0 1.34 141 13:56 13.01.2020
884 Clouds 7 1015 87 0 3.58 170 13:37 13.01.2020
885 Clouds 7 1013 85 0 0.45 249 13:19 13.01.2020
886 Clouds 7 1017 87 9000 5.7 210 12:43 13.01.2020
887 Clouds 7 1017 87 9000 5.7 210 12:23 13.01.2020
888 Clouds 7 1017 87 9000 5.7 210 12:23 13.01.2020
889 Clouds 7 1017 87 9000 5.7 210 11:58 13.01.2020
890 Clouds 7 1017 87 9000 5.7 210 11:38 13.01.2020
891 Clouds 7 1017 87 9000 5.7 210 11:38 13.01.2020
892 Clouds 7 1017 87 7000 4.1 180 11:19 13.01.2020
893 Clouds 6 1017 93 8000 4.1 220 10:56 13.01.2020
894 Clouds 6 1017 93 8000 4.1 220 10:38 13.01.2020
895 Clouds 6 1017 93 9000 5.1 210 10:19 13.01.2020
896 Clouds 6 1017 93 7000 3.6 220 09:44 13.01.2020
897 Clouds 6 1017 93 6000 3.6 220 09:26 13.01.2020
898 Mist 6 1017 93 5000 4.1 220 08:59 13.01.2020
899 Mist 6 1017 93 5000 4.1 220 08:38 13.01.2020
900 Clouds 6 1017 100 6000 5.1 210 08:19 13.01.2020
901 Clouds 6 1017 100 6000 4.1 210 07:45 13.01.2020
902 Mist 6 1017 93 5000 5.1 210 07:27 13.01.2020
903 Clouds 6 1017 93 10000 3.1 200 06:39 13.01.2020
904 Clouds 5 1017 93 10000 3.1 210 05:57 13.01.2020
905 Clouds 5 1018 100 10000 4.1 210 05:19 13.01.2020
906 Clouds 4 1018 93 10000 3.6 210 03:47 13.01.2020
907 Clouds 4 1019 93 10000 3.1 230 02:51 13.01.2020
908 Clouds 4 1019 100 10000 3.1 210 02:31 13.01.2020
909 Clouds 4 1018 93 10000 4.1 240 01:47 13.01.2020
910 Clouds 5 1018 87 10000 4.1 240 00:59 13.01.2020
911 Clouds 5 1018 87 10000 4.1 240 00:39 13.01.2020
912 Clouds 5 1019 100 10000 3.1 220 00:19 13.01.2020
913 Clouds 6 1018 87 10000 8.2 270 23:41 12.01.2020
914 Clouds 6 1019 93 10000 4.1 230 23:23 12.01.2020
915 Rain 7 1017 87 7000 7.7 280 22:57 12.01.2020
916 Rain 7 1017 87 7000 7.7 280 22:39 12.01.2020
917 Clouds 7 1018 87 10000 4.6 260 22:21 12.01.2020
918 Clouds 7 1016 93 10000 8.7 280 21:55 12.01.2020
919 Clouds 7 1016 93 10000 8.7 280 21:37 12.01.2020
920 Clouds 7 1017 87 10000 6.2 260 21:19 12.01.2020
921 Drizzle 7 1014 81 7000 7.7 260 20:56 12.01.2020
922 Drizzle 7 1014 81 7000 7.7 260 20:37 12.01.2020
923 Clouds 7 1014 81 10000 8.7 250 20:19 12.01.2020
924 Clouds 8 1013 87 10000 7.2 240 19:55 12.01.2020
925 Clouds 8 1013 87 10000 7.2 240 19:37 12.01.2020
926 Clouds 8 1015 81 10000 8.7 260 19:18 12.01.2020
927 Clouds 8 1013 93 10000 5.7 250 18:56 12.01.2020
928 Clouds 8 1013 93 10000 5.7 250 18:38 12.01.2020
929 Clouds 8 1014 87 10000 7.7 240 18:19 12.01.2020
930 Rain 8 1013 93 6000 7.2 240 17:42 12.01.2020
931 Rain 8 1012 93 8000 7.7 220 17:21 12.01.2020
932 Rain 8 1012 87 10000 7.7 220 16:58 12.01.2020
933 Rain 8 1012 87 10000 7.7 220 16:39 12.01.2020
934 Drizzle 8 1013 93 10000 9.3 220 16:20 12.01.2020
935 Clouds 8 1012 93 8000 7.7 220 15:56 12.01.2020
936 Clouds 7 1012 93 8000 7.7 220 15:38 12.01.2020
937 Clouds 7 1012 93 8000 7.7 220 15:20 12.01.2020
938 Clouds 7 1013 100 8000 8.7 220 14:42 12.01.2020
939 Clouds 7 1014 93 10000 9.3 220 14:23 12.01.2020
940 Drizzle 7 1013 93 3000 8.7 220 13:57 12.01.2020
941 Drizzle 7 1013 93 3000 8.7 220 13:57 12.01.2020
942 Drizzle 6 1013 93 3000 8.7 220 13:39 12.01.2020
943 Clouds 6 1014 93 7000 8.7 210 13:20 12.01.2020
944 Clouds 6 1014 93 7000 8.7 210 13:20 12.01.2020
945 Rain 6 1014 93 2700 8.2 210 12:57 12.01.2020
946 Drizzle 6 1014 93 3500 8.2 210 12:37 12.01.2020
947 Rain 6 1015 93 2800 7.7 200 12:19 12.01.2020
948 Drizzle 5 1015 93 3000 7.2 220 11:42 12.01.2020
949 Drizzle 5 1015 93 6000 8.2 210 11:22 12.01.2020
950 Drizzle 5 1015 93 6000 8.2 210 10:57 12.01.2020
951 Drizzle 5 1015 93 6000 8.2 210 10:39 12.01.2020
952 Rain 5 1016 93 3500 8.2 210 10:20 12.01.2020
953 Drizzle 5 1015 86 3000 7.2 210 09:43 12.01.2020
954 Drizzle 6 1015 86 3000 7.2 210 09:24 12.01.2020
955 Clouds 6 1016 81 10000 7.7 220 08:57 12.01.2020
956 Clouds 6 1016 81 10000 7.7 220 08:38 12.01.2020
957 Clouds 6 1016 81 10000 6.7 200 08:19 12.01.2020
958 Drizzle 6 1016 81 10000 6.7 220 07:38 12.01.2020
959 Clouds 6 1017 81 10000 7.2 200 07:19 12.01.2020
960 Clouds 6 1017 81 10000 7.2 220 06:41 12.01.2020
961 Clouds 6 1017 75 10000 8.2 210 06:18 12.01.2020
962 Clouds 6 1018 75 10000 7.7 210 05:20 12.01.2020
963 Clouds 7 1018 81 10000 8.2 220 03:45 12.01.2020
964 Clouds 7 1018 81 10000 8.2 220 02:59 12.01.2020
965 Clouds 7 1019 81 10000 7.7 210 02:30 12.01.2020
966 Clouds 7 1019 75 10000 8.2 220 01:42 12.01.2020
967 Clouds 7 1020 81 10000 7.7 210 01:21 12.01.2020
968 Drizzle 7 1020 81 10000 7.7 220 00:40 12.01.2020
969 Clouds 7 1020 81 10000 8.2 210 00:19 12.01.2020
970 Clouds 7 1020 75 10000 8.2 220 23:42 11.01.2020
971 Drizzle 7 1021 81 10000 8.7 210 23:19 11.01.2020
972 Clouds 7 1020 75 10000 8.7 220 22:57 11.01.2020
973 Clouds 7 1020 75 10000 8.7 220 22:39 11.01.2020
974 Clouds 7 1021 81 10000 9.3 210 22:20 11.01.2020
975 Clouds 7 1021 75 10000 8.2 220 21:58 11.01.2020
976 Clouds 7 1021 75 10000 8.2 220 21:39 11.01.2020
977 Clouds 7 1022 75 10000 8.7 210 21:18 11.01.2020
978 Clouds 7 1021 70 10000 9.3 210 20:40 11.01.2020
979 Clouds 7 1022 75 10000 7.2 210 20:22 11.01.2020
980 Clouds 6 1022 75 10000 9.3 210 19:58 11.01.2020
981 Clouds 6 1022 75 10000 9.3 210 19:39 11.01.2020
982 Clouds 7 1022 75 10000 8.7 200 19:21 11.01.2020
983 Clouds 6 1022 75 10000 9.3 210 18:58 11.01.2020
984 Clouds 6 1022 75 10000 9.3 210 18:38 11.01.2020
985 Clouds 6 1023 81 10000 8.7 200 18:19 11.01.2020
986 Clouds 6 1023 75 10000 7.7 210 17:57 11.01.2020
987 Clouds 6 1023 75 10000 7.7 210 17:39 11.01.2020
988 Clouds 6 1023 81 10000 8.2 200 17:19 11.01.2020
989 Clouds 6 1024 75 10000 7.2 210 16:45 11.01.2020
990 Clouds 6 1024 81 10000 7.2 200 16:27 11.01.2020
991 Clouds 6 1024 75 10000 7.7 210 15:59 11.01.2020
992 Clouds 6 1024 75 10000 7.7 210 15:41 11.01.2020
993 Clouds 6 1024 81 10000 6.7 200 15:22 11.01.2020
994 Clouds 6 1024 75 10000 7.7 210 14:57 11.01.2020
995 Clouds 6 1024 75 10000 7.7 210 14:38 11.01.2020
996 Clouds 6 1025 81 10000 7.7 200 14:20 11.01.2020
997 Clouds 6 1025 75 10000 7.2 220 13:41 11.01.2020
998 Clouds 6 1026 81 10000 7.7 200 13:20 11.01.2020
999 Clouds 6 1026 80 10000 6.7 210 12:59 11.01.2020
1000 Clouds 5 1026 80 10000 6.7 210 12:41 11.01.2020
1001 Clouds 5 1026 86 10000 7.7 200 12:23 11.01.2020
1002 Clouds 5 1026 80 10000 7.2 210 11:48 11.01.2020
1003 Clouds 5 1027 86 10000 6.7 200 11:26 11.01.2020
1004 Clouds 4 1027 80 10000 6.7 210 10:55 11.01.2020
1005 Clouds 4 1027 80 10000 6.7 210 10:36 11.01.2020
1006 Clouds 4 1027 86 10000 6.2 200 10:18 11.01.2020
1007 Clouds 4 1027 80 10000 5.7 210 09:39 11.01.2020
1008 Clouds 3 1027 93 10000 5.7 200 09:20 11.01.2020
1009 Clouds 3 1027 93 10000 5.7 200 09:20 11.01.2020
1010 Clouds 3 1027 86 10000 4.6 220 08:42 11.01.2020
1011 Clouds 3 1028 86 10000 4.6 210 08:22 11.01.2020
1012 Clouds 3 1027 93 10000 4.1 220 07:44 11.01.2020
1013 Clouds 3 1028 93 10000 4.6 210 07:26 11.01.2020
1014 Clouds 3 1027 93 10000 3.6 200 06:52 11.01.2020
1015 Clouds 3 1027 93 10000 3.6 200 06:52 11.01.2020
1016 Clouds 3 1028 93 10000 2.6 210 05:50 11.01.2020
1017 Clouds 2 1029 93 10000 3.1 220 04:47 11.01.2020
1018 Clouds 2 1029 93 10000 3.6 210 04:29 11.01.2020
1019 Clouds 2 1029 100 10000 3.1 210 03:28 11.01.2020
1020 Clouds 2 1028 93 10000 1.5 230 02:40 11.01.2020
1021 Clouds 2 1028 93 10000 2.6 250 01:44 11.01.2020
1022 Clear 2 1028 88 10000 3.1 220 01:20 11.01.2020
1023 Clouds 3 1027 86 10000 2.6 260 00:44 11.01.2020
1024 Clear 3 1028 93 10000 3.6 250 00:20 11.01.2020
1025 Clouds 3 1027 86 10000 2.6 260 23:41 10.01.2020
1026 Clouds 3 1027 86 10000 2.6 260 23:41 10.01.2020
1027 Clear 3 1027 93 10000 2.6 250 23:22 10.01.2020
1028 Clouds 3 1026 80 10000 3.1 280 22:59 10.01.2020
1029 Clouds 3 1026 80 10000 3.1 280 22:40 10.01.2020
1030 Clouds 3 1027 100 10000 2.6 250 22:21 10.01.2020
1031 Clouds 4 1025 86 10000 4.1 280 21:58 10.01.2020
1032 Clouds 4 1025 86 10000 4.1 280 21:39 10.01.2020
1033 Clear 4 1026 93 10000 2.6 260 21:19 10.01.2020
1034 Clouds 4 1024 86 10000 4.1 280 20:55 10.01.2020
1035 Clouds 4 1024 86 10000 4.1 280 20:37 10.01.2020
1036 Clouds 4 1025 93 10000 3.1 250 20:19 10.01.2020
1037 Clouds 4 1023 93 10000 2.1 290 19:39 10.01.2020
1038 Clouds 5 1024 86 10000 3.6 280 19:20 10.01.2020
1039 Rain 5 1022 87 10000 3.1 310 18:55 10.01.2020
1040 Rain 5 1022 87 10000 3.1 310 18:36 10.01.2020
1041 Clouds 6 1023 81 10000 4.1 300 18:18 10.01.2020
1042 Clouds 5 1021 75 10000 5.1 330 17:55 10.01.2020
1043 Clouds 6 1021 75 10000 5.1 330 17:37 10.01.2020
1044 Clouds 6 1022 81 10000 3.1 310 17:19 10.01.2020
1045 Rain 6 1020 70 10000 5.7 330 16:41 10.01.2020
1046 Clouds 6 1021 81 10000 5.1 310 16:21 10.01.2020
1047 Clouds 7 1018 87 10000 5.1 330 15:56 10.01.2020
1048 Clouds 7 1018 87 10000 5.1 330 15:56 10.01.2020
1049 Clouds 7 1018 87 10000 5.1 330 15:37 10.01.2020
1050 Clouds 7 1018 87 10000 5.1 330 15:37 10.01.2020
1051 Clouds 7 1019 81 10000 5.1 320 15:19 10.01.2020
1052 Clouds 7 1016 87 10000 5.7 330 14:57 10.01.2020
1053 Clouds 7 1016 87 10000 5.7 330 14:39 10.01.2020
1054 Clouds 7 1016 93 10000 6.7 330 14:19 10.01.2020
1055 Clouds 7 1014 81 10000 6.2 330 13:56 10.01.2020
1056 Clouds 7 1014 81 10000 6.2 330 13:37 10.01.2020
1057 Rain 7 1016 81 10000 5.1 330 13:18 10.01.2020
1058 Clouds 7 1013 87 10000 8.2 330 12:56 10.01.2020
1059 Clouds 7 1013 87 10000 8.2 330 12:38 10.01.2020
1060 Drizzle 7 1014 100 3300 6.7 330 12:18 10.01.2020
1061 Drizzle 8 1012 93 2500 7.7 270 11:42 10.01.2020
1062 Drizzle 8 1012 93 2500 7.7 270 11:42 10.01.2020
1063 Drizzle 8 1012 93 2500 7.7 270 11:42 10.01.2020
1064 Clouds 8 1013 93 10000 4.1 270 11:22 10.01.2020
1065 Clouds 8 1011 87 10000 5.7 250 10:59 10.01.2020
1066 Clouds 8 1011 87 10000 5.7 250 10:38 10.01.2020
1067 Clouds 8 1010 87 10000 5.1 240 10:20 10.01.2020
1068 Clouds 8 1010 87 10000 4.6 250 09:48 10.01.2020
1069 Clouds 8 1011 87 10000 5.1 250 09:27 10.01.2020
1070 Drizzle 8 1009 93 10000 7.7 270 08:59 10.01.2020
1071 Drizzle 8 1009 93 10000 7.7 270 08:40 10.01.2020
1072 Clouds 8 1010 87 10000 6.2 250 08:21 10.01.2020
1073 Clouds 8 1008 87 10000 5.7 240 07:44 10.01.2020
1074 Clouds 8 1009 87 10000 5.1 240 07:23 10.01.2020
1075 Clouds 8 1008 87 10000 5.1 240 06:45 10.01.2020
1076 Clouds 8 1008 87 10000 7.7 240 06:25 10.01.2020
1077 Rain 9 1007 93 10000 6.2 230 05:46 10.01.2020
1078 Clouds 10 1006 93 9000 4.1 210 03:35 10.01.2020
1079 Rain 11 1005 87 6000 4.6 230 02:59 10.01.2020
1080 Rain 11 1005 87 6000 4.6 230 02:38 10.01.2020
1081 Clouds 12 1005 87 9000 5.7 220 01:38 10.01.2020
1082 Drizzle 12 1005 93 10000 5.7 210 01:19 10.01.2020
1083 Drizzle 12 1005 93 6000 5.1 220 00:39 10.01.2020
1084 Drizzle 12 1005 100 4000 3.1 220 23:58 09.01.2020
1085 Drizzle 12 1005 100 4000 3.1 220 23:38 09.01.2020
1086 Clouds 12 1005 93 10000 6.2 210 23:20 09.01.2020
1087 Drizzle 12 1005 100 4500 2.1 260 22:57 09.01.2020
1088 Drizzle 12 1005 100 4500 2.1 260 22:39 09.01.2020
1089 Drizzle 12 1005 93 7000 5.1 210 22:19 09.01.2020
1090 Drizzle 12 1006 93 4500 3.6 260 21:57 09.01.2020
1091 Drizzle 11 1006 93 4500 3.6 260 21:37 09.01.2020
1092 Drizzle 12 1006 93 4400 5.7 210 21:19 09.01.2020
1093 Drizzle 12 1006 93 4500 4.1 230 20:57 09.01.2020
1094 Drizzle 12 1006 93 4500 4.1 230 20:39 09.01.2020
1095 Clouds 12 1006 93 10000 6.2 210 20:19 09.01.2020
1096 Clouds 12 1006 93 10000 6.2 210 19:57 09.01.2020
1097 Clouds 12 1006 87 10000 5.1 240 19:38 09.01.2020
1098 Drizzle 12 1006 93 5000 5.1 220 19:19 09.01.2020
1099 Clouds 12 1006 87 10000 5.7 230 18:55 09.01.2020
1100 Clouds 12 1006 87 10000 5.7 230 18:36 09.01.2020
1101 Clouds 12 1006 93 10000 7.2 210 18:18 09.01.2020
1102 Clouds 12 1006 87 10000 5.7 220 17:41 09.01.2020
1103 Clouds 12 1006 93 10000 7.7 210 17:18 09.01.2020
1104 Clouds 12 1006 87 10000 5.1 230 16:56 09.01.2020
1105 Clouds 12 1006 87 10000 5.1 230 16:36 09.01.2020
1106 Clouds 12 1006 87 10000 6.7 220 16:18 09.01.2020
1107 Drizzle 12 1006 93 8000 6.2 230 15:41 09.01.2020
1108 Drizzle 12 1006 87 2500 7.2 220 15:20 09.01.2020
1109 Drizzle 12 1006 87 4500 6.7 220 14:55 09.01.2020
1110 Drizzle 12 1006 87 4500 6.7 220 14:36 09.01.2020
1111 Drizzle 12 1006 87 6000 7.7 220 14:18 09.01.2020
1112 Drizzle 12 1007 87 9000 8.2 220 13:55 09.01.2020
1113 Drizzle 12 1007 87 9000 8.2 220 13:36 09.01.2020
1114 Drizzle 12 1007 87 9000 7.7 220 13:18 09.01.2020
1115 Drizzle 12 1007 87 6000 8.2 220 12:42 09.01.2020
1116 Clouds 12 1008 93 6000 8.7 210 12:24 09.01.2020
1117 Clouds 12 1008 93 6000 8.7 210 11:59 09.01.2020
1118 Drizzle 11 1008 93 10000 7.7 210 11:41 09.01.2020
1119 Clouds 11 1008 93 10000 8.2 200 11:23 09.01.2020
1120 Clouds 11 1009 93 10000 7.2 200 10:57 09.01.2020
1121 Clouds 11 1009 93 10000 7.2 200 10:39 09.01.2020
1122 Rain 11 1009 93 7000 8.2 200 10:20 09.01.2020
1123 Mist 11 1009 100 5000 6.2 190 09:41 09.01.2020
1124 Mist 11 1009 100 5000 6.2 190 09:41 09.01.2020
1125 Mist 11 1009 100 5000 6.2 190 09:41 09.01.2020
1126 Mist 11 1010 93 4000 5.7 190 09:23 09.01.2020
1127 Mist 10 1010 93 4100 7.7 190 08:57 09.01.2020
1128 Mist 10 1010 93 4100 7.7 190 08:38 09.01.2020
1129 Mist 10 1011 100 3700 6.7 180 08:20 09.01.2020
1130 Drizzle 10 1012 93 4000 5.1 160 07:46 09.01.2020
1131 Drizzle 10 1011 100 5000 6.2 180 07:28 09.01.2020
1132 Mist 9 1014 100 4000 4.1 160 06:40 09.01.2020
1133 Mist 9 1014 100 3000 3.1 170 06:21 09.01.2020
1134 Drizzle 9 1016 100 900 2.1 170 05:51 09.01.2020
1135 Mist 9 1016 100 2700 2.6 150 05:18 09.01.2020
1136 Drizzle 8 1017 93 2000 2.1 160 04:38 09.01.2020
1137 Mist 8 1018 100 2900 1 0 03:26 09.01.2020
1138 Fog 8 1018 100 900 1.5 170 02:46 09.01.2020
1139 Mist 8 1019 100 1400 1.5 190 01:42 09.01.2020
1140 Fog 8 1020 93 7000 0.5 190 00:59 09.01.2020
1141 Fog 8 1020 93 7000 0.5 190 00:37 09.01.2020
1142 Clouds 8 1021 100 6000 2.1 190 00:19 09.01.2020
1143 Clouds 8 1020 100 10000 1 240 23:39 08.01.2020
1144 Mist 8 1021 100 4600 1.5 220 23:20 08.01.2020
1145 Clouds 8 1020 93 10000 1.5 180 22:56 08.01.2020
1146 Clouds 8 1020 93 10000 1.5 180 22:37 08.01.2020
1147 Clouds 8 1021 93 6000 1.5 210 22:18 08.01.2020
1148 Clouds 8 1021 93 10000 1 230 21:55 08.01.2020
1149 Clouds 8 1021 93 10000 1 230 21:37 08.01.2020
1150 Clouds 8 1021 93 7000 1.5 210 21:18 08.01.2020
1151 Clouds 9 1021 93 10000 1.5 230 20:41 08.01.2020
1152 Clouds 9 1022 93 8000 3.1 260 20:21 08.01.2020
1153 Clouds 9 1022 93 8000 3.1 260 20:21 08.01.2020
1154 Clouds 9 1021 93 10000 2.1 250 19:59 08.01.2020
1155 Clouds 9 1021 93 10000 2.1 250 19:38 08.01.2020
1156 Clouds 9 1021 100 9000 2.6 220 19:20 08.01.2020
1157 Clouds 9 1021 100 9000 2.6 220 18:58 08.01.2020
1158 Clouds 9 1021 93 10000 2.6 240 18:39 08.01.2020
1159 Clouds 9 1021 93 10000 2.6 240 18:39 08.01.2020
1160 Clouds 9 1021 93 10000 2.6 240 18:19 08.01.2020
1161 Clouds 10 1021 87 10000 3.1 260 17:57 08.01.2020
1162 Clouds 10 1021 87 10000 3.1 260 17:39 08.01.2020
1163 Clouds 10 1021 93 10000 2.6 260 17:20 08.01.2020
1164 Clouds 10 1021 93 10000 2.6 260 16:57 08.01.2020
1165 Clouds 10 1021 93 10000 2.6 260 16:57 08.01.2020
1166 Clouds 10 1020 87 10000 4.6 280 16:38 08.01.2020
1167 Clouds 10 1020 87 10000 3.1 270 16:19 08.01.2020
1168 Clouds 11 1019 87 10000 5.1 270 15:45 08.01.2020
1169 Clouds 11 1020 87 10000 3.6 260 15:22 08.01.2020
1170 Clouds 11 1020 87 10000 3.6 260 14:59 08.01.2020
1171 Clouds 11 1019 87 10000 7.2 270 14:40 08.01.2020
1172 Clouds 11 1019 93 10000 4.1 260 14:21 08.01.2020
1173 Clouds 11 1018 87 10000 7.7 270 13:42 08.01.2020
1174 Clouds 11 1019 93 10000 5.1 260 13:24 08.01.2020
1175 Clouds 11 1018 93 10000 5.1 250 12:59 08.01.2020
1176 Clouds 11 1018 93 10000 5.1 250 12:40 08.01.2020
1177 Clouds 11 1019 93 10000 5.1 250 12:18 08.01.2020
1178 Clouds 11 1018 93 8000 4.6 240 11:48 08.01.2020
1179 Clouds 11 1019 93 10000 5.1 240 11:20 08.01.2020
1180 Clouds 11 1018 100 7000 5.1 240 10:59 08.01.2020
1181 Clouds 11 1018 100 7000 5.1 240 10:41 08.01.2020
1182 Clouds 10 1019 93 10000 6.2 240 10:22 08.01.2020
1183 Clouds 10 1019 93 10000 6.2 240 09:58 08.01.2020
1184 Mist 10 1017 100 4000 4.1 220 09:38 08.01.2020
1185 Mist 10 1017 100 5000 4.1 220 09:18 08.01.2020
1186 Mist 10 1017 93 5000 4.6 230 08:42 08.01.2020
1187 Drizzle 10 1017 93 4400 6.7 240 08:24 08.01.2020
1188 Drizzle 10 1017 93 4400 6.7 240 07:59 08.01.2020
1189 Drizzle 10 1017 93 2700 7.7 240 07:41 08.01.2020
1190 Clouds 10 1017 100 8000 7.2 230 07:23 08.01.2020
1191 Drizzle 9 1016 93 3500 6.7 220 06:44 08.01.2020
1192 Drizzle 9 1017 93 2400 7.7 220 05:57 08.01.2020
1193 Drizzle 9 1017 100 2400 7.2 220 05:27 08.01.2020
1194 Drizzle 9 1017 87 3500 7.2 220 04:39 08.01.2020
1195 Clouds 8 1017 87 10000 8.2 210 03:32 08.01.2020
1196 Clouds 8 1016 81 10000 9.3 220 02:44 08.01.2020
1197 Clouds 8 1017 87 10000 9.8 210 02:19 08.01.2020
1198 Rain 8 1016 81 10000 8.7 210 01:39 08.01.2020
1199 Clouds 8 1017 75 10000 9.8 210 00:54 08.01.2020
1200 Drizzle 8 1018 81 10000 8.7 200 00:26 08.01.2020
1201 Rain 8 1018 81 9000 9.3 210 23:47 07.01.2020
1202 Clouds 8 1020 81 10000 7.2 210 23:22 07.01.2020
1203 Clouds 8 1019 81 10000 8.7 210 22:58 07.01.2020
1204 Clouds 8 1019 81 10000 8.7 210 22:39 07.01.2020
1205 Clouds 8 1020 81 10000 7.7 200 22:20 07.01.2020
1206 Rain 7 1020 87 9000 7.2 220 21:55 07.01.2020
1207 Rain 7 1020 87 9000 7.2 220 21:37 07.01.2020
1208 Clouds 7 1021 81 10000 7.7 210 21:19 07.01.2020
1209 Clouds 7 1021 81 10000 7.7 210 21:19 07.01.2020
1210 Clouds 7 1020 87 9000 9.3 210 20:55 07.01.2020
1211 Clouds 7 1020 87 9000 9.3 210 20:36 07.01.2020
1212 Clouds 7 1021 87 9000 7.2 200 20:18 07.01.2020
1213 Clouds 7 1021 87 9000 8.7 210 19:38 07.01.2020
1214 Clouds 7 1021 87 9000 7.7 210 19:19 07.01.2020
1215 Clouds 7 1021 87 10000 5.7 200 18:58 07.01.2020
1216 Clouds 7 1021 87 10000 5.7 200 18:40 07.01.2020
1217 Clouds 7 1022 87 7000 7.2 200 18:19 07.01.2020
1218 Clouds 7 1022 87 7000 7.2 200 17:58 07.01.2020
1219 Clouds 7 1022 87 10000 5.1 200 17:39 07.01.2020
1220 Clouds 7 1022 87 9000 5.7 200 17:21 07.01.2020
1221 Clouds 7 1022 87 9000 5.7 200 16:56 07.01.2020
1222 Clouds 7 1023 87 10000 5.7 210 16:38 07.01.2020
1223 Clouds 7 1023 87 10000 5.1 200 16:19 07.01.2020
1224 Clouds 7 1023 87 10000 5.1 200 15:58 07.01.2020
1225 Clouds 7 1023 87 10000 5.1 210 15:39 07.01.2020
1226 Clouds 7 1023 87 10000 6.7 220 15:21 07.01.2020
1227 Clouds 8 1023 87 9000 4.6 220 14:54 07.01.2020
1228 Clouds 8 1023 87 9000 4.6 220 14:36 07.01.2020
1229 Clouds 8 1023 87 9000 5.7 220 14:18 07.01.2020
1230 Mist 8 1023 93 5000 5.1 220 13:39 07.01.2020
1231 Clouds 7 1023 87 9000 5.1 220 13:19 07.01.2020
1232 Clouds 7 1023 87 10000 5.1 230 12:41 07.01.2020
1233 Clouds 7 1024 93 10000 4.6 220 12:20 07.01.2020
1234 Clouds 7 1023 93 10000 4.6 230 11:57 07.01.2020
1235 Clouds 6 1023 93 10000 4.6 230 11:38 07.01.2020
1236 Clear 6 1024 100 8000 4.1 220 11:20 07.01.2020
1237 Clouds 5 1023 93 10000 3.6 230 10:42 07.01.2020
1238 Clear 5 1023 100 6000 3.1 200 10:24 07.01.2020
1239 Clear 4 1023 100 6000 3.1 200 09:58 07.01.2020
1240 Clouds 4 1022 93 9000 3.1 240 09:38 07.01.2020
1241 Clouds 4 1022 93 8000 3.1 250 09:20 07.01.2020
1242 Clouds 4 1022 93 8000 3.1 250 08:46 07.01.2020
1243 Clear 4 1022 100 7000 4.1 250 08:26 07.01.2020
1244 Clouds 5 1021 93 8000 3.1 250 07:54 07.01.2020
1245 Mist 5 1022 93 5000 3.6 240 07:28 07.01.2020
1246 Clouds 5 1020 87 7000 4.1 250 06:54 07.01.2020
1247 Clouds 5 1021 93 7000 4.1 240 06:34 07.01.2020
1248 Clouds 6 1019 87 7000 4.1 230 05:55 07.01.2020
1249 Clouds 6 1020 93 6000 3.6 240 05:35 07.01.2020
1250 Mist 6 1019 100 5000 4.6 230 03:29 07.01.2020
1251 Clouds 5 1018 86 6000 4.6 240 02:24 07.01.2020
1252 Mist 5 1018 100 5000 5.1 220 01:57 07.01.2020
1253 Drizzle 5 1018 93 5000 4.6 220 01:34 07.01.2020
1254 Clouds 4 1017 80 10000 3.6 230 00:40 07.01.2020
1255 Clouds 5 1017 86 9000 6.2 230 00:20 07.01.2020
1256 Clouds 4 1017 86 10000 5.1 210 23:55 06.01.2020
1257 Clouds 4 1017 87 10000 4.1 210 23:36 06.01.2020
1258 Clouds 4 1017 86 10000 5.1 210 23:18 06.01.2020
1259 Clouds 4 1017 84 10000 3.6 210 22:43 06.01.2020
1260 Clouds 3 1018 80 10000 5.1 200 22:24 06.01.2020
1261 Clouds 3 1018 80 10000 5.1 200 21:58 06.01.2020
1262 Clouds 3 1018 84 10000 3.1 190 21:39 06.01.2020
1263 Clouds 3 1018 80 10000 4.6 200 21:20 06.01.2020
1264 Clouds 3 1018 80 10000 4.6 200 21:20 06.01.2020
1265 Clouds 3 1018 80 10000 4.6 200 21:20 06.01.2020
1266 Clouds 3 1018 84 10000 3.6 170 20:57 06.01.2020
1267 Clouds 3 1018 84 10000 3.6 170 20:38 06.01.2020
1268 Clouds 3 1018 84 10000 3.6 170 20:38 06.01.2020
1269 Clouds 3 1018 80 10000 4.6 180 20:20 06.01.2020
1270 Clouds 3 1018 80 10000 4.6 180 19:56 06.01.2020
1271 Clouds 3 1019 86 10000 4.6 190 19:38 06.01.2020
1272 Clouds 3 1019 80 10000 4.6 180 19:20 06.01.2020
1273 Clouds 4 1019 80 10000 4.1 180 18:48 06.01.2020
1274 Clouds 4 1019 80 10000 4.6 170 18:23 06.01.2020
1275 Clouds 4 1020 80 10000 4.1 170 17:59 06.01.2020
1276 Clouds 4 1020 80 10000 4.1 170 17:38 06.01.2020
1277 Clouds 4 1020 80 10000 4.6 170 17:18 06.01.2020
1278 Clouds 5 1021 81 10000 5.7 200 16:44 06.01.2020
1279 Clouds 5 1021 75 10000 5.1 190 16:25 06.01.2020
1280 Clouds 6 1021 75 10000 5.1 190 15:59 06.01.2020
1281 Clouds 6 1021 87 10000 4.6 200 15:39 06.01.2020
1282 Clouds 6 1022 81 10000 5.7 210 15:19 06.01.2020
1283 Drizzle 6 1022 93 9000 5.1 210 14:58 06.01.2020
1284 Drizzle 6 1022 93 9000 5.1 210 14:39 06.01.2020
1285 Clouds 6 1022 87 10000 5.1 200 14:20 06.01.2020
1286 Drizzle 6 1023 93 8000 4.1 210 13:55 06.01.2020
1287 Drizzle 6 1023 93 8000 4.1 210 13:55 06.01.2020
1288 Drizzle 6 1023 93 8000 4.1 210 13:37 06.01.2020
1289 Drizzle 6 1023 93 8000 4.6 220 13:19 06.01.2020
1290 Clouds 6 1024 93 9000 4.6 220 12:42 06.01.2020
1291 Mist 6 1024 87 5000 5.7 200 12:20 06.01.2020
1292 Clouds 6 1025 93 8000 4.6 210 11:58 06.01.2020
1293 Clouds 6 1025 93 8000 4.6 210 11:39 06.01.2020
1294 Clouds 6 1025 93 8000 4.1 210 11:20 06.01.2020
1295 Clouds 6 1025 93 8000 4.1 220 10:54 06.01.2020
1296 Clouds 6 1025 93 8000 4.1 220 10:36 06.01.2020
1297 Clouds 6 1025 93 8000 4.6 220 10:18 06.01.2020
1298 Clouds 6 1025 87 8000 4.1 210 09:37 06.01.2020
1299 Mist 6 1026 93 5000 3.6 200 09:19 06.01.2020
1300 Clouds 6 1026 87 8000 3.6 220 08:43 06.01.2020
1301 Clouds 6 1026 93 6000 4.1 210 08:25 06.01.2020
1302 Clouds 6 1026 87 10000 3.6 220 07:53 06.01.2020
1303 Mist 6 1026 93 5000 4.6 210 07:28 06.01.2020
1304 Clouds 6 1026 87 10000 4.6 230 06:45 06.01.2020
1305 Clouds 6 1027 93 6000 4.1 210 06:20 06.01.2020
1306 Clouds 6 1026 87 10000 3.6 220 05:45 06.01.2020
1307 Clouds 6 1027 93 9000 4.1 230 04:37 06.01.2020
1308 Clouds 6 1027 93 9000 4.1 240 04:18 06.01.2020
1309 Drizzle 6 1027 93 6000 4.6 220 02:46 06.01.2020
1310 Clouds 6 1028 93 10000 5.1 210 02:24 06.01.2020
1311 Clouds 6 1027 93 6000 4.1 220 01:44 06.01.2020
1312 Clouds 6 1028 93 8000 4.6 210 01:26 06.01.2020
1313 Clouds 6 1028 93 6000 4.1 220 00:42 06.01.2020
1314 Clouds 6 1029 93 10000 4.1 210 00:23 06.01.2020
1315 Drizzle 6 1028 87 5000 5.1 230 23:42 05.01.2020
1316 Drizzle 6 1028 87 5000 5.1 230 23:42 05.01.2020
1317 Clouds 6 1029 93 10000 5.1 220 23:22 05.01.2020
1318 Drizzle 6 1029 87 6000 3.6 230 22:57 05.01.2020
1319 Clouds 6 1029 93 9000 6.2 220 22:38 05.01.2020
1320 Clouds 6 1029 93 6000 6.2 210 22:20 05.01.2020
1321 Clouds 6 1029 87 10000 5.7 220 21:55 05.01.2020
1322 Clouds 6 1029 87 10000 5.7 220 21:37 05.01.2020
1323 Clouds 6 1030 93 8000 5.7 210 21:19 05.01.2020
1324 Clouds 6 1029 87 10000 4.1 220 20:55 05.01.2020
1325 Clouds 6 1029 87 10000 4.1 220 20:36 05.01.2020
1326 Clouds 6 1030 93 10000 5.1 210 20:18 05.01.2020
1327 Clouds 6 1029 87 10000 4.1 230 19:56 05.01.2020
1328 Clouds 6 1029 87 10000 4.1 230 19:37 05.01.2020
1329 Clouds 6 1030 87 10000 4.6 210 19:19 05.01.2020
1330 Clouds 6 1030 87 10000 4.1 220 18:54 05.01.2020
1331 Clouds 6 1030 87 10000 4.1 220 18:36 05.01.2020
1332 Clouds 7 1030 93 10000 5.1 210 18:18 05.01.2020
1333 Clouds 7 1030 81 10000 3.6 230 17:55 05.01.2020
1334 Clouds 7 1030 81 10000 3.6 230 17:55 05.01.2020
1335 Clouds 7 1030 81 10000 3.6 230 17:37 05.01.2020
1336 Clouds 7 1030 93 10000 4.1 210 17:18 05.01.2020
1337 Clouds 7 1030 87 10000 4.6 230 16:55 05.01.2020
1338 Clouds 7 1030 87 10000 4.6 230 16:36 05.01.2020
1339 Clouds 7 1030 87 10000 4.6 220 16:18 05.01.2020
1340 Clouds 7 1030 87 9000 4.1 230 15:36 05.01.2020
1341 Clouds 7 1030 87 9000 4.1 230 15:36 05.01.2020
1342 Clouds 7 1031 87 10000 4.6 220 15:18 05.01.2020
1343 Clouds 7 1030 93 7000 3.6 230 14:54 05.01.2020
1344 Clouds 7 1030 93 7000 3.6 230 14:36 05.01.2020
1345 Clouds 7 1031 93 10000 5.1 230 14:18 05.01.2020
1346 Mist 7 1031 93 4500 4.1 240 13:40 05.01.2020
1347 Mist 7 1031 93 4000 3.6 230 13:21 05.01.2020
1348 Clouds 7 1031 93 9000 4.6 220 12:58 05.01.2020
1349 Mist 7 1031 100 3500 3.6 220 12:39 05.01.2020
1350 Clouds 7 1032 93 6000 4.6 230 12:21 05.01.2020
1351 Clouds 7 1032 93 6000 4.6 230 12:21 05.01.2020
1352 Clouds 7 1032 93 6000 4.6 230 11:58 05.01.2020
1353 Mist 6 1032 100 3200 3.1 210 11:39 05.01.2020
1354 Mist 7 1032 100 4700 4.6 220 11:39 05.01.2020
1355 Mist 6 1032 93 4600 3.6 210 11:19 05.01.2020
1356 Mist 6 1032 93 4500 3.1 220 10:56 05.01.2020
1357 Mist 6 1032 93 4500 3.1 220 10:36 05.01.2020
1358 Mist 5 1032 100 3200 3.1 210 10:18 05.01.2020
1359 Mist 5 1032 93 4000 2.6 220 09:41 05.01.2020
1360 Mist 5 1032 100 4500 2.1 220 09:21 05.01.2020
1361 Mist 5 1032 93 4500 2.1 220 08:48 05.01.2020
1362 Mist 4 1032 100 1300 3.6 200 08:29 05.01.2020
1363 Mist 4 1032 93 4500 1.5 160 07:55 05.01.2020
1364 Mist 4 1032 93 4500 1.5 160 07:36 05.01.2020
1365 Clouds 4 1032 93 7000 2.1 220 07:18 05.01.2020
1366 Mist 3 1032 100 3700 3.1 210 05:59 05.01.2020
1367 Clouds 3 1032 100 6000 2.6 210 05:32 05.01.2020
1368 Clouds 2 1032 84 10000 1.5 230 04:43 05.01.2020
1369 Clouds 2 1032 84 10000 1.5 230 04:43 05.01.2020
1370 Clouds 2 1032 84 10000 3.1 220 04:18 05.01.2020
1371 Clouds 2 1032 84 10000 3.1 220 04:18 05.01.2020
1372 Clouds 2 1032 84 10000 3.1 220 04:18 05.01.2020
1373 Clouds 2 1032 80 10000 2.6 260 02:46 05.01.2020
1374 Mist 2 1032 100 1800 2.1 210 02:24 05.01.2020
1375 Clouds 2 1031 80 10000 3.1 260 01:48 05.01.2020
1376 Clouds 2 1031 80 10000 2.1 270 01:19 05.01.2020
1377 Clouds 2 1031 80 10000 2.1 270 00:42 05.01.2020
1378 Clear 3 1032 100 7000 3.1 250 00:23 05.01.2020
1379 Clear 3 1032 100 7000 3.1 250 23:59 04.01.2020
1380 Clouds 3 1031 80 10000 2.1 260 23:40 04.01.2020
1381 Clear 3 1031 93 9000 2.1 260 23:19 04.01.2020
1382 Clear 3 1031 93 9000 2.1 260 23:19 04.01.2020
1383 Clouds 3 1030 74 10000 3.6 270 22:40 04.01.2020
1384 Clear 3 1031 93 9000 2.6 250 22:22 04.01.2020
1385 Clouds 3 1029 74 10000 3.1 270 21:58 04.01.2020
1386 Clouds 4 1029 74 10000 3.1 270 21:40 04.01.2020
1387 Clouds 4 1030 93 10000 2.6 250 21:20 04.01.2020
1388 Clouds 4 1029 75 10000 2.6 300 20:59 04.01.2020
1389 Clouds 4 1029 75 10000 2.6 300 20:40 04.01.2020
1390 Clouds 4 1029 86 10000 2.6 280 20:21 04.01.2020
1391 Clouds 4 1028 74 10000 3.1 310 19:57 04.01.2020
1392 Clouds 4 1028 74 10000 3.1 310 19:38 04.01.2020
1393 Clouds 4 1027 74 10000 4.1 330 19:20 04.01.2020
1394 Clouds 5 1027 74 10000 4.1 330 18:56 04.01.2020
1395 Clouds 5 1027 74 10000 4.1 330 18:37 04.01.2020
1396 Clouds 5 1027 93 10000 3.1 270 18:18 04.01.2020
1397 Clouds 5 1026 70 10000 5.1 330 17:41 04.01.2020
1398 Clouds 5 1026 93 10000 3.1 300 17:23 04.01.2020
1399 Rain 6 1026 93 10000 3.1 300 16:59 04.01.2020
1400 Clouds 6 1024 81 10000 4.1 310 16:40 04.01.2020
1401 Clouds 6 1025 93 10000 4.1 300 16:21 04.01.2020
1402 Clouds 6 1023 81 10000 5.1 300 15:56 04.01.2020
1403 Clouds 6 1023 81 10000 5.1 300 15:38 04.01.2020
1404 Clouds 7 1024 87 10000 5.7 290 15:18 04.01.2020
1405 Clouds 7 1022 87 10000 6.2 310 14:42 04.01.2020
1406 Clouds 7 1022 87 10000 6.2 310 14:42 04.01.2020
1407 Clouds 8 1024 87 10000 7.2 280 14:20 04.01.2020
1408 Clouds 8 1024 87 10000 7.2 280 13:59 04.01.2020
1409 Rain 8 1022 87 10000 7.2 320 13:39 04.01.2020
1410 Rain 8 1021 87 5000 9.3 290 13:20 04.01.2020
1411 Clouds 8 1024 81 10000 7.2 280 12:59 04.01.2020
1412 Clouds 8 1021 87 10000 10.3 290 12:40 04.01.2020
1413 Clouds 8 1021 87 10000 10.3 290 12:40 04.01.2020
1414 Clouds 8 1021 81 10000 10.3 280 12:19 04.01.2020
1415 Clouds 8 1024 81 10000 6.2 270 11:57 04.01.2020
1416 Clouds 8 1021 81 10000 9.3 280 11:38 04.01.2020
1417 Clouds 8 1024 81 10000 5.7 270 11:19 04.01.2020
1418 Clouds 7 1021 87 10000 8.7 270 10:41 04.01.2020
1419 Clouds 7 1023 87 10000 6.2 260 10:22 04.01.2020
1420 Clouds 7 1020 87 10000 9.3 270 09:50 04.01.2020
1421 Clouds 7 1023 87 10000 6.7 260 09:26 04.01.2020
1422 Clouds 7 1023 87 10000 6.7 260 08:58 04.01.2020
1423 Clouds 7 1020 87 10000 8.7 260 08:39 04.01.2020
1424 Clouds 6 1023 93 10000 5.7 260 08:20 04.01.2020
1425 Clouds 6 1021 81 10000 8.2 260 07:42 04.01.2020
1426 Clouds 6 1023 87 10000 6.2 260 07:19 04.01.2020
1427 Clouds 5 1023 87 10000 5.7 260 06:33 04.01.2020
1428 Clouds 5 1023 93 10000 4.6 240 05:19 04.01.2020
1429 Clouds 4 1024 93 10000 4.6 250 04:34 04.01.2020
1430 Clouds 4 1021 86 10000 6.2 260 03:52 04.01.2020
1431 Clouds 4 1024 93 10000 4.1 240 03:18 04.01.2020
1432 Clouds 4 1024 86 10000 4.1 240 02:21 04.01.2020
1433 Clouds 4 1022 80 10000 4.6 260 01:55 04.01.2020
1434 Clouds 4 1024 93 10000 3.6 230 01:31 04.01.2020
1435 Clouds 4 1022 80 10000 4.6 260 00:46 04.01.2020
1436 Clouds 4 1024 86 10000 3.6 240 00:26 04.01.2020
1437 Clouds 4 1022 80 10000 5.7 280 23:48 03.01.2020
1438 Clouds 4 1023 93 10000 3.6 250 23:25 03.01.2020
1439 Rain 4 1021 81 10000 4.1 290 22:54 03.01.2020
1440 Rain 4 1021 81 10000 4.1 290 22:36 03.01.2020
1441 Clouds 4 1023 86 10000 3.1 260 22:18 03.01.2020
1442 Clouds 5 1020 81 10000 5.1 290 21:54 03.01.2020
1443 Clouds 5 1020 81 10000 5.1 290 21:36 03.01.2020
1444 Clouds 5 1022 86 10000 3.1 260 21:18 03.01.2020
1445 Clouds 5 1019 81 10000 5.1 300 20:43 03.01.2020
1446 Rain 5 1021 81 10000 3.1 300 20:19 03.01.2020
1447 Rain 5 1021 81 10000 3.1 300 19:59 03.01.2020
1448 Clouds 6 1018 81 10000 4.1 310 19:40 03.01.2020
1449 Rain 6 1019 75 10000 4.6 320 19:22 03.01.2020
1450 Clouds 6 1017 93 10000 4.1 310 18:46 03.01.2020
1451 Rain 6 1018 87 10000 4.6 300 18:26 03.01.2020
1452 Rain 6 1018 87 10000 4.6 300 18:26 03.01.2020
1453 Rain 6 1018 87 10000 4.6 300 17:58 03.01.2020
1454 Rain 6 1015 93 8000 4.1 330 17:39 03.01.2020
1455 Clouds 6 1016 93 10000 5.1 330 17:21 03.01.2020
1456 Rain 6 1013 93 8000 5.1 10 16:43 03.01.2020
1457 Rain 7 1014 93 5000 6.2 340 16:24 03.01.2020
1458 Rain 7 1014 93 5000 6.2 340 15:59 03.01.2020
1459 Drizzle 8 1012 100 5000 5.1 290 15:41 03.01.2020
1460 Rain 8 1012 93 8000 4.6 290 15:19 03.01.2020
1461 Drizzle 9 1011 93 5000 4.1 250 14:39 03.01.2020
1462 Rain 9 1011 100 2300 3.6 230 14:20 03.01.2020
1463 Drizzle 9 1011 93 5000 5.7 240 13:57 03.01.2020
1464 Drizzle 9 1011 93 5000 5.7 240 13:39 03.01.2020
1465 Drizzle 9 1011 93 2200 4.1 210 13:20 03.01.2020
1466 Drizzle 8 1011 100 3800 5.1 230 12:41 03.01.2020
1467 Drizzle 8 1011 93 3800 5.1 230 12:22 03.01.2020
1468 Drizzle 8 1011 93 3800 5.7 220 11:53 03.01.2020
1469 Drizzle 8 1012 93 3000 4.6 220 11:34 03.01.2020
1470 Drizzle 8 1012 93 2200 5.1 220 10:58 03.01.2020
1471 Drizzle 8 1012 93 2200 5.1 220 10:39 03.01.2020
1472 Drizzle 8 1012 93 2200 5.7 220 10:21 03.01.2020
1473 Drizzle 8 1012 93 2000 5.7 220 09:55 03.01.2020
1474 Drizzle 8 1012 93 2000 5.7 220 09:37 03.01.2020
1475 Drizzle 8 1012 93 2500 6.7 210 09:19 03.01.2020
1476 Drizzle 8 1012 100 1400 6.2 220 08:44 03.01.2020
1477 Drizzle 8 1012 93 2600 7.7 220 08:22 03.01.2020
1478 Drizzle 8 1012 93 2600 7.7 220 07:56 03.01.2020
1479 Drizzle 8 1012 93 2500 6.2 230 07:37 03.01.2020
1480 Drizzle 7 1012 93 2500 7.2 210 07:18 03.01.2020
1481 Drizzle 7 1012 93 3000 7.2 220 06:42 03.01.2020
1482 Drizzle 7 1012 93 3000 7.2 220 06:22 03.01.2020
1483 Drizzle 7 1012 93 3000 7.2 220 06:22 03.01.2020
1484 Mist 7 1013 100 3600 7.7 210 04:59 03.01.2020
1485 Clouds 7 1013 93 10000 7.7 210 03:38 03.01.2020
1486 Clouds 6 1014 87 10000 7.2 210 02:53 03.01.2020
1487 Clouds 6 1014 87 10000 7.2 210 02:53 03.01.2020
1488 Clouds 6 1015 87 10000 7.7 210 01:51 03.01.2020
1489 Clouds 6 1016 93 10000 7.2 200 01:33 03.01.2020
1490 Clouds 6 1016 93 10000 6.2 200 00:43 03.01.2020
1491 Clouds 5 1017 87 10000 6.2 190 00:24 03.01.2020
1492 Clouds 5 1017 86 7000 6.2 210 23:39 02.01.2020
1493 Clouds 5 1017 93 10000 7.2 200 23:20 02.01.2020
1494 Clouds 5 1017 93 10000 7.2 200 22:59 02.01.2020
1495 Mist 5 1017 93 4000 6.7 200 22:41 02.01.2020
1496 Clouds 5 1018 93 9000 6.7 200 22:20 02.01.2020
1497 Clouds 5 1018 93 9000 6.7 200 22:20 02.01.2020
1498 Clouds 4 1018 93 9000 6.7 200 21:57 02.01.2020
1499 Mist 4 1018 93 4000 6.7 210 21:38 02.01.2020
1500 Clouds 4 1018 93 7000 6.7 200 21:20 02.01.2020
1501 Clouds 4 1018 93 7000 6.7 200 20:56 02.01.2020
1502 Drizzle 4 1019 100 3500 5.1 200 20:38 02.01.2020
1503 Mist 4 1019 93 3300 6.7 200 20:20 02.01.2020
1504 Drizzle 3 1020 93 3500 4.6 210 19:55 02.01.2020
1505 Drizzle 3 1020 93 3500 4.6 210 19:36 02.01.2020
1506 Mist 3 1020 100 4600 5.1 190 19:18 02.01.2020
1507 Mist 3 1020 100 3000 4.6 200 18:54 02.01.2020
1508 Mist 3 1020 100 3000 4.6 200 18:36 02.01.2020
1509 Mist 3 1020 93 4000 5.1 190 18:18 02.01.2020
1510 Mist 3 1020 93 5000 5.1 190 17:55 02.01.2020
1511 Mist 2 1021 100 3000 4.6 200 17:36 02.01.2020
1512 Mist 2 1021 93 3700 5.7 190 17:18 02.01.2020
1513 Mist 2 1021 100 2500 4.6 190 16:42 02.01.2020
1514 Mist 2 1021 93 3800 5.1 190 16:21 02.01.2020
1515 Mist 2 1021 100 1200 5.7 200 15:59 02.01.2020
1516 Mist 2 1021 100 1200 5.7 200 15:41 02.01.2020
1517 Mist 2 1022 100 2800 5.1 190 15:23 02.01.2020
1518 Fog 2 1022 88 800 4.6 200 14:57 02.01.2020
1519 Fog 2 1022 88 800 4.6 200 14:37 02.01.2020
1520 Mist 2 1022 100 2700 4.6 190 14:18 02.01.2020
1521 Fog 2 1023 93 800 5.1 220 13:55 02.01.2020
1522 Fog 2 1023 93 800 5.1 220 13:36 02.01.2020
1523 Mist 1 1023 100 1500 5.1 190 12:59 02.01.2020
1524 Fog 1 1024 92 500 4.6 220 12:40 02.01.2020
1525 Fog 1 1025 100 400 5.1 220 12:20 02.01.2020
1526 Fog 1 1025 100 650 4.6 200 11:41 02.01.2020
1527 Fog 0 1025 100 700 5.1 200 11:21 02.01.2020
1528 Fog 0 1025 96 800 4.6 230 10:46 02.01.2020
1529 Mist 0 1026 96 1000 5.1 200 10:27 02.01.2020
1530 Mist 0 1026 96 1800 4.1 230 09:56 02.01.2020
1531 Mist 0 1026 96 1800 4.1 230 09:35 02.01.2020
1532 Mist 0 1026 96 2200 4.6 230 08:58 02.01.2020
1533 Mist 0 1026 96 2200 4.6 230 08:39 02.01.2020
1534 Mist 0 1026 96 1000 4.1 220 08:19 02.01.2020
1535 Mist 0 1026 96 2000 3.6 240 07:47 02.01.2020
1536 Fog 0 1026 96 750 5.1 220 07:26 02.01.2020
1537 Fog 0 1025 96 800 4.1 220 06:41 02.01.2020
1538 Mist 0 1026 96 1100 4.1 230 05:40 02.01.2020
1539 Mist 0 1026 90 1100 4.1 210 04:35 02.01.2020
1540 Fog 0 1027 90 700 3.6 220 03:44 02.01.2020
1541 Mist 0 1028 100 1100 3.6 210 02:21 02.01.2020
1542 Fog 0 1028 96 800 3.1 220 01:57 02.01.2020
1543 Mist 0 1028 100 1300 3.6 260 01:26 02.01.2020
1544 Fog 0 1029 87 800 2.6 240 00:49 02.01.2020
1545 Fog 0 1029 87 500 3.6 250 00:26 02.01.2020
1546 Fog 0 1029 87 500 3.6 250 00:26 02.01.2020
1547 Fog 0 1029 100 700 3.1 220 23:43 01.01.2020
1548 Fog 0 1029 100 700 3.1 220 23:43 01.01.2020
1549 Mist 0 1029 87 1600 5.1 210 23:23 01.01.2020
1550 Fog 0 1029 100 700 3.1 230 22:39 01.01.2020
1551 Fog 0 1029 87 900 4.6 220 22:21 01.01.2020
1552 Fog 0 1029 87 900 4.6 220 21:59 01.01.2020
1553 Mist 0 1029 100 1000 3.6 230 21:40 01.01.2020
1554 Mist 0 1029 87 1800 4.6 210 21:21 01.01.2020
1555 Mist 0 1029 87 1800 4.6 210 20:58 01.01.2020
1556 Mist 0 1029 100 1000 4.6 210 20:39 01.01.2020
1557 Fog 0 1030 79 750 4.1 200 20:20 01.01.2020
1558 Fog 0 1030 79 750 4.1 200 19:57 01.01.2020
1559 Fog 0 1030 100 800 3.1 210 19:39 01.01.2020
1560 Fog 0 1030 100 700 3.6 210 19:20 01.01.2020
1561 Mist 0 1030 79 1200 4.1 210 18:57 01.01.2020
1562 Fog -1 1030 100 400 3.6 210 18:38 01.01.2020
1563 Mist -1 1030 100 1500 3.6 210 18:20 01.01.2020
1564 Mist -1 1030 100 1500 3.6 210 17:58 01.01.2020
1565 Fog -1 1030 100 400 3.6 210 17:40 01.01.2020
1566 Mist 0 1030 81 1800 4.6 200 17:20 01.01.2020
1567 Fog 0 1030 100 300 3.1 210 16:58 01.01.2020
1568 Fog 0 1030 100 300 3.1 210 16:38 01.01.2020
1569 Fog 0 1030 100 300 3.1 210 16:38 01.01.2020
1570 Mist 0 1030 81 1800 3.6 190 16:19 01.01.2020
1571 Mist 0 1030 81 1800 3.6 190 15:57 01.01.2020
1572 Fog 0 1030 100 300 3.6 190 15:38 01.01.2020
1573 Mist 0 1030 81 2100 3.6 200 15:20 01.01.2020
1574 Mist 0 1030 81 2100 3.6 200 14:56 01.01.2020
1575 Fog 0 1031 81 400 2.6 210 14:37 01.01.2020
1576 Mist 0 1031 83 1700 3.1 180 14:19 01.01.2020
1577 Fog 0 1031 100 200 2.1 210 13:55 01.01.2020
1578 Fog 0 1031 100 200 2.1 210 13:36 01.01.2020
1579 Mist 0 1032 100 1600 3.1 190 13:18 01.01.2020
1580 Fog 0 1032 100 200 2.6 190 12:54 01.01.2020
1581 Fog 0 1032 80 650 2.6 170 12:36 01.01.2020
1582 Fog 0 1032 80 450 2.1 170 12:18 01.01.2020
1583 Fog 0 1033 92 100 2.6 190 11:41 01.01.2020
1584 Fog 0 1032 90 250 4.1 160 11:21 01.01.2020
1585 Fog 0 1032 90 250 4.1 160 11:21 01.01.2020
1586 Fog 0 1033 92 100 2.1 200 10:56 01.01.2020
1587 Fog 0 1033 92 100 2.1 200 10:38 01.01.2020
1588 Fog 0 1033 100 350 2.6 190 10:19 01.01.2020
1589 Fog 0 1033 92 100 2.1 190 09:42 01.01.2020
1590 Fog 0 1033 100 500 2.6 170 09:22 01.01.2020
1591 Fog 1 1033 100 500 2.6 170 08:57 01.01.2020
1592 Fog 0 1033 90 100 2.6 200 08:39 01.01.2020
1593 Fog 1 1033 100 450 3.1 170 08:20 01.01.2020
1594 Fog 1 1033 91 100 2.1 210 07:58 01.01.2020
1595 Fog 1 1033 91 100 2.1 210 07:40 01.01.2020
1596 Fog 0 1033 91 400 1 0 07:20 01.01.2020
1597 Fog 0 1033 91 100 2.1 230 06:40 01.01.2020
1598 Fog 0 1033 91 350 1 0 06:18 01.01.2020
1599 Fog 0 1034 100 150 2.1 230 04:36 01.01.2020
1600 Fog 0 1034 92 150 2.1 220 03:41 01.01.2020
1601 Fog 0 1034 87 350 2.1 200 03:22 01.01.2020
1602 Fog 0 1034 93 1500 0.5 0 02:54 01.01.2020
1603 Fog 1 1034 100 150 2.6 220 02:30 01.01.2020
1604 Fog 1 1034 93 10000 0.5 0 01:45 01.01.2020
1605 Fog 1 1034 93 10000 1.5 220 01:23 01.01.2020
1606 Clouds 1 1035 93 10000 1.5 200 00:56 01.01.2020
1607 Clouds 1 1035 93 10000 1.5 200 00:37 01.01.2020
1608 Fog 1 1035 87 100 1.5 210 00:18 01.01.2020
1609 Clouds 2 1035 86 10000 2.1 230 23:39 31.12.2019
1610 Fog 2 1035 86 150 1 220 23:19 31.12.2019
1611 Clouds 2 1035 93 10000 1.5 210 22:57 31.12.2019
1612 Clouds 2 1035 93 10000 1.5 210 22:38 31.12.2019
1613 Fog 2 1035 100 200 0.5 220 22:18 31.12.2019
1614 Clouds 2 1035 86 10000 1 290 21:54 31.12.2019
1615 Clouds 2 1035 86 10000 1 290 21:36 31.12.2019
1616 Clouds 2 1035 93 10000 0.5 0 21:18 31.12.2019
1617 Clouds 3 1035 93 10000 0.5 0 20:40 31.12.2019
1618 Fog 3 1035 100 250 1 220 20:21 31.12.2019
1619 Fog 3 1035 100 250 1 220 19:59 31.12.2019
1620 Clouds 3 1035 86 10000 1 0 19:40 31.12.2019
1621 Clouds 3 1034 93 10000 1.5 250 19:22 31.12.2019
1622 Clouds 4 1034 93 10000 1.5 250 18:58 31.12.2019
1623 Clouds 4 1034 93 10000 1.5 250 18:40 31.12.2019
1624 Clouds 4 1034 93 10000 1.5 250 18:20 31.12.2019
1625 Clouds 4 1034 93 10000 1 270 17:56 31.12.2019
1626 Clouds 4 1034 93 10000 1 270 17:38 31.12.2019
1627 Clouds 4 1034 93 10000 1 270 17:38 31.12.2019
1628 Clouds 5 1033 81 10000 2.6 310 17:19 31.12.2019
1629 Clouds 6 1033 81 10000 2.6 310 16:57 31.12.2019
1630 Clouds 6 1033 81 10000 2.6 310 16:38 31.12.2019
1631 Clear 6 1034 87 10000 1.5 290 16:19 31.12.2019
1632 Clouds 7 1033 75 10000 3.1 320 15:56 31.12.2019
1633 Clouds 7 1033 75 10000 3.1 320 15:38 31.12.2019
1634 Clear 8 1033 81 10000 2.6 310 15:20 31.12.2019
1635 Clear 8 1033 81 10000 2.6 310 14:58 31.12.2019
1636 Clouds 8 1033 75 10000 4.6 320 14:38 31.12.2019
1637 Clouds 8 1033 81 10000 3.1 310 14:19 31.12.2019
1638 Clouds 8 1033 70 10000 5.1 310 13:57 31.12.2019
1639 Clouds 8 1033 70 10000 5.1 310 13:39 31.12.2019
1640 Clouds 8 1033 81 10000 2.6 300 13:21 31.12.2019
1641 Clouds 8 1033 81 10000 2.6 300 12:58 31.12.2019
1642 Clouds 8 1032 75 10000 4.6 290 12:40 31.12.2019
1643 Clouds 7 1033 87 10000 2.6 290 12:20 31.12.2019
1644 Clouds 7 1032 75 10000 4.1 280 11:56 31.12.2019
1645 Clouds 7 1032 75 10000 4.1 280 11:38 31.12.2019
1646 Clouds 6 1033 100 10000 1.5 290 11:20 31.12.2019
1647 Clouds 6 1033 100 10000 1.5 290 10:57 31.12.2019
1648 Clouds 6 1032 81 10000 3.6 280 10:38 31.12.2019
1649 Clouds 5 1033 100 8000 2.1 270 10:20 31.12.2019
1650 Clouds 5 1033 100 8000 2.1 270 09:59 31.12.2019
1651 Clouds 5 1031 81 10000 3.6 280 09:39 31.12.2019
1652 Clouds 5 1030 81 10000 3.6 300 09:20 31.12.2019
1653 Clouds 5 1030 81 10000 3.6 300 08:57 31.12.2019
1654 Clouds 4 1030 81 10000 3.6 300 08:39 31.12.2019
1655 Clouds 5 1029 87 10000 3.1 300 08:19 31.12.2019
1656 Clouds 5 1029 87 10000 3.1 300 07:43 31.12.2019
1657 Clouds 5 1030 93 6000 1.5 290 07:21 31.12.2019
1658 Clouds 5 1028 87 10000 3.1 300 06:50 31.12.2019
1659 Clouds 5 1027 87 10000 3.1 300 05:58 31.12.2019
1660 Clouds 7 1028 93 8000 3.6 310 04:30 31.12.2019
1661 Clouds 7 1026 100 8000 4.1 300 03:59 31.12.2019
1662 Mist 7 1024 93 3500 3.6 280 02:56 31.12.2019
1663 Mist 7 1026 100 3500 3.1 260 02:19 31.12.2019
1664 Drizzle 7 1024 93 6000 4.6 270 01:48 31.12.2019
1665 Drizzle 7 1024 93 6000 4.6 270 01:48 31.12.2019
1666 Mist 6 1026 100 2700 2.6 260 01:28 31.12.2019
1667 Drizzle 6 1024 93 3500 5.1 270 00:47 31.12.2019
1668 Clouds 6 1025 93 9000 4.1 260 00:23 31.12.2019
1669 Clouds 6 1025 93 9000 4.1 260 00:23 31.12.2019
1670 Clouds 5 1024 87 10000 4.1 260 23:58 30.12.2019
1671 Clouds 5 1024 87 10000 4.1 260 23:38 30.12.2019
1672 Clear 5 1025 93 8000 4.1 250 23:20 30.12.2019
1673 Clouds 5 1023 86 10000 5.7 260 22:59 30.12.2019
1674 Clouds 5 1023 86 10000 5.7 260 22:40 30.12.2019
1675 Clouds 5 1023 86 10000 5.1 260 22:20 30.12.2019
1676 Clear 5 1024 86 10000 5.1 250 21:57 30.12.2019
1677 Clouds 5 1023 80 10000 4.6 260 21:39 30.12.2019
1678 Clear 5 1024 80 10000 5.7 240 21:20 30.12.2019
1679 Clear 5 1024 80 10000 5.7 240 20:58 30.12.2019
1680 Clear 5 1023 90 10000 5.1 250 20:40 30.12.2019
1681 Clear 4 1024 86 10000 5.7 230 20:20 30.12.2019
1682 Clear 4 1024 90 10000 5.7 230 19:59 30.12.2019
1683 Clear 5 1023 69 10000 5.7 230 19:39 30.12.2019
1684 Clear 5 1024 90 10000 6.7 220 19:20 30.12.2019
1685 Clear 5 1023 60 10000 4.6 240 18:59 30.12.2019
1686 Clear 5 1023 60 10000 4.6 240 18:41 30.12.2019
1687 Clear 5 1024 69 10000 5.7 220 18:21 30.12.2019
1688 Clear 5 1023 60 10000 4.1 240 17:58 30.12.2019
1689 Clear 5 1023 60 10000 4.1 240 17:40 30.12.2019
1690 Clear 6 1024 65 10000 5.7 230 17:19 30.12.2019
1691 Clear 6 1024 65 10000 5.7 230 16:59 30.12.2019
1692 Clouds 6 1023 60 10000 3.6 230 16:39 30.12.2019
1693 Clear 6 1024 56 10000 7.2 220 16:20 30.12.2019
1694 Clear 7 1024 56 10000 7.2 220 15:56 30.12.2019
1695 Clouds 7 1023 52 10000 4.6 220 15:38 30.12.2019
1696 Clear 7 1024 56 10000 6.2 210 15:19 30.12.2019
1697 Clouds 7 1024 52 10000 5.7 220 14:54 30.12.2019
1698 Clouds 7 1024 52 10000 5.7 220 14:36 30.12.2019
1699 Clouds 7 1025 52 10000 6.7 230 14:18 30.12.2019
1700 Clouds 7 1024 52 10000 5.1 230 13:41 30.12.2019
1701 Clouds 7 1026 56 10000 6.7 220 13:23 30.12.2019
1702 Clouds 7 1025 52 10000 4.1 230 12:58 30.12.2019
1703 Clouds 7 1025 52 10000 4.1 230 12:39 30.12.2019
1704 Clouds 6 1027 56 10000 7.2 220 12:19 30.12.2019
1705 Clouds 6 1026 56 10000 5.1 220 11:56 30.12.2019
1706 Clouds 5 1026 56 10000 5.1 220 11:37 30.12.2019
1707 Clouds 5 1027 60 10000 6.2 210 11:18 30.12.2019
1708 Clouds 5 1026 52 10000 5.1 230 10:42 30.12.2019
1709 Clouds 5 1026 52 10000 5.1 230 10:42 30.12.2019
1710 Clouds 5 1027 60 10000 5.7 220 10:20 30.12.2019
1711 Clouds 5 1026 55 10000 4.6 220 09:44 30.12.2019
1712 Clouds 5 1027 60 10000 6.2 210 09:22 30.12.2019
1713 Clouds 5 1026 52 10000 4.6 230 08:58 30.12.2019
1714 Clouds 5 1026 52 10000 4.6 230 08:39 30.12.2019
1715 Clouds 5 1027 60 10000 5.7 210 08:21 30.12.2019
1716 Clouds 5 1027 52 10000 4.6 230 07:53 30.12.2019
1717 Clouds 5 1028 60 10000 5.7 210 07:32 30.12.2019
1718 Clouds 5 1027 52 10000 5.7 220 06:39 30.12.2019
1719 Clouds 5 1028 55 10000 4.6 210 04:45 30.12.2019
1720 Clouds 5 1029 55 10000 4.6 220 03:52 30.12.2019
1721 Clouds 5 1029 55 10000 5.1 220 02:47 30.12.2019
1722 Clouds 5 1029 55 10000 5.1 220 02:47 30.12.2019
1723 Clouds 5 1030 60 10000 6.2 210 02:29 30.12.2019
1724 Clouds 4 1030 55 10000 5.7 220 01:47 30.12.2019
1725 Clouds 4 1030 60 10000 6.2 200 01:19 30.12.2019
1726 Clouds 4 1030 55 10000 6.2 220 00:42 30.12.2019
1727 Clouds 4 1031 60 10000 7.2 210 23:59 29.12.2019
1728 Clouds 4 1031 55 10000 5.1 220 23:39 29.12.2019
1729 Clouds 3 1031 69 10000 4.1 210 23:21 29.12.2019
1730 Clouds 3 1031 55 10000 5.1 210 22:42 29.12.2019
1731 Clouds 3 1032 64 10000 6.2 200 22:23 29.12.2019
1732 Clouds 3 1031 64 10000 5.1 220 21:58 29.12.2019
1733 Clouds 3 1031 64 10000 5.1 220 21:40 29.12.2019
1734 Clouds 3 1032 69 10000 4.6 200 21:20 29.12.2019
1735 Clouds 3 1032 69 10000 4.6 200 21:20 29.12.2019
1736 Clouds 3 1032 69 10000 4.6 200 20:57 29.12.2019
1737 Clouds 3 1032 69 10000 4.1 220 20:39 29.12.2019
1738 Clouds 3 1033 74 10000 4.1 210 20:20 29.12.2019
1739 Clouds 3 1033 74 10000 4.1 210 20:20 29.12.2019
1740 Clouds 3 1033 74 10000 4.1 210 19:59 29.12.2019
1741 Clouds 3 1032 74 10000 4.1 200 19:40 29.12.2019
1742 Clouds 3 1033 69 10000 3.6 200 19:21 29.12.2019
1743 Clouds 3 1033 80 10000 3.1 200 18:57 29.12.2019
1744 Clouds 3 1033 80 10000 3.1 200 18:38 29.12.2019
1745 Clouds 3 1033 74 10000 3.6 210 18:19 29.12.2019
1746 Clouds 3 1033 74 10000 3.6 210 17:58 29.12.2019
1747 Clouds 3 1033 80 10000 3.6 190 17:39 29.12.2019
1748 Clouds 3 1033 74 10000 4.6 190 17:20 29.12.2019
1749 Clouds 3 1034 80 10000 3.6 200 16:57 29.12.2019
1750 Clouds 3 1034 80 10000 3.6 200 16:38 29.12.2019
1751 Clouds 3 1034 80 10000 3.6 200 16:38 29.12.2019
1752 Clouds 3 1034 74 10000 4.1 210 16:20 29.12.2019
1753 Clouds 3 1034 74 10000 4.1 210 15:58 29.12.2019
1754 Clouds 3 1034 80 10000 3.1 200 15:39 29.12.2019
1755 Clouds 3 1034 74 10000 4.1 200 15:20 29.12.2019
1756 Clouds 3 1034 74 10000 4.1 200 14:58 29.12.2019
1757 Clouds 3 1034 80 10000 3.6 190 14:39 29.12.2019
1758 Clouds 3 1034 70 10000 4.1 210 14:18 29.12.2019
1759 Clouds 3 1034 70 10000 4.1 210 14:18 29.12.2019
1760 Clouds 3 1034 70 10000 4.1 210 13:58 29.12.2019
1761 Clouds 2 1034 80 10000 4.6 200 13:39 29.12.2019
1762 Clouds 2 1035 71 10000 4.6 200 13:21 29.12.2019
1763 Clouds 2 1035 71 10000 4.1 200 12:56 29.12.2019
1764 Clouds 2 1035 86 10000 4.1 210 12:37 29.12.2019
1765 Clouds 2 1036 80 10000 4.1 200 12:19 29.12.2019
1766 Clouds 1 1036 80 10000 4.6 210 11:40 29.12.2019
1767 Clouds 1 1036 86 10000 4.1 210 11:20 29.12.2019
1768 Clouds 1 1036 75 10000 3.6 190 10:56 29.12.2019
1769 Clouds 0 1036 75 10000 3.6 190 10:37 29.12.2019
1770 Clouds 0 1036 75 10000 3.6 200 10:18 29.12.2019
1771 Clouds 0 1036 75 10000 2.6 200 09:44 29.12.2019
1772 Clouds 0 1036 75 9000 3.1 200 09:26 29.12.2019
1773 Clouds 0 1037 75 10000 3.1 200 08:55 29.12.2019
1774 Clouds 0 1037 75 10000 3.1 200 08:37 29.12.2019
1775 Clouds 0 1037 76 10000 2.6 180 08:18 29.12.2019
1776 Clouds 0 1037 92 10000 3.6 200 07:43 29.12.2019
1777 Clouds 0 1037 76 10000 3.6 200 07:25 29.12.2019
1778 Clouds -1 1037 76 10000 3.6 190 06:28 29.12.2019
1779 Clouds -1 1037 86 10000 2.6 190 05:55 29.12.2019
1780 Clouds -1 1037 92 10000 3.1 190 04:59 29.12.2019
1781 Clouds -1 1037 92 10000 3.1 200 04:30 29.12.2019
1782 Clouds -1 1037 92 10000 2.6 170 03:32 29.12.2019
1783 Clouds -1 1038 80 10000 3.1 190 02:27 29.12.2019
1784 Clouds 0 1038 92 10000 2.6 180 01:47 29.12.2019
1785 Clouds 0 1038 81 10000 2.6 180 01:28 29.12.2019
1786 Clouds 0 1038 81 10000 3.1 190 00:45 29.12.2019
1787 Clouds 0 1038 81 10000 3.6 170 00:24 29.12.2019
1788 Clouds 0 1039 81 10000 2.6 190 23:55 28.12.2019
1789 Clouds 0 1039 81 10000 2.6 190 23:37 28.12.2019
1790 Clouds 0 1039 84 10000 2.1 170 23:18 28.12.2019
1791 Clouds 0 1039 84 10000 3.1 180 22:37 28.12.2019
1792 Clouds 0 1039 84 10000 3.1 170 22:18 28.12.2019
1793 Clouds 0 1039 84 10000 3.1 170 21:56 28.12.2019
1794 Clouds 0 1040 84 10000 2.1 180 21:37 28.12.2019
1795 Clouds 0 1040 100 9000 2.1 180 21:19 28.12.2019
1796 Clouds 0 1040 84 10000 3.1 170 20:54 28.12.2019
1797 Clouds 0 1040 84 10000 3.1 170 20:36 28.12.2019
1798 Clouds 0 1039 82 10000 3.1 150 20:18 28.12.2019
1799 Clouds 0 1040 82 10000 2.6 160 19:41 28.12.2019
1800 Clouds 1 1040 82 10000 2.6 150 19:23 28.12.2019
1801 Clouds 0 1040 82 10000 1.5 180 18:59 28.12.2019
1802 Clouds 0 1040 82 10000 1.5 180 18:40 28.12.2019
1803 Clouds 1 1040 82 8000 1.5 150 18:20 28.12.2019
1804 Clouds 1 1040 82 8000 1.5 150 17:59 28.12.2019
1805 Clouds 1 1040 86 10000 3.6 170 17:39 28.12.2019
1806 Clouds 1 1040 80 8000 2.6 150 17:21 28.12.2019
1807 Clouds 1 1040 86 10000 2.6 160 16:50 28.12.2019
1808 Clouds 1 1039 80 8000 3.1 150 16:27 28.12.2019
1809 Clouds 1 1039 80 8000 3.1 150 15:58 28.12.2019
1810 Clouds 1 1040 86 10000 2.6 150 15:39 28.12.2019
1811 Clouds 1 1039 86 10000 2.6 130 15:21 28.12.2019
1812 Clouds 1 1039 86 10000 2.6 130 15:21 28.12.2019
1813 Clouds 1 1041 86 10000 2.6 140 14:47 28.12.2019
1814 Clouds 1 1040 86 10000 2.1 160 14:25 28.12.2019
1815 Clouds 1 1040 86 10000 2.1 160 13:58 28.12.2019
1816 Clouds 1 1040 86 10000 2.1 150 13:39 28.12.2019
1817 Clouds 1 1040 86 10000 2.6 140 13:20 28.12.2019
1818 Clouds 1 1040 86 10000 2.6 140 13:20 28.12.2019
1819 Clouds 1 1041 86 10000 2.6 150 12:56 28.12.2019
1820 Clouds 1 1041 86 10000 2.6 150 12:37 28.12.2019
1821 Clouds 1 1040 86 10000 3.1 140 12:19 28.12.2019
1822 Clouds 0 1041 77 10000 2.1 130 11:40 28.12.2019
1823 Clouds 0 1041 82 8000 1.5 120 11:21 28.12.2019
1824 Clouds 0 1041 92 10000 2.1 120 10:55 28.12.2019
1825 Clouds 0 1041 92 10000 2.1 120 10:36 28.12.2019
1826 Clouds -1 1040 92 9000 2.1 110 10:18 28.12.2019
1827 Clouds -1 1040 92 9000 2.1 110 10:18 28.12.2019
1828 Clouds -1 1041 92 10000 2.1 90 09:45 28.12.2019
1829 Clouds -1 1040 100 10000 1.5 110 09:24 28.12.2019
1830 Clouds -1 1041 92 10000 1 110 08:58 28.12.2019
1831 Clouds -1 1041 92 10000 1 110 08:39 28.12.2019
1832 Clouds -1 1040 92 10000 1 100 08:20 28.12.2019
1833 Clouds -1 1040 92 10000 1 130 07:43 28.12.2019
1834 Clouds -1 1039 100 10000 2.1 110 07:21 28.12.2019
1835 Clouds -1 1040 92 10000 2.1 120 05:45 28.12.2019
1836 Clouds -1 1040 92 10000 0.5 100 03:48 28.12.2019
1837 Clouds -1 1039 92 10000 2.6 110 02:50 28.12.2019
1838 Clouds -1 1039 92 10000 1.5 110 02:20 28.12.2019
1839 Clouds -1 1039 81 10000 1 110 01:55 28.12.2019
1840 Clouds 0 1039 82 10000 1 0 01:23 28.12.2019
1841 Clouds 0 1039 82 10000 1 90 00:48 28.12.2019
1842 Clouds 0 1038 82 10000 2.1 100 00:30 28.12.2019
1843 Clouds 0 1038 82 10000 2.1 100 23:58 27.12.2019
1844 Clouds 1 1039 92 10000 1.5 90 23:39 27.12.2019
1845 Clouds 0 1038 81 10000 2.1 80 23:19 27.12.2019
1846 Clouds 1 1038 92 10000 4.14 128 22:56 27.12.2019
1847 Clouds 1 1038 81 10000 1.5 60 22:37 27.12.2019
1848 Clouds 1 1037 86 10000 2.6 80 22:19 27.12.2019
1849 Clouds 1 1037 80 10000 2.6 120 21:43 27.12.2019
1850 Clouds 2 1037 81 10000 3.1 80 21:25 27.12.2019
1851 Clouds 2 1037 74 10000 2.6 130 20:58 27.12.2019
1852 Clouds 2 1037 74 10000 2.6 130 20:40 27.12.2019
1853 Clouds 2 1036 85 10000 3.1 90 20:21 27.12.2019
1854 Clouds 3 1037 74 10000 3.6 120 19:41 27.12.2019
1855 Clouds 3 1036 85 10000 3.1 80 19:20 27.12.2019
1856 Clouds 3 1036 85 10000 3.1 80 18:57 27.12.2019
1857 Clouds 3 1036 80 10000 3.6 110 18:37 27.12.2019
1858 Clouds 3 1035 86 10000 3.6 50 18:19 27.12.2019
1859 Clouds 3 1036 80 10000 4.1 90 17:55 27.12.2019
1860 Clouds 3 1036 80 10000 4.1 90 17:37 27.12.2019
1861 Clouds 3 1034 85 10000 2.1 80 17:18 27.12.2019
1862 Clouds 3 1035 80 10000 3.6 90 16:44 27.12.2019
1863 Clouds 3 1034 86 10000 4.6 50 16:26 27.12.2019
1864 Clouds 3 1034 86 10000 4.6 50 15:59 27.12.2019
1865 Clouds 4 1033 86 10000 4.1 50 15:40 27.12.2019
1866 Clouds 4 1033 86 10000 3.1 50 15:20 27.12.2019
1867 Clouds 4 1033 85 10000 5.1 100 14:57 27.12.2019
1868 Clouds 4 1033 85 10000 5.1 100 14:38 27.12.2019
1869 Clouds 4 1032 93 9000 3.1 80 14:20 27.12.2019
1870 Clouds 4 1032 85 10000 5.7 80 13:48 27.12.2019
1871 Mist 4 1031 93 4300 4.1 90 13:25 27.12.2019
1872 Mist 4 1031 93 4300 4.1 90 12:58 27.12.2019
1873 Clouds 4 1032 84 10000 5.1 80 12:39 27.12.2019
1874 Clear 4 1030 93 8000 3.6 60 12:21 27.12.2019
1875 Clouds 4 1031 80 10000 4.1 80 11:44 27.12.2019
1876 Clear 3 1030 86 10000 3.6 60 11:24 27.12.2019
1877 Clouds 3 1030 86 10000 3.6 80 10:56 27.12.2019
1878 Clouds 3 1030 86 10000 3.6 80 10:38 27.12.2019
1879 Clear 2 1029 93 10000 2.6 50 10:20 27.12.2019
1880 Clouds 2 1029 86 10000 3.6 80 09:43 27.12.2019
1881 Clear 2 1028 91 10000 3.6 60 09:21 27.12.2019
1882 Clouds 2 1028 93 10000 4.1 80 08:58 27.12.2019
1883 Clouds 2 1028 93 10000 4.1 80 08:36 27.12.2019
1884 Clouds 2 1026 93 10000 3.6 60 07:52 27.12.2019
1885 Clouds 2 1025 87 10000 3.1 50 07:33 27.12.2019
1886 Clouds 2 1025 100 10000 3.1 50 06:38 27.12.2019
1887 Clouds 2 1025 93 10000 2.1 70 05:38 27.12.2019
1888 Clouds 2 1024 93 10000 2.6 80 03:47 27.12.2019
1889 Clouds 2 1024 93 10000 2.6 80 03:47 27.12.2019
1890 Clouds 3 1022 93 10000 3.1 80 02:23 27.12.2019
1891 Clouds 3 1023 93 10000 3.1 70 01:42 27.12.2019
1892 Clouds 3 1021 86 10000 2.6 70 01:20 27.12.2019
1893 Clouds 3 1023 93 10000 2.1 100 00:46 27.12.2019
1894 Clouds 3 1021 93 10000 2.6 90 00:24 27.12.2019
1895 Clouds 4 1022 93 10000 2.6 110 23:42 26.12.2019
1896 Clouds 4 1021 93 10000 2.1 90 23:24 26.12.2019
1897 Clouds 4 1022 93 10000 1.5 100 22:58 26.12.2019
1898 Clouds 4 1022 93 10000 1.5 100 22:38 26.12.2019
1899 Clouds 4 1021 93 10000 2.6 110 22:18 26.12.2019
1900 Clouds 4 1022 93 10000 1.5 90 21:39 26.12.2019
1901 Clouds 4 1021 93 10000 2.6 100 21:21 26.12.2019
1902 Clouds 4 1022 93 10000 2.1 120 20:57 26.12.2019
1903 Clouds 5 1022 93 10000 2.1 120 20:38 26.12.2019
1904 Clouds 5 1021 93 10000 2.1 120 20:19 26.12.2019
1905 Clouds 5 1023 93 10000 1.5 110 19:54 26.12.2019
1906 Clouds 5 1023 93 10000 1.5 110 19:36 26.12.2019
1907 Clouds 5 1021 93 10000 2.6 90 19:18 26.12.2019
1908 Fog 5 1023 93 10000 1 120 18:55 26.12.2019
1909 Fog 5 1023 93 10000 1 120 18:36 26.12.2019
1910 Clouds 5 1022 87 10000 1.5 130 18:18 26.12.2019
1911 Fog 5 1022 93 10000 1 140 17:41 26.12.2019
1912 Clouds 5 1022 87 10000 1 0 17:21 26.12.2019
1913 Clouds 6 1022 93 10000 1 140 16:49 26.12.2019
1914 Clouds 6 1022 87 10000 2.1 150 16:26 26.12.2019
1915 Clouds 6 1022 87 10000 1 200 15:57 26.12.2019
1916 Clouds 6 1022 87 10000 1 200 15:38 26.12.2019
1917 Clouds 6 1022 87 10000 1.5 160 15:19 26.12.2019
1918 Clouds 6 1023 87 10000 1.5 210 14:41 26.12.2019
1919 Clouds 7 1022 87 10000 2.6 170 14:23 26.12.2019
1920 Clouds 7 1022 87 10000 2.6 170 14:23 26.12.2019
1921 Clouds 7 1023 81 10000 2.1 220 13:55 26.12.2019
1922 Clouds 7 1023 81 10000 2.1 220 13:36 26.12.2019
1923 Clouds 7 1023 87 10000 2.1 180 13:18 26.12.2019
1924 Clouds 6 1023 87 10000 1.5 220 12:45 26.12.2019
1925 Clouds 6 1023 93 10000 2.1 200 12:26 26.12.2019
1926 Clouds 6 1024 93 10000 2.1 200 11:59 26.12.2019
1927 Clouds 6 1024 86 10000 0.5 0 11:40 26.12.2019
1928 Clear 5 1024 93 10000 1 0 11:22 26.12.2019
1929 Clouds 5 1024 86 10000 1.5 230 10:54 26.12.2019
1930 Clouds 5 1024 86 10000 1.5 230 10:36 26.12.2019
1931 Clouds 5 1024 100 10000 1.5 160 10:18 26.12.2019
1932 Clouds 4 1024 93 10000 1.5 240 09:42 26.12.2019
1933 Clouds 4 1024 100 10000 1 190 09:24 26.12.2019
1934 Clouds 4 1023 93 10000 1 180 08:40 26.12.2019
1935 Clouds 4 1024 100 10000 1 200 08:22 26.12.2019
1936 Clouds 4 1023 86 10000 2.1 260 07:46 26.12.2019
1937 Clouds 4 1024 100 10000 1 0 07:26 26.12.2019
1938 Clouds 4 1023 93 10000 2.1 260 06:44 26.12.2019
1939 Clouds 4 1024 100 10000 2.1 190 06:25 26.12.2019
1940 Clouds 5 1023 93 10000 2.1 240 05:43 26.12.2019
1941 Clouds 5 1023 93 10000 2.1 240 05:43 26.12.2019
1942 Clouds 5 1023 93 10000 2.6 250 04:38 26.12.2019
1943 Rain 5 1023 93 10000 2.6 250 03:46 26.12.2019
1944 Clouds 5 1023 93 10000 2.1 250 02:50 26.12.2019
1945 Clouds 5 1024 93 10000 2.6 230 02:31 26.12.2019
1946 Clouds 5 1024 93 10000 2.6 220 02:31 26.12.2019
1947 Clouds 5 1024 93 10000 2.6 260 01:45 26.12.2019
1948 Clouds 5 1024 100 10000 1 250 01:26 26.12.2019
1949 Clouds 5 1023 93 10000 2.6 250 00:48 26.12.2019
1950 Clouds 5 1024 100 10000 1.5 260 00:24 26.12.2019
1951 Clouds 5 1023 93 10000 3.1 260 23:58 25.12.2019
1952 Clouds 5 1023 93 10000 3.1 260 23:38 25.12.2019
1953 Clouds 5 1024 100 10000 2.6 250 23:20 25.12.2019
1954 Clouds 5 1024 100 10000 2.6 250 22:58 25.12.2019
1955 Clouds 5 1023 87 10000 3.1 260 22:38 25.12.2019
1956 Clear 5 1023 100 8000 2.6 250 22:19 25.12.2019
1957 Clouds 4 1022 86 10000 3.1 260 21:57 25.12.2019
1958 Clouds 5 1022 86 10000 3.1 260 21:39 25.12.2019
1959 Clouds 5 1022 86 10000 3.1 260 21:19 25.12.2019
1960 Clouds 5 1022 86 10000 3.1 260 20:54 25.12.2019
1961 Clouds 5 1022 86 10000 3.1 260 20:36 25.12.2019
1962 Clouds 5 1022 87 10000 3.1 270 20:18 25.12.2019
1963 Clouds 5 1022 87 10000 3.1 270 19:43 25.12.2019
1964 Clouds 5 1022 93 10000 1.5 280 19:23 25.12.2019
1965 Clouds 6 1021 93 10000 1 270 18:58 25.12.2019
1966 Clouds 6 1021 93 10000 1 270 18:37 25.12.2019
1967 Clouds 6 1022 93 10000 2.1 260 18:18 25.12.2019
1968 Clouds 6 1021 87 10000 2.6 280 17:41 25.12.2019
1969 Clouds 6 1022 87 10000 2.1 280 17:19 25.12.2019
1970 Clouds 6 1022 87 10000 2.1 280 16:58 25.12.2019
1971 Clear 7 1021 87 10000 2.1 290 16:37 25.12.2019
1972 Clear 7 1021 87 10000 3.1 300 16:18 25.12.2019
1973 Clouds 8 1019 75 10000 4.1 310 15:57 25.12.2019
1974 Clouds 8 1019 75 10000 4.1 310 15:39 25.12.2019
1975 Clouds 8 1019 75 10000 4.1 310 15:39 25.12.2019
1976 Clouds 8 1020 81 10000 3.6 300 15:20 25.12.2019
1977 Clouds 8 1019 81 10000 4.1 320 14:57 25.12.2019
1978 Clouds 8 1019 81 10000 4.1 320 14:39 25.12.2019
1979 Clouds 8 1019 81 10000 3.1 290 14:20 25.12.2019
1980 Clouds 8 1018 81 10000 2.6 320 13:45 25.12.2019
1981 Clouds 8 1019 81 10000 3.1 290 13:21 25.12.2019
1982 Clouds 8 1019 81 10000 3.1 290 12:58 25.12.2019
1983 Clouds 8 1017 87 10000 3.1 290 12:38 25.12.2019
1984 Clouds 7 1018 87 10000 3.6 300 12:20 25.12.2019
1985 Clouds 7 1017 93 10000 4.1 290 11:54 25.12.2019
1986 Clouds 7 1016 93 10000 3.1 280 11:36 25.12.2019
1987 Clouds 7 1017 93 10000 3.6 280 11:18 25.12.2019
1988 Clouds 6 1015 93 10000 2.6 290 10:37 25.12.2019
1989 Rain 6 1016 93 10000 3.1 270 10:19 25.12.2019
1990 Clouds 6 1014 93 7000 3.6 270 09:49 25.12.2019
1991 Clouds 6 1015 93 10000 3.1 280 09:30 25.12.2019
1992 Mist 6 1013 93 3500 3.1 270 08:47 25.12.2019
1993 Clouds 6 1013 93 10000 2.6 280 08:29 25.12.2019
1994 Fog 6 1012 93 800 2.6 270 07:50 25.12.2019
1995 Clouds 5 1013 93 10000 2.6 290 07:31 25.12.2019
1996 Mist 5 1011 100 1600 2.6 270 06:50 25.12.2019
1997 -273 0 0 0 0 0 06:22 25.12.2019
1998 Mist 6 1011 100 3200 1.5 290 05:18 25.12.2019
1999 Mist 6 1010 93 5000 1.5 240 04:39 25.12.2019
2000 Drizzle 6 1010 100 2800 1.5 240 04:20 25.12.2019
2001 Mist 6 1009 100 5000 1.5 260 03:41 25.12.2019
2002 Mist 6 1009 93 5000 2.42 311 02:53 25.12.2019
2003 Clouds 6 1009 100 7000 2.1 250 02:27 25.12.2019
2004 Clouds 6 1008 93 10000 2.6 260 01:25 25.12.2019
2005 Mist 6 1008 100 3700 1 300 00:54 25.12.2019
2006 Clouds 6 1008 93 10000 2.1 280 00:33 25.12.2019
2007 Clouds 6 1008 93 10000 2.6 290 23:58 24.12.2019
2008 Mist 6 1007 100 1000 1.5 360 23:39 24.12.2019
2009 Clouds 6 1007 87 10000 4.1 250 23:20 24.12.2019
2010 Mist 6 1006 100 1000 1 300 22:41 24.12.2019
2011 Mist 6 1006 100 1000 1 230 22:23 24.12.2019
2012 Mist 6 1005 93 4000 1 180 21:55 24.12.2019
2013 Mist 6 1005 93 4000 1 180 21:36 24.12.2019
2014 Clouds 7 1005 87 10000 4.1 260 21:18 24.12.2019
2015 Mist 7 1005 100 5000 0.5 90 20:41 24.12.2019
2016 Clouds 7 1005 87 10000 4.6 260 20:19 24.12.2019
2017 Clouds 7 1005 100 9000 1.5 80 19:46 24.12.2019
2018 Clouds 7 1004 93 10000 5.1 260 19:22 24.12.2019
2019 Clouds 7 1004 93 10000 5.1 260 18:59 24.12.2019
2020 Clouds 7 1004 100 8000 1.5 70 18:40 24.12.2019
2021 Drizzle 7 1004 93 3300 4.6 260 18:18 24.12.2019
2022 Drizzle 7 1004 100 5000 2.1 70 17:43 24.12.2019
2023 Clouds 6 1003 93 7000 2.1 240 17:22 24.12.2019
2024 Clouds 6 1003 93 7000 2.1 240 16:58 24.12.2019
2025 Drizzle 6 1003 93 3500 1.5 70 16:39 24.12.2019
2026 Drizzle 6 1003 93 2600 2.6 240 16:20 24.12.2019
2027 Drizzle 6 1003 93 2600 2.6 240 15:57 24.12.2019
2028 Clouds 6 1003 93 6000 1.5 130 15:37 24.12.2019
2029 Clouds 6 1002 93 2800 1.5 220 15:19 24.12.2019
2030 Clouds 6 1002 93 2800 1.5 220 15:19 24.12.2019
2031 Clouds 6 1002 93 2800 1.5 220 14:58 24.12.2019
2032 Mist 6 1002 100 5000 2.1 150 14:39 24.12.2019
2033 Drizzle 6 1002 100 2900 1 0 14:21 24.12.2019
2034 Drizzle 6 1002 100 2900 1 0 14:21 24.12.2019
2035 Rain 6 1004 93 5000 4.1 190 13:56 24.12.2019
2036 Rain 6 1004 93 5000 4.1 190 13:37 24.12.2019
2037 Drizzle 6 1003 100 6000 2.6 110 13:19 24.12.2019
2038 Drizzle 6 1003 100 6000 2.6 110 13:19 24.12.2019
2039 Rain 6 1004 93 4000 2.6 160 12:56 24.12.2019
2040 Rain 6 1004 93 4000 2.6 160 12:56 24.12.2019
2041 Rain 6 1004 93 4000 2.6 160 12:37 24.12.2019
2042 Rain 6 1004 93 8000 2.1 140 12:19 24.12.2019
2043 Rain 6 1004 93 8000 2.1 140 12:19 24.12.2019
2044 Rain 6 1004 93 8000 2.1 140 12:19 24.12.2019
2045 Rain 6 1005 93 4500 3.6 180 11:56 24.12.2019
2046 Rain 7 1005 93 4500 3.6 180 11:37 24.12.2019
2047 Rain 7 1005 93 4500 3.6 180 11:37 24.12.2019
2048 Rain 7 1005 93 9000 3.1 160 11:19 24.12.2019
2049 Drizzle 7 1006 87 4500 4.1 190 10:56 24.12.2019
2050 Drizzle 7 1006 87 4500 4.1 190 10:56 24.12.2019
2051 Drizzle 7 1006 87 4500 4.1 190 10:38 24.12.2019
2052 Drizzle 7 1007 87 7000 4.1 190 10:19 24.12.2019
2053 Clouds 7 1007 93 7000 4.1 200 09:55 24.12.2019
2054 Clouds 7 1007 93 7000 4.1 200 09:37 24.12.2019
2055 Clouds 7 1007 93 7000 4.6 210 09:19 24.12.2019
2056 Clouds 7 1008 93 7000 4.6 210 08:46 24.12.2019
2057 Mist 7 1008 93 5000 5.1 200 08:24 24.12.2019
2058 Clouds 6 1008 93 8000 5.7 220 07:46 24.12.2019
2059 Mist 6 1008 100 3500 4.6 200 07:27 24.12.2019
2060 Clouds 6 1008 87 10000 4.6 220 06:59 24.12.2019
2061 Clouds 6 1008 87 10000 4.6 220 06:39 24.12.2019
2062 Clouds 6 1009 93 7000 5.7 210 06:19 24.12.2019
2063 Clouds 6 1009 87 10000 5.1 220 05:46 24.12.2019
2064 Clouds 6 1009 93 10000 4.6 200 05:18 24.12.2019
2065 Clouds 6 1010 93 10000 3.6 210 03:55 24.12.2019
2066 Rain 6 1010 100 10000 4.1 210 03:33 24.12.2019
2067 Clouds 7 1010 93 10000 4.1 210 02:25 24.12.2019
2068 Clouds 7 1009 87 10000 4.6 230 01:53 24.12.2019
2069 Drizzle 7 1010 87 10000 4.1 230 01:23 24.12.2019
2070 Clouds 7 1009 87 10000 4.6 240 00:55 24.12.2019
2071 Clouds 7 1009 87 10000 4.6 240 00:37 24.12.2019
2072 Clouds 7 1010 93 10000 4.1 220 00:19 24.12.2019
2073 Clouds 7 1009 87 10000 5.1 240 23:41 23.12.2019
2074 Clouds 7 1009 93 10000 4.6 230 23:23 23.12.2019
2075 Drizzle 7 1008 87 10000 4.1 230 22:56 23.12.2019
2076 Drizzle 7 1008 87 10000 4.1 230 22:37 23.12.2019
2077 Clouds 7 1009 87 10000 5.1 220 22:19 23.12.2019
2078 Clouds 7 1008 87 10000 5.1 240 21:56 23.12.2019
2079 Clouds 7 1008 87 10000 5.1 240 21:37 23.12.2019
2080 Clouds 7 1008 87 10000 4.6 240 21:19 23.12.2019
2081 Drizzle 7 1007 87 10000 5.1 250 20:58 23.12.2019
2082 Drizzle 7 1007 87 10000 5.1 250 20:40 23.12.2019
2083 Clouds 7 1008 87 10000 4.1 240 20:19 23.12.2019
2084 Clouds 7 1008 87 10000 4.1 240 20:19 23.12.2019
2085 Clouds 7 1008 87 10000 4.1 240 20:19 23.12.2019
2086 Clouds 7 1008 87 10000 4.1 240 19:58 23.12.2019
2087 Clouds 7 1006 87 10000 4.6 250 19:39 23.12.2019
2088 Clouds 8 1007 87 10000 5.1 240 19:20 23.12.2019
2089 Clouds 8 1007 87 10000 5.1 240 18:58 23.12.2019
2090 Clouds 8 1006 87 10000 5.7 260 18:39 23.12.2019
2091 Clouds 8 1007 87 10000 4.1 240 18:20 23.12.2019
2092 Clouds 8 1005 87 10000 4.1 250 17:58 23.12.2019
2093 Clouds 8 1005 87 10000 4.1 250 17:40 23.12.2019
2094 Clouds 8 1006 87 10000 5.1 250 17:19 23.12.2019
2095 Clouds 8 1006 87 10000 5.1 250 16:57 23.12.2019
2096 Drizzle 8 1004 87 8000 3.1 240 16:39 23.12.2019
2097 Clouds 8 1005 87 10000 5.7 240 16:19 23.12.2019
2098 Clouds 8 1005 87 10000 5.7 240 15:57 23.12.2019
2099 Clouds 8 1004 81 10000 6.7 270 15:37 23.12.2019
2100 Clouds 8 1004 87 10000 5.7 260 15:19 23.12.2019
2101 Clouds 8 1002 81 10000 7.2 260 14:56 23.12.2019
2102 Clouds 8 1002 81 10000 7.2 260 14:38 23.12.2019
2103 Clouds 8 1003 87 10000 6.7 250 14:18 23.12.2019
2104 Clouds 9 1003 87 10000 6.7 250 13:56 23.12.2019
2105 Clouds 9 1002 81 10000 6.2 260 13:38 23.12.2019
2106 Clouds 8 1002 87 10000 7.2 250 13:20 23.12.2019
2107 Clouds 8 1001 87 10000 5.7 250 12:55 23.12.2019
2108 Clouds 8 1001 87 10000 5.7 250 12:36 23.12.2019
2109 Clouds 8 1002 81 10000 6.2 250 12:18 23.12.2019
2110 Clouds 8 1000 81 10000 4.1 250 11:42 23.12.2019
2111 Clouds 8 1001 87 10000 5.7 240 11:24 23.12.2019
2112 Clouds 8 999 81 10000 4.6 250 10:56 23.12.2019
2113 Clouds 8 999 81 10000 4.6 250 10:38 23.12.2019
2114 Clouds 8 1000 87 10000 4.1 240 10:20 23.12.2019
2115 Clouds 7 998 87 10000 4.1 250 09:58 23.12.2019
2116 Clouds 7 998 87 10000 4.1 250 09:39 23.12.2019
2117 Clouds 7 999 93 10000 4.6 240 09:19 23.12.2019
2118 Clouds 7 997 87 10000 4.6 240 08:55 23.12.2019
2119 Clouds 7 997 87 10000 4.6 240 08:36 23.12.2019
2120 Clouds 7 998 93 10000 4.6 240 08:18 23.12.2019
2121 Clouds 7 996 87 10000 4.1 240 07:42 23.12.2019
2122 Clouds 7 997 93 10000 4.6 240 07:19 23.12.2019
2123 Clouds 7 995 87 10000 4.6 240 06:45 23.12.2019
2124 Clouds 7 996 87 10000 4.6 240 06:23 23.12.2019
2125 Clouds 7 994 87 10000 5.7 250 05:47 23.12.2019
2126 Clouds 7 995 87 10000 4.1 250 05:18 23.12.2019
2127 Clouds 7 994 87 10000 4.6 250 04:19 23.12.2019
2128 Clouds 7 991 87 10000 6.2 260 02:48 23.12.2019
2129 Clouds 7 992 87 9000 6.7 250 02:23 23.12.2019
2130 Clouds 7 990 87 10000 8.2 270 01:53 23.12.2019
2131 Clouds 7 991 93 10000 5.1 250 01:32 23.12.2019
2132 Clouds 7 989 87 10000 7.2 270 00:55 23.12.2019
2133 Clouds 7 990 93 10000 4.6 250 00:35 23.12.2019
2134 Rain 7 990 93 10000 4.6 260 23:57 22.12.2019
2135 Rain 7 990 93 10000 4.6 260 23:57 22.12.2019
2136 Clouds 7 988 93 8000 7.2 280 23:39 22.12.2019
2137 Clouds 7 989 87 10000 5.7 260 23:20 22.12.2019
2138 Clouds 7 989 87 10000 5.7 260 22:57 22.12.2019
2139 Drizzle 8 986 93 4000 1.5 220 22:38 22.12.2019
2140 Drizzle 8 986 93 4500 1.5 220 22:19 22.12.2019
2141 Rain 8 987 93 10000 5.7 270 21:57 22.12.2019
2142 Drizzle 8 986 93 4500 1.5 220 21:39 22.12.2019
2143 Drizzle 8 985 93 4500 1 200 21:20 22.12.2019
2144 Drizzle 8 985 93 3000 1.5 160 20:56 22.12.2019
2145 Drizzle 8 985 93 3000 1.5 160 20:38 22.12.2019
2146 Mist 8 985 100 2900 2.1 190 20:18 22.12.2019
2147 Drizzle 8 985 100 5000 2.1 140 19:54 22.12.2019
2148 Drizzle 8 985 100 5000 2.1 140 19:36 22.12.2019
2149 Mist 8 984 100 5000 2.1 190 19:18 22.12.2019
2150 Drizzle 8 984 100 5000 2.1 130 18:39 22.12.2019
2151 Rain 8 983 100 6000 2.1 190 18:39 22.12.2019
2152 Drizzle 8 983 100 7000 2.6 190 18:21 22.12.2019
2153 Drizzle 8 984 93 6000 2.1 150 17:55 22.12.2019
2154 Drizzle 8 984 93 6000 2.1 150 17:37 22.12.2019
2155 Rain 8 983 100 5000 1.5 170 17:18 22.12.2019
2156 Drizzle 8 983 93 5000 2.6 130 16:56 22.12.2019
2157 Drizzle 8 983 93 5000 2.6 130 16:37 22.12.2019
2158 Rain 8 982 100 7000 2.1 150 16:19 22.12.2019
2159 Drizzle 8 983 93 10000 2.6 130 15:55 22.12.2019
2160 Drizzle 8 982 100 8000 2.6 160 15:36 22.12.2019
2161 Drizzle 8 982 100 8000 2.6 160 15:18 22.12.2019
2162 Clouds 8 983 81 10000 2.6 130 14:54 22.12.2019
2163 Clouds 8 983 81 10000 2.6 130 14:36 22.12.2019
2164 Clouds 8 982 93 10000 2.6 160 14:18 22.12.2019
2165 Clouds 8 983 81 10000 3.6 150 13:54 22.12.2019
2166 Clouds 8 983 81 10000 3.6 150 13:36 22.12.2019
2167 Drizzle 8 982 93 10000 3.6 160 13:18 22.12.2019
2168 Clouds 8 983 87 10000 3.6 150 12:54 22.12.2019
2169 Clouds 8 983 87 10000 3.6 150 12:36 22.12.2019
2170 Clouds 7 981 100 10000 2.6 130 12:18 22.12.2019
2171 Clouds 7 983 87 10000 3.6 130 11:39 22.12.2019
2172 Clouds 7 981 93 10000 3.6 150 11:20 22.12.2019
2173 Clouds 7 981 93 10000 3.6 150 10:58 22.12.2019
2174 Clouds 6 983 87 10000 3.6 110 10:40 22.12.2019
2175 Clouds 6 981 100 10000 3.1 140 10:21 22.12.2019
2176 Clouds 6 981 100 10000 3.1 140 09:58 22.12.2019
2177 Clouds 6 983 93 10000 3.1 120 09:40 22.12.2019
2178 Clouds 6 981 93 10000 2.6 120 09:21 22.12.2019
2179 Clouds 6 981 93 10000 2.6 120 08:59 22.12.2019
2180 Rain 6 982 86 10000 3.6 130 08:37 22.12.2019
2181 Clouds 6 981 93 10000 3.1 130 08:18 22.12.2019
2182 Clouds 6 981 93 10000 3.1 130 08:18 22.12.2019
2183 Clouds 6 982 86 10000 3.6 130 07:38 22.12.2019
2184 Drizzle 6 981 87 10000 3.1 120 07:19 22.12.2019
2185 Clouds 6 982 86 10000 3.6 130 06:40 22.12.2019
2186 Clouds 6 982 86 10000 4.1 130 05:53 22.12.2019
2187 Clouds 6 981 81 10000 4.1 120 05:21 22.12.2019
2188 Clouds 6 983 86 10000 3.6 110 04:29 22.12.2019
2189 Clouds 6 983 86 10000 3.6 110 03:53 22.12.2019
2190 Clouds 6 984 86 10000 3.1 130 02:40 22.12.2019
2191 Clouds 6 984 86 10000 3.1 130 02:40 22.12.2019
2192 Clouds 6 984 81 10000 3.6 150 01:47 22.12.2019
2193 Clouds 6 982 75 10000 3.6 140 01:28 22.12.2019
2194 Clouds 7 984 81 10000 3.1 140 00:47 22.12.2019
2195 Clouds 7 983 75 10000 5.1 150 00:23 22.12.2019
2196 Clouds 7 985 81 10000 3.1 150 23:56 21.12.2019
2197 Clouds 7 985 81 10000 3.1 150 23:38 21.12.2019
2198 Clouds 7 983 75 10000 4.1 140 23:19 21.12.2019
2199 Clouds 7 985 81 10000 3.1 150 22:41 21.12.2019
2200 Clouds 7 984 75 10000 4.6 150 22:19 21.12.2019
2201 Rain 7 986 87 10000 3.6 160 21:57 21.12.2019
2202 Rain 7 986 87 10000 3.6 160 21:38 21.12.2019
2203 Clouds 8 985 81 10000 4.6 170 21:20 21.12.2019
2204 Rain 8 986 81 10000 4.1 170 20:59 21.12.2019
2205 Rain 8 986 81 10000 4.1 170 20:39 21.12.2019
2206 Clouds 8 985 81 10000 4.1 170 20:21 21.12.2019
2207 Clouds 8 986 75 10000 4.6 170 19:58 21.12.2019
2208 Clouds 8 986 75 10000 4.6 170 19:40 21.12.2019
2209 Clouds 8 986 75 10000 4.6 170 19:40 21.12.2019
2210 Clouds 8 985 81 10000 5.7 180 19:19 21.12.2019
2211 Clouds 8 985 81 10000 5.7 180 19:19 21.12.2019
2212 Clouds 8 986 75 10000 3.6 160 18:55 21.12.2019
2213 Clouds 8 986 75 10000 3.6 160 18:37 21.12.2019
2214 Clouds 8 985 81 10000 4.6 160 18:19 21.12.2019
2215 Clouds 8 987 81 10000 3.1 150 17:55 21.12.2019
2216 Clouds 8 987 81 10000 3.1 150 17:36 21.12.2019
2217 Clouds 8 986 81 10000 4.6 170 17:18 21.12.2019
2218 Clouds 8 986 81 10000 4.6 170 17:18 21.12.2019
2219 Clouds 8 987 76 10000 4.6 180 16:41 21.12.2019
2220 Clouds 8 986 81 10000 5.1 180 16:19 21.12.2019
2221 Clouds 9 986 81 10000 5.1 180 15:57 21.12.2019
2222 Clouds 9 987 76 10000 5.1 180 15:39 21.12.2019
2223 Clouds 9 987 81 10000 4.6 180 15:20 21.12.2019
2224 Clouds 9 988 76 10000 5.1 170 14:57 21.12.2019
2225 Clouds 9 988 76 10000 5.1 170 14:38 21.12.2019
2226 Clouds 9 987 87 10000 5.1 180 14:20 21.12.2019
2227 Clouds 9 987 87 10000 5.1 180 13:56 21.12.2019
2228 Clouds 9 988 76 10000 4.1 180 13:38 21.12.2019
2229 Clouds 9 988 81 10000 5.7 180 13:18 21.12.2019
2230 Clouds 9 989 76 10000 4.6 190 12:55 21.12.2019
2231 Clouds 9 989 76 10000 4.6 190 12:37 21.12.2019
2232 Clouds 9 988 81 10000 5.1 180 12:18 21.12.2019
2233 Clouds 8 990 81 10000 4.1 190 11:44 21.12.2019
2234 Clouds 8 989 81 10000 6.2 180 11:26 21.12.2019
2235 Clouds 8 989 81 10000 5.1 180 10:57 21.12.2019
2236 Clouds 8 989 81 10000 6.2 180 10:57 21.12.2019
2237 Clouds 7 989 81 10000 5.1 180 10:38 21.12.2019
2238 Clouds 7 989 87 10000 5.1 180 10:20 21.12.2019
2239 Clouds 7 989 87 10000 4.6 180 09:56 21.12.2019
2240 Clouds 7 989 87 10000 4.6 180 09:37 21.12.2019
2241 Clouds 6 989 93 10000 4.6 180 09:18 21.12.2019
2242 Clouds 6 990 87 10000 3.1 190 08:44 21.12.2019
2243 Clouds 6 989 87 10000 5.1 180 08:25 21.12.2019
2244 Clouds 6 989 81 10000 3.6 200 07:46 21.12.2019
2245 Clouds 6 989 81 10000 4.1 210 07:22 21.12.2019
2246 Clouds 7 989 81 10000 4.1 210 06:46 21.12.2019
2247 Clouds 7 989 81 10000 4.6 190 06:26 21.12.2019
2248 Clouds 7 989 81 10000 3.6 210 05:55 21.12.2019
2249 Clouds 8 988 81 10000 6.2 210 04:58 21.12.2019
2250 Clouds 8 988 75 10000 6.7 210 03:59 21.12.2019
2251 Clouds 8 988 75 10000 6.7 210 03:37 21.12.2019
2252 Clouds 8 987 76 10000 7.2 200 02:19 21.12.2019
2253 Clouds 8 987 75 10000 5.1 200 01:41 21.12.2019
2254 Clouds 9 987 76 10000 7.7 200 01:23 21.12.2019
2255 Clouds 9 987 76 10000 5.7 210 00:39 21.12.2019
2256 Clouds 9 986 76 10000 6.2 200 00:19 21.12.2019
2257 Clouds 9 986 81 10000 5.7 200 23:38 20.12.2019
2258 Clouds 8 986 81 10000 6.2 190 23:20 20.12.2019
2259 Clouds 9 986 76 10000 3.6 210 22:57 20.12.2019
2260 Clouds 9 986 76 10000 3.6 210 22:36 20.12.2019
2261 Clouds 9 985 76 10000 5.1 190 22:18 20.12.2019
2262 Clouds 9 985 81 10000 5.1 230 21:41 20.12.2019
2263 Clouds 9 985 76 10000 6.7 210 21:21 20.12.2019
2264 Clouds 9 985 76 10000 6.7 210 21:21 20.12.2019
2265 Clouds 10 984 81 10000 6.2 210 20:57 20.12.2019
2266 Clouds 10 984 81 10000 6.2 210 20:38 20.12.2019
2267 Rain 10 984 76 10000 6.7 210 20:19 20.12.2019
2268 Rain 11 984 87 10000 5.7 220 19:42 20.12.2019
2269 Drizzle 11 984 81 10000 7.2 220 19:21 20.12.2019
2270 Drizzle 11 984 81 10000 7.2 220 18:58 20.12.2019
2271 Clouds 12 984 76 10000 5.7 190 18:40 20.12.2019
2272 Clouds 12 983 81 10000 6.7 200 18:21 20.12.2019
2273 Clouds 12 983 81 10000 6.7 200 17:57 20.12.2019
2274 Clouds 12 983 76 10000 4.6 170 17:39 20.12.2019
2275 Clouds 12 983 76 10000 4.6 170 17:39 20.12.2019
2276 Clouds 12 982 81 10000 6.7 180 17:20 20.12.2019
2277 Clouds 12 983 71 10000 5.7 160 16:56 20.12.2019
2278 Clouds 12 983 71 10000 5.7 160 16:38 20.12.2019
2279 Clouds 12 983 71 10000 5.7 160 16:38 20.12.2019
2280 Clouds 12 982 81 10000 8.2 170 16:19 20.12.2019
2281 Clouds 12 984 66 10000 5.7 150 15:55 20.12.2019
2282 Clouds 12 984 66 10000 5.7 150 15:37 20.12.2019
2283 Clouds 12 982 81 10000 8.7 170 15:18 20.12.2019
2284 Clouds 12 984 62 10000 5.1 150 14:42 20.12.2019
2285 Clouds 11 983 76 10000 8.7 160 14:24 20.12.2019
2286 Clouds 12 985 66 10000 5.7 150 13:57 20.12.2019
2287 Clouds 11 985 66 10000 5.7 150 13:37 20.12.2019
2288 Drizzle 11 984 71 10000 7.7 160 13:19 20.12.2019
2289 Clouds 11 986 66 10000 5.7 150 12:56 20.12.2019
2290 Clouds 11 986 66 10000 5.7 150 12:37 20.12.2019
2291 Clouds 10 985 62 10000 7.7 150 12:18 20.12.2019
2292 Clouds 10 987 66 10000 5.7 140 11:57 20.12.2019
2293 Clouds 10 987 66 10000 5.7 140 11:39 20.12.2019
2294 Clouds 10 986 62 10000 6.2 140 11:18 20.12.2019
2295 Clouds 10 989 70 10000 5.1 130 10:56 20.12.2019
2296 Clouds 10 989 70 10000 5.1 130 10:38 20.12.2019
2297 Clouds 9 987 66 10000 5.7 130 10:20 20.12.2019
2298 Clouds 9 990 75 10000 5.1 130 09:43 20.12.2019
2299 Clouds 9 988 71 10000 4.1 130 09:22 20.12.2019
2300 Clouds 9 988 71 10000 4.1 130 09:22 20.12.2019
2301 Clouds 9 991 75 10000 4.1 140 08:59 20.12.2019
2302 Clouds 9 991 75 10000 4.1 140 08:41 20.12.2019
2303 Clouds 9 989 66 10000 5.1 130 08:21 20.12.2019
2304 Clouds 9 992 81 10000 4.1 140 07:57 20.12.2019
2305 Clouds 9 992 81 10000 4.1 140 07:38 20.12.2019
2306 Clouds 8 990 76 10000 4.1 130 07:18 20.12.2019
2307 Clouds 9 993 81 10000 4.1 130 06:48 20.12.2019
2308 Clouds 9 991 76 10000 3.6 130 06:29 20.12.2019
2309 Clouds 9 994 81 10000 4.1 140 05:49 20.12.2019
2310 Clouds 9 993 76 10000 4.1 130 05:21 20.12.2019
2311 Clouds 9 997 75 10000 3.1 140 03:50 20.12.2019
2312 Clouds 9 995 76 10000 4.1 140 03:28 20.12.2019
2313 Clouds 9 998 81 10000 4.1 150 02:33 20.12.2019
2314 Rain 10 999 81 10000 3.6 150 01:36 20.12.2019
2315 Rain 10 999 81 10000 3.6 150 01:36 20.12.2019
2316 Clouds 10 1000 81 10000 3.1 140 00:59 20.12.2019
2317 Clouds 10 1000 81 10000 3.1 140 00:40 20.12.2019
2318 Clouds 10 1001 81 10000 3.1 140 23:59 19.12.2019
2319 Clouds 10 1001 81 10000 3.1 140 23:40 19.12.2019
2320 Clouds 9 1000 76 10000 5.1 170 23:22 19.12.2019
2321 Clouds 9 1002 87 10000 2.6 130 22:56 19.12.2019
2322 Clouds 9 1002 87 10000 2.6 130 22:36 19.12.2019
2323 Clouds 9 1001 76 10000 4.1 160 22:18 19.12.2019
2324 Clouds 9 1001 76 10000 4.1 160 22:18 19.12.2019
2325 Clouds 9 1003 81 10000 2.6 140 21:42 19.12.2019
2326 Clouds 9 1002 76 10000 4.1 160 21:20 19.12.2019
2327 Clouds 9 1003 81 10000 2.6 140 20:59 19.12.2019
2328 Clouds 9 1003 81 10000 2.6 140 20:38 19.12.2019
2329 Clouds 9 1003 76 10000 4.6 150 20:20 19.12.2019
2330 Clouds 9 1003 76 10000 4.6 150 20:20 19.12.2019
2331 Clouds 9 1004 81 10000 2.6 130 19:59 19.12.2019
2332 Clouds 9 1004 81 10000 2.6 130 19:40 19.12.2019
2333 Clouds 9 1003 76 10000 3.6 150 19:20 19.12.2019
2334 Clouds 10 1005 81 10000 2.6 140 19:00 19.12.2019
2335 Clouds 10 1005 81 10000 2.6 140 18:41 19.12.2019
2336 Clouds 10 1004 76 10000 4.1 140 18:21 19.12.2019
2337 Clouds 10 1005 76 10000 3.1 130 17:57 19.12.2019
2338 Clouds 10 1005 76 10000 3.1 130 17:38 19.12.2019
2339 Clouds 10 1004 76 10000 3.6 150 17:19 19.12.2019
2340 Clouds 11 1006 76 10000 3.6 140 16:57 19.12.2019
2341 Clouds 11 1006 76 10000 3.6 140 16:38 19.12.2019
2342 Clouds 11 1005 76 10000 5.1 150 16:20 19.12.2019
2343 Clouds 11 1007 66 10000 3.6 150 15:58 19.12.2019
2344 Clouds 12 1007 66 10000 3.6 150 15:39 19.12.2019
2345 Clouds 12 1006 71 10000 3.6 160 15:19 19.12.2019
2346 Clouds 13 1007 71 10000 4.1 170 14:59 19.12.2019
2347 Clouds 13 1007 71 10000 4.1 170 14:40 19.12.2019
2348 Clouds 13 1006 71 10000 4.1 150 14:19 19.12.2019
2349 Clouds 13 1008 71 10000 4.6 160 13:57 19.12.2019
2350 Clouds 12 1008 71 10000 4.6 160 13:37 19.12.2019
2351 Clouds 12 1007 76 10000 4.6 160 13:18 19.12.2019
2352 Clouds 12 1009 76 10000 4.6 170 12:55 19.12.2019
2353 Clouds 11 1009 76 10000 4.6 170 12:36 19.12.2019
2354 Clouds 11 1008 81 10000 5.1 160 12:18 19.12.2019
2355 Clouds 11 1008 81 10000 5.1 160 12:18 19.12.2019
2356 Clouds 11 1008 81 10000 5.1 160 12:18 19.12.2019
2357 Clouds 11 1008 81 10000 5.1 160 12:18 19.12.2019
2358 Clouds 11 1009 76 10000 5.7 160 11:57 19.12.2019
2359 Clouds 10 1009 76 10000 5.7 160 11:38 19.12.2019
2360 Clouds 10 1009 81 10000 4.1 170 11:18 19.12.2019
2361 Clouds 9 1010 87 10000 4.6 160 10:39 19.12.2019
2362 Clouds 8 1009 87 10000 3.6 150 10:20 19.12.2019
2363 Clouds 8 1010 87 10000 4.1 150 09:59 19.12.2019
2364 Clouds 8 1010 87 10000 4.1 150 09:38 19.12.2019
2365 Clouds 7 1009 87 10000 4.1 150 09:20 19.12.2019
2366 Clouds 7 1010 93 10000 3.6 150 08:58 19.12.2019
2367 Clouds 7 1010 93 10000 3.6 150 08:39 19.12.2019
2368 Clouds 7 1009 93 10000 4.1 150 08:19 19.12.2019
2369 Clouds 7 1011 93 10000 4.6 150 07:56 19.12.2019
2370 Clouds 7 1011 93 10000 4.6 150 07:38 19.12.2019
2371 Clouds 6 1010 87 10000 4.1 160 07:19 19.12.2019
2372 Clouds 6 1011 87 10000 3.6 140 06:49 19.12.2019
2373 Clouds 6 1010 87 10000 4.6 160 06:28 19.12.2019
2374 Clouds 6 1011 93 10000 3.6 140 05:55 19.12.2019
2375 Clouds 6 1010 93 10000 3.6 160 05:33 19.12.2019
2376 Clouds 6 1012 86 10000 3.6 140 04:48 19.12.2019
2377 Clouds 5 1013 93 10000 3.1 140 02:49 19.12.2019
2378 Clouds 5 1014 93 10000 3.6 130 01:51 19.12.2019
2379 Clouds 4 1012 86 10000 3.6 130 01:22 19.12.2019
2380 Clouds 4 1015 93 6000 3.1 130 00:40 19.12.2019
2381 Clouds 5 1014 86 10000 2.6 120 00:21 19.12.2019
2382 Mist 5 1016 93 5000 3.1 140 23:56 18.12.2019
2383 Mist 5 1016 93 5000 3.1 140 23:38 18.12.2019
2384 Clouds 5 1014 93 7000 3.1 120 23:18 18.12.2019
2385 Mist 5 1016 93 5000 2.6 140 22:55 18.12.2019
2386 Mist 5 1016 93 5000 2.6 140 22:36 18.12.2019
2387 Mist 5 1015 93 5000 2.6 130 22:18 18.12.2019
2388 Clouds 5 1017 93 7000 2.1 130 21:55 18.12.2019
2389 Clouds 5 1017 93 7000 2.1 130 21:37 18.12.2019
2390 Mist 5 1015 93 5000 2.6 130 21:18 18.12.2019
2391 Clouds 5 1017 86 7000 2.6 130 20:54 18.12.2019
2392 Clouds 5 1017 86 7000 2.6 130 20:36 18.12.2019
2393 Clear 5 1015 93 6000 3.1 140 20:18 18.12.2019
2394 Clear 5 1015 93 6000 3.1 140 19:55 18.12.2019
2395 Clouds 5 1016 87 10000 2.6 170 19:36 18.12.2019
2396 Clear 5 1015 93 7000 2.6 140 19:18 18.12.2019
2397 Clouds 5 1016 87 10000 2.6 160 18:44 18.12.2019
2398 Clear 6 1016 87 8000 2.6 140 18:25 18.12.2019
2399 Clouds 6 1016 81 10000 1.5 170 17:57 18.12.2019
2400 Clouds 6 1016 81 10000 1.5 170 17:39 18.12.2019
2401 Clear 6 1016 87 10000 2.6 160 17:19 18.12.2019
2402 Clouds 7 1016 87 9000 1.5 170 16:55 18.12.2019
2403 Clouds 7 1016 87 9000 1.5 170 16:37 18.12.2019
2404 Clouds 7 1016 87 10000 3.1 190 16:18 18.12.2019
2405 Clouds 7 1016 81 10000 3.6 230 15:55 18.12.2019
2406 Clouds 7 1016 81 10000 3.6 230 15:37 18.12.2019
2407 Clouds 7 1015 87 10000 4.1 210 15:18 18.12.2019
2408 Clouds 8 1016 87 10000 4.1 220 14:42 18.12.2019
2409 Clouds 7 1015 93 9000 4.1 210 14:22 18.12.2019
2410 Clouds 8 1015 93 9000 4.1 210 13:57 18.12.2019
2411 Clouds 8 1015 87 10000 4.6 220 13:38 18.12.2019
2412 Clouds 8 1015 93 9000 5.1 200 13:20 18.12.2019
2413 Clouds 7 1015 93 9000 5.1 200 12:58 18.12.2019
2414 Clouds 7 1014 87 10000 4.6 240 12:38 18.12.2019
2415 Clouds 7 1014 87 7000 5.7 210 12:20 18.12.2019
2416 Clouds 7 1014 87 10000 4.1 220 11:56 18.12.2019
2417 Clouds 7 1014 87 10000 4.1 220 11:38 18.12.2019
2418 Mist 7 1014 93 5000 4.1 220 11:19 18.12.2019
2419 Clouds 6 1014 93 10000 3.1 220 10:55 18.12.2019
2420 Clouds 6 1014 93 10000 3.1 220 10:37 18.12.2019
2421 Mist 6 1013 93 3200 3.6 210 10:19 18.12.2019
2422 Mist 6 1013 93 4800 4.1 210 09:50 18.12.2019
2423 Clouds 6 1013 93 7000 4.1 210 09:18 18.12.2019
2424 Clouds 6 1012 93 7000 3.6 230 08:41 18.12.2019
2425 Clouds 6 1012 93 9000 4.6 210 08:22 18.12.2019
2426 Clouds 6 1011 93 10000 4.1 220 07:55 18.12.2019
2427 Clouds 6 1011 93 10000 4.1 220 07:36 18.12.2019
2428 Clouds 6 1011 100 8000 4.1 210 07:18 18.12.2019
2429 Clouds 6 1010 87 10000 4.6 230 06:49 18.12.2019
2430 Clouds 6 1010 93 10000 3.6 210 06:22 18.12.2019
2431 Clouds 6 1009 93 10000 4.6 220 05:22 18.12.2019
2432 Clouds 6 1008 100 10000 4.6 230 03:31 18.12.2019
2433 Clouds 6 1006 87 10000 3.1 260 02:41 18.12.2019
2434 Clouds 6 1006 93 10000 3.6 230 02:23 18.12.2019
2435 Clouds 7 1004 87 10000 6.2 300 01:42 18.12.2019
2436 Rain 7 1005 93 10000 3.6 260 01:24 18.12.2019
2437 Drizzle 7 1002 93 5000 7.2 280 00:42 18.12.2019
2438 Clouds 7 1003 93 10000 5.7 300 00:24 18.12.2019
2439 Drizzle 8 1000 93 10000 4.6 230 23:58 17.12.2019
2440 Drizzle 8 1000 93 10000 4.6 230 23:39 17.12.2019
2441 Drizzle 9 1001 100 3200 5.1 280 23:20 17.12.2019
2442 Drizzle 9 1000 93 10000 5.1 240 22:56 17.12.2019
2443 Drizzle 9 1000 93 10000 5.1 240 22:38 17.12.2019
2444 Rain 10 1000 100 8000 4.6 230 22:19 17.12.2019
2445 Rain 10 1000 100 8000 4.6 230 21:57 17.12.2019
2446 Clouds 10 999 76 10000 5.1 200 21:38 17.12.2019
2447 Rain 11 999 93 9000 5.7 230 21:20 17.12.2019
2448 Rain 11 999 93 9000 5.7 230 20:58 17.12.2019
2449 Clouds 11 999 76 10000 4.1 190 20:39 17.12.2019
2450 Rain 11 999 81 10000 5.1 260 20:18 17.12.2019
2451 Clouds 12 999 76 10000 4.6 200 19:56 17.12.2019
2452 Clouds 12 999 76 10000 4.6 200 19:38 17.12.2019
2453 Clouds 12 999 76 10000 5.1 200 19:19 17.12.2019
2454 Clouds 12 999 71 10000 4.1 210 18:56 17.12.2019
2455 Clouds 12 999 71 10000 4.1 210 18:37 17.12.2019
2456 Clouds 12 999 81 10000 3.1 180 18:19 17.12.2019
2457 Clouds 12 999 81 10000 3.1 180 18:19 17.12.2019
2458 Clouds 12 999 71 10000 4.6 210 17:42 17.12.2019
2459 Clouds 12 999 76 10000 5.1 210 17:21 17.12.2019
2460 Clouds 12 999 76 10000 4.1 200 16:57 17.12.2019
2461 Clouds 12 999 76 10000 4.1 200 16:38 17.12.2019
2462 Clouds 12 998 76 10000 5.1 210 16:19 17.12.2019
2463 Clouds 12 998 76 10000 5.1 210 15:59 17.12.2019
2464 -273 0 0 0 0 0 15:38 17.12.2019
2465 Clouds 12 998 76 10000 5.7 200 15:19 17.12.2019
2466 Clouds 12 998 76 10000 4.6 200 14:56 17.12.2019
2467 Clouds 12 998 76 10000 4.6 200 14:38 17.12.2019
2468 Clouds 12 998 76 10000 5.7 200 14:19 17.12.2019
2469 Clouds 12 998 76 10000 5.7 200 14:19 17.12.2019
2470 Clouds 12 998 81 10000 4.6 200 13:56 17.12.2019
2471 Clouds 12 998 81 10000 4.6 200 13:38 17.12.2019
2472 Clouds 12 998 81 10000 4.6 200 13:19 17.12.2019
2473 Clouds 12 998 81 10000 4.6 200 13:19 17.12.2019
2474 Rain 11 999 76 10000 4.1 200 12:59 17.12.2019
2475 Rain 11 999 76 10000 4.1 200 12:38 17.12.2019
2476 Clouds 10 998 81 10000 5.1 190 12:18 17.12.2019
2477 Clouds 10 998 81 10000 5.1 190 12:18 17.12.2019
2478 Clouds 10 999 81 10000 4.1 200 11:56 17.12.2019
2479 Clouds 10 999 81 10000 4.1 200 11:37 17.12.2019
2480 Clouds 9 999 87 10000 4.6 170 11:18 17.12.2019
2481 Clouds 9 999 93 10000 3.6 180 10:57 17.12.2019
2482 Clouds 9 999 93 10000 3.6 180 10:38 17.12.2019
2483 Clouds 8 998 87 10000 4.1 180 10:19 17.12.2019
2484 Clouds 8 998 87 10000 4.1 180 10:19 17.12.2019
2485 Clouds 8 999 93 10000 2.6 170 09:55 17.12.2019
2486 Clouds 8 999 93 10000 2.6 170 09:37 17.12.2019
2487 Clouds 7 998 93 10000 3.1 170 09:18 17.12.2019
2488 Clouds 7 999 100 6000 2.6 170 08:54 17.12.2019
2489 Clouds 7 999 100 6000 2.6 170 08:36 17.12.2019
2490 Clouds 7 998 93 8000 1.5 180 08:18 17.12.2019
2491 Mist 6 998 93 3000 3.1 110 07:42 17.12.2019
2492 Mist 6 998 93 5000 2.6 130 07:22 17.12.2019
2493 Mist 6 999 93 3000 2.1 110 06:53 17.12.2019
2494 Drizzle 6 998 100 3400 2.6 110 06:32 17.12.2019
2495 Clouds 6 999 93 6000 2.6 120 05:52 17.12.2019
2496 Mist 6 999 100 1900 2.1 100 05:32 17.12.2019
2497 Mist 7 999 93 3200 3.1 80 04:19 17.12.2019
2498 Drizzle 7 1001 93 2800 2.1 70 02:27 17.12.2019
2499 Drizzle 7 1001 93 3600 2.1 90 01:34 17.12.2019
2500 Drizzle 7 1002 93 8000 1.5 130 00:56 17.12.2019
2501 Drizzle 7 1002 93 8000 1.5 130 00:36 17.12.2019
2502 Drizzle 7 1002 93 2600 2.1 100 00:18 17.12.2019
2503 Drizzle 7 1003 93 10000 1.5 150 23:40 16.12.2019
2504 Drizzle 7 1002 93 5000 1.5 120 23:19 16.12.2019
2505 Clouds 7 1003 100 10000 1.5 170 22:55 16.12.2019
2506 Clouds 7 1003 100 10000 1.5 170 22:37 16.12.2019
2507 Clouds 6 1003 93 7000 2.6 140 22:19 16.12.2019
2508 Clouds 7 1003 93 10000 2.1 190 21:54 16.12.2019
2509 Clouds 7 1003 93 10000 2.1 190 21:36 16.12.2019
2510 Clouds 7 1003 93 8000 2.1 160 21:18 16.12.2019
2511 Clouds 7 1004 93 10000 2.6 180 20:56 16.12.2019
2512 Clouds 7 1004 93 10000 2.6 180 20:37 16.12.2019
2513 Clouds 7 1003 100 10000 2.6 180 20:19 16.12.2019
2514 Clouds 7 1003 93 10000 2.6 190 19:55 16.12.2019
2515 Clouds 7 1003 93 10000 2.6 190 19:36 16.12.2019
2516 Clouds 7 1003 93 10000 3.6 180 19:18 16.12.2019
2517 Clouds 7 1003 87 10000 1.5 210 18:55 16.12.2019
2518 Clouds 7 1003 87 10000 1.5 210 18:37 16.12.2019
2519 Clouds 7 1003 87 10000 1.5 210 18:37 16.12.2019
2520 Clouds 7 1003 87 10000 4.6 190 18:19 16.12.2019
2521 Clouds 7 1003 87 10000 2.6 220 17:57 16.12.2019
2522 Clouds 8 1003 87 10000 2.6 220 17:37 16.12.2019
2523 Clouds 8 1003 87 10000 4.1 190 17:19 16.12.2019
2524 Clouds 8 1003 87 10000 4.6 200 16:55 16.12.2019
2525 Clouds 8 1003 87 10000 4.6 200 16:37 16.12.2019
2526 Clouds 8 1003 87 10000 4.6 200 16:18 16.12.2019
2527 Clouds 8 1003 87 10000 4.6 200 15:57 16.12.2019
2528 Clouds 8 1003 87 10000 4.6 200 15:37 16.12.2019
2529 Clouds 8 1003 87 10000 5.1 200 15:19 16.12.2019
2530 Clouds 8 1003 87 10000 5.7 210 14:54 16.12.2019
2531 Clouds 8 1003 87 10000 5.7 210 14:36 16.12.2019
2532 Clouds 8 1003 87 10000 4.6 190 14:18 16.12.2019
2533 Clouds 8 1003 87 10000 5.7 210 13:55 16.12.2019
2534 Clouds 8 1003 87 10000 5.7 210 13:37 16.12.2019
2535 Clouds 8 1003 87 10000 5.1 200 13:19 16.12.2019
2536 Clouds 8 1003 87 10000 5.7 220 12:54 16.12.2019
2537 Clouds 8 1003 87 10000 5.7 220 12:54 16.12.2019
2538 Clouds 8 1003 87 10000 5.7 220 12:36 16.12.2019
2539 Clouds 8 1004 87 10000 5.7 210 12:18 16.12.2019
2540 Clouds 8 1004 87 10000 5.7 210 12:18 16.12.2019
2541 Clouds 7 1004 81 10000 5.7 210 11:55 16.12.2019
2542 Clouds 7 1004 81 10000 5.7 210 11:37 16.12.2019
2543 Clouds 7 1004 87 10000 5.1 200 11:19 16.12.2019
2544 Clouds 6 1004 87 10000 5.7 210 10:40 16.12.2019
2545 Clouds 6 1004 87 10000 5.7 210 10:40 16.12.2019
2546 Clouds 6 1004 87 10000 5.7 210 10:40 16.12.2019
2547 Clouds 6 1003 93 10000 5.7 200 10:22 16.12.2019
2548 Clouds 6 1003 93 10000 5.7 200 09:59 16.12.2019
2549 Clouds 5 1003 86 10000 5.1 200 09:41 16.12.2019
2550 Clouds 5 1003 87 10000 5.7 190 09:23 16.12.2019
2551 Clouds 5 1003 86 10000 5.1 190 08:40 16.12.2019
2552 Clouds 5 1003 86 10000 5.1 190 08:40 16.12.2019
2553 Clouds 5 1002 93 10000 5.7 190 08:20 16.12.2019
2554 Clouds 5 1002 93 10000 5.7 190 08:20 16.12.2019
2555 Clouds 5 1003 86 10000 4.6 190 07:53 16.12.2019
2556 Clouds 5 1003 86 10000 4.6 180 07:31 16.12.2019
2557 Clouds 5 1002 86 10000 4.1 180 07:31 16.12.2019
2558 Clouds 5 1003 86 10000 4.6 180 06:58 16.12.2019
2559 Clouds 5 1003 86 10000 4.6 180 06:40 16.12.2019
2560 Clouds 5 1003 86 10000 4.6 180 06:20 16.12.2019
2561 Clouds 5 1003 86 10000 4.6 190 05:41 16.12.2019
2562 Clouds 5 1003 86 10000 5.1 180 05:22 16.12.2019
2563 Clouds 4 1003 86 10000 4.6 180 03:29 16.12.2019
2564 Clouds 5 1004 80 10000 5.1 210 01:52 16.12.2019
2565 Clear 5 1003 86 10000 4.6 190 01:33 16.12.2019
2566 Clouds 5 1003 86 10000 4.6 220 00:41 16.12.2019
2567 Clouds 5 1003 86 10000 6.7 200 00:21 16.12.2019
2568 Clouds 5 1003 86 10000 5.7 220 23:57 15.12.2019
2569 Clouds 5 1003 86 10000 6.2 210 23:37 15.12.2019
2570 Clear 5 1003 81 10000 7.2 210 23:19 15.12.2019
2571 Clouds 6 1002 81 10000 5.7 220 22:54 15.12.2019
2572 Clouds 6 1002 81 10000 5.7 220 22:36 15.12.2019
2573 Clear 6 1002 87 10000 7.7 220 22:18 15.12.2019
2574 Clouds 6 1001 87 10000 6.2 230 21:55 15.12.2019
2575 Clouds 6 1001 87 10000 6.2 230 21:36 15.12.2019
2576 Clouds 6 1001 87 10000 7.7 220 21:18 15.12.2019
2577 Clouds 6 1000 87 10000 6.7 230 20:54 15.12.2019
2578 Clouds 6 1000 87 10000 6.7 230 20:36 15.12.2019
2579 Clouds 6 1001 87 10000 8.2 220 20:18 15.12.2019
2580 Drizzle 7 1000 87 10000 7.7 240 19:54 15.12.2019
2581 Drizzle 7 1000 87 10000 7.7 240 19:36 15.12.2019
2582 Drizzle 7 1000 87 10000 8.7 220 19:18 15.12.2019
2583 Drizzle 7 999 87 10000 5.1 240 18:54 15.12.2019
2584 Drizzle 7 999 87 10000 5.1 240 18:36 15.12.2019
2585 Rain 7 999 87 10000 8.7 220 18:18 15.12.2019
2586 Clouds 7 998 81 10000 6.2 240 17:55 15.12.2019
2587 Clouds 7 998 81 10000 6.2 240 17:36 15.12.2019
2588 Clouds 7 998 81 10000 7.2 210 17:18 15.12.2019
2589 Clouds 7 998 81 10000 7.7 220 16:42 15.12.2019
2590 Clouds 7 997 81 10000 7.7 210 16:23 15.12.2019
2591 Clouds 7 996 65 10000 9.3 250 15:57 15.12.2019
2592 Clouds 7 996 65 10000 9.3 250 15:39 15.12.2019
2593 Drizzle 8 996 75 10000 9.8 230 15:19 15.12.2019
2594 Clouds 8 994 61 10000 11.8 260 14:56 15.12.2019
2595 Clouds 8 994 61 10000 11.8 260 14:38 15.12.2019
2596 Clouds 8 995 66 10000 10.3 240 14:19 15.12.2019
2597 Clouds 8 995 66 10000 10.3 240 13:59 15.12.2019
2598 Clouds 8 993 61 10000 12.3 250 13:39 15.12.2019
2599 Clouds 8 994 66 10000 10.8 240 13:20 15.12.2019
2600 Clouds 8 992 62 10000 10.8 240 12:57 15.12.2019
2601 Clouds 8 992 62 10000 10.8 240 12:39 15.12.2019
2602 Clouds 8 993 65 10000 11.8 240 12:21 15.12.2019
2603 Clouds 8 991 61 10000 11.3 240 11:59 15.12.2019
2604 Clouds 8 991 61 10000 11.3 240 11:38 15.12.2019
2605 Clouds 8 991 61 10000 11.3 240 11:38 15.12.2019
2606 Clouds 8 993 65 10000 11.3 240 11:38 15.12.2019
2607 Rain 8 992 61 10000 12.9 230 11:19 15.12.2019
2608 Clouds 7 990 68 10000 12.3 240 10:56 15.12.2019
2609 Clouds 7 990 68 10000 12.3 240 10:38 15.12.2019
2610 Clouds 7 990 68 10000 12.3 240 10:38 15.12.2019
2611 Rain 7 990 70 10000 10.8 230 10:19 15.12.2019
2612 Clouds 7 988 70 10000 10.8 240 09:57 15.12.2019
2613 Clouds 7 988 70 10000 10.8 240 09:37 15.12.2019
2614 Rain 7 989 75 10000 11.8 240 09:19 15.12.2019
2615 Clouds 7 987 81 10000 9.8 230 08:54 15.12.2019
2616 Clouds 7 987 81 10000 9.8 230 08:36 15.12.2019
2617 Clouds 8 987 81 10000 10.8 240 08:18 15.12.2019
2618 Clouds 7 986 87 10000 7.7 200 07:43 15.12.2019
2619 Clouds 7 986 87 10000 11.3 220 07:25 15.12.2019
2620 Rain 6 986 93 8000 7.2 180 06:26 15.12.2019
2621 Rain 5 988 86 10000 7.2 170 05:42 15.12.2019
2622 Clouds 5 987 81 10000 7.2 170 05:21 15.12.2019
2623 Clouds 4 989 86 10000 5.7 160 04:21 15.12.2019
2624 Clouds 3 993 85 10000 4.6 200 02:55 15.12.2019
2625 Clouds 3 992 86 10000 4.6 180 02:32 15.12.2019
2626 Clouds 3 993 75 10000 5.7 220 01:41 15.12.2019
2627 Clouds 4 993 80 10000 4.6 200 01:19 15.12.2019
2628 Clouds 3 994 80 10000 5.7 220 00:51 15.12.2019
2629 Clouds 4 994 72 10000 5.1 200 00:32 15.12.2019
2630 Clouds 4 993 80 10000 4.6 230 23:55 14.12.2019
2631 Clouds 4 993 80 10000 4.6 230 23:37 14.12.2019
2632 Rain 4 994 86 10000 6.2 220 23:18 14.12.2019
2633 Clouds 4 992 80 10000 5.7 230 22:56 14.12.2019
2634 Clouds 4 992 80 10000 5.7 230 22:37 14.12.2019
2635 Clouds 4 993 80 10000 6.2 230 22:18 14.12.2019
2636 Clouds 4 991 86 10000 6.7 230 21:55 14.12.2019
2637 Clouds 4 991 86 10000 6.7 230 21:36 14.12.2019
2638 Rain 4 992 86 10000 6.7 240 21:18 14.12.2019
2639 Rain 4 990 86 10000 5.7 240 20:42 14.12.2019
2640 Rain 4 991 80 10000 6.2 240 20:20 14.12.2019
2641 Rain 4 991 80 10000 6.2 240 19:59 14.12.2019
2642 Clouds 4 989 80 10000 6.7 240 19:39 14.12.2019
2643 Clouds 4 990 86 10000 7.7 250 19:21 14.12.2019
2644 Clouds 5 987 75 10000 6.2 220 18:57 14.12.2019
2645 Clouds 5 987 75 10000 6.2 220 18:38 14.12.2019
2646 Clouds 5 987 75 10000 6.2 220 18:38 14.12.2019
2647 Rain 5 989 86 9000 7.2 230 18:20 14.12.2019
2648 Clouds 5 987 75 10000 6.7 240 17:57 14.12.2019
2649 Rain 6 988 86 7000 9.3 230 17:38 14.12.2019
2650 Clouds 6 987 75 10000 6.2 220 17:20 14.12.2019
2651 Clouds 6 986 75 10000 6.2 240 16:41 14.12.2019
2652 Rain 6 987 75 10000 7.7 230 16:19 14.12.2019
2653 Clouds 6 985 75 10000 8.7 250 15:55 14.12.2019
2654 Clouds 6 985 75 10000 8.7 250 15:37 14.12.2019
2655 Clouds 6 986 70 10000 8.7 240 15:19 14.12.2019
2656 Clouds 6 985 75 10000 8.2 250 14:56 14.12.2019
2657 Clouds 6 985 75 10000 8.2 250 14:37 14.12.2019
2658 Clouds 6 986 70 10000 11.3 250 14:18 14.12.2019
2659 Clouds 6 985 75 10000 7.7 250 13:44 14.12.2019
2660 Clouds 6 983 70 10000 9.3 250 13:19 14.12.2019
2661 Clouds 6 983 75 10000 7.7 240 12:58 14.12.2019
2662 Clouds 6 983 75 10000 7.7 240 12:39 14.12.2019
2663 Rain 6 984 86 10000 9.8 250 12:20 14.12.2019
2664 Clouds 6 982 86 10000 7.2 240 11:58 14.12.2019
2665 Clouds 6 982 86 10000 7.2 240 11:39 14.12.2019
2666 Clouds 6 983 81 10000 6.7 250 11:19 14.12.2019
2667 Clouds 6 981 86 10000 6.2 230 10:57 14.12.2019
2668 Clouds 5 981 86 10000 6.2 230 10:39 14.12.2019
2669 Clouds 5 982 86 10000 7.2 240 10:20 14.12.2019
2670 Rain 5 981 93 9000 5.7 220 09:55 14.12.2019
2671 Rain 5 981 93 9000 5.7 220 09:36 14.12.2019
2672 Clouds 5 981 93 10000 6.2 220 09:18 14.12.2019
2673 Rain 5 980 86 10000 6.2 230 08:41 14.12.2019
2674 Clouds 5 980 93 10000 5.7 210 08:19 14.12.2019
2675 Rain 4 979 86 8000 6.2 230 07:43 14.12.2019
2676 Rain 5 980 86 10000 7.2 220 07:23 14.12.2019
2677 Rain 5 978 86 8000 6.2 220 06:55 14.12.2019
2678 Rain 5 978 86 8000 6.2 220 06:36 14.12.2019
2679 Clouds 5 978 86 10000 5.1 210 05:56 14.12.2019
2680 Clouds 5 979 86 10000 6.2 210 04:42 14.12.2019
2681 Rain 5 980 87 10000 5.7 200 02:31 14.12.2019
2682 Clouds 5 980 93 10000 5.7 210 01:49 14.12.2019
2683 Drizzle 5 980 93 10000 6.7 210 01:31 14.12.2019
2684 Rain 5 980 93 10000 6.2 210 00:45 14.12.2019
2685 Clouds 5 980 93 10000 6.2 200 00:27 14.12.2019
2686 Clouds 5 980 93 8000 4.6 190 23:54 13.12.2019
2687 Clouds 4 980 93 6000 3.6 190 23:36 13.12.2019
2688 Clouds 4 980 100 6000 3.6 190 23:18 13.12.2019
2689 Clouds 4 981 93 7000 3.1 170 22:40 13.12.2019
2690 Drizzle 4 981 100 3600 3.6 200 22:19 13.12.2019
2691 Clouds 4 981 93 6000 2.6 180 21:56 13.12.2019
2692 Clouds 3 981 93 6000 2.6 180 21:37 13.12.2019
2693 Mist 3 981 93 3700 3.6 190 21:19 13.12.2019
2694 Drizzle 3 981 93 7000 2.6 170 20:42 13.12.2019
2695 Drizzle 3 981 93 6000 2.6 180 20:23 13.12.2019
2696 Drizzle 3 981 93 6000 2.6 180 19:59 13.12.2019
2697 Drizzle 3 981 93 6000 2.6 180 19:41 13.12.2019
2698 Clouds 3 980 93 10000 2.6 180 19:22 13.12.2019
2699 Rain 3 980 93 10000 2.1 170 18:59 13.12.2019
2700 Rain 3 980 93 10000 2.1 170 18:41 13.12.2019
2701 Clouds 3 980 93 10000 2.6 180 18:19 13.12.2019
2702 Clouds 3 980 93 10000 2.1 180 17:57 13.12.2019
2703 Rain 3 980 93 10000 2.6 150 17:38 13.12.2019
2704 Clouds 3 979 86 10000 1.5 150 17:18 13.12.2019
2705 Clouds 3 979 84 10000 2.6 140 16:54 13.12.2019
2706 Clouds 3 979 84 10000 2.6 140 16:36 13.12.2019
2707 Clouds 3 978 86 10000 1 150 16:18 13.12.2019
2708 Rain 4 978 84 10000 3.1 120 15:38 13.12.2019
2709 Drizzle 4 977 80 10000 1 0 15:20 13.12.2019
2710 Rain 4 978 84 10000 3.6 130 14:55 13.12.2019
2711 Rain 4 978 84 10000 3.6 130 14:36 13.12.2019
2712 Clouds 4 977 80 10000 2.1 120 14:18 13.12.2019
2713 Clouds 4 977 81 10000 4.1 130 13:43 13.12.2019
2714 Clouds 4 976 80 10000 2.6 110 13:23 13.12.2019
2715 Clouds 3 976 86 10000 2.6 120 12:54 13.12.2019
2716 Clouds 3 976 86 10000 3.1 120 12:36 13.12.2019
2717 Clouds 3 976 86 10000 3.1 120 12:18 13.12.2019
2718 Snow 3 977 74 10000 5.7 130 11:43 13.12.2019
2719 Clouds 3 975 86 10000 3.6 120 11:24 13.12.2019
2720 Clouds 3 977 80 10000 5.7 130 10:56 13.12.2019
2721 Clouds 3 977 80 10000 5.7 130 10:38 13.12.2019
2722 Clouds 3 975 95 10000 4.1 110 10:19 13.12.2019
2723 Clouds 3 977 80 10000 5.7 120 09:42 13.12.2019
2724 Clouds 2 975 86 10000 4.1 120 09:21 13.12.2019
2725 Clouds 2 977 74 10000 6.2 120 08:45 13.12.2019
2726 Clouds 2 977 74 10000 5.1 130 08:27 13.12.2019
2727 Clouds 2 977 74 10000 6.7 130 07:50 13.12.2019
2728 Drizzle 2 975 93 10000 5.7 140 07:27 13.12.2019
2729 Clouds 2 978 74 10000 5.7 130 06:57 13.12.2019
2730 Clouds 2 978 74 10000 5.7 130 06:39 13.12.2019
2731 Clouds 3 978 74 10000 5.1 140 06:20 13.12.2019
2732 Clouds 3 978 74 10000 5.1 140 05:37 13.12.2019
2733 Clouds 3 976 74 10000 6.2 140 05:19 13.12.2019
2734 Clouds 3 977 77 10000 6.7 150 04:28 13.12.2019
2735 Clouds 3 982 80 10000 6.7 150 02:56 13.12.2019
2736 Clouds 3 980 77 10000 6.7 140 02:30 13.12.2019
2737 Clouds 3 984 80 10000 7.2 150 01:38 13.12.2019
2738 Clouds 3 985 80 10000 5.7 150 00:51 13.12.2019
2739 Clouds 3 984 79 10000 6.2 140 00:28 13.12.2019
2740 Clouds 3 987 80 10000 6.2 150 23:44 12.12.2019
2741 Clouds 3 985 79 10000 6.7 150 23:26 12.12.2019
2742 Clouds 3 986 80 10000 6.7 140 22:57 12.12.2019
2743 Clouds 3 987 80 10000 6.7 150 22:39 12.12.2019
2744 Clouds 3 987 80 10000 6.7 150 22:39 12.12.2019
2745 Clouds 3 987 80 10000 6.7 150 22:21 12.12.2019
2746 Clouds 3 990 80 10000 6.2 160 21:56 12.12.2019
2747 Clouds 3 990 80 10000 6.2 160 21:37 12.12.2019
2748 Clouds 3 988 80 10000 6.7 150 21:19 12.12.2019
2749 Clouds 3 989 80 10000 6.2 150 20:59 12.12.2019
2750 Clouds 3 991 80 10000 5.1 160 20:40 12.12.2019
2751 Clear 3 990 85 10000 5.7 150 20:22 12.12.2019
2752 Clouds 3 992 86 10000 5.1 160 19:59 12.12.2019
2753 Clouds 3 992 86 10000 5.1 160 19:40 12.12.2019
2754 Clouds 3 991 86 10000 5.1 150 19:21 12.12.2019
2755 Clouds 3 993 86 10000 3.6 160 18:57 12.12.2019
2756 Clouds 3 993 86 10000 3.6 160 18:57 12.12.2019
2757 Clouds 3 993 86 10000 3.6 160 18:38 12.12.2019
2758 Clouds 3 993 86 10000 4.6 150 18:20 12.12.2019
2759 Clouds 3 994 86 10000 3.1 170 17:57 12.12.2019
2760 Clouds 3 994 86 10000 3.1 170 17:38 12.12.2019
2761 Clouds 3 994 86 10000 4.6 170 17:20 12.12.2019
2762 Clouds 4 995 80 10000 3.6 190 16:57 12.12.2019
2763 Clouds 4 995 80 10000 3.6 190 16:38 12.12.2019
2764 Clouds 4 995 80 10000 5.1 170 16:20 12.12.2019
2765 Clouds 4 996 75 10000 6.2 210 15:54 12.12.2019
2766 Clouds 5 996 75 10000 6.2 210 15:36 12.12.2019
2767 Clouds 5 996 80 10000 6.2 190 15:18 12.12.2019
2768 Clouds 5 996 80 10000 5.1 200 14:38 12.12.2019
2769 Clouds 5 996 86 10000 5.7 190 14:20 12.12.2019
2770 Clouds 5 997 81 10000 4.6 220 13:58 12.12.2019
2771 Clouds 6 997 81 10000 4.6 220 13:39 12.12.2019
2772 Clouds 5 997 86 10000 5.7 200 13:21 12.12.2019
2773 Clouds 6 998 86 10000 4.6 220 12:58 12.12.2019
2774 Clouds 5 998 86 10000 4.6 220 12:40 12.12.2019
2775 Clear 5 998 86 10000 5.1 200 12:21 12.12.2019
2776 Rain 5 998 86 10000 5.1 230 11:56 12.12.2019
2777 Rain 5 998 86 10000 5.1 230 11:38 12.12.2019
2778 Clear 5 999 93 8000 4.6 210 11:19 12.12.2019
2779 Rain 5 999 86 10000 5.1 220 10:56 12.12.2019
2780 Rain 5 999 86 10000 5.1 220 10:38 12.12.2019
2781 Mist 5 999 93 5000 4.6 210 10:19 12.12.2019
2782 Clouds 5 998 86 10000 5.1 220 09:55 12.12.2019
2783 Clouds 5 998 86 10000 5.1 220 09:36 12.12.2019
2784 Clouds 5 999 100 6000 4.1 210 09:18 12.12.2019
2785 Clouds 5 999 86 8000 5.1 210 08:43 12.12.2019
2786 Clouds 5 999 93 8000 5.1 220 08:25 12.12.2019
2787 Rain 5 999 86 10000 4.6 210 07:49 12.12.2019
2788 Clouds 5 999 93 8000 6.2 220 07:26 12.12.2019
2789 Clouds 5 999 93 7000 4.1 200 06:55 12.12.2019
2790 Clouds 5 999 93 7000 4.1 200 06:35 12.12.2019
2791 Clouds 5 999 93 7000 3.6 190 05:42 12.12.2019
2792 Clouds 5 999 93 8000 3.1 190 04:54 12.12.2019
2793 Clouds 5 999 93 8000 4.1 190 04:23 12.12.2019
2794 Clouds 5 1001 86 8000 4.1 210 02:40 12.12.2019
2795 Mist 5 1000 93 5000 3.6 200 02:22 12.12.2019
2796 Mist 5 1001 93 5000 4.1 220 01:54 12.12.2019
2797 Mist 5 1001 93 4700 4.1 190 01:32 12.12.2019
2798 Mist 5 1002 93 5000 5.1 220 00:47 12.12.2019
2799 Mist 5 1001 93 3600 3.6 200 00:21 12.12.2019
2800 Clouds 5 1002 93 6000 3.6 210 23:54 11.12.2019
2801 Clouds 5 1002 93 6000 3.6 210 23:36 11.12.2019
2802 Mist 5 1002 100 2900 3.6 200 23:18 11.12.2019
2803 Clouds 5 1002 93 6000 3.1 200 22:54 11.12.2019
2804 Clouds 5 1002 93 6000 3.1 200 22:36 11.12.2019
2805 Mist 5 1002 93 3300 4.1 200 22:18 11.12.2019
2806 Clouds 5 1003 93 6000 3.6 210 21:39 11.12.2019
2807 Clouds 5 1003 93 6000 3.6 210 21:39 11.12.2019
2808 Mist 5 1002 93 3700 3.6 200 21:20 11.12.2019
2809 Clouds 5 1003 93 6000 3.1 210 20:58 11.12.2019
2810 Clouds 5 1003 93 6000 3.1 210 20:40 11.12.2019
2811 Mist 5 1003 100 5000 4.6 200 20:20 11.12.2019
2812 Clouds 5 1003 93 7000 2.6 210 19:59 11.12.2019
2813 Clouds 5 1003 93 7000 2.6 210 19:40 11.12.2019
2814 Mist 5 1003 93 5000 3.6 200 19:21 11.12.2019
2815 Clouds 5 1003 93 7000 2.1 200 18:59 11.12.2019
2816 Clouds 5 1003 93 7000 2.1 200 18:39 11.12.2019
2817 Clouds 5 1003 87 7000 3.1 190 18:19 11.12.2019
2818 Clouds 6 1004 93 10000 1.5 190 17:56 11.12.2019
2819 Clouds 6 1004 93 10000 1.5 190 17:37 11.12.2019
2820 Clouds 6 1003 93 9000 3.1 200 17:18 11.12.2019
2821 Clouds 6 1004 93 10000 2.6 180 16:55 11.12.2019
2822 Clouds 6 1004 93 10000 2.6 180 16:37 11.12.2019
2823 Clouds 6 1003 93 9000 3.1 190 16:18 11.12.2019
2824 Clouds 6 1003 87 10000 2.6 180 15:56 11.12.2019
2825 Clouds 7 1003 87 10000 2.6 180 15:37 11.12.2019
2826 Clouds 7 1004 87 9000 3.6 210 15:18 11.12.2019
2827 Clouds 7 1004 87 10000 3.6 210 14:54 11.12.2019
2828 Clouds 7 1004 87 10000 3.6 210 14:36 11.12.2019
2829 Clouds 7 1004 87 10000 3.1 210 14:18 11.12.2019
2830 Clouds 7 1005 87 10000 3.6 220 13:43 11.12.2019
2831 Clouds 7 1005 87 10000 3.6 220 13:22 11.12.2019
2832 Clouds 7 1005 93 9000 3.6 220 12:58 11.12.2019
2833 Clouds 7 1006 93 8000 3.6 210 12:39 11.12.2019
2834 Clouds 7 1006 93 8000 3.6 210 12:21 11.12.2019
2835 Clouds 7 1006 93 10000 4.6 220 11:58 11.12.2019
2836 Clouds 7 1006 93 10000 4.6 220 11:39 11.12.2019
2837 Clouds 6 1006 93 8000 4.1 210 11:19 11.12.2019
2838 Clouds 6 1006 93 10000 5.1 210 10:59 11.12.2019
2839 Clouds 6 1006 93 10000 5.1 210 10:40 11.12.2019
2840 Clouds 6 1006 100 9000 4.6 200 10:21 11.12.2019
2841 Clouds 6 1006 93 10000 4.6 210 09:56 11.12.2019
2842 Clouds 6 1006 93 10000 4.6 210 09:38 11.12.2019
2843 Clouds 6 1006 100 10000 4.6 200 09:19 11.12.2019
2844 Clouds 6 1007 93 10000 5.1 210 08:55 11.12.2019
2845 Clouds 6 1007 93 10000 5.1 210 08:36 11.12.2019
2846 Clouds 6 1006 100 10000 4.6 200 08:18 11.12.2019
2847 Clouds 6 1006 93 10000 6.2 210 07:43 11.12.2019
2848 Clouds 6 1006 100 10000 4.6 210 07:24 11.12.2019
2849 Clouds 6 1006 100 10000 4.6 210 07:24 11.12.2019
2850 Rain 6 1006 87 10000 6.2 210 06:46 11.12.2019
2851 Rain 6 1006 100 9000 3.6 230 06:25 11.12.2019
2852 Rain 6 1006 93 9000 6.2 210 05:55 11.12.2019
2853 Rain 6 1006 93 8000 6.7 210 05:35 11.12.2019
2854 Rain 6 1006 81 9000 8.7 210 04:51 11.12.2019
2855 Drizzle 6 1006 93 8000 8.2 200 03:29 11.12.2019
2856 Clouds 6 1006 65 10000 9.3 210 02:38 11.12.2019
2857 Clouds 6 1007 75 10000 9.8 190 01:22 11.12.2019
2858 Clouds 6 1007 75 10000 9.8 200 00:43 11.12.2019
2859 Clouds 6 1007 70 10000 10.8 190 00:19 11.12.2019
2860 Clouds 6 1008 60 10000 7.7 200 23:46 10.12.2019
2861 Clouds 6 1008 70 10000 10.8 190 23:26 10.12.2019
2862 Clouds 6 1009 69 10000 8.7 200 22:57 10.12.2019
2863 Clouds 6 1009 69 10000 8.7 200 22:39 10.12.2019
2864 Clouds 6 1009 70 10000 9.8 190 22:21 10.12.2019
2865 Clouds 6 1010 69 10000 9.8 190 21:54 10.12.2019
2866 Clouds 5 1010 69 10000 9.8 190 21:36 10.12.2019
2867 Rain 5 1010 70 10000 11.3 190 21:18 10.12.2019
2868 Rain 5 1011 69 10000 8.7 190 20:56 10.12.2019
2869 Rain 5 1011 69 10000 8.7 190 20:56 10.12.2019
2870 Rain 5 1011 69 10000 8.7 190 20:37 10.12.2019
2871 Drizzle 5 1011 75 10000 9.3 190 20:18 10.12.2019
2872 Drizzle 5 1012 75 10000 9.8 180 19:54 10.12.2019
2873 Drizzle 5 1012 75 10000 9.3 190 19:36 10.12.2019
2874 Drizzle 5 1012 75 10000 9.3 190 19:36 10.12.2019
2875 Drizzle 5 1012 75 10000 9.3 190 19:18 10.12.2019
2876 Clouds 5 1014 75 10000 9.3 190 18:39 10.12.2019
2877 Clouds 5 1014 75 10000 9.3 190 18:39 10.12.2019
2878 Clouds 5 1014 70 10000 7.7 190 18:20 10.12.2019
2879 Clouds 5 1015 70 10000 7.7 190 17:57 10.12.2019
2880 Clouds 5 1015 70 10000 7.7 190 17:39 10.12.2019
2881 Clouds 5 1015 75 10000 9.3 190 17:19 10.12.2019
2882 Clouds 5 1016 71 10000 6.2 190 16:43 10.12.2019
2883 Clouds 5 1016 75 10000 7.2 190 16:20 10.12.2019
2884 Clouds 5 1017 75 10000 6.2 190 15:59 10.12.2019
2885 Clouds 6 1017 75 10000 6.2 190 15:37 10.12.2019
2886 Clouds 6 1018 70 10000 7.7 190 15:18 10.12.2019
2887 Clouds 6 1019 75 10000 6.2 190 14:55 10.12.2019
2888 Clouds 6 1019 75 10000 6.2 190 14:37 10.12.2019
2889 Clouds 6 1019 70 10000 8.7 200 14:19 10.12.2019
2890 Clouds 6 1020 75 10000 5.7 210 13:56 10.12.2019
2891 Clouds 6 1020 75 10000 6.7 200 13:38 10.12.2019
2892 Clouds 6 1020 75 10000 6.7 200 13:19 10.12.2019
2893 Clouds 6 1020 75 10000 5.1 210 12:45 10.12.2019
2894 Clouds 6 1020 75 10000 5.1 210 12:45 10.12.2019
2895 Clouds 6 1021 75 10000 5.7 210 12:25 10.12.2019
2896 Clouds 5 1021 78 10000 3.6 220 11:45 10.12.2019
2897 Clouds 5 1022 86 10000 5.7 210 11:25 10.12.2019
2898 Clouds 4 1022 80 10000 2.6 210 10:58 10.12.2019
2899 Clouds 4 1022 80 10000 2.6 210 10:40 10.12.2019
2900 Clouds 3 1022 86 10000 2.6 200 10:22 10.12.2019
2901 Clouds 3 1021 75 10000 2.6 210 09:56 10.12.2019
2902 Clouds 3 1021 75 10000 2.6 210 09:56 10.12.2019
2903 Clouds 3 1021 75 10000 2.6 210 09:38 10.12.2019
2904 Clouds 3 1021 75 10000 2.6 210 09:38 10.12.2019
2905 Clouds 3 1021 75 10000 2.6 210 09:38 10.12.2019
2906 Clouds 3 1022 80 10000 3.1 190 09:20 10.12.2019
2907 Clouds 2 1021 75 10000 2.6 220 08:57 10.12.2019
2908 Clouds 2 1021 75 10000 2.6 220 08:38 10.12.2019
2909 Clouds 2 1022 68 10000 2.6 210 08:19 10.12.2019
2910 Clouds 2 1021 68 10000 2.1 230 07:44 10.12.2019
2911 Clouds 3 1021 86 10000 3.1 220 07:26 10.12.2019
2912 Clouds 3 1021 86 10000 3.1 220 07:26 10.12.2019
2913 Clouds 3 1020 68 10000 3.6 280 06:49 10.12.2019
2914 Clouds 4 1021 86 10000 2.1 240 06:24 10.12.2019
2915 Clouds 4 1020 68 10000 2.6 260 05:55 10.12.2019
2916 Clouds 4 1020 68 10000 2.6 260 05:33 10.12.2019
2917 Clouds 5 1018 80 10000 3.6 280 03:54 10.12.2019
2918 Clouds 5 1017 75 10000 4.1 290 02:57 10.12.2019
2919 Clouds 5 1017 75 10000 4.1 290 02:57 10.12.2019
2920 Clouds 5 1016 75 10000 3.6 310 01:55 10.12.2019
2921 Rain 5 1017 66 10000 3.1 280 01:27 10.12.2019
2922 Rain 5 1015 70 10000 6.7 310 00:58 10.12.2019
2923 Clouds 5 1016 70 10000 4.6 310 00:25 10.12.2019
2924 Clouds 5 1014 70 10000 7.7 340 23:57 09.12.2019
2925 Clouds 5 1014 70 10000 7.7 340 23:37 09.12.2019
2926 Rain 6 1015 66 10000 4.6 300 23:18 09.12.2019
2927 Clouds 6 1012 70 10000 7.2 320 22:55 09.12.2019
2928 Clouds 5 1012 70 10000 7.2 320 22:37 09.12.2019
2929 Clouds 5 1014 66 10000 5.7 320 22:18 09.12.2019
2930 Rain 5 1011 66 10000 6.7 310 21:55 09.12.2019
2931 Rain 5 1011 66 10000 6.7 310 21:37 09.12.2019
2932 Rain 5 1012 60 10000 7.2 320 21:18 09.12.2019
2933 Clouds 5 1009 66 10000 8.7 320 20:55 09.12.2019
2934 Clouds 5 1009 66 10000 8.7 320 20:37 09.12.2019
2935 Clouds 5 1009 66 10000 8.7 320 20:37 09.12.2019
2936 Rain 5 1011 75 10000 5.1 310 20:18 09.12.2019
2937 Clouds 6 1007 70 10000 7.2 320 19:55 09.12.2019
2938 Clouds 6 1007 70 10000 7.2 320 19:37 09.12.2019
2939 Clouds 6 1009 75 10000 4.6 330 19:18 09.12.2019
2940 Clouds 6 1006 75 10000 6.2 320 18:54 09.12.2019
2941 Clouds 6 1006 75 10000 6.2 320 18:36 09.12.2019
2942 Rain 6 1007 65 10000 6.7 320 18:18 09.12.2019
2943 Rain 7 1006 70 10000 5.7 320 17:55 09.12.2019
2944 Clouds 7 1001 70 10000 9.3 340 17:37 09.12.2019
2945 Clouds 7 1001 70 10000 9.3 340 17:18 09.12.2019
2946 Clouds 7 1001 70 10000 9.3 340 16:54 09.12.2019
2947 Clouds 7 1001 70 10000 9.3 340 16:36 09.12.2019
2948 Clouds 7 1002 70 10000 7.2 330 16:18 09.12.2019
2949 Clouds 7 999 81 10000 6.2 350 15:54 09.12.2019
2950 Clouds 7 999 81 10000 6.2 350 15:36 09.12.2019
2951 Rain 7 998 93 4000 6.7 310 15:18 09.12.2019
2952 Rain 7 997 87 10000 5.7 290 14:41 09.12.2019
2953 Clouds 7 998 87 10000 3.1 280 14:18 09.12.2019
2954 Rain 7 996 87 10000 6.2 270 13:56 09.12.2019
2955 Rain 7 996 87 10000 6.2 270 13:38 09.12.2019
2956 Clouds 7 995 81 10000 4.6 260 13:19 09.12.2019
2957 Clouds 7 994 81 10000 4.1 250 12:56 09.12.2019
2958 Clouds 7 994 81 10000 4.1 250 12:37 09.12.2019
2959 Rain 7 995 87 10000 5.1 250 12:18 09.12.2019
2960 Clouds 7 994 87 10000 3.6 230 11:55 09.12.2019
2961 Clouds 7 994 87 10000 3.6 230 11:36 09.12.2019
2962 Clouds 6 994 93 10000 3.6 220 11:18 09.12.2019
2963 Clouds 6 994 93 10000 3.6 220 11:18 09.12.2019
2964 Clouds 6 993 81 10000 4.1 230 10:39 09.12.2019
2965 Clouds 6 993 81 10000 3.6 210 10:20 09.12.2019
2966 Clouds 6 993 87 10000 4.6 220 09:56 09.12.2019
2967 Clouds 6 993 87 10000 4.6 220 09:38 09.12.2019
2968 Clouds 6 992 86 10000 5.7 220 09:20 09.12.2019
2969 Clouds 6 992 87 10000 6.2 230 08:42 09.12.2019
2970 Clouds 6 992 87 10000 6.2 220 08:24 09.12.2019
2971 Clouds 6 991 87 10000 7.7 210 07:56 09.12.2019
2972 Drizzle 6 991 87 10000 7.2 210 07:37 09.12.2019
2973 Drizzle 6 991 87 10000 7.2 210 07:19 09.12.2019
2974 Clouds 6 991 87 10000 7.2 220 06:39 09.12.2019
2975 Clouds 6 991 87 10000 7.7 210 06:21 09.12.2019
2976 Clouds 6 991 87 10000 8.2 210 05:26 09.12.2019
2977 Clouds 6 991 87 10000 8.2 210 04:31 09.12.2019
2978 Drizzle 6 992 87 10000 7.2 210 03:19 09.12.2019
2979 Drizzle 6 992 87 10000 7.2 210 03:19 09.12.2019
2980 Clouds 6 992 87 10000 7.7 220 02:19 09.12.2019
2981 Clouds 6 991 87 10000 6.7 220 01:41 09.12.2019
2982 Clouds 6 991 81 10000 6.7 230 00:45 09.12.2019
2983 Rain 6 992 87 10000 6.7 220 00:25 09.12.2019
2984 Clouds 6 991 81 10000 6.2 220 23:40 08.12.2019
2985 Clouds 6 992 87 10000 8.2 230 23:22 08.12.2019
2986 Clouds 7 992 81 10000 4.6 220 22:57 08.12.2019
2987 Clouds 7 992 81 10000 4.6 220 22:38 08.12.2019
2988 Rain 7 992 81 10000 6.2 230 22:19 08.12.2019
2989 Rain 7 992 81 10000 6.2 230 22:19 08.12.2019
2990 Clouds 7 992 81 10000 7.7 240 21:58 08.12.2019
2991 Clouds 7 992 81 10000 7.7 240 21:58 08.12.2019
2992 Clouds 7 992 81 10000 7.7 240 21:40 08.12.2019
2993 Clouds 7 993 75 10000 4.1 240 21:20 08.12.2019
2994 Clouds 7 993 75 10000 8.2 230 20:57 08.12.2019
2995 Rain 7 993 81 5000 11.3 260 20:38 08.12.2019
2996 Clouds 8 993 81 10000 9.3 220 20:20 08.12.2019
2997 Clouds 8 993 81 10000 9.3 220 20:20 08.12.2019
2998 Rain 8 993 81 10000 5.7 230 19:58 08.12.2019
2999 Rain 8 993 81 10000 5.7 230 19:40 08.12.2019
3000 Clouds 8 994 81 10000 8.2 230 19:22 08.12.2019
3001 Clouds 8 993 81 10000 7.2 240 18:55 08.12.2019
3002 Clouds 8 993 81 10000 7.2 240 18:55 08.12.2019
3003 Clouds 8 993 81 10000 7.2 240 18:37 08.12.2019
3004 Rain 8 994 81 10000 9.3 230 18:19 08.12.2019
3005 Clouds 9 993 76 10000 7.7 240 17:56 08.12.2019
3006 Clouds 8 993 76 10000 7.7 240 17:38 08.12.2019
3007 Clouds 8 993 76 10000 7.7 240 17:38 08.12.2019
3008 Rain 8 995 81 10000 7.2 240 17:19 08.12.2019
3009 Clouds 9 994 76 10000 6.7 250 16:57 08.12.2019
3010 Clouds 9 994 76 10000 6.7 250 16:39 08.12.2019
3011 Clouds 9 995 81 10000 8.2 240 16:20 08.12.2019
3012 Clouds 9 993 76 10000 8.2 250 15:55 08.12.2019
3013 Clouds 9 993 76 10000 8.2 250 15:36 08.12.2019
3014 Clouds 10 995 76 10000 7.7 240 15:18 08.12.2019
3015 Clouds 10 993 76 10000 9.3 260 14:43 08.12.2019
3016 Clouds 10 993 81 10000 7.7 250 14:24 08.12.2019
3017 Clouds 10 993 81 10000 7.7 250 14:24 08.12.2019
3018 Clouds 10 993 81 10000 8.7 250 13:59 08.12.2019
3019 Clouds 10 993 81 10000 8.7 250 13:40 08.12.2019
3020 Clouds 10 995 87 10000 7.7 250 13:21 08.12.2019
3021 Clouds 10 995 87 10000 7.7 250 13:21 08.12.2019
3022 Rain 10 992 87 6000 9.8 230 12:57 08.12.2019
3023 Rain 10 992 87 6000 9.8 230 12:38 08.12.2019
3024 Clouds 10 994 93 10000 12.3 230 12:18 08.12.2019
3025 Clouds 10 994 93 10000 12.3 230 11:57 08.12.2019
3026 Drizzle 10 993 93 7000 10.3 230 11:37 08.12.2019
3027 Drizzle 9 993 93 8000 9.3 220 11:19 08.12.2019
3028 Drizzle 9 994 93 4000 9.8 220 10:40 08.12.2019
3029 Rain 9 995 93 2900 11.8 220 10:22 08.12.2019
3030 Drizzle 9 994 87 4500 10.3 220 09:58 08.12.2019
3031 Drizzle 9 994 87 4500 10.3 220 09:39 08.12.2019
3032 Clouds 9 996 93 10000 12.9 220 09:20 08.12.2019
3033 Rain 9 995 87 9000 10.8 210 08:59 08.12.2019
3034 Rain 9 995 87 9000 10.8 210 08:41 08.12.2019
3035 Rain 8 995 87 9000 10.8 220 08:22 08.12.2019
3036 Rain 8 995 87 9000 10.8 210 07:49 08.12.2019
3037 Rain 8 998 87 8000 12.3 220 07:21 08.12.2019
3038 Clouds 9 997 76 10000 10.8 220 06:58 08.12.2019
3039 Clouds 9 997 76 10000 10.8 220 06:38 08.12.2019
3040 Clouds 9 998 76 10000 11.8 210 06:18 08.12.2019
3041 Clouds 9 1000 81 10000 12.9 210 05:22 08.12.2019
3042 Clouds 9 1001 81 10000 8.2 220 04:23 08.12.2019
3043 Clouds 9 1002 81 10000 8.7 220 03:38 08.12.2019
3044 Clouds 9 1004 81 10000 9.3 210 02:41 08.12.2019
3045 Clouds 9 1004 81 10000 8.7 210 02:19 08.12.2019
3046 Clouds 8 1005 81 10000 7.7 220 01:35 08.12.2019
3047 Clouds 8 1006 81 10000 6.7 220 00:53 08.12.2019
3048 Clouds 8 1007 81 10000 8.2 210 00:24 08.12.2019
3049 Clouds 8 1007 87 10000 6.2 220 23:59 07.12.2019
3050 Clouds 8 1007 87 10000 6.2 220 23:38 07.12.2019
3051 Clouds 8 1008 87 10000 7.7 210 23:20 07.12.2019
3052 Clouds 8 1008 87 10000 6.7 230 22:55 07.12.2019
3053 Clouds 8 1008 87 10000 6.7 230 22:37 07.12.2019
3054 Clouds 8 1009 81 10000 7.7 220 22:19 07.12.2019
3055 Clouds 8 1008 87 10000 5.7 230 21:55 07.12.2019
3056 Clouds 9 1008 87 10000 5.7 230 21:37 07.12.2019
3057 Clouds 9 1009 87 10000 5.7 230 21:18 07.12.2019
3058 Clouds 9 1009 87 10000 4.6 240 20:38 07.12.2019
3059 Clouds 9 1010 87 10000 6.7 230 20:20 07.12.2019
3060 Clouds 9 1010 87 10000 6.7 230 20:20 07.12.2019
3061 Clouds 9 1009 87 10000 5.1 250 19:58 07.12.2019
3062 Clouds 9 1009 87 10000 5.1 250 19:39 07.12.2019
3063 Clouds 9 1010 87 10000 5.7 240 19:21 07.12.2019
3064 Clouds 9 1009 87 10000 5.7 250 18:59 07.12.2019
3065 Clouds 9 1009 87 10000 5.7 250 18:40 07.12.2019
3066 Clouds 9 1010 87 10000 5.1 240 18:18 07.12.2019
3067 Clouds 9 1009 87 10000 6.2 250 17:56 07.12.2019
3068 Clouds 9 1009 87 10000 6.2 250 17:37 07.12.2019
3069 Clouds 9 1010 87 10000 4.6 250 17:19 07.12.2019
3070 Clouds 9 1008 87 10000 7.2 260 16:56 07.12.2019
3071 Clouds 9 1008 87 10000 7.2 260 16:37 07.12.2019
3072 Clouds 9 1009 87 10000 5.1 250 16:18 07.12.2019
3073 Rain 9 1008 87 10000 6.7 260 15:41 07.12.2019
3074 Rain 9 1008 87 10000 6.7 260 15:41 07.12.2019
3075 Drizzle 9 1009 93 9000 5.7 250 15:23 07.12.2019
3076 Clouds 9 1007 87 10000 9.3 260 14:57 07.12.2019
3077 Clouds 9 1007 87 10000 9.3 260 14:39 07.12.2019
3078 Clouds 9 1009 81 10000 5.7 240 14:18 07.12.2019
3079 Clouds 9 1007 87 10000 8.7 270 13:41 07.12.2019
3080 Clouds 9 1009 81 10000 6.2 250 13:21 07.12.2019
3081 Clouds 9 1007 81 10000 8.7 270 12:56 07.12.2019
3082 Clouds 9 1007 81 10000 8.7 270 12:38 07.12.2019
3083 Clouds 9 1008 81 10000 6.2 250 12:20 07.12.2019
3084 Clouds 9 1006 87 10000 10.3 270 11:57 07.12.2019
3085 Clouds 9 1006 87 10000 10.3 270 11:38 07.12.2019
3086 Clouds 9 1008 93 10000 6.2 260 11:20 07.12.2019
3087 Clouds 9 1006 87 10000 9.8 270 10:38 07.12.2019
3088 Clouds 9 1008 87 10000 6.2 250 10:19 07.12.2019
3089 Clouds 9 1005 87 10000 9.3 270 09:42 07.12.2019
3090 Clouds 9 1007 87 10000 5.7 250 09:22 07.12.2019
3091 Clouds 9 1005 87 10000 8.7 270 08:59 07.12.2019
3092 Clouds 9 1005 87 10000 8.7 270 08:39 07.12.2019
3093 Clouds 9 1006 87 10000 6.7 260 08:21 07.12.2019
3094 Clouds 9 1003 87 10000 8.7 270 07:45 07.12.2019
3095 Clouds 9 1005 87 10000 5.7 260 07:25 07.12.2019
3096 Clouds 9 1003 87 10000 9.3 270 06:50 07.12.2019
3097 Clouds 9 1004 87 10000 5.7 260 06:25 07.12.2019
3098 Clouds 9 1003 93 9000 6.7 260 05:30 07.12.2019
3099 Clouds 9 999 87 10000 7.7 270 03:59 07.12.2019
3100 Clouds 9 999 87 10000 7.7 270 03:40 07.12.2019
3101 Clouds 9 998 93 10000 5.1 250 02:21 07.12.2019
3102 Drizzle 9 998 100 7000 5.1 250 01:35 07.12.2019
3103 Drizzle 8 998 93 5000 6.7 240 00:55 07.12.2019
3104 Rain 8 999 100 6000 6.2 230 00:20 07.12.2019
3105 Drizzle 8 997 93 3500 8.7 220 23:56 06.12.2019
3106 Drizzle 8 997 93 3500 8.7 220 23:38 06.12.2019
3107 Drizzle 8 997 93 5000 7.7 220 23:18 06.12.2019
3108 Drizzle 8 997 93 5000 7.7 220 22:39 06.12.2019
3109 Drizzle 8 998 100 6000 9.8 210 22:20 06.12.2019
3110 Drizzle 8 998 93 5000 7.7 220 21:58 06.12.2019
3111 Drizzle 8 998 93 5000 7.7 220 21:39 06.12.2019
3112 Drizzle 8 998 93 5000 9.3 220 21:20 06.12.2019
3113 Drizzle 8 998 93 5000 9.3 220 20:45 06.12.2019
3114 Rain 8 999 100 4100 9.8 210 20:25 06.12.2019
3115 Rain 8 999 93 2800 9.3 210 19:59 06.12.2019
3116 Rain 8 999 93 2800 9.3 210 19:40 06.12.2019
3117 Rain 8 999 93 3500 9.8 210 19:22 06.12.2019
3118 Rain 8 999 93 3500 9.8 210 19:22 06.12.2019
3119 Rain 8 999 93 3500 9.8 210 19:22 06.12.2019
3120 Drizzle 8 999 93 4000 7.7 220 18:58 06.12.2019
3121 Drizzle 8 999 93 4000 7.7 220 18:40 06.12.2019
3122 Drizzle 8 1000 93 2700 9.3 210 18:20 06.12.2019
3123 Drizzle 7 999 93 4000 8.7 220 17:57 06.12.2019
3124 Drizzle 7 999 93 4000 8.7 220 17:39 06.12.2019
3125 Drizzle 7 1000 93 2600 9.3 210 17:21 06.12.2019
3126 Rain 7 1000 100 2700 9.3 210 16:56 06.12.2019
3127 Drizzle 7 1000 93 5000 8.2 210 16:37 06.12.2019
3128 Rain 7 1001 93 5000 9.3 210 16:18 06.12.2019
3129 Drizzle 7 1000 93 5000 9.8 210 15:41 06.12.2019
3130 Drizzle 7 1000 93 5000 9.8 210 15:41 06.12.2019
3131 Clouds 7 1001 93 4900 9.8 210 15:22 06.12.2019
3132 Drizzle 7 1001 93 4000 8.2 220 14:57 06.12.2019
3133 Drizzle 6 1001 93 4000 8.2 220 14:39 06.12.2019
3134 Rain 6 1002 93 2200 9.3 210 14:19 06.12.2019
3135 Drizzle 6 1002 93 4000 8.7 220 13:46 06.12.2019
3136 Rain 6 1003 93 2300 9.3 210 13:26 06.12.2019
3137 Mist 6 1003 93 4000 8.2 220 12:57 06.12.2019
3138 Mist 6 1003 93 4000 8.2 220 12:39 06.12.2019
3139 Drizzle 6 1004 100 2500 9.3 210 12:20 06.12.2019
3140 Drizzle 6 1004 93 3500 8.7 220 11:42 06.12.2019
3141 Drizzle 6 1005 93 3800 8.2 210 11:23 06.12.2019
3142 Mist 6 1005 93 4000 8.7 220 10:56 06.12.2019
3143 Mist 6 1005 93 4000 8.7 220 10:38 06.12.2019
3144 Rain 6 1006 93 5000 9.3 210 10:20 06.12.2019
3145 Mist 6 1005 93 5000 8.2 220 09:55 06.12.2019
3146 Mist 6 1005 93 5000 8.2 220 09:36 06.12.2019
3147 Drizzle 6 1005 93 2500 8.2 220 09:18 06.12.2019
3148 Drizzle 6 1005 93 1800 7.7 230 08:42 06.12.2019
3149 Drizzle 6 1005 93 3000 7.7 220 08:24 06.12.2019
3150 Clouds 6 1005 93 6000 8.2 230 07:42 06.12.2019
3151 Rain 6 1005 93 6000 8.7 230 07:22 06.12.2019
3152 Clouds 6 1005 93 8000 9.3 230 06:48 06.12.2019
3153 Mist 6 1007 93 4200 9.8 220 06:25 06.12.2019
3154 Rain 6 1006 93 6000 7.7 220 05:49 06.12.2019
3155 Clouds 6 1007 93 4700 10.8 220 03:50 06.12.2019
3156 Rain 6 1007 93 6000 10.3 230 01:46 06.12.2019
3157 Rain 5 1008 86 6000 9.3 220 00:56 06.12.2019
3158 Drizzle 5 1010 93 5000 10.3 210 00:24 06.12.2019
3159 Rain 5 1009 93 5000 8.7 220 23:56 05.12.2019
3160 Rain 5 1011 93 4400 9.8 210 23:21 05.12.2019
3161 Mist 5 1010 93 5000 8.7 220 22:59 05.12.2019
3162 Mist 5 1010 93 5000 8.7 220 22:39 05.12.2019
3163 Mist 5 1011 93 5000 9.3 220 22:20 05.12.2019
3164 Mist 5 1011 93 5000 9.3 220 22:20 05.12.2019
3165 Mist 5 1011 93 5000 9.3 220 22:20 05.12.2019
3166 Mist 4 1011 93 5000 8.7 210 21:58 05.12.2019
3167 Mist 4 1011 93 5000 8.7 210 21:40 05.12.2019
3168 Mist 4 1012 100 2800 8.2 210 21:22 05.12.2019
3169 Mist 4 1012 93 4000 7.2 200 20:58 05.12.2019
3170 Mist 4 1012 93 4000 7.2 200 20:40 05.12.2019
3171 Mist 4 1013 93 2900 7.7 200 20:19 05.12.2019
3172 Mist 4 1013 93 4500 7.7 210 19:44 05.12.2019
3173 Mist 4 1013 93 4500 7.7 210 19:44 05.12.2019
3174 Mist 3 1014 93 2600 7.7 200 19:26 05.12.2019
3175 Mist 3 1014 93 2600 7.7 200 18:59 05.12.2019
3176 Mist 3 1014 93 5000 6.7 210 18:39 05.12.2019
3177 Mist 3 1014 93 5000 6.7 210 18:39 05.12.2019
3178 Mist 3 1015 100 2800 6.7 200 18:21 05.12.2019
3179 Mist 3 1015 100 2800 6.7 200 18:21 05.12.2019
3180 Mist 3 1015 100 2800 6.7 200 18:21 05.12.2019
3181 Mist 3 1015 100 2800 6.7 200 17:59 05.12.2019
3182 Mist 3 1014 93 3500 6.2 210 17:38 05.12.2019
3183 Mist 3 1015 93 4100 5.7 200 17:19 05.12.2019
3184 Fog 3 1015 100 1500 6.2 210 16:55 05.12.2019
3185 Fog 3 1015 100 1500 6.2 210 16:37 05.12.2019
3186 Fog 3 1015 100 1200 6.2 210 16:19 05.12.2019
3187 Fog 3 1016 93 450 6.2 210 15:56 05.12.2019
3188 Fog 3 1016 93 450 6.2 210 15:37 05.12.2019
3189 Mist 2 1017 100 1200 5.7 200 15:18 05.12.2019
3190 Fog 2 1017 93 450 5.1 220 14:55 05.12.2019
3191 Fog 2 1017 93 450 5.1 220 14:36 05.12.2019
3192 Fog 2 1017 93 700 5.1 220 14:18 05.12.2019
3193 Mist 1 1017 100 1200 4.6 230 13:55 05.12.2019
3194 Mist 3 1017 100 1200 4.6 230 13:37 05.12.2019
3195 Mist 4 1017 93 1500 4.1 220 13:18 05.12.2019
3196 Mist 4 1017 86 3000 4.6 220 12:43 05.12.2019
3197 Mist 4 1017 86 3000 4.6 220 12:43 05.12.2019
3198 Fog 3 1018 87 200 5.1 210 12:24 05.12.2019
3199 Fog 4 1017 86 7000 4.1 210 11:56 05.12.2019
3200 Fog 4 1017 86 7000 4.1 210 11:38 05.12.2019
3201 Fog 3 1018 89 200 3.6 210 11:20 05.12.2019
3202 Clouds 0 1018 89 7000 3.1 210 10:56 05.12.2019
3203 Clouds 0 1018 89 7000 3.1 210 10:56 05.12.2019
3204 Clouds 1 1018 89 7000 3.1 210 10:38 05.12.2019
3205 Fog 0 1018 89 200 4.6 210 10:18 05.12.2019
3206 Clouds 0 1017 89 8000 3.1 220 09:45 05.12.2019
3207 Clouds 0 1017 89 8000 3.6 210 09:24 05.12.2019
3208 Mist 0 1018 100 1300 3.6 200 08:59 05.12.2019
3209 Fog -1 1018 89 6000 2.6 210 08:39 05.12.2019
3210 Mist 0 1018 100 2900 3.1 200 08:20 05.12.2019
3211 Clouds -1 1018 85 7000 2.1 210 07:54 05.12.2019
3212 Clouds -1 1018 85 7000 2.1 210 07:36 05.12.2019
3213 Mist 0 1018 100 2800 2.1 190 07:18 05.12.2019
3214 Clear 0 1018 85 6000 2.1 230 06:41 05.12.2019
3215 Mist 0 1018 100 2700 2.6 190 06:20 05.12.2019
3216 Clear -1 1018 85 6000 2.1 210 05:47 05.12.2019
3217 Mist 0 1019 92 2500 1.5 230 05:23 05.12.2019
3218 Clear 0 1018 82 7000 1.5 250 04:20 05.12.2019
3219 Clear 0 1018 82 9000 2.6 200 02:44 05.12.2019
3220 Clear 1 1019 82 9000 1.5 230 02:24 05.12.2019
3221 Clear 1 1019 83 9000 1.5 230 01:53 05.12.2019
3222 Clouds 1 1019 93 8000 1.5 250 01:27 05.12.2019
3223 Clouds 1 1019 93 8000 1.5 250 00:54 05.12.2019
3224 Clouds 1 1019 93 8000 1.5 250 00:36 05.12.2019
3225 Clear 1 1019 93 8000 3.1 200 00:18 05.12.2019
3226 Clear 1 1019 93 8000 3.1 200 23:40 04.12.2019
3227 Clear 2 1020 88 6000 2.1 180 23:22 04.12.2019
3228 Clear 2 1020 93 8000 2.1 210 22:57 04.12.2019
3229 Clear 2 1020 93 8000 2.1 210 22:36 04.12.2019
3230 Clear 2 1020 93 8000 2.6 220 22:18 04.12.2019
3231 Clear 2 1020 93 8000 2.6 220 21:55 04.12.2019
3232 Clear 2 1020 93 8000 2.6 220 21:37 04.12.2019
3233 Clear 2 1020 93 6000 2.6 200 21:18 04.12.2019
3234 Clouds 3 1020 93 8000 3.1 210 20:56 04.12.2019
3235 Clouds 3 1020 93 8000 3.1 210 20:37 04.12.2019
3236 Clouds 3 1020 93 7000 2.1 200 20:19 04.12.2019
3237 Clouds 3 1020 93 8000 2.6 210 19:40 04.12.2019
3238 Clouds 3 1020 93 7000 1.5 180 19:22 04.12.2019
3239 Clouds 4 1020 93 8000 2.6 190 18:59 04.12.2019
3240 Clouds 4 1020 93 8000 2.6 190 18:40 04.12.2019
3241 Clouds 4 1020 93 8000 3.1 190 18:22 04.12.2019
3242 Clouds 4 1020 86 8000 3.1 210 17:58 04.12.2019
3243 Clouds 5 1020 86 8000 3.1 210 17:38 04.12.2019
3244 Clouds 5 1020 86 10000 2.1 190 17:18 04.12.2019
3245 Clouds 6 1020 87 8000 2.1 210 16:41 04.12.2019
3246 Clouds 6 1020 87 10000 2.6 210 16:21 04.12.2019
3247 Clouds 6 1020 87 10000 3.1 220 15:59 04.12.2019
3248 Clouds 6 1020 87 10000 3.1 220 15:41 04.12.2019
3249 Clouds 7 1021 81 10000 3.1 220 15:21 04.12.2019
3250 Clouds 7 1021 81 10000 3.1 220 14:59 04.12.2019
3251 Clouds 7 1020 81 10000 4.1 230 14:41 04.12.2019
3252 Clouds 7 1021 81 10000 3.6 210 14:21 04.12.2019
3253 Clouds 7 1021 87 9000 4.1 230 13:56 04.12.2019
3254 Clouds 6 1021 87 9000 4.1 230 13:36 04.12.2019
3255 Clouds 6 1021 87 10000 3.6 210 13:18 04.12.2019
3256 Clouds 6 1021 93 8000 3.1 220 12:42 04.12.2019
3257 Mist 6 1021 100 5000 3.6 220 12:23 04.12.2019
3258 Mist 5 1021 100 2000 4.1 220 11:45 04.12.2019
3259 Fog 5 1021 93 400 4.1 230 11:26 04.12.2019
3260 Clouds 4 1022 86 9000 4.6 210 10:59 04.12.2019
3261 Fog 4 1022 93 500 4.1 230 10:40 04.12.2019
3262 Clouds 3 1022 86 8000 4.1 210 10:22 04.12.2019
3263 Fog 3 1021 100 700 4.6 220 09:45 04.12.2019
3264 Mist 3 1021 93 4400 3.1 200 09:25 04.12.2019
3265 Mist 3 1021 93 4400 3.1 200 08:59 04.12.2019
3266 Fog 4 1021 100 500 3.6 230 08:38 04.12.2019
3267 Fog 4 1021 93 400 3.1 220 08:19 04.12.2019
3268 Fog 4 1021 93 700 4.1 230 07:42 04.12.2019
3269 Mist 4 1021 93 4200 4.1 220 07:23 04.12.2019
3270 Mist 4 1021 93 5000 4.1 210 06:33 04.12.2019
3271 Mist 5 1021 100 1800 4.1 220 05:48 04.12.2019
3272 Mist 4 1022 100 2000 4.1 210 04:58 04.12.2019
3273 Mist 4 1022 100 2800 3.6 220 03:54 04.12.2019
3274 Mist 5 1023 93 4000 4.6 210 02:21 04.12.2019
3275 Clouds 5 1023 93 7000 5.1 240 00:50 04.12.2019
3276 Mist 5 1023 93 4300 5.7 210 00:23 04.12.2019
3277 Clouds 4 1023 93 8000 4.1 230 23:57 03.12.2019
3278 Clouds 4 1023 93 8000 4.1 230 23:38 03.12.2019
3279 Clouds 5 1023 93 9000 5.1 240 23:19 03.12.2019
3280 Clouds 4 1023 93 10000 6.2 240 22:40 03.12.2019
3281 Mist 5 1024 93 5000 5.1 220 22:19 03.12.2019
3282 Clouds 5 1023 87 10000 4.1 230 21:58 03.12.2019
3283 Clouds 5 1023 87 10000 4.1 230 21:38 03.12.2019
3284 Clouds 5 1023 93 10000 4.1 230 21:19 03.12.2019
3285 Clouds 6 1023 87 10000 3.6 220 20:58 03.12.2019
3286 Clouds 6 1023 87 10000 3.6 220 20:39 03.12.2019
3287 Clouds 6 1024 87 7000 4.6 210 20:18 03.12.2019
3288 Clouds 6 1024 87 10000 3.1 220 19:55 03.12.2019
3289 Clouds 6 1024 87 10000 3.1 220 19:37 03.12.2019
3290 Clouds 6 1024 87 9000 4.1 210 19:18 03.12.2019
3291 Clouds 6 1024 93 10000 3.1 230 18:56 03.12.2019
3292 Clouds 7 1024 93 9000 4.1 210 18:38 03.12.2019
3293 Clouds 6 1024 93 10000 3.1 210 18:19 03.12.2019
3294 Clouds 7 1024 87 10000 4.1 230 17:55 03.12.2019
3295 Clouds 7 1024 87 10000 4.1 230 17:36 03.12.2019
3296 Clouds 7 1024 87 10000 4.1 230 17:36 03.12.2019
3297 Clouds 7 1024 87 10000 5.1 220 17:18 03.12.2019
3298 Clouds 7 1024 87 10000 4.1 230 16:56 03.12.2019
3299 Clouds 7 1024 87 10000 4.1 230 16:37 03.12.2019
3300 Clouds 7 1025 93 10000 4.1 220 16:19 03.12.2019
3301 Clouds 7 1024 81 10000 4.1 230 15:54 03.12.2019
3302 Clouds 8 1024 81 10000 4.1 230 15:36 03.12.2019
3303 Clouds 8 1025 81 10000 4.6 240 15:18 03.12.2019
3304 Clouds 8 1024 81 10000 5.7 240 14:41 03.12.2019
3305 Clouds 8 1025 87 10000 5.1 230 14:20 03.12.2019
3306 Clouds 8 1025 81 10000 5.7 240 13:56 03.12.2019
3307 Clouds 8 1025 81 10000 5.7 240 13:36 03.12.2019
3308 Clouds 8 1026 81 10000 5.1 240 13:18 03.12.2019
3309 Clouds 8 1025 87 10000 5.1 250 12:41 03.12.2019
3310 Clouds 8 1026 87 10000 5.1 230 12:18 03.12.2019
3311 Clouds 8 1026 87 10000 5.1 230 11:58 03.12.2019
3312 Clouds 7 1025 81 10000 4.6 250 11:39 03.12.2019
3313 Clouds 7 1026 93 10000 2.6 220 11:21 03.12.2019
3314 Clouds 6 1025 87 10000 3.6 240 10:58 03.12.2019
3315 Clouds 6 1025 87 10000 3.6 240 10:58 03.12.2019
3316 Clouds 6 1025 87 10000 3.6 240 10:40 03.12.2019
3317 Clouds 6 1027 93 10000 3.6 210 10:19 03.12.2019
3318 Clouds 6 1026 93 10000 2.1 240 09:46 03.12.2019
3319 Fog 5 1026 93 10000 2.6 240 09:25 03.12.2019
3320 Fog 5 1026 93 10000 2.6 240 08:59 03.12.2019
3321 Fog 5 1026 93 10000 2.6 240 08:40 03.12.2019
3322 Clouds 5 1026 93 10000 2.1 240 08:22 03.12.2019
3323 Clouds 5 1026 93 10000 2.1 240 07:54 03.12.2019
3324 Clouds 5 1026 93 10000 2.1 240 07:54 03.12.2019
3325 Clouds 5 1027 93 9000 2.6 220 07:30 03.12.2019
3326 Clouds 5 1027 100 10000 2.6 210 06:59 03.12.2019
3327 Mist 5 1027 93 1000 2.6 240 06:22 03.12.2019
3328 Mist 5 1027 93 1000 2.6 240 05:57 03.12.2019
3329 Clouds 6 1026 93 9000 3.1 270 04:48 03.12.2019
3330 Clouds 6 1026 100 9000 2.1 250 03:38 03.12.2019
3331 Clouds 6 1027 100 10000 2.6 260 03:18 03.12.2019
3332 Clouds 6 1026 100 9000 3.1 260 02:45 03.12.2019
3333 Fog 5 1027 93 700 2.1 240 02:25 03.12.2019
3334 Clouds 5 1025 93 9000 2.1 250 01:42 03.12.2019
3335 Mist 5 1027 100 3600 2.6 250 01:23 03.12.2019
3336 Clouds 5 1026 93 10000 3.1 270 00:54 03.12.2019
3337 Clouds 6 1026 93 10000 3.1 270 00:36 03.12.2019
3338 Clouds 6 1026 100 6000 2.1 270 00:18 03.12.2019
3339 Clouds 6 1026 100 10000 3.1 270 23:41 02.12.2019
3340 Clouds 6 1026 100 9000 2.1 270 23:19 02.12.2019
3341 Clouds 6 1025 93 10000 2.1 250 22:41 02.12.2019
3342 Clouds 6 1026 100 10000 2.6 260 22:22 02.12.2019
3343 Clouds 6 1025 93 10000 2.1 240 21:58 02.12.2019
3344 Clouds 6 1025 93 10000 2.1 240 21:37 02.12.2019
3345 Clouds 6 1026 100 10000 2.1 230 21:18 02.12.2019
3346 Clouds 6 1025 86 10000 1.5 250 20:56 02.12.2019
3347 Clouds 6 1025 86 10000 1.5 250 20:38 02.12.2019
3348 Drizzle 6 1025 93 4000 1.5 270 20:19 02.12.2019
3349 Clouds 6 1024 86 10000 2.1 230 19:55 02.12.2019
3350 Clouds 6 1024 86 10000 2.1 230 19:36 02.12.2019
3351 Clouds 6 1025 93 10000 2.6 250 19:18 02.12.2019
3352 Clouds 6 1024 81 10000 2.1 250 18:42 02.12.2019
3353 Clouds 6 1025 87 10000 2.6 260 18:19 02.12.2019
3354 Clouds 6 1025 87 10000 2.6 260 17:58 02.12.2019
3355 Clouds 6 1024 87 10000 2.6 300 17:40 02.12.2019
3356 Clouds 6 1025 87 10000 2.1 260 17:20 02.12.2019
3357 Clouds 6 1023 81 10000 3.1 300 16:54 02.12.2019
3358 Clouds 6 1023 81 10000 3.1 300 16:36 02.12.2019
3359 Clouds 6 1024 87 10000 2.6 270 16:18 02.12.2019
3360 Clouds 7 1023 75 10000 3.6 320 15:55 02.12.2019
3361 Clouds 7 1023 75 10000 3.6 320 15:36 02.12.2019
3362 Clouds 7 1024 81 10000 3.6 280 15:18 02.12.2019
3363 Clouds 7 1023 75 10000 5.7 320 14:39 02.12.2019
3364 Rain 7 1024 81 10000 2.6 310 14:20 02.12.2019
3365 Rain 7 1024 81 10000 2.6 310 14:20 02.12.2019
3366 Rain 8 1024 81 10000 2.6 310 13:58 02.12.2019
3367 Rain 8 1023 75 10000 5.7 340 13:39 02.12.2019
3368 Clouds 8 1024 70 10000 4.1 310 13:20 02.12.2019
3369 Clouds 8 1024 70 10000 4.1 310 12:58 02.12.2019
3370 Clouds 8 1022 65 10000 5.1 320 12:40 02.12.2019
3371 Rain 7 1024 81 10000 3.1 290 12:20 02.12.2019
3372 Clouds 7 1022 81 10000 4.1 320 11:56 02.12.2019
3373 Clouds 6 1022 81 10000 4.1 320 11:37 02.12.2019
3374 Clouds 6 1023 93 10000 2.1 290 11:18 02.12.2019
3375 Clouds 6 1022 86 10000 3.1 270 10:55 02.12.2019
3376 Clouds 5 1022 86 10000 3.1 270 10:37 02.12.2019
3377 Rain 5 1023 93 10000 3.1 260 10:19 02.12.2019
3378 Rain 4 1021 93 10000 3.6 300 09:41 02.12.2019
3379 Clouds 4 1022 100 10000 2.1 250 09:19 02.12.2019
3380 Clouds 3 1022 100 10000 2.1 250 08:57 02.12.2019
3381 Rain 3 1021 100 10000 2.1 210 08:39 02.12.2019
3382 Clouds 3 1022 100 10000 2.6 230 08:21 02.12.2019
3383 Clouds 3 1020 93 10000 2.1 300 07:44 02.12.2019
3384 Clouds 3 1022 93 10000 3.1 260 07:21 02.12.2019
3385 Clouds 3 1022 93 10000 3.1 260 07:21 02.12.2019
3386 Clouds 3 1020 93 10000 2.1 250 06:57 02.12.2019
3387 Clouds 2 1020 93 10000 2.1 250 06:38 02.12.2019
3388 Clouds 2 1020 93 10000 3.6 260 05:36 02.12.2019
3389 Rain 2 1020 93 10000 2.6 260 04:40 02.12.2019
3390 Drizzle 2 1021 93 10000 3.6 260 02:54 02.12.2019
3391 Clouds 2 1022 93 10000 2.6 240 02:31 02.12.2019
3392 Clouds 2 1022 100 10000 2.6 250 01:27 02.12.2019
3393 Clouds 2 1021 93 10000 1.5 0 00:59 02.12.2019
3394 Clouds 2 1022 77 6000 2.6 250 00:28 02.12.2019
3395 Clouds 2 1021 93 10000 2.6 250 23:57 01.12.2019
3396 Clouds 2 1021 93 10000 2.6 250 23:38 01.12.2019
3397 Clouds 2 1021 93 10000 1 290 23:19 01.12.2019
3398 Clouds 2 1021 93 10000 1 290 22:56 01.12.2019
3399 Clouds 2 1021 93 10000 1 290 22:37 01.12.2019
3400 Clouds 2 1022 100 9000 1.5 260 22:18 01.12.2019
3401 Clouds 2 1021 93 10000 1.5 250 21:56 01.12.2019
3402 Clouds 2 1021 93 10000 1.5 250 21:56 01.12.2019
3403 Clouds 2 1021 93 10000 1.5 250 21:38 01.12.2019
3404 Mist 2 1021 69 2300 1.5 250 21:19 01.12.2019
3405 Clouds 3 1021 100 8000 1 250 20:56 01.12.2019
3406 Clouds 3 1021 100 8000 1 250 20:37 01.12.2019
3407 Clouds 3 1021 100 8000 1 250 20:37 01.12.2019
3408 Mist 3 1021 100 4500 0.5 0 20:19 01.12.2019
3409 Mist 3 1021 100 2500 1.5 240 19:55 01.12.2019
3410 Mist 3 1021 100 2500 1.5 240 19:37 01.12.2019
3411 Mist 3 1021 100 2700 0.5 270 19:19 01.12.2019
3412 Mist 3 1021 68 1400 2.1 210 18:55 01.12.2019
3413 Mist 3 1021 68 1400 2.1 210 18:37 01.12.2019
3414 Mist 3 1021 100 2600 1.5 230 18:18 01.12.2019
3415 Fog 3 1021 68 300 1 250 17:56 01.12.2019
3416 Fog 3 1021 68 300 1 250 17:38 01.12.2019
3417 Fog 3 1021 100 650 1 250 17:19 01.12.2019
3418 Fog 4 1021 93 200 1 230 16:44 01.12.2019
3419 Fog 4 1021 93 200 1 210 16:24 01.12.2019
3420 Clouds 4 1021 93 10000 0.5 300 15:58 01.12.2019
3421 Clouds 4 1021 93 10000 0.5 300 15:58 01.12.2019
3422 Fog 4 1021 93 10000 0.5 250 15:40 01.12.2019
3423 Fog 4 1021 93 10000 0.5 250 15:40 01.12.2019
3424 Clouds 4 1021 93 10000 1 290 15:20 01.12.2019
3425 Clouds 4 1021 100 6000 1.5 220 14:38 01.12.2019
3426 Clouds 4 1021 93 10000 0.5 220 14:19 01.12.2019
3427 Mist 3 1022 93 3800 1 210 13:40 01.12.2019
3428 Mist 3 1022 100 2500 1 0 13:22 01.12.2019
3429 Clouds 3 1022 93 9000 1 0 12:58 01.12.2019
3430 Mist 3 1022 61 1500 1 0 12:40 01.12.2019
3431 Mist 3 1022 61 1500 1 0 12:40 01.12.2019
3432 Mist 3 1022 61 1500 1 0 12:40 01.12.2019
3433 Mist 3 1022 61 1500 1 0 12:40 01.12.2019
3434 Mist 3 1022 61 1500 1 0 12:40 01.12.2019
3435 Fog 2 1022 61 250 1 190 11:46 01.12.2019
3436 Mist 2 1022 100 4100 1 0 11:24 01.12.2019
3437 Fog 1 1022 100 150 1 170 10:57 01.12.2019
3438 Fog 1 1022 100 150 1 170 10:39 01.12.2019
3439 Mist 1 1022 100 5000 1 330 10:19 01.12.2019
3440 Fog 0 1022 62 150 1 110 09:41 01.12.2019
3441 Mist 0 1022 100 4400 1 240 09:23 01.12.2019
3442 Fog 0 1021 62 700 1.5 120 08:55 01.12.2019
3443 Fog -1 1021 62 700 1.5 120 08:37 01.12.2019
3444 Mist 0 1022 100 3400 1 0 08:18 01.12.2019
3445 Fog 0 1021 100 10000 0.5 0 07:47 01.12.2019
3446 Mist 0 1022 100 1400 0.5 180 07:28 01.12.2019
3447 Fog 0 1022 67 9000 1 160 06:52 01.12.2019
3448 Fog 0 1022 67 10000 1.5 190 05:58 01.12.2019
3449 Fog 0 1022 100 7000 0.5 100 04:55 01.12.2019
3450 Mist 0 1022 100 3500 0.5 180 04:29 01.12.2019
3451 Fog 1 1022 100 50 1.5 250 02:46 01.12.2019
3452 Mist 1 1022 100 2200 0.5 320 02:27 01.12.2019
3453 Fog 1 1023 100 50 1.5 220 01:54 01.12.2019
3454 Mist 2 1023 76 2800 1 200 01:32 01.12.2019
3455 Clouds 1 1023 100 10000 1.5 260 00:50 01.12.2019
3456 Mist 1 1023 76 3900 1.5 0 00:27 01.12.2019
3457 Mist 1 1023 100 5000 0.5 0 23:57 30.11.2019
3458 Clouds 1 1023 93 10000 1.5 230 23:39 30.11.2019
3459 Clouds 1 1023 93 10000 1.5 280 23:20 30.11.2019
3460 Clouds 1 1023 93 10000 1.5 280 22:47 30.11.2019
3461 Fog 1 1023 100 450 0.5 210 22:28 30.11.2019
3462 Rain 1 1023 93 10000 1.5 270 21:55 30.11.2019
3463 Fog 1 1023 92 500 1.5 200 21:37 30.11.2019
3464 Rain 1 1023 93 10000 0.5 250 21:19 30.11.2019
3465 Rain 1 1023 93 10000 0.5 250 20:55 30.11.2019
3466 Rain 2 1023 93 10000 0.5 250 20:36 30.11.2019
3467 Fog 1 1023 92 800 2.94 328 20:18 30.11.2019
3468 Clouds 2 1022 93 10000 2.1 230 19:54 30.11.2019
3469 Clouds 2 1022 93 10000 2.1 230 19:36 30.11.2019
3470 Clouds 2 1022 86 10000 1 240 19:18 30.11.2019
3471 Clouds 2 1022 86 10000 1 240 18:54 30.11.2019
3472 Clouds 3 1022 86 10000 1 240 18:36 30.11.2019
3473 Fog 3 1023 74 550 1 220 18:18 30.11.2019
3474 Clouds 3 1022 86 10000 2.6 270 17:55 30.11.2019
3475 Clouds 3 1022 86 10000 2.6 270 17:37 30.11.2019
3476 Clouds 3 1022 86 10000 2.6 270 17:37 30.11.2019
3477 Rain 4 1023 93 10000 1 200 17:18 30.11.2019
3478 Clouds 4 1022 86 10000 2.6 250 16:42 30.11.2019
3479 Rain 5 1023 93 10000 1.5 240 16:22 30.11.2019
3480 Clouds 6 1022 81 10000 2.1 250 15:55 30.11.2019
3481 Clouds 6 1022 81 10000 2.1 250 15:55 30.11.2019
3482 Clouds 6 1022 81 10000 2.1 250 15:37 30.11.2019
3483 Rain 6 1023 81 10000 3.6 260 15:18 30.11.2019
3484 Clouds 7 1022 81 10000 3.1 250 14:56 30.11.2019
3485 Clouds 7 1022 81 10000 3.1 250 14:37 30.11.2019
3486 Clouds 7 1023 81 10000 2.1 260 14:18 30.11.2019
3487 Clouds 7 1022 75 10000 3.1 270 13:56 30.11.2019
3488 Clouds 7 1022 75 10000 3.1 270 13:36 30.11.2019
3489 Clouds 7 1023 81 10000 2.1 250 13:18 30.11.2019
3490 Clouds 7 1022 75 10000 3.1 250 12:42 30.11.2019
3491 Clouds 6 1023 81 10000 1.5 260 12:24 30.11.2019
3492 Clouds 6 1022 81 10000 2.1 250 11:43 30.11.2019
3493 Clouds 5 1023 93 10000 2.1 230 11:20 30.11.2019
3494 Clouds 5 1023 93 10000 2.1 230 11:20 30.11.2019
3495 Clouds 4 1021 86 10000 2.6 260 10:56 30.11.2019
3496 Clouds 4 1021 86 10000 2.6 260 10:38 30.11.2019
3497 Clouds 3 1022 68 10000 0.5 320 10:19 30.11.2019
3498 Clouds 3 1021 93 10000 2.1 270 09:46 30.11.2019
3499 Clouds 2 1020 93 10000 2.1 260 09:27 30.11.2019
3500 Clouds 2 1020 93 10000 2.1 260 08:44 30.11.2019
3501 Rain 2 1021 92 10000 1 220 08:22 30.11.2019
3502 Rain 2 1021 92 10000 1 220 07:58 30.11.2019
3503 Clouds 2 1020 93 10000 1.5 290 07:39 30.11.2019
3504 Clouds 2 1021 100 10000 1.5 260 07:20 30.11.2019
3505 Rain 2 1021 69 10000 1.5 240 06:30 30.11.2019
3506 Clouds 2 1020 69 10000 2.6 210 05:53 30.11.2019
3507 Clouds 2 1018 93 10000 2.1 220 03:54 30.11.2019
3508 Rain 3 1018 93 8000 1.5 0 02:53 30.11.2019
3509 Clouds 3 1019 69 10000 3.1 260 02:22 30.11.2019
3510 Rain 3 1018 93 10000 2.1 280 01:46 30.11.2019
3511 Rain 3 1018 69 10000 2.1 240 01:24 30.11.2019
3512 Clouds 3 1017 80 10000 3.1 290 00:38 30.11.2019
3513 Rain 3 1017 86 10000 2.6 320 00:18 30.11.2019
3514 Clouds 3 1016 80 10000 2.6 270 23:43 29.11.2019
3515 Clouds 3 1017 86 10000 2.1 290 23:23 29.11.2019
3516 Clouds 3 1015 80 10000 2.1 300 22:47 29.11.2019
3517 Rain 3 1016 86 10000 3.1 260 22:26 29.11.2019
3518 Clouds 4 1015 75 10000 2.1 300 21:45 29.11.2019
3519 Rain 4 1016 86 10000 2.6 270 21:26 29.11.2019
3520 Rain 4 1016 86 10000 2.6 270 20:59 29.11.2019
3521 Clouds 4 1014 69 10000 2.1 280 20:40 29.11.2019
3522 Clouds 4 1015 93 10000 3.1 250 20:21 29.11.2019
3523 Clouds 4 1015 93 10000 3.1 250 19:59 29.11.2019
3524 Clouds 4 1013 68 10000 3.6 280 19:41 29.11.2019
3525 Clouds 4 1015 86 10000 3.6 280 19:21 29.11.2019
3526 Clouds 4 1015 86 10000 3.6 280 18:59 29.11.2019
3527 Clouds 5 1012 75 10000 3.6 300 18:40 29.11.2019
3528 Clouds 5 1014 86 10000 2.1 300 18:22 29.11.2019
3529 Clouds 5 1011 75 10000 4.6 300 17:54 29.11.2019
3530 Clouds 5 1011 75 10000 4.6 300 17:36 29.11.2019
3531 Rain 5 1013 86 10000 2.1 280 17:18 29.11.2019
3532 Clouds 5 1011 66 10000 1 340 16:42 29.11.2019
3533 Rain 6 1012 75 10000 4.6 300 16:21 29.11.2019
3534 Rain 6 1012 75 10000 4.6 300 16:21 29.11.2019
3535 Clouds 7 1010 66 10000 2.6 300 15:56 29.11.2019
3536 Clouds 7 1010 66 10000 2.6 300 15:37 29.11.2019
3537 Clouds 7 1011 81 10000 3.6 290 15:19 29.11.2019
3538 Clouds 7 1009 66 10000 4.1 330 14:40 29.11.2019
3539 Drizzle 7 1010 81 10000 6.7 300 14:21 29.11.2019
3540 Drizzle 7 1010 81 10000 6.7 300 13:57 29.11.2019
3541 Clouds 7 1008 66 10000 4.1 340 13:37 29.11.2019
3542 Clouds 7 1009 70 10000 3.6 330 13:19 29.11.2019
3543 Clouds 7 1007 63 10000 5.1 340 12:42 29.11.2019
3544 Rain 7 1008 70 10000 4.1 310 12:24 29.11.2019
3545 Clouds 7 1005 56 10000 5.7 320 11:56 29.11.2019
3546 Clouds 7 1005 56 10000 5.7 320 11:38 29.11.2019
3547 Rain 7 1007 75 10000 3.6 280 11:19 29.11.2019
3548 Clouds 7 1004 75 10000 2.1 310 10:57 29.11.2019
3549 Clouds 7 1004 75 10000 2.1 310 10:39 29.11.2019
3550 Clouds 6 1006 75 10000 3.1 280 10:21 29.11.2019
3551 Clouds 6 1006 75 10000 3.1 280 09:59 29.11.2019
3552 Clouds 5 1005 80 10000 3.1 300 09:39 29.11.2019
3553 Clouds 6 1005 75 10000 5.1 300 09:20 29.11.2019
3554 Rain 6 1002 75 10000 5.1 320 08:55 29.11.2019
3555 Rain 6 1002 75 10000 5.1 320 08:37 29.11.2019
3556 Clouds 6 1003 75 10000 5.7 300 08:19 29.11.2019
3557 Clouds 6 1000 75 10000 4.1 290 07:42 29.11.2019
3558 Clouds 5 1002 75 10000 5.7 290 07:23 29.11.2019
3559 Clouds 6 999 70 10000 7.2 300 06:54 29.11.2019
3560 Rain 5 1002 75 10000 5.7 300 06:35 29.11.2019
3561 Clouds 6 998 75 10000 8.2 290 05:46 29.11.2019
3562 Clouds 6 1001 75 10000 5.7 290 05:23 29.11.2019
3563 Clouds 6 1001 75 10000 5.7 290 05:23 29.11.2019
3564 Clouds 6 997 65 10000 7.7 300 03:43 29.11.2019
3565 Clouds 6 999 75 10000 4.6 290 03:19 29.11.2019
3566 Rain 6 999 70 10000 4.1 280 02:25 29.11.2019
3567 Clouds 6 996 65 10000 5.7 290 01:49 29.11.2019
3568 Clouds 6 998 75 10000 3.6 280 01:24 29.11.2019
3569 Clouds 6 995 70 10000 6.2 300 00:41 29.11.2019
3570 Clouds 7 997 70 10000 4.6 300 00:20 29.11.2019
3571 Clouds 7 994 70 10000 7.2 310 23:44 28.11.2019
3572 Clouds 7 996 75 10000 4.1 290 23:21 28.11.2019
3573 Clouds 7 993 61 10000 7.2 300 22:58 28.11.2019
3574 Clouds 7 993 61 10000 7.2 300 22:38 28.11.2019
3575 Clouds 8 995 70 10000 5.7 310 22:20 28.11.2019
3576 Clouds 8 992 70 10000 8.2 310 21:56 28.11.2019
3577 Clouds 8 992 70 10000 8.2 310 21:38 28.11.2019
3578 Clouds 8 994 87 10000 7.7 310 21:19 28.11.2019
3579 Clouds 8 991 87 10000 5.7 300 20:54 28.11.2019
3580 Clouds 8 991 87 10000 5.7 300 20:36 28.11.2019
3581 Drizzle 8 993 93 9000 6.7 300 20:18 28.11.2019
3582 Clouds 9 990 81 10000 4.6 300 19:41 28.11.2019
3583 Clouds 9 992 87 10000 3.6 290 19:22 28.11.2019
3584 Clouds 9 989 87 10000 6.2 310 18:59 28.11.2019
3585 Clouds 9 989 87 10000 6.2 310 18:40 28.11.2019
3586 Clouds 9 989 87 10000 5.7 300 18:19 28.11.2019
3587 Clouds 9 990 93 10000 4.6 310 17:59 28.11.2019
3588 Clouds 9 988 93 10000 4.6 300 17:41 28.11.2019
3589 Clouds 9 988 93 10000 4.6 300 17:40 28.11.2019
3590 Drizzle 9 989 93 10000 5.1 300 17:21 28.11.2019
3591 Clouds 10 987 87 10000 5.7 280 16:55 28.11.2019
3592 Clouds 10 987 87 10000 5.7 280 16:37 28.11.2019
3593 Drizzle 10 988 93 10000 4.1 270 16:18 28.11.2019
3594 Clouds 10 986 93 10000 5.7 290 15:41 28.11.2019
3595 Rain 10 987 93 6000 4.1 290 15:20 28.11.2019
3596 Clouds 10 985 93 10000 6.2 290 14:58 28.11.2019
3597 Clouds 10 985 93 10000 6.2 290 14:40 28.11.2019
3598 Clouds 10 986 87 10000 4.1 270 14:21 28.11.2019
3599 Clouds 10 986 87 10000 4.1 270 13:56 28.11.2019
3600 Drizzle 10 983 93 8000 5.7 250 13:38 28.11.2019
3601 Clouds 10 985 93 10000 5.1 260 13:20 28.11.2019
3602 Rain 10 985 93 10000 5.7 260 12:43 28.11.2019
3603 Drizzle 9 983 93 2500 4.6 230 12:23 28.11.2019
3604 Drizzle 9 983 93 4000 5.1 240 11:58 28.11.2019
3605 Drizzle 9 983 93 4000 5.1 240 11:39 28.11.2019
3606 Drizzle 9 984 100 5000 6.2 240 11:20 28.11.2019
3607 Drizzle 9 983 93 3700 7.2 210 10:55 28.11.2019
3608 Drizzle 9 983 93 3700 7.2 210 10:37 28.11.2019
3609 Drizzle 9 983 100 5000 7.7 230 10:18 28.11.2019
3610 Drizzle 9 982 93 3700 7.2 220 09:40 28.11.2019
3611 Rain 9 982 93 9000 7.7 210 09:22 28.11.2019
3612 Drizzle 9 982 93 6000 7.2 210 08:56 28.11.2019
3613 Drizzle 9 982 93 6000 7.2 210 08:37 28.11.2019
3614 Drizzle 9 982 93 3600 7.7 210 08:18 28.11.2019
3615 Drizzle 9 982 93 3100 7.7 210 07:42 28.11.2019
3616 Rain 9 982 93 8000 8.7 210 07:23 28.11.2019
3617 Drizzle 9 982 93 6000 6.7 210 06:50 28.11.2019
3618 Drizzle 9 982 93 6000 6.7 210 06:50 28.11.2019
3619 Drizzle 9 982 93 9000 8.2 210 06:29 28.11.2019
3620 Drizzle 9 982 87 6000 6.7 210 05:51 28.11.2019
3621 Drizzle 9 982 93 9000 8.2 220 05:18 28.11.2019
3622 Rain 10 981 93 6000 6.2 180 02:46 28.11.2019
3623 Clouds 10 982 87 10000 5.7 170 01:50 28.11.2019
3624 Rain 9 983 93 9000 5.7 160 00:48 28.11.2019
3625 Rain 9 982 93 10000 5.1 160 00:23 28.11.2019
3626 Clouds 9 984 93 10000 4.6 160 23:55 27.11.2019
3627 Clouds 9 984 93 10000 4.6 160 23:37 27.11.2019
3628 Clouds 9 984 93 10000 4.6 160 23:37 27.11.2019
3629 Rain 9 985 87 10000 4.6 160 23:19 27.11.2019
3630 Rain 9 985 87 10000 4.6 160 22:39 27.11.2019
3631 Clouds 9 983 100 9000 4.1 150 22:20 27.11.2019
3632 Clouds 9 985 87 10000 4.1 160 21:56 27.11.2019
3633 Clouds 9 985 87 10000 4.1 160 21:38 27.11.2019
3634 Clouds 9 985 87 10000 4.1 160 21:38 27.11.2019
3635 Drizzle 9 984 87 10000 5.1 160 21:19 27.11.2019
3636 Clouds 9 986 87 10000 4.1 160 20:59 27.11.2019
3637 Clouds 9 986 87 10000 4.1 160 20:40 27.11.2019
3638 Clouds 9 985 93 10000 4.1 150 20:21 27.11.2019
3639 Clouds 9 985 93 10000 4.1 150 19:58 27.11.2019
3640 Clouds 9 986 87 10000 3.1 140 19:40 27.11.2019
3641 Clouds 9 985 87 10000 4.1 160 19:22 27.11.2019
3642 Clouds 9 985 87 10000 4.1 160 18:59 27.11.2019
3643 Rain 9 986 92 0 2.68 138 18:38 27.11.2019
3644 Rain 9 986 91 0 2.68 152 18:19 27.11.2019
3645 Rain 9 986 91 0 2.68 152 18:19 27.11.2019
3646 Clouds 10 986 87 10000 4.1 160 17:58 27.11.2019
3647 Clouds 10 987 87 10000 3.6 160 17:40 27.11.2019
3648 Clouds 10 987 87 10000 3.6 160 17:40 27.11.2019
3649 Drizzle 10 986 87 10000 3.6 160 17:21 27.11.2019
3650 Clouds 10 988 87 10000 3.6 150 16:57 27.11.2019
3651 Clouds 10 988 87 10000 3.6 150 16:39 27.11.2019
3652 Clouds 10 986 81 10000 6.2 180 16:21 27.11.2019
3653 Clouds 11 988 87 10000 4.6 160 15:57 27.11.2019
3654 Clouds 11 988 87 10000 4.6 160 15:39 27.11.2019
3655 Clouds 11 987 76 10000 5.7 180 15:21 27.11.2019
3656 Clouds 11 988 87 10000 3.6 160 14:58 27.11.2019
3657 Clouds 11 988 87 10000 3.6 160 14:39 27.11.2019
3658 Clouds 11 988 87 10000 3.6 160 14:39 27.11.2019
3659 Clouds 11 987 87 10000 4.6 170 14:21 27.11.2019
3660 Clouds 11 988 87 10000 4.1 170 13:58 27.11.2019
3661 Clouds 11 988 87 10000 4.1 170 13:58 27.11.2019
3662 Clouds 11 988 87 10000 4.1 170 13:39 27.11.2019
3663 Clouds 11 988 87 10000 6.2 180 13:19 27.11.2019
3664 Clouds 11 988 87 10000 6.2 180 13:19 27.11.2019
3665 Clouds 11 988 87 10000 5.7 180 12:57 27.11.2019
3666 Clouds 10 988 87 10000 5.7 180 12:39 27.11.2019
3667 Drizzle 10 989 87 3700 6.2 160 12:19 27.11.2019
3668 Clouds 10 989 87 10000 5.1 150 11:54 27.11.2019
3669 Rain 10 988 93 5000 5.1 160 11:36 27.11.2019
3670 Rain 9 989 92 0 3.13 129 11:18 27.11.2019
3671 Drizzle 9 990 93 10000 4.1 130 10:41 27.11.2019
3672 Drizzle 9 990 93 2500 4.1 140 10:23 27.11.2019
3673 Clouds 9 990 93 10000 5.1 120 09:48 27.11.2019
3674 Clouds 9 989 100 10000 3.6 110 09:26 27.11.2019
3675 Rain 9 991 93 8000 4.1 110 08:59 27.11.2019
3676 Rain 9 991 93 8000 4.1 110 08:41 27.11.2019
3677 Drizzle 9 989 100 9000 4.1 120 08:22 27.11.2019
3678 Clouds 9 992 93 10000 3.1 120 07:47 27.11.2019
3679 Rain 9 990 100 7000 4.1 110 07:28 27.11.2019
3680 Clouds 9 992 93 10000 3.1 130 06:53 27.11.2019
3681 Drizzle 9 991 87 10000 3.1 120 06:35 27.11.2019
3682 Clouds 9 993 93 10000 3.1 130 05:45 27.11.2019
3683 Clouds 9 992 93 9000 3.1 130 05:20 27.11.2019
3684 Clouds 9 994 93 10000 2.1 130 04:47 27.11.2019
3685 Clouds 9 993 93 8000 3.1 140 04:29 27.11.2019
3686 Clouds 9 995 100 9000 3.1 150 03:39 27.11.2019
3687 Mist 9 994 100 5000 2.6 150 03:19 27.11.2019
3688 Clouds 9 995 93 6000 3.6 160 02:21 27.11.2019
3689 Clouds 10 996 93 8000 3.1 170 00:50 27.11.2019
3690 Clouds 10 996 93 8000 3.6 180 00:30 27.11.2019
3691 Clouds 10 997 87 10000 3.6 180 23:54 26.11.2019
3692 Clouds 10 997 87 10000 3.6 180 23:36 26.11.2019
3693 Drizzle 10 997 93 4000 4.1 170 23:18 26.11.2019
3694 Clouds 10 998 87 10000 4.1 160 22:39 26.11.2019
3695 Clouds 10 997 93 6000 4.1 170 22:20 26.11.2019
3696 Clouds 10 997 93 6000 4.1 170 21:59 26.11.2019
3697 Clouds 10 999 87 10000 3.6 160 21:38 26.11.2019
3698 Mist 10 998 93 5000 4.6 170 21:20 26.11.2019
3699 Clouds 10 999 87 10000 4.1 160 20:57 26.11.2019
3700 Clouds 10 999 87 10000 4.1 160 20:37 26.11.2019
3701 Clouds 10 998 93 10000 4.1 170 20:19 26.11.2019
3702 Clouds 10 1000 87 10000 4.6 160 19:55 26.11.2019
3703 Clouds 10 1000 87 10000 4.6 160 19:55 26.11.2019
3704 Clouds 10 1000 87 10000 4.6 160 19:37 26.11.2019
3705 Clouds 10 1000 93 10000 4.1 160 19:19 26.11.2019
3706 Clouds 10 1000 93 8000 3.6 160 18:57 26.11.2019
3707 Clouds 10 1000 93 8000 3.6 160 18:39 26.11.2019
3708 Clouds 10 999 93 10000 3.6 160 18:21 26.11.2019
3709 Clouds 9 1000 93 6000 3.1 170 17:58 26.11.2019
3710 Clouds 9 1000 93 6000 3.1 170 17:39 26.11.2019
3711 Clouds 9 1000 93 10000 3.1 170 17:21 26.11.2019
3712 Mist 9 1001 93 5000 3.1 160 16:57 26.11.2019
3713 Mist 9 1001 93 5000 3.1 160 16:37 26.11.2019
3714 Mist 9 1001 93 5000 3.1 150 16:19 26.11.2019
3715 Clouds 9 1000 93 10000 3.1 170 15:59 26.11.2019
3716 Mist 9 1001 93 4500 3.1 160 15:38 26.11.2019
3717 Drizzle 9 1001 93 3500 4.1 170 15:19 26.11.2019
3718 Mist 9 1001 93 4500 4.1 170 14:50 26.11.2019
3719 Clouds 9 1001 93 6000 3.6 180 14:26 26.11.2019
3720 Drizzle 9 1002 93 2500 3.6 180 13:57 26.11.2019
3721 Drizzle 9 1002 93 2500 3.6 180 13:38 26.11.2019
3722 Mist 9 1001 100 3200 4.1 170 13:19 26.11.2019
3723 Drizzle 8 1002 93 2000 3.6 180 12:39 26.11.2019
3724 Mist 8 1002 100 2600 3.6 170 12:20 26.11.2019
3725 Mist 8 1002 100 2700 4.6 180 11:58 26.11.2019
3726 Mist 8 1003 93 3700 3.6 170 11:39 26.11.2019
3727 Mist 8 1003 93 3700 3.6 170 11:39 26.11.2019
3728 Mist 8 1002 100 2300 4.1 170 11:20 26.11.2019
3729 Mist 8 1003 93 3000 3.6 150 10:58 26.11.2019
3730 Mist 7 1003 93 3000 3.6 150 10:40 26.11.2019
3731 Mist 7 1003 93 2700 3.1 160 10:21 26.11.2019
3732 Drizzle 7 1004 93 1500 3.6 150 09:57 26.11.2019
3733 Drizzle 7 1004 93 1500 3.6 150 09:38 26.11.2019
3734 Mist 7 1003 93 1500 3.1 150 09:19 26.11.2019
3735 Mist 6 1004 93 2200 3.6 150 08:43 26.11.2019
3736 Mist 6 1004 93 2200 3.1 160 08:24 26.11.2019
3737 Mist 6 1004 93 2200 3.1 160 07:46 26.11.2019
3738 Mist 6 1005 93 2200 3.1 150 07:27 26.11.2019
3739 Mist 6 1005 93 2200 3.1 150 06:55 26.11.2019
3740 Mist 5 1004 100 4000 2.6 160 06:35 26.11.2019
3741 Mist 5 1005 93 2000 3.1 150 05:53 26.11.2019
3742 Mist 5 1005 100 2000 2.1 140 04:47 26.11.2019
3743 Mist 5 1007 100 3000 2.6 160 02:53 26.11.2019
3744 Mist 5 1008 100 2500 2.1 150 01:34 26.11.2019
3745 Mist 5 1008 100 2500 2.1 150 00:53 26.11.2019
3746 Mist 6 1007 93 1900 3.1 130 00:31 26.11.2019
3747 Mist 6 1008 100 2500 2.1 150 23:56 25.11.2019
3748 Mist 6 1008 100 2500 2.1 150 23:37 25.11.2019
3749 Mist 6 1007 100 1600 2.6 140 23:18 25.11.2019
3750 Mist 6 1009 100 3000 2.6 160 22:39 25.11.2019
3751 Fog 6 1008 100 450 2.6 140 22:19 25.11.2019
3752 Fog 6 1008 100 450 2.6 140 21:59 25.11.2019
3753 Fog 6 1008 100 450 2.6 140 21:59 25.11.2019
3754 Mist 6 1009 93 3000 3.1 160 21:40 25.11.2019
3755 Mist 6 1009 93 3000 3.1 160 21:40 25.11.2019
3756 Fog 6 1008 100 450 3.6 150 21:22 25.11.2019
3757 Mist 6 1009 93 3000 2.6 140 20:58 25.11.2019
3758 Mist 6 1009 93 3000 2.6 140 20:40 25.11.2019
3759 Mist 6 1009 93 3000 2.6 140 20:40 25.11.2019
3760 Fog 6 1008 100 650 3.1 130 20:20 25.11.2019
3761 Mist 6 1009 93 3000 2.6 130 19:57 25.11.2019
3762 Mist 6 1009 93 3000 2.6 130 19:38 25.11.2019
3763 Fog 6 1008 100 800 3.6 120 19:20 25.11.2019
3764 Mist 6 1009 93 2000 2.1 150 18:58 25.11.2019
3765 Mist 6 1009 93 2000 2.1 150 18:58 25.11.2019
3766 Mist 6 1009 93 2000 2.1 150 18:40 25.11.2019
3767 Mist 6 1008 100 1500 3.1 120 18:22 25.11.2019
3768 Mist 6 1009 93 2000 2.6 160 17:58 25.11.2019
3769 Mist 6 1009 93 2000 2.6 160 17:40 25.11.2019
3770 Mist 6 1009 93 1800 3.1 140 17:22 25.11.2019
3771 Mist 6 1009 93 1500 2.1 160 16:59 25.11.2019
3772 Mist 6 1009 93 1500 2.1 160 16:59 25.11.2019
3773 Mist 6 1009 93 1500 2.1 160 16:41 25.11.2019
3774 Mist 7 1009 93 2900 2.1 160 16:22 25.11.2019
3775 Mist 7 1009 93 3000 2.6 140 15:56 25.11.2019
3776 Mist 7 1009 93 3000 2.6 140 15:37 25.11.2019
3777 Mist 7 1009 93 3500 1.5 120 15:19 25.11.2019
3778 Mist 7 1009 93 3500 1.5 120 15:19 25.11.2019
3779 Mist 7 1009 93 3200 2.6 130 14:54 25.11.2019
3780 Mist 7 1009 93 3200 2.6 130 14:36 25.11.2019
3781 Mist 7 1009 93 3800 2.1 110 14:18 25.11.2019
3782 Mist 7 1010 93 3500 2.1 150 13:39 25.11.2019
3783 Mist 6 1009 93 3500 2.6 140 13:20 25.11.2019
3784 Mist 6 1010 100 2500 2.6 140 12:59 25.11.2019
3785 Mist 6 1009 93 3600 1.5 110 12:40 25.11.2019
3786 Mist 6 1009 100 3400 1.5 130 12:20 25.11.2019
3787 Mist 6 1010 100 3000 2.1 120 11:55 25.11.2019
3788 Mist 6 1010 100 3000 2.1 120 11:55 25.11.2019
3789 Mist 6 1010 100 3000 2.1 120 11:37 25.11.2019
3790 Mist 6 1010 100 3100 2.1 110 11:18 25.11.2019
3791 Fog 6 1010 100 300 1.5 140 10:42 25.11.2019
3792 Mist 6 1010 93 3100 2.1 120 10:22 25.11.2019
3793 Fog 5 1010 93 300 1.5 150 09:55 25.11.2019
3794 Fog 5 1010 93 300 1.5 150 09:37 25.11.2019
3795 Mist 5 1010 93 2900 1.5 110 09:18 25.11.2019
3796 Fog 5 1010 93 300 2.1 170 08:39 25.11.2019
3797 Mist 5 1009 93 2600 1.5 140 08:20 25.11.2019
3798 Fog 5 1010 93 700 2.1 150 07:42 25.11.2019
3799 Mist 5 1009 93 2800 1.5 150 07:24 25.11.2019
3800 Mist 5 1010 93 1400 2.6 130 06:48 25.11.2019
3801 Mist 5 1009 100 2700 2.1 150 06:21 25.11.2019
3802 Mist 5 1010 93 2000 2.6 130 05:39 25.11.2019
3803 Clouds 5 1010 93 2700 2.1 150 04:52 25.11.2019
3804 Clouds 5 1010 93 4300 1.5 130 02:52 25.11.2019
3805 Mist 5 1009 100 1300 1 0 02:26 25.11.2019
3806 Clouds 5 1010 93 5000 1 140 01:40 25.11.2019
3807 Mist 5 1009 100 1700 1.5 120 01:21 25.11.2019
3808 Mist 5 1009 100 1900 1.5 110 00:23 25.11.2019
3809 Clouds 5 1010 87 5000 1.5 170 23:59 24.11.2019
3810 Clouds 5 1010 87 5000 1.5 170 23:41 24.11.2019
3811 Mist 5 1009 100 1800 2.1 110 23:19 24.11.2019
3812 Clouds 5 1010 87 6000 2.6 160 22:56 24.11.2019
3813 Mist 5 1009 100 1700 2.1 120 22:37 24.11.2019
3814 Mist 5 1009 93 1600 3.1 110 22:18 24.11.2019
3815 Mist 5 1009 93 1600 3.1 110 22:18 24.11.2019
3816 Clouds 5 1010 93 6000 3.1 160 21:54 24.11.2019
3817 Clouds 5 1010 93 6000 3.1 160 21:36 24.11.2019
3818 Mist 5 1009 100 2300 1.5 100 21:18 24.11.2019
3819 Clouds 5 1009 93 6000 3.1 130 20:54 24.11.2019
3820 Clouds 5 1009 93 6000 3.1 130 20:36 24.11.2019
3821 Mist 5 1009 93 2500 1.5 110 20:18 24.11.2019
3822 Clouds 5 1009 93 6000 3.1 140 19:54 24.11.2019
3823 Clouds 5 1009 93 6000 3.1 140 19:36 24.11.2019
3824 Mist 5 1008 100 2700 1.5 100 19:18 24.11.2019
3825 Mist 5 1009 93 4500 2.1 140 18:54 24.11.2019
3826 Mist 5 1008 93 3500 2.1 120 18:36 24.11.2019
3827 Mist 6 1008 93 4100 2.1 110 18:18 24.11.2019
3828 Mist 6 1009 93 4500 3.6 140 17:41 24.11.2019
3829 Mist 6 1008 87 5000 2.1 100 17:23 24.11.2019
3830 Clouds 6 1009 93 10000 2.6 140 16:59 24.11.2019
3831 Clouds 6 1009 93 10000 2.6 140 16:41 24.11.2019
3832 Clouds 6 1007 93 6000 2.6 120 16:23 24.11.2019
3833 Clouds 6 1007 93 6000 2.6 120 16:23 24.11.2019
3834 Clouds 6 1008 87 6000 4.1 140 15:57 24.11.2019
3835 Clouds 7 1008 87 6000 4.1 140 15:39 24.11.2019
3836 Clouds 7 1007 87 7000 3.1 110 15:21 24.11.2019
3837 Clouds 7 1008 87 6000 4.1 120 14:40 24.11.2019
3838 Clouds 7 1007 87 7000 3.1 120 14:20 24.11.2019
3839 Clouds 7 1007 87 7000 3.1 120 14:20 24.11.2019
3840 Clouds 7 1007 87 7000 3.1 120 14:20 24.11.2019
3841 Clouds 7 1007 87 7000 3.1 120 13:59 24.11.2019
3842 Clouds 7 1008 87 6000 4.6 130 13:38 24.11.2019
3843 Clouds 7 1007 87 7000 3.1 120 13:20 24.11.2019
3844 Clouds 7 1007 87 8000 4.1 110 12:56 24.11.2019
3845 Clouds 7 1007 87 8000 4.1 110 12:38 24.11.2019
3846 Clouds 7 1007 87 7000 4.1 120 12:18 24.11.2019
3847 Clouds 6 1008 93 6000 4.1 120 11:55 24.11.2019
3848 Clouds 6 1007 87 7000 3.6 110 11:36 24.11.2019
3849 Clouds 6 1007 87 7000 3.6 130 11:18 24.11.2019
3850 Clouds 6 1008 87 6000 5.1 130 10:44 24.11.2019
3851 Clouds 6 1007 93 6000 3.6 110 10:26 24.11.2019
3852 Clouds 6 1007 93 6000 3.6 110 10:26 24.11.2019
3853 Clouds 6 1008 87 6000 6.2 120 09:54 24.11.2019
3854 Clouds 6 1008 87 6000 6.2 120 09:54 24.11.2019
3855 Clouds 6 1008 87 6000 6.2 120 09:36 24.11.2019
3856 Clouds 6 1008 87 6000 6.2 120 09:36 24.11.2019
3857 Clouds 6 1006 93 7000 3.6 110 09:18 24.11.2019
3858 Clouds 6 1007 87 8000 6.7 120 08:43 24.11.2019
3859 Clouds 6 1005 87 7000 4.1 100 08:21 24.11.2019
3860 Clouds 6 1007 87 10000 7.2 120 07:53 24.11.2019
3861 Clouds 6 1005 87 7000 4.6 100 07:34 24.11.2019
3862 Clouds 6 1006 87 10000 7.7 110 06:57 24.11.2019
3863 Clouds 6 1006 87 10000 7.7 110 05:59 24.11.2019
3864 Clouds 6 1006 81 10000 6.7 100 04:47 24.11.2019
3865 Clouds 6 1004 87 8000 4.1 80 03:25 24.11.2019
3866 Clouds 6 1003 93 8000 5.7 80 01:58 24.11.2019
3867 Clouds 6 1006 81 10000 7.2 110 01:39 24.11.2019
3868 Clouds 6 1003 87 8000 4.6 80 01:20 24.11.2019
3869 Clouds 6 1006 81 10000 7.7 100 00:47 24.11.2019
3870 Clouds 7 1003 93 9000 4.1 80 00:23 24.11.2019
3871 Clouds 7 1005 87 10000 7.7 100 23:45 23.11.2019
3872 Clouds 7 1003 87 10000 6.2 90 23:22 23.11.2019
3873 Clouds 7 1005 81 10000 7.2 110 22:59 23.11.2019
3874 Clouds 7 1005 81 10000 7.2 110 22:59 23.11.2019
3875 Clouds 7 1005 81 10000 7.2 110 22:40 23.11.2019
3876 Clouds 7 1003 87 10000 6.2 90 22:22 23.11.2019
3877 Clouds 7 1005 87 10000 7.7 110 21:59 23.11.2019
3878 Clouds 7 1005 87 10000 7.7 110 21:40 23.11.2019
3879 Clouds 8 1003 81 10000 6.7 90 21:22 23.11.2019
3880 Clouds 8 1005 81 10000 6.7 110 20:57 23.11.2019
3881 Clouds 8 1005 81 10000 6.7 110 20:36 23.11.2019
3882 Clouds 8 1003 81 10000 6.2 100 20:18 23.11.2019
3883 Clouds 8 1005 81 10000 7.7 110 19:55 23.11.2019
3884 Clouds 8 1005 81 10000 7.7 110 19:36 23.11.2019
3885 Clouds 8 1005 81 10000 7.7 110 19:36 23.11.2019
3886 Clouds 8 1002 81 10000 6.2 90 19:18 23.11.2019
3887 Clouds 8 1004 81 10000 7.2 110 18:40 23.11.2019
3888 Clouds 8 1002 87 10000 5.1 80 18:21 23.11.2019
3889 Clouds 7 1004 81 10000 8.2 110 17:55 23.11.2019
3890 Clouds 8 1004 81 10000 8.2 110 17:37 23.11.2019
3891 Clouds 8 1001 81 10000 6.7 80 17:19 23.11.2019
3892 Clouds 8 1001 81 10000 6.7 80 17:19 23.11.2019
3893 Clouds 8 1001 81 10000 6.7 80 17:19 23.11.2019
3894 Clouds 8 1004 81 10000 8.2 110 16:56 23.11.2019
3895 Clouds 8 1004 81 10000 8.2 110 16:56 23.11.2019
3896 Clouds 8 1001 87 10000 6.2 90 16:37 23.11.2019
3897 Clouds 8 1001 87 10000 5.7 90 16:19 23.11.2019
3898 Clouds 8 1003 81 10000 8.2 100 15:56 23.11.2019
3899 Clouds 8 1003 81 10000 8.2 100 15:38 23.11.2019
3900 Clouds 8 1001 87 10000 6.2 90 15:18 23.11.2019
3901 Clouds 9 1003 81 10000 8.2 100 14:43 23.11.2019
3902 Clouds 9 1001 81 10000 6.2 80 14:22 23.11.2019
3903 Clouds 9 1001 81 10000 6.2 80 13:59 23.11.2019
3904 Clouds 9 1004 81 10000 8.2 110 13:41 23.11.2019
3905 Clouds 9 1001 81 9000 5.7 90 13:19 23.11.2019
3906 Clouds 8 1004 81 10000 8.2 110 12:55 23.11.2019
3907 Clouds 8 1004 81 10000 8.2 110 12:37 23.11.2019
3908 Clouds 8 1002 87 8000 6.7 90 12:18 23.11.2019
3909 Clouds 8 1004 87 10000 8.7 110 11:41 23.11.2019
3910 Clouds 8 1002 87 7000 6.2 90 11:19 23.11.2019
3911 Clouds 7 1004 87 10000 8.2 110 10:45 23.11.2019
3912 Clouds 7 1002 93 6000 6.2 90 10:21 23.11.2019
3913 Clouds 6 1004 81 10000 8.7 110 09:42 23.11.2019
3914 Mist 6 1001 93 5000 5.1 90 09:20 23.11.2019
3915 Clouds 6 1004 87 10000 7.7 110 08:43 23.11.2019
3916 Mist 5 1001 93 5000 5.1 90 08:20 23.11.2019
3917 Clouds 5 1004 87 9000 8.7 110 07:54 23.11.2019
3918 Mist 5 1001 93 5000 6.2 90 07:35 23.11.2019
3919 Clouds 5 1004 87 9000 8.2 110 06:47 23.11.2019
3920 Mist 5 1002 93 4600 5.1 90 06:21 23.11.2019
3921 Clouds 5 1004 87 10000 7.2 110 05:51 23.11.2019
3922 Clouds 5 1004 87 10000 6.7 110 05:29 23.11.2019
3923 Clouds 5 1004 93 10000 5.7 120 04:49 23.11.2019
3924 Mist 5 1002 100 3100 5.7 90 04:27 23.11.2019
3925 Clouds 5 1005 93 9000 7.7 110 02:53 23.11.2019
3926 Mist 5 1003 100 3000 6.2 90 02:22 23.11.2019
3927 Clouds 5 1005 93 7000 6.2 110 01:38 23.11.2019
3928 Clouds 4 1006 93 5000 5.7 120 00:43 23.11.2019
3929 Mist 4 1004 93 3700 4.1 90 00:19 23.11.2019
3930 Clouds 4 1006 93 7000 5.1 120 23:42 22.11.2019
3931 Mist 4 1004 93 3700 3.1 90 23:21 22.11.2019
3932 Clouds 4 1006 93 8000 6.2 120 22:58 22.11.2019
3933 Clouds 4 1006 93 8000 6.2 120 22:39 22.11.2019
3934 Mist 4 1004 93 3800 3.6 100 22:20 22.11.2019
3935 Mist 4 1004 93 3800 3.6 100 21:59 22.11.2019
3936 Clouds 4 1006 93 6000 4.6 120 21:39 22.11.2019
3937 Mist 4 1005 100 4100 3.1 100 21:20 22.11.2019
3938 Clouds 5 1007 93 8000 4.1 120 20:44 22.11.2019
3939 Mist 5 1005 100 4500 3.1 110 20:22 22.11.2019
3940 Mist 5 1005 100 4500 3.1 110 19:58 22.11.2019
3941 Clouds 5 1007 93 10000 4.1 120 19:39 22.11.2019
3942 Mist 5 1005 93 5000 2.1 110 19:19 22.11.2019
3943 Clouds 5 1006 93 10000 3.1 120 18:59 22.11.2019
3944 Clouds 5 1006 93 10000 3.1 120 18:37 22.11.2019
3945 Clouds 6 1005 93 9000 2.6 110 18:19 22.11.2019
3946 Clouds 6 1005 93 10000 2.6 120 17:41 22.11.2019
3947 Clouds 6 1005 87 10000 3.1 130 17:22 22.11.2019
3948 Clouds 7 1006 87 10000 3.1 130 16:48 22.11.2019
3949 Clouds 7 1005 93 10000 3.1 130 16:30 22.11.2019
3950 Clouds 7 1006 93 10000 3.1 150 15:58 22.11.2019
3951 Clouds 8 1006 93 10000 3.1 150 15:38 22.11.2019
3952 Clouds 8 1006 87 10000 2.1 150 15:20 22.11.2019
3953 Clouds 8 1006 87 10000 2.1 150 14:54 22.11.2019
3954 Clouds 8 1006 87 10000 2.1 150 14:36 22.11.2019
3955 Clouds 8 1005 81 10000 4.1 150 14:18 22.11.2019
3956 Clouds 8 1005 81 10000 3.6 150 13:39 22.11.2019
3957 Rain 8 1005 87 10000 4.1 150 13:20 22.11.2019
3958 Rain 8 1005 87 10000 4.1 150 12:58 22.11.2019
3959 Drizzle 7 1007 93 10000 3.1 160 12:40 22.11.2019
3960 Rain 7 1005 93 9000 4.1 140 12:20 22.11.2019
3961 Rain 7 1005 93 9000 4.1 140 11:58 22.11.2019
3962 Drizzle 6 1007 87 9000 4.1 160 11:37 22.11.2019
3963 Clouds 6 1006 93 7000 3.1 150 11:19 22.11.2019
3964 Clouds 5 1007 93 10000 3.1 150 10:55 22.11.2019
3965 Clouds 5 1007 93 10000 3.1 150 10:37 22.11.2019
3966 Drizzle 5 1005 93 7000 3.1 140 10:19 22.11.2019
3967 Fog 4 1007 86 9000 2.6 140 09:41 22.11.2019
3968 Clouds 4 1005 93 7000 2.1 140 09:22 22.11.2019
3969 Clouds 4 1005 93 7000 2.1 140 08:59 22.11.2019
3970 Fog 3 1006 93 8000 2.6 140 08:40 22.11.2019
3971 Fog 3 1006 93 8000 2.6 140 08:40 22.11.2019
3972 Mist 3 1005 93 5000 2.6 130 08:22 22.11.2019
3973 Fog 3 1006 93 7000 2.6 130 07:44 22.11.2019
3974 Mist 2 1005 93 3800 2.1 110 07:21 22.11.2019
3975 Fog 2 1006 93 7000 1.5 130 06:49 22.11.2019
3976 Mist 2 1005 100 3700 2.6 120 06:29 22.11.2019
3977 Clouds 2 1006 100 7000 1.5 140 05:44 22.11.2019
3978 Fog 3 1005 100 900 2.1 120 04:18 22.11.2019
3979 Clouds 3 1006 93 7000 2.6 160 02:48 22.11.2019
3980 Mist 4 1005 100 2400 2.6 110 02:28 22.11.2019
3981 Clouds 4 1006 93 7000 2.1 120 01:45 22.11.2019
3982 Mist 4 1005 100 1800 3.1 110 01:19 22.11.2019
3983 Clouds 4 1007 93 6000 2.6 150 00:50 22.11.2019
3984 Mist 4 1006 100 1900 2.6 110 00:23 22.11.2019
3985 Clouds 4 1007 93 6000 2.1 120 23:46 21.11.2019
3986 Mist 4 1006 100 2700 2.1 100 23:28 21.11.2019
3987 Mist 4 1006 100 2800 2.1 110 22:58 21.11.2019
3988 Clouds 4 1007 93 6000 2.1 110 22:39 21.11.2019
3989 Clouds 4 1007 93 6000 2.1 110 22:39 21.11.2019
3990 Mist 4 1006 100 4000 1.5 110 22:21 21.11.2019
3991 Mist 4 1008 93 5000 3.1 150 21:56 21.11.2019
3992 Mist 4 1008 93 5000 3.1 150 21:37 21.11.2019
3993 Mist 4 1007 100 4700 2.1 110 21:19 21.11.2019
3994 Mist 4 1007 100 4700 2.1 110 20:58 21.11.2019
3995 Mist 4 1008 100 4500 3.1 140 20:38 21.11.2019
3996 Mist 4 1007 93 5000 2.1 110 20:19 21.11.2019
3997 Mist 4 1007 93 5000 2.1 110 19:59 21.11.2019
3998 Mist 4 1007 93 5000 2.1 110 19:59 21.11.2019
3999 Mist 4 1008 100 2500 3.1 130 19:59 21.11.2019
4000 Mist 4 1008 100 2500 3.1 130 19:40 21.11.2019
4001 Mist 4 1008 100 1700 3.6 120 19:21 21.11.2019
4002 Mist 5 1008 100 1200 4.6 110 18:57 21.11.2019
4003 Mist 5 1008 100 1200 4.6 110 18:38 21.11.2019
4004 Mist 4 1007 100 3000 3.1 110 18:19 21.11.2019
4005 Mist 4 1008 93 2200 4.1 110 17:57 21.11.2019
4006 Mist 4 1008 93 2200 4.1 110 17:38 21.11.2019
4007 Mist 4 1008 100 3200 2.6 90 17:19 21.11.2019
4008 Mist 4 1009 93 1500 3.1 100 16:42 21.11.2019
4009 Mist 4 1009 93 2500 2.6 110 16:22 21.11.2019
4010 Mist 4 1009 93 4000 3.1 90 15:58 21.11.2019
4011 Mist 4 1009 93 4000 3.1 90 15:39 21.11.2019
4012 Mist 4 1009 93 3700 3.1 90 15:19 21.11.2019
4013 Drizzle 4 1009 100 2000 4.1 90 14:56 21.11.2019
4014 Drizzle 4 1009 100 2000 4.1 90 14:37 21.11.2019
4015 Mist 4 1009 93 4400 3.6 90 14:18 21.11.2019
4016 Drizzle 4 1010 100 1800 3.6 80 13:40 21.11.2019
4017 Mist 4 1010 100 2700 3.1 90 13:21 21.11.2019
4018 Mist 3 1010 100 2700 3.1 90 12:59 21.11.2019
4019 Drizzle 3 1011 93 2000 3.1 70 12:39 21.11.2019
4020 Drizzle 3 1011 93 4000 4.1 90 12:21 21.11.2019
4021 Mist 3 1012 93 4000 3.6 80 11:54 21.11.2019
4022 Mist 3 1012 93 4000 3.6 80 11:36 21.11.2019
4023 Mist 2 1011 100 2000 2.6 80 11:18 21.11.2019
4024 Mist 2 1013 100 3700 3.1 80 10:42 21.11.2019
4025 Mist 1 1013 93 3700 3.1 80 10:23 21.11.2019
4026 Mist 1 1013 93 3700 3.1 80 10:23 21.11.2019
4027 Mist 1 1013 100 3500 3.1 70 09:57 21.11.2019
4028 Mist 1 1013 100 3500 3.1 70 09:39 21.11.2019
4029 Fog 1 1012 86 350 4.6 70 09:20 21.11.2019
4030 Fog 1 1012 86 350 4.6 70 09:20 21.11.2019
4031 Fog 0 1012 86 550 3.6 80 08:44 21.11.2019
4032 Fog 0 1013 88 650 3.1 80 08:23 21.11.2019
4033 Fog 0 1013 88 650 3.6 90 07:45 21.11.2019
4034 Fog 0 1013 88 500 3.6 80 07:20 21.11.2019
4035 Fog 0 1014 100 600 2.1 110 06:58 21.11.2019
4036 Fog 0 1013 88 500 3.6 100 06:34 21.11.2019
4037 Fog 0 1014 88 600 1.5 110 05:50 21.11.2019
4038 Clear -1 1015 100 150 1.5 90 03:42 21.11.2019
4039 Clear 0 1015 100 100 2.1 120 02:42 21.11.2019
4040 Fog 0 1015 86 400 2.6 110 02:24 21.11.2019
4041 Clear 0 1016 100 100 2.1 160 01:49 21.11.2019
4042 Clear 0 1016 100 100 2.1 160 01:49 21.11.2019
4043 Fog 0 1015 100 350 2.6 60 01:20 21.11.2019
4044 Clear -1 1016 100 150 1.5 160 00:38 21.11.2019
4045 Fog 0 1015 81 400 1 0 00:20 21.11.2019
4046 Clear 0 1016 81 100 1 0 23:48 20.11.2019
4047 Fog 0 1016 100 350 2.1 110 23:22 20.11.2019
4048 Clear 0 1016 84 100 2.1 100 22:58 20.11.2019
4049 Clear 0 1016 84 100 2.1 100 22:40 20.11.2019
4050 Fog 0 1016 84 400 2.6 120 22:19 20.11.2019
4051 Fog 0 1016 84 400 2.6 120 21:58 20.11.2019
4052 Clear 0 1017 84 100 2.1 140 21:39 20.11.2019
4053 Fog 0 1016 84 300 2.1 110 21:20 20.11.2019
4054 Fog 0 1016 84 300 2.1 110 20:57 20.11.2019
4055 Clear 0 1017 84 50 0.5 150 20:39 20.11.2019
4056 Fog 0 1016 85 300 3.1 100 20:21 20.11.2019
4057 Clear 0 1017 100 100 2.1 160 19:57 20.11.2019
4058 Clear 0 1017 100 100 2.1 160 19:37 20.11.2019
4059 Fog 0 1017 85 250 1.5 100 19:19 20.11.2019
4060 Fog 0 1017 93 100 1 0 18:59 20.11.2019
4061 Fog 1 1017 93 100 1 0 18:39 20.11.2019
4062 Fog 1 1017 85 250 2.1 130 18:21 20.11.2019
4063 Fog 1 1017 100 100 2.1 180 17:57 20.11.2019
4064 Fog 1 1017 100 100 2.1 180 17:39 20.11.2019
4065 Fog 1 1017 79 200 2.1 100 17:20 20.11.2019
4066 Fog 1 1017 93 100 3.1 170 16:57 20.11.2019
4067 Fog 1 1017 93 100 3.1 170 16:39 20.11.2019
4068 Fog 1 1017 100 300 3.1 180 16:18 20.11.2019
4069 Mist 1 1017 86 1400 2.6 180 15:56 20.11.2019
4070 Mist 2 1017 86 1400 2.6 180 15:38 20.11.2019
4071 Fog 2 1018 100 100 1.5 100 15:18 20.11.2019
4072 Clouds 2 1017 81 10000 1.5 210 14:40 20.11.2019
4073 Fog 3 1018 100 100 1 180 14:22 20.11.2019
4074 Fog 3 1018 100 100 1 180 14:22 20.11.2019
4075 Fog 3 1018 100 100 1 180 14:22 20.11.2019
4076 Fog 3 1018 100 100 1 180 14:22 20.11.2019
4077 Fog 3 1018 100 100 1 180 14:22 20.11.2019
4078 Fog 2 1018 100 100 1 180 13:58 20.11.2019
4079 Clouds 2 1018 81 10000 2.1 150 13:58 20.11.2019
4080 Clouds 2 1018 81 10000 2.1 150 13:39 20.11.2019
4081 Fog 2 1018 77 100 1 0 13:20 20.11.2019
4082 Fog 2 1018 77 100 1 0 12:57 20.11.2019
4083 Clouds 2 1018 81 10000 1.5 130 12:37 20.11.2019
4084 Fog 1 1018 77 100 1 0 12:19 20.11.2019
4085 Fog 2 1019 86 7000 1.5 0 11:45 20.11.2019
4086 Mist 1 1019 93 4000 1.5 0 11:22 20.11.2019
4087 Fog 0 1019 93 3000 1 0 10:56 20.11.2019
4088 Fog 0 1019 93 3000 1 0 10:38 20.11.2019
4089 Fog 0 1019 93 2500 1 190 10:20 20.11.2019
4090 Fog 0 1019 100 1500 2.1 200 09:56 20.11.2019
4091 Fog 0 1019 100 1500 2.1 200 09:37 20.11.2019
4092 Fog 0 1019 100 150 0.5 0 09:19 20.11.2019
4093 Fog 0 1019 100 350 2.1 190 08:41 20.11.2019
4094 Fog 0 1019 93 1500 2.6 200 08:23 20.11.2019
4095 Fog 0 1019 93 5000 2.1 220 07:48 20.11.2019
4096 Fog 0 1019 92 900 1 180 07:30 20.11.2019
4097 Clouds 0 1018 93 6000 1.5 210 06:55 20.11.2019
4098 Clouds 1 1018 93 6000 1.5 210 06:37 20.11.2019
4099 Clouds 1 1018 93 9000 0.5 330 06:18 20.11.2019
4100 Clear 1 1019 86 10000 1.5 210 04:40 20.11.2019
4101 Fog 1 1018 100 300 1 190 02:23 20.11.2019
4102 Clear 2 1018 86 10000 1 230 01:37 20.11.2019
4103 Clear 2 1018 86 10000 2.1 210 00:46 20.11.2019
4104 Mist 2 1018 100 2300 1.5 200 00:18 20.11.2019
4105 Clear 2 1018 86 10000 1.5 230 23:41 19.11.2019
4106 Fog 2 1018 74 500 1 210 23:22 19.11.2019
4107 Clouds 3 1018 86 10000 2.1 240 22:56 19.11.2019
4108 Clouds 3 1018 86 10000 2.1 240 22:37 19.11.2019
4109 Clouds 3 1017 86 10000 1.5 230 22:18 19.11.2019
4110 Clouds 3 1017 86 10000 1.5 230 21:54 19.11.2019
4111 Clouds 3 1018 74 10000 1.5 200 21:36 19.11.2019
4112 Clouds 3 1017 93 10000 2.1 210 21:18 19.11.2019
4113 Clouds 3 1017 93 10000 2.1 210 20:54 19.11.2019
4114 Clouds 3 1017 93 10000 2.1 210 20:36 19.11.2019
4115 Rain 3 1017 73 10000 2.6 220 20:18 19.11.2019
4116 Rain 3 1016 86 10000 2.1 230 19:41 19.11.2019
4117 Rain 4 1016 93 10000 2.6 240 19:20 19.11.2019
4118 Rain 4 1016 93 10000 2.6 240 19:20 19.11.2019
4119 Clouds 4 1016 86 10000 2.1 250 18:58 19.11.2019
4120 Clouds 4 1016 86 10000 2.1 250 18:58 19.11.2019
4121 Clouds 4 1016 86 10000 2.1 250 18:39 19.11.2019
4122 Rain 5 1016 93 10000 2.6 230 18:20 19.11.2019
4123 Rain 5 1016 93 10000 2.6 230 18:20 19.11.2019
4124 Clouds 5 1016 81 10000 3.1 250 17:57 19.11.2019
4125 Clouds 5 1016 81 10000 3.1 250 17:39 19.11.2019
4126 Rain 6 1016 86 10000 3.1 240 17:20 19.11.2019
4127 Rain 6 1016 86 10000 3.1 240 16:59 19.11.2019
4128 Clouds 6 1015 75 10000 3.1 240 16:39 19.11.2019
4129 Rain 7 1015 81 10000 3.1 240 16:19 19.11.2019
4130 Clouds 7 1014 70 10000 4.6 260 15:47 19.11.2019
4131 Rain 8 1015 70 10000 5.1 250 15:26 19.11.2019
4132 Rain 8 1015 70 10000 5.1 250 15:26 19.11.2019
4133 Rain 8 1015 70 10000 5.1 250 14:58 19.11.2019
4134 Clouds 8 1013 70 10000 6.2 260 14:39 19.11.2019
4135 Clouds 8 1014 70 10000 5.1 250 14:20 19.11.2019
4136 Clouds 9 1013 76 10000 6.2 260 13:42 19.11.2019
4137 Rain 9 1014 70 10000 4.6 260 13:21 19.11.2019
4138 Rain 9 1014 70 10000 4.6 260 12:57 19.11.2019
4139 Clouds 8 1014 75 10000 5.1 260 12:39 19.11.2019
4140 Rain 8 1013 75 10000 4.1 260 12:20 19.11.2019
4141 Clouds 8 1012 76 10000 6.2 270 11:55 19.11.2019
4142 Clouds 8 1012 76 10000 6.2 270 11:36 19.11.2019
4143 Rain 7 1013 87 10000 3.6 250 11:18 19.11.2019
4144 Clouds 7 1011 87 10000 4.1 280 10:44 19.11.2019
4145 Clouds 7 1012 81 10000 3.6 270 10:21 19.11.2019
4146 Clouds 6 1010 87 10000 5.1 270 09:43 19.11.2019
4147 Clouds 6 1011 93 10000 2.6 240 09:21 19.11.2019
4148 Clouds 6 1011 93 10000 2.6 240 08:58 19.11.2019
4149 Rain 6 1009 81 10000 6.2 270 08:40 19.11.2019
4150 Clouds 6 1010 93 10000 3.1 240 08:21 19.11.2019
4151 Clouds 6 1008 81 10000 5.7 280 07:56 19.11.2019
4152 Clouds 6 1008 81 10000 5.7 280 07:36 19.11.2019
4153 Rain 7 1010 87 10000 4.6 280 07:18 19.11.2019
4154 Clouds 7 1007 81 10000 6.2 290 06:42 19.11.2019
4155 Clouds 7 1009 87 10000 4.6 290 06:18 19.11.2019
4156 Clouds 7 1006 87 6000 5.7 290 05:19 19.11.2019
4157 Rain 7 1004 93 7000 7.7 300 03:41 19.11.2019
4158 Clouds 7 1007 93 10000 4.6 260 03:19 19.11.2019
4159 Rain 7 1003 93 7000 7.2 300 02:49 19.11.2019
4160 Rain 7 1003 93 7000 6.2 310 01:49 19.11.2019
4161 Rain 8 1002 93 7000 6.2 320 00:49 19.11.2019
4162 Rain 8 1005 93 10000 5.1 280 00:20 19.11.2019
4163 Rain 8 1002 93 5000 7.2 320 23:40 18.11.2019
4164 Rain 8 1005 93 10000 5.1 290 23:20 18.11.2019
4165 Rain 8 1002 93 6000 6.7 330 22:48 18.11.2019
4166 Rain 8 1005 93 3300 4.6 310 22:24 18.11.2019
4167 Rain 8 1005 93 3300 4.6 310 21:59 18.11.2019
4168 Rain 8 1002 100 4600 5.1 330 21:40 18.11.2019
4169 Rain 8 1002 100 4600 5.1 330 21:40 18.11.2019
4170 Rain 8 1005 93 10000 4.1 300 21:22 18.11.2019
4171 Rain 8 1005 93 10000 4.1 300 20:59 18.11.2019
4172 Rain 8 1002 93 4900 5.1 360 20:41 18.11.2019
4173 Drizzle 8 1004 93 10000 4.1 310 20:19 18.11.2019
4174 Drizzle 8 1004 93 10000 4.1 310 19:58 18.11.2019
4175 Rain 8 1003 93 5000 3.6 340 19:38 18.11.2019
4176 Drizzle 8 1004 93 10000 5.1 310 19:20 18.11.2019
4177 Drizzle 8 1003 93 5000 4.6 340 18:56 18.11.2019
4178 Drizzle 8 1003 93 5000 4.6 340 18:38 18.11.2019
4179 Drizzle 8 1003 93 6000 4.6 330 18:19 18.11.2019
4180 Clouds 8 1005 93 10000 4.1 310 17:59 18.11.2019
4181 Drizzle 8 1003 93 8000 4.1 350 17:37 18.11.2019
4182 Rain 8 1005 93 10000 4.6 330 17:19 18.11.2019
4183 Drizzle 8 1003 93 3500 4.1 340 16:43 18.11.2019
4184 Rain 8 1005 87 10000 5.1 330 16:24 18.11.2019
4185 Rain 8 1005 87 10000 5.1 330 15:59 18.11.2019
4186 Rain 8 1005 87 10000 5.1 330 15:59 18.11.2019
4187 Drizzle 8 1004 93 3500 2.6 340 15:40 18.11.2019
4188 Clouds 8 1005 87 10000 3.6 330 15:22 18.11.2019
4189 Clouds 8 1005 87 10000 3.6 330 14:58 18.11.2019
4190 Drizzle 8 1003 93 3500 2.1 340 14:58 18.11.2019
4191 Drizzle 8 1003 93 3500 2.1 340 14:40 18.11.2019
4192 Drizzle 8 1003 93 8000 2.6 360 14:22 18.11.2019
4193 Drizzle 8 1003 93 7000 3.1 360 13:44 18.11.2019
4194 Drizzle 8 1005 87 5000 4.1 340 13:26 18.11.2019
4195 Drizzle 8 1005 87 5000 4.1 340 12:57 18.11.2019
4196 Drizzle 8 1003 93 3500 2.6 340 12:37 18.11.2019
4197 Drizzle 8 1005 93 9000 4.1 340 12:18 18.11.2019
4198 Drizzle 7 1004 93 4000 2.6 360 11:42 18.11.2019
4199 Clouds 7 1006 87 10000 4.1 350 11:24 18.11.2019
4200 Drizzle 7 1005 100 3500 2.6 10 10:45 18.11.2019
4201 Rain 7 1006 93 7000 5.7 350 10:26 18.11.2019
4202 Rain 7 1006 93 7000 5.7 350 09:59 18.11.2019
4203 Drizzle 7 1004 93 2000 3.1 10 09:39 18.11.2019
4204 Drizzle 7 1006 93 6000 5.7 350 09:21 18.11.2019
4205 Drizzle 7 1006 93 6000 5.7 350 08:59 18.11.2019
4206 Drizzle 7 1005 93 2000 3.1 20 08:41 18.11.2019
4207 Rain 7 1006 93 10000 5.7 350 08:19 18.11.2019
4208 Drizzle 7 1004 93 5000 3.1 20 07:47 18.11.2019
4209 Rain 7 1006 93 10000 5.1 350 07:27 18.11.2019
4210 Drizzle 7 1004 93 3000 4.6 20 06:49 18.11.2019
4211 Drizzle 6 1006 93 10000 5.7 360 06:29 18.11.2019
4212 Drizzle 6 1005 100 3500 4.1 20 05:46 18.11.2019
4213 Drizzle 6 1005 100 4000 5.1 30 04:39 18.11.2019
4214 Drizzle 6 1007 93 10000 4.6 20 01:49 18.11.2019
4215 Rain 6 1008 87 10000 3.6 10 01:31 18.11.2019
4216 Drizzle 6 1009 87 10000 3.6 360 00:22 18.11.2019
4217 Drizzle 5 1009 87 10000 4.6 30 23:43 17.11.2019
4218 Rain 5 1010 81 10000 3.6 10 23:24 17.11.2019
4219 Rain 5 1010 81 10000 3.6 10 22:58 17.11.2019
4220 Drizzle 5 1010 81 10000 3.6 10 22:40 17.11.2019
4221 Clouds 5 1010 75 10000 3.1 10 22:22 17.11.2019
4222 Clouds 5 1011 75 10000 2.6 20 21:58 17.11.2019
4223 Clouds 5 1011 75 10000 2.6 20 21:40 17.11.2019
4224 Rain 5 1011 80 10000 2.6 10 21:19 17.11.2019
4225 Clouds 5 1011 81 10000 5.1 60 20:56 17.11.2019
4226 Clouds 5 1011 81 10000 5.1 60 20:38 17.11.2019
4227 Clouds 5 1011 81 10000 5.1 60 20:38 17.11.2019
4228 Clouds 5 1011 86 10000 3.1 30 20:19 17.11.2019
4229 Clouds 4 1012 86 10000 3.6 40 19:56 17.11.2019
4230 Clouds 4 1012 86 10000 3.6 40 19:37 17.11.2019
4231 Clouds 4 1012 86 10000 3.6 40 19:37 17.11.2019
4232 Clouds 4 1011 93 8000 2.1 30 19:19 17.11.2019
4233 Clouds 4 1012 93 10000 2.6 40 18:55 17.11.2019
4234 Clouds 4 1012 93 10000 2.6 40 18:55 17.11.2019
4235 Clouds 4 1012 93 10000 2.6 40 18:37 17.11.2019
4236 Clouds 4 1012 93 10000 2.6 40 18:37 17.11.2019
4237 Clouds 4 1011 93 7000 2.6 20 18:18 17.11.2019
4238 Clouds 4 1012 93 10000 2.6 10 17:57 17.11.2019
4239 Clouds 4 1012 93 10000 2.6 10 17:57 17.11.2019
4240 Clouds 4 1012 93 10000 2.6 10 17:39 17.11.2019
4241 Clouds 4 1012 86 9000 2.1 30 17:20 17.11.2019
4242 Clouds 5 1012 93 10000 1.5 20 16:57 17.11.2019
4243 Clouds 5 1012 86 8000 2.1 40 16:39 17.11.2019
4244 Clouds 5 1012 86 10000 2.1 30 16:21 17.11.2019
4245 Clouds 5 1013 86 10000 0.5 30 15:55 17.11.2019
4246 Clouds 5 1013 86 10000 0.5 30 15:36 17.11.2019
4247 Clouds 5 1012 81 10000 2.1 50 15:18 17.11.2019
4248 Clouds 6 1013 86 10000 2.6 70 14:55 17.11.2019
4249 Clouds 6 1012 81 10000 1.5 40 14:37 17.11.2019
4250 Clouds 6 1012 81 10000 2.1 60 14:19 17.11.2019
4251 Clouds 5 1013 80 10000 1 90 13:55 17.11.2019
4252 Clouds 6 1013 80 10000 1 90 13:55 17.11.2019
4253 Clouds 5 1013 80 10000 1 90 13:37 17.11.2019
4254 Clouds 5 1013 86 10000 2.1 110 13:18 17.11.2019
4255 Clouds 5 1014 86 10000 1 0 12:41 17.11.2019
4256 Clouds 4 1013 93 10000 1.5 110 12:22 17.11.2019
4257 Clouds 4 1014 86 10000 2.1 140 11:56 17.11.2019
4258 Clouds 4 1014 86 10000 2.1 140 11:38 17.11.2019
4259 Clouds 3 1013 93 7000 1 0 11:20 17.11.2019
4260 Clouds 2 1014 93 9000 0.5 120 10:44 17.11.2019
4261 Clouds 2 1013 84 6000 0.5 0 10:23 17.11.2019
4262 Clouds 2 1013 84 10000 1 160 09:57 17.11.2019
4263 Clouds 1 1013 84 10000 1 160 09:39 17.11.2019
4264 Clouds 1 1013 100 7000 3.1 150 09:20 17.11.2019
4265 Clouds 1 1013 84 10000 2.1 190 08:40 17.11.2019
4266 Clouds 1 1012 88 7000 1 0 08:20 17.11.2019
4267 Clouds 1 1013 88 10000 3.1 160 07:48 17.11.2019
4268 Clouds 1 1013 88 10000 3.1 160 07:48 17.11.2019
4269 Clouds 2 1012 88 10000 2.6 160 07:24 17.11.2019
4270 Clouds 2 1012 88 10000 2.6 160 06:59 17.11.2019
4271 Clouds 2 1012 88 10000 2.6 160 06:40 17.11.2019
4272 Clouds 2 1011 93 10000 2.1 160 06:21 17.11.2019
4273 Clouds 3 1011 93 10000 2.6 170 04:24 17.11.2019
4274 Clouds 3 1011 86 10000 3.6 190 03:51 17.11.2019
4275 Clouds 3 1011 93 10000 3.1 180 03:32 17.11.2019
4276 Clouds 4 1011 86 10000 3.6 170 02:31 17.11.2019
4277 Clouds 3 1010 86 10000 4.1 200 01:42 17.11.2019
4278 Clouds 3 1010 86 10000 3.1 210 00:55 17.11.2019
4279 Clouds 4 1010 93 10000 3.1 190 00:22 17.11.2019
4280 Clouds 4 1010 86 10000 4.1 220 23:52 16.11.2019
4281 Clouds 4 1010 86 10000 4.6 200 23:20 16.11.2019
4282 Clouds 5 1009 80 10000 5.7 210 22:59 16.11.2019
4283 Clouds 5 1009 80 10000 5.7 210 22:41 16.11.2019
4284 Clouds 5 1009 86 10000 4.6 200 22:20 16.11.2019
4285 Clouds 5 1009 80 10000 4.6 220 21:56 16.11.2019
4286 Clouds 5 1009 80 10000 4.6 220 21:38 16.11.2019
4287 Clouds 5 1009 80 10000 5.1 210 21:19 16.11.2019
4288 Clouds 5 1008 80 10000 5.1 220 20:56 16.11.2019
4289 Clouds 5 1008 80 10000 5.1 220 20:38 16.11.2019
4290 Rain 5 1008 86 10000 5.7 200 20:18 16.11.2019
4291 Clouds 5 1007 81 10000 5.7 220 19:40 16.11.2019
4292 Rain 5 1008 86 10000 6.7 200 19:22 16.11.2019
4293 Clouds 5 1007 86 10000 5.1 220 18:56 16.11.2019
4294 Clouds 6 1007 86 10000 5.1 220 18:38 16.11.2019
4295 Rain 6 1007 86 10000 5.7 210 18:20 16.11.2019
4296 Clouds 6 1006 86 10000 5.7 220 17:39 16.11.2019
4297 Rain 6 1007 81 10000 5.1 220 17:21 16.11.2019
4298 Rain 6 1007 81 10000 5.1 220 16:59 16.11.2019
4299 Rain 6 1007 81 10000 5.1 220 16:59 16.11.2019
4300 Drizzle 6 1006 86 9000 4.6 230 16:41 16.11.2019
4301 Drizzle 6 1006 93 8000 5.7 230 16:22 16.11.2019
4302 Rain 6 1005 93 5000 4.6 240 15:54 16.11.2019
4303 Rain 6 1005 93 5000 4.6 240 15:36 16.11.2019
4304 Clouds 6 1006 81 10000 6.2 210 15:18 16.11.2019
4305 Rain 6 1006 81 10000 5.1 220 14:40 16.11.2019
4306 Rain 6 1005 93 4000 4.6 230 14:21 16.11.2019
4307 Rain 6 1005 93 3500 4.6 220 13:56 16.11.2019
4308 Clouds 6 1006 81 10000 4.6 230 13:38 16.11.2019
4309 Clouds 6 1005 81 10000 5.7 220 13:19 16.11.2019
4310 Rain 5 1004 93 3000 4.1 220 12:58 16.11.2019
4311 Rain 5 1004 93 3000 4.1 220 12:40 16.11.2019
4312 Clouds 5 1005 93 10000 4.6 220 12:20 16.11.2019
4313 Rain 5 1004 93 2600 3.1 230 11:45 16.11.2019
4314 Clouds 5 1005 93 6000 3.6 220 11:26 16.11.2019
4315 Rain 5 1004 93 2200 3.1 250 10:57 16.11.2019
4316 Rain 4 1004 93 2200 3.1 250 10:39 16.11.2019
4317 Mist 4 1005 93 3600 3.1 220 10:20 16.11.2019
4318 Rain 4 1004 93 1500 4.1 260 09:43 16.11.2019
4319 Mist 4 1005 93 2500 3.1 220 09:21 16.11.2019
4320 Rain 4 1004 93 1500 3.6 260 08:58 16.11.2019
4321 Rain 4 1004 93 1500 3.6 260 08:38 16.11.2019
4322 Mist 4 1005 100 2200 2.1 210 08:19 16.11.2019
4323 Mist 4 1004 93 2500 2.6 260 07:43 16.11.2019
4324 Mist 4 1004 93 2500 2.6 260 07:43 16.11.2019
4325 Mist 4 1004 100 2500 2.1 210 07:21 16.11.2019
4326 Mist 4 1004 93 2500 1.5 250 06:54 16.11.2019
4327 Mist 4 1004 100 2600 2.6 230 06:33 16.11.2019
4328 Mist 4 1004 93 2500 1 260 05:40 16.11.2019
4329 Mist 4 1004 100 2500 1 260 03:50 16.11.2019
4330 Fog 4 1005 100 350 0.5 330 03:25 16.11.2019
4331 Fog 4 1005 100 350 0.5 330 03:25 16.11.2019
4332 Mist 4 1004 93 4000 0.5 360 01:52 16.11.2019
4333 Fog 4 1005 93 450 0.5 0 01:21 16.11.2019
4334 Mist 4 1005 93 4000 1.5 120 00:46 16.11.2019
4335 Mist 4 1005 93 4000 1 110 00:27 16.11.2019
4336 Mist 4 1005 93 4000 1 110 23:40 15.11.2019
4337 Mist 4 1005 100 1500 0.5 130 23:21 15.11.2019
4338 Mist 4 1005 100 1500 0.5 130 22:58 15.11.2019
4339 Mist 4 1004 93 5000 2.1 30 22:39 15.11.2019
4340 Mist 4 1005 93 5000 2.1 90 22:19 15.11.2019
4341 Mist 5 1005 93 5000 1.5 90 21:54 15.11.2019
4342 Mist 5 1004 100 2400 2.1 40 21:36 15.11.2019
4343 Mist 5 1004 100 2300 2.1 60 21:18 15.11.2019
4344 Clouds 5 1005 87 6000 3.1 90 20:55 15.11.2019
4345 Clouds 5 1005 87 6000 3.1 90 20:37 15.11.2019
4346 Mist 5 1004 93 3600 2.1 90 20:18 15.11.2019
4347 Clouds 5 1004 87 6000 3.1 90 19:56 15.11.2019
4348 Clouds 5 1004 87 6000 3.1 90 19:36 15.11.2019
4349 Mist 5 1003 93 3800 3.1 70 19:18 15.11.2019
4350 Mist 5 1003 93 3800 3.1 70 19:18 15.11.2019
4351 Clouds 5 1004 93 6000 5.1 80 18:42 15.11.2019
4352 Mist 5 1003 93 3700 4.1 80 18:23 15.11.2019
4353 Clouds 5 1004 93 6000 5.1 80 17:57 15.11.2019
4354 Clouds 5 1004 93 6000 5.1 80 17:39 15.11.2019
4355 Mist 5 1002 93 2700 5.1 70 17:20 15.11.2019
4356 Clouds 5 1004 86 6000 6.2 80 16:54 15.11.2019
4357 Mist 5 1003 93 2300 5.1 70 16:36 15.11.2019
4358 Mist 5 1003 93 2500 5.1 70 16:18 15.11.2019
4359 Clouds 5 1004 86 7000 7.7 70 15:37 15.11.2019
4360 Clouds 5 1004 86 7000 7.7 70 15:37 15.11.2019
4361 Mist 5 1002 100 2100 4.6 80 15:19 15.11.2019
4362 Clouds 5 1004 86 6000 6.7 90 14:56 15.11.2019
4363 Clouds 5 1004 86 6000 6.7 90 14:37 15.11.2019
4364 Clouds 4 1004 86 6000 7.7 80 14:19 15.11.2019
4365 Mist 4 1004 93 5000 7.2 80 13:56 15.11.2019
4366 Mist 4 1004 93 5000 7.2 80 13:38 15.11.2019
4367 Mist 4 1003 93 5000 6.2 70 13:20 15.11.2019
4368 Drizzle 4 1005 93 3700 7.7 80 12:57 15.11.2019
4369 Drizzle 4 1005 93 3700 7.7 80 12:37 15.11.2019
4370 Mist 4 1003 93 3200 6.2 50 12:18 15.11.2019
4371 Drizzle 4 1005 93 4200 6.7 80 11:55 15.11.2019
4372 Drizzle 4 1005 93 4200 6.7 80 11:55 15.11.2019
4373 Drizzle 4 1005 93 4200 6.7 80 11:37 15.11.2019
4374 Mist 4 1003 93 3700 7.2 60 11:19 15.11.2019
4375 Drizzle 4 1005 86 5000 7.2 80 10:39 15.11.2019
4376 Mist 4 1003 86 5000 6.7 60 10:21 15.11.2019
4377 Mist 4 1003 86 5000 6.7 60 09:58 15.11.2019
4378 Mist 4 1005 80 5000 6.7 80 09:40 15.11.2019
4379 Clouds 4 1003 86 6000 7.2 50 09:19 15.11.2019
4380 Mist 4 1005 80 5000 8.2 70 08:42 15.11.2019
4381 Clouds 4 1004 86 8000 6.7 60 08:22 15.11.2019
4382 Clouds 4 1004 86 8000 6.7 60 08:22 15.11.2019
4383 Clouds 4 1005 80 10000 8.2 80 07:47 15.11.2019
4384 Clouds 4 1004 86 8000 6.2 60 07:28 15.11.2019
4385 Clouds 3 1006 86 10000 6.2 90 06:38 15.11.2019
4386 Clouds 4 1004 86 8000 6.2 60 06:38 15.11.2019
4387 Clouds 4 1004 86 8000 5.7 70 05:59 15.11.2019
4388 Clouds 3 1006 86 10000 7.2 100 05:39 15.11.2019
4389 Clouds 3 1004 93 7000 7.2 60 05:20 15.11.2019
4390 Clouds 3 1007 86 10000 6.2 80 03:48 15.11.2019
4391 Clouds 3 1005 93 9000 5.1 60 03:22 15.11.2019
4392 Clouds 4 1006 93 8000 4.1 50 02:18 15.11.2019
4393 Clouds 4 1006 86 10000 4.1 70 01:33 15.11.2019
4394 Clouds 4 1006 86 10000 4.1 70 01:33 15.11.2019
4395 Clouds 3 1007 86 10000 3.6 80 00:51 15.11.2019
4396 Clouds 3 1006 93 9000 3.6 50 00:32 15.11.2019
4397 Clouds 3 1007 86 10000 4.6 100 23:52 14.11.2019
4398 Clouds 4 1006 86 10000 2.6 80 23:28 14.11.2019
4399 Clouds 4 1007 86 10000 5.1 90 22:59 14.11.2019
4400 Clouds 4 1007 86 10000 5.1 90 22:39 14.11.2019
4401 Clouds 4 1006 86 10000 3.6 70 22:21 14.11.2019
4402 Clouds 4 1007 80 10000 5.1 100 21:55 14.11.2019
4403 Clouds 4 1007 80 10000 5.1 100 21:37 14.11.2019
4404 Clouds 4 1006 86 10000 3.1 80 21:19 14.11.2019
4405 Clouds 5 1007 80 10000 5.1 110 20:42 14.11.2019
4406 Clouds 5 1005 86 10000 3.6 80 20:23 14.11.2019
4407 Clouds 5 1005 86 10000 3.6 80 19:59 14.11.2019
4408 Clouds 5 1005 86 10000 3.6 80 19:59 14.11.2019
4409 Clouds 5 1005 86 10000 3.6 80 19:40 14.11.2019
4410 Clouds 5 1005 86 10000 3.6 80 19:18 14.11.2019
4411 Clouds 5 1005 86 10000 3.6 80 19:18 14.11.2019
4412 Clouds 5 1005 86 10000 3.6 80 19:18 14.11.2019
4413 Clouds 5 1007 86 10000 5.1 100 18:56 14.11.2019
4414 Clouds 5 1007 86 10000 5.1 100 18:38 14.11.2019
4415 Clouds 5 1007 80 10000 3.6 100 18:19 14.11.2019
4416 Clouds 5 1006 80 10000 4.1 100 17:55 14.11.2019
4417 Clouds 5 1004 86 10000 4.1 80 17:37 14.11.2019
4418 Clouds 5 1004 86 10000 4.1 80 17:18 14.11.2019
4419 Clouds 5 1006 81 10000 5.1 100 16:57 14.11.2019
4420 Clouds 6 1006 81 10000 5.1 100 16:36 14.11.2019
4421 Clouds 6 1004 81 10000 4.1 90 16:18 14.11.2019
4422 -273 0 0 0 0 0 15:54 14.11.2019
4423 Clouds 6 1006 81 10000 4.6 100 15:36 14.11.2019
4424 Clouds 6 1003 75 10000 3.1 110 15:18 14.11.2019
4425 Clouds 7 1005 81 10000 4.1 100 14:43 14.11.2019
4426 Clouds 7 1003 75 10000 4.1 100 14:22 14.11.2019
4427 Clouds 7 1004 75 10000 3.6 110 13:56 14.11.2019
4428 Clouds 6 1004 75 10000 3.6 110 13:37 14.11.2019
4429 Clouds 6 1003 81 10000 3.1 110 13:19 14.11.2019
4430 Clouds 6 1005 86 10000 3.6 120 12:46 14.11.2019
4431 Clouds 6 1003 86 10000 3.6 110 12:26 14.11.2019
4432 Clouds 5 1003 86 10000 3.6 110 11:58 14.11.2019
4433 Clouds 5 1003 86 10000 3.6 110 11:58 14.11.2019
4434 Clouds 5 1005 86 10000 2.6 120 11:38 14.11.2019
4435 Clear 5 1003 86 10000 3.1 110 11:19 14.11.2019
4436 Clouds 4 1005 86 10000 3.1 140 10:58 14.11.2019
4437 Clouds 4 1005 86 10000 3.1 140 10:38 14.11.2019
4438 Clear 4 1003 86 10000 3.1 120 10:19 14.11.2019
4439 Clear 3 1003 93 10000 2.6 120 09:56 14.11.2019
4440 Clouds 3 1004 93 8000 2.6 120 09:37 14.11.2019
4441 Clouds 2 1003 93 6000 2.6 140 09:18 14.11.2019
4442 Clouds 2 1003 93 6000 2.6 140 08:47 14.11.2019
4443 Clear 1 1001 100 6000 2.6 100 08:25 14.11.2019
4444 Mist 2 1003 100 3800 2.1 130 07:44 14.11.2019
4445 Mist 2 1001 93 5000 2.1 120 07:25 14.11.2019
4446 Mist 2 1002 100 4000 2.1 120 06:56 14.11.2019
4447 Mist 2 1002 100 4000 2.1 120 06:37 14.11.2019
4448 Clear 2 1000 93 8000 2.1 120 06:18 14.11.2019
4449 Fog 3 1001 93 6000 2.1 160 04:40 14.11.2019
4450 Clouds 3 1001 93 6000 1.5 160 03:59 14.11.2019
4451 Clouds 3 1001 100 8000 2.1 180 02:43 14.11.2019
4452 Clouds 3 1001 93 10000 1.5 200 01:44 14.11.2019
4453 Clouds 3 1000 100 6000 2.6 150 01:26 14.11.2019
4454 Clouds 3 1001 93 10000 1.5 170 00:49 14.11.2019
4455 Clouds 3 1000 93 7000 1.5 150 00:29 14.11.2019
4456 Clouds 4 1000 93 10000 2.1 180 23:41 13.11.2019
4457 Rain 4 1000 93 10000 3.6 170 23:21 13.11.2019
4458 Clouds 4 1000 93 10000 2.6 200 22:56 13.11.2019
4459 Clouds 4 1000 93 10000 2.6 200 22:38 13.11.2019
4460 Clouds 4 1000 93 10000 2.6 200 22:38 13.11.2019
4461 Clouds 5 1000 86 10000 3.1 180 22:20 13.11.2019
4462 Clouds 5 1000 93 10000 2.6 210 21:56 13.11.2019
4463 Clouds 5 1000 93 10000 2.6 210 21:37 13.11.2019
4464 Rain 5 999 93 10000 3.6 190 21:19 13.11.2019
4465 Clouds 5 999 86 10000 3.1 220 20:56 13.11.2019
4466 Clouds 5 999 86 10000 3.1 220 20:37 13.11.2019
4467 Clouds 5 999 93 10000 3.1 200 20:19 13.11.2019
4468 Clouds 5 999 86 10000 3.6 220 19:56 13.11.2019
4469 Clouds 5 999 86 10000 3.6 220 19:37 13.11.2019
4470 Clouds 6 999 93 10000 4.1 230 19:18 13.11.2019
4471 Clouds 6 999 81 10000 3.1 210 18:54 13.11.2019
4472 Clouds 6 999 81 10000 3.1 210 18:36 13.11.2019
4473 Clouds 6 999 87 10000 4.1 210 18:18 13.11.2019
4474 Clouds 6 999 87 10000 4.1 210 18:18 13.11.2019
4475 Clouds 6 998 81 10000 3.6 230 17:54 13.11.2019
4476 Clouds 6 998 81 10000 3.6 230 17:36 13.11.2019
4477 Clouds 7 998 93 10000 5.1 220 17:18 13.11.2019
4478 Clouds 7 997 81 10000 3.1 230 16:40 13.11.2019
4479 Clouds 8 998 87 10000 6.2 230 16:22 13.11.2019
4480 Clouds 8 997 81 10000 4.6 220 15:59 13.11.2019
4481 Clouds 8 997 81 10000 4.6 220 15:41 13.11.2019
4482 Drizzle 8 997 76 10000 4.1 260 15:23 13.11.2019
4483 Clouds 9 996 81 10000 5.7 220 14:59 13.11.2019
4484 Clouds 9 996 81 10000 5.7 220 14:39 13.11.2019
4485 Clouds 9 996 81 10000 6.2 220 14:20 13.11.2019
4486 Clouds 9 996 81 10000 7.2 220 13:38 13.11.2019
4487 Clouds 9 996 81 10000 6.2 210 13:19 13.11.2019
4488 Clouds 9 996 81 10000 5.7 210 12:58 13.11.2019
4489 Rain 8 996 87 10000 7.2 210 12:40 13.11.2019
4490 Clouds 8 996 87 10000 5.7 200 12:21 13.11.2019
4491 Clouds 7 996 87 10000 6.7 200 11:55 13.11.2019
4492 Clouds 7 996 87 10000 7.2 200 11:37 13.11.2019
4493 Clouds 7 996 93 10000 5.7 200 11:18 13.11.2019
4494 Clouds 7 996 87 10000 6.7 200 10:55 13.11.2019
4495 Rain 6 996 93 8000 7.2 190 10:37 13.11.2019
4496 Rain 6 996 93 9000 6.2 200 10:19 13.11.2019
4497 Clouds 6 996 86 10000 7.2 180 09:42 13.11.2019
4498 Clouds 6 995 87 10000 6.2 190 09:21 13.11.2019
4499 Clouds 5 995 93 10000 5.7 190 08:42 13.11.2019
4500 Clouds 5 995 93 10000 6.2 200 08:23 13.11.2019
4501 Clouds 5 995 93 10000 6.2 200 07:59 13.11.2019
4502 Clouds 5 995 86 10000 6.2 180 07:40 13.11.2019
4503 Clouds 5 994 93 10000 7.2 200 07:19 13.11.2019
4504 Clouds 5 995 86 10000 6.2 170 06:42 13.11.2019
4505 Clouds 4 994 86 10000 8.7 210 06:19 13.11.2019
4506 Clouds 4 994 93 10000 8.7 200 05:48 13.11.2019
4507 Clouds 4 994 93 10000 7.2 190 05:29 13.11.2019
4508 Clouds 4 995 86 10000 6.2 180 04:19 13.11.2019
4509 Clouds 3 997 86 10000 6.2 160 01:54 13.11.2019
4510 Clouds 3 995 86 10000 6.2 170 01:35 13.11.2019
4511 Clouds 3 998 86 10000 4.6 160 00:43 13.11.2019
4512 Clouds 3 998 86 10000 4.6 160 23:58 12.11.2019
4513 Clouds 4 998 86 10000 4.6 160 23:40 12.11.2019
4514 Clouds 4 998 86 10000 4.6 160 23:40 12.11.2019
4515 Clouds 4 996 86 10000 5.7 180 23:20 12.11.2019
4516 Clouds 4 996 86 10000 5.7 190 22:43 12.11.2019
4517 Clouds 4 996 86 10000 6.2 190 22:20 12.11.2019
4518 Clouds 4 998 80 10000 4.1 180 21:58 12.11.2019
4519 Clouds 4 998 80 10000 4.1 180 21:40 12.11.2019
4520 Clouds 4 997 86 10000 5.1 170 21:22 12.11.2019
4521 Clouds 4 998 80 10000 5.1 180 20:56 12.11.2019
4522 Clouds 4 998 80 10000 5.1 180 20:37 12.11.2019
4523 Clouds 4 998 80 10000 5.1 180 20:37 12.11.2019
4524 Clouds 4 997 86 10000 5.1 170 20:18 12.11.2019
4525 Clouds 4 999 80 10000 5.1 170 19:57 12.11.2019
4526 Clouds 4 997 86 10000 5.1 170 19:38 12.11.2019
4527 Clouds 4 997 86 10000 4.6 150 19:19 12.11.2019
4528 Clouds 4 997 86 10000 4.6 150 18:58 12.11.2019
4529 Clouds 4 999 86 10000 4.1 180 18:39 12.11.2019
4530 Clouds 4 998 86 10000 4.1 180 18:21 12.11.2019
4531 Clouds 4 999 80 10000 4.1 190 17:56 12.11.2019
4532 Clouds 5 999 80 10000 4.1 190 17:37 12.11.2019
4533 Clouds 5 998 86 10000 4.1 180 17:19 12.11.2019
4534 Rain 5 998 86 10000 3.6 200 16:44 12.11.2019
4535 Clouds 6 997 81 10000 5.1 170 16:26 12.11.2019
4536 Clouds 6 998 75 10000 4.6 190 15:58 12.11.2019
4537 Clouds 6 998 75 10000 4.6 190 15:40 12.11.2019
4538 Clouds 6 997 81 10000 4.6 190 15:21 12.11.2019
4539 Clouds 6 998 81 10000 5.7 190 14:56 12.11.2019
4540 Clouds 6 997 81 10000 5.7 190 14:36 12.11.2019
4541 Clouds 6 997 81 10000 6.2 190 14:18 12.11.2019
4542 Clouds 6 998 81 10000 5.7 190 13:55 12.11.2019
4543 Clouds 6 998 75 10000 6.7 200 13:36 12.11.2019
4544 Clouds 6 998 87 10000 6.2 190 13:18 12.11.2019
4545 Clouds 6 998 87 10000 6.2 190 13:18 12.11.2019
4546 Clouds 6 998 75 10000 6.7 200 12:42 12.11.2019
4547 Clouds 6 998 81 10000 5.1 190 12:19 12.11.2019
4548 Clouds 6 999 86 10000 7.7 200 11:58 12.11.2019
4549 Clouds 5 999 86 10000 7.7 200 11:39 12.11.2019
4550 Clouds 5 998 86 10000 6.7 190 11:21 12.11.2019
4551 Clouds 5 999 86 10000 7.2 200 10:56 12.11.2019
4552 Clouds 5 999 86 10000 7.2 200 10:37 12.11.2019
4553 Clouds 5 998 86 10000 6.2 200 10:19 12.11.2019
4554 Clouds 5 998 93 10000 6.7 190 09:40 12.11.2019
4555 Clouds 5 998 86 10000 5.1 190 09:21 12.11.2019
4556 Clouds 5 998 93 10000 7.2 200 08:52 12.11.2019
4557 Rain 5 998 86 9000 7.7 220 08:30 12.11.2019
4558 Rain 4 998 86 9000 7.7 220 07:55 12.11.2019
4559 Rain 5 998 86 9000 7.7 220 07:36 12.11.2019
4560 Rain 5 997 93 10000 6.2 200 07:18 12.11.2019
4561 Clouds 4 997 86 10000 7.2 210 06:39 12.11.2019
4562 Rain 4 997 93 4300 6.7 210 06:21 12.11.2019
4563 Clouds 5 997 81 10000 7.2 210 05:45 12.11.2019
4564 Clouds 5 997 86 10000 6.7 200 04:42 12.11.2019
4565 Clouds 5 997 86 10000 6.7 190 03:39 12.11.2019
4566 Rain 6 998 87 10000 6.7 200 01:44 12.11.2019
4567 Clouds 5 998 93 10000 7.2 190 01:21 12.11.2019
4568 Rain 6 998 93 10000 5.7 190 00:47 12.11.2019
4569 Clouds 6 998 87 10000 8.2 190 00:24 12.11.2019
4570 Clouds 6 998 87 10000 6.7 190 23:44 11.11.2019
4571 Clouds 6 998 87 10000 5.1 190 23:23 11.11.2019
4572 Rain 6 998 93 10000 7.2 180 22:57 11.11.2019
4573 Rain 6 998 93 10000 5.7 190 22:36 11.11.2019
4574 Rain 6 998 93 10000 5.7 190 22:36 11.11.2019
4575 Drizzle 6 997 93 10000 6.2 190 22:18 11.11.2019
4576 Rain 6 998 86 7000 7.7 170 21:56 11.11.2019
4577 Drizzle 6 997 93 9000 7.2 210 21:38 11.11.2019
4578 Drizzle 6 997 93 10000 7.2 190 21:19 11.11.2019
4579 Rain 6 998 80 10000 6.7 170 20:42 11.11.2019
4580 Clouds 6 997 81 10000 7.2 180 20:20 11.11.2019
4581 Clouds 6 997 81 10000 7.2 180 19:58 11.11.2019
4582 Clouds 6 999 80 10000 6.7 150 19:40 11.11.2019
4583 Clouds 6 997 87 10000 7.7 180 19:18 11.11.2019
4584 Clouds 6 999 80 10000 7.2 150 18:56 11.11.2019
4585 Clouds 6 999 80 10000 7.2 150 18:37 11.11.2019
4586 Drizzle 6 997 81 10000 7.2 170 18:19 11.11.2019
4587 Clouds 6 999 75 10000 7.2 150 17:42 11.11.2019
4588 Clouds 7 998 75 10000 6.2 160 17:24 11.11.2019
4589 Clouds 7 1000 75 10000 6.2 160 16:44 11.11.2019
4590 Clouds 7 998 75 10000 5.7 160 16:24 11.11.2019
4591 Clouds 7 998 75 10000 5.7 160 16:24 11.11.2019
4592 Clouds 7 998 75 10000 5.7 160 15:59 11.11.2019
4593 Clouds 7 1001 75 10000 6.2 150 15:40 11.11.2019
4594 Clouds 7 999 75 10000 6.2 160 15:20 11.11.2019
4595 Clouds 7 1002 75 10000 6.2 160 14:45 11.11.2019
4596 Clouds 7 1001 75 10000 6.7 160 14:25 11.11.2019
4597 Clouds 6 1001 75 10000 6.7 160 13:59 11.11.2019
4598 Clouds 6 1003 80 10000 5.7 150 13:38 11.11.2019
4599 Clouds 6 1002 81 10000 5.1 160 13:20 11.11.2019
4600 Clouds 5 1002 81 10000 5.1 160 12:58 11.11.2019
4601 Clouds 5 1004 80 10000 5.1 160 12:40 11.11.2019
4602 Clouds 5 1003 86 10000 5.1 160 12:22 11.11.2019
4603 Clouds 5 1003 86 10000 5.1 160 11:55 11.11.2019
4604 Clouds 4 1005 86 9000 4.6 150 11:37 11.11.2019
4605 Clouds 4 1004 93 8000 4.1 150 11:19 11.11.2019
4606 Mist 3 1006 93 3500 4.6 170 10:42 11.11.2019
4607 Drizzle 3 1005 93 4700 4.6 150 10:18 11.11.2019
4608 Drizzle 3 1005 93 4700 4.6 150 09:56 11.11.2019
4609 Mist 3 1007 93 3500 5.1 180 09:37 11.11.2019
4610 Mist 3 1005 100 3200 5.1 160 09:18 11.11.2019
4611 Mist 3 1005 100 3200 5.1 160 09:18 11.11.2019
4612 Mist 2 1007 86 4000 5.1 170 08:40 11.11.2019
4613 Mist 2 1006 100 1100 5.7 170 08:21 11.11.2019
4614 Mist 2 1006 100 1100 5.7 170 07:57 11.11.2019
4615 Mist 2 1007 100 2000 5.1 170 07:37 11.11.2019
4616 Mist 2 1007 93 2000 4.6 170 07:19 11.11.2019
4617 Clouds 1 1008 93 8000 4.1 180 06:48 11.11.2019
4618 Mist 1 1008 93 4900 4.1 170 06:23 11.11.2019
4619 Clouds 1 1009 85 7000 2.6 180 05:51 11.11.2019
4620 Clouds 1 1010 82 7000 2.1 180 04:36 11.11.2019
4621 Mist 1 1011 93 5000 2.6 190 03:24 11.11.2019
4622 Mist 2 1011 93 5000 3.1 180 02:26 11.11.2019
4623 Clouds 3 1012 86 10000 2.1 210 01:56 11.11.2019
4624 Clouds 3 1012 93 6000 3.1 190 01:35 11.11.2019
4625 Clouds 3 1012 86 10000 2.6 210 00:50 11.11.2019
4626 Mist 3 1012 83 5000 2.1 210 00:26 11.11.2019
4627 Clouds 4 1012 80 10000 3.6 210 23:55 10.11.2019
4628 Clouds 4 1012 80 10000 3.6 210 23:36 10.11.2019
4629 Clouds 4 1013 93 9000 2.6 200 23:18 10.11.2019
4630 Clouds 4 1013 81 10000 4.6 210 22:55 10.11.2019
4631 Clouds 5 1013 81 10000 4.6 210 22:36 10.11.2019
4632 Clouds 5 1013 93 10000 2.6 200 22:18 10.11.2019
4633 Clouds 5 1013 93 10000 2.6 200 21:54 10.11.2019
4634 Clouds 5 1013 80 10000 3.1 210 21:36 10.11.2019
4635 Clouds 5 1013 86 10000 3.1 220 21:18 10.11.2019
4636 Clouds 5 1013 86 10000 3.6 210 20:40 10.11.2019
4637 Clouds 5 1013 93 10000 2.6 200 20:21 10.11.2019
4638 Clear 5 1013 86 10000 3.1 210 19:56 10.11.2019
4639 Clear 5 1013 93 10000 3.6 220 19:37 10.11.2019
4640 Clear 5 1013 93 10000 3.1 210 19:18 10.11.2019
4641 Clear 5 1013 93 10000 3.1 210 18:56 10.11.2019
4642 Clear 5 1013 81 10000 2.6 220 18:56 10.11.2019
4643 Clear 5 1013 81 10000 2.6 220 18:38 10.11.2019
4644 Clear 6 1013 86 10000 2.1 210 18:19 10.11.2019
4645 Clear 6 1012 81 10000 3.6 230 17:56 10.11.2019
4646 Clear 6 1012 81 10000 3.6 230 17:38 10.11.2019
4647 Clear 6 1013 86 10000 3.1 210 17:19 10.11.2019
4648 Clear 7 1012 81 10000 3.1 200 16:57 10.11.2019
4649 Clear 7 1012 81 10000 3.1 200 16:37 10.11.2019
4650 Clear 8 1013 75 10000 3.6 220 16:19 10.11.2019
4651 Clear 8 1013 75 10000 3.6 220 15:55 10.11.2019
4652 Clear 8 1012 70 10000 5.7 220 15:36 10.11.2019
4653 Clouds 8 1012 70 10000 5.1 230 15:18 10.11.2019
4654 Clouds 8 1012 70 10000 5.1 230 15:18 10.11.2019
4655 Clear 9 1012 75 10000 4.6 210 14:41 10.11.2019
4656 Clouds 9 1012 76 10000 5.1 220 14:22 10.11.2019
4657 Clouds 9 1012 76 10000 5.1 220 13:58 10.11.2019
4658 Clouds 8 1012 81 10000 4.6 210 13:40 10.11.2019
4659 Clouds 8 1012 75 10000 5.7 230 13:20 10.11.2019
4660 Clouds 8 1012 81 10000 4.1 200 12:44 10.11.2019
4661 Clouds 7 1012 81 10000 4.6 210 12:21 10.11.2019
4662 Clouds 7 1012 87 10000 5.1 210 11:57 10.11.2019
4663 Clouds 7 1012 81 10000 4.6 210 11:57 10.11.2019
4664 Clouds 6 1012 86 10000 4.6 200 11:39 10.11.2019
4665 Clouds 6 1012 93 9000 4.6 200 11:21 10.11.2019
4666 Clouds 5 1011 86 10000 3.6 200 10:59 10.11.2019
4667 Clouds 5 1011 86 10000 3.6 200 10:40 10.11.2019
4668 Clouds 5 1011 93 7000 4.1 210 10:20 10.11.2019
4669 Clouds 4 1011 86 10000 3.6 190 09:43 10.11.2019
4670 Clouds 4 1010 93 6000 4.1 210 09:24 10.11.2019
4671 Clouds 4 1010 93 10000 3.6 190 08:59 10.11.2019
4672 Clouds 4 1010 93 6000 4.6 200 08:37 10.11.2019
4673 Clouds 4 1009 93 6000 4.6 190 08:18 10.11.2019
4674 Clouds 4 1009 93 10000 3.1 180 07:42 10.11.2019
4675 Clouds 4 1009 93 7000 4.1 200 07:24 10.11.2019
4676 Clouds 4 1008 93 8000 3.1 200 06:33 10.11.2019
4677 Clouds 5 1008 86 10000 4.1 180 05:41 10.11.2019
4678 Clouds 6 1007 87 10000 4.1 200 03:22 10.11.2019
4679 Rain 6 1006 87 10000 4.6 200 01:55 10.11.2019
4680 Clouds 6 1006 87 10000 5.1 210 01:19 10.11.2019
4681 Clouds 6 1006 87 10000 4.1 170 00:41 10.11.2019
4682 Clouds 6 1005 87 10000 4.6 210 23:58 09.11.2019
4683 Clouds 6 1006 87 10000 3.6 180 23:38 09.11.2019
4684 Clouds 6 1005 87 10000 5.1 200 23:18 09.11.2019
4685 Clouds 6 1005 87 10000 4.6 170 22:41 09.11.2019
4686 Clouds 6 1005 87 10000 5.7 200 22:21 09.11.2019
4687 Clouds 6 1005 93 10000 4.1 170 21:56 09.11.2019
4688 Clouds 6 1005 93 10000 4.1 170 21:38 09.11.2019
4689 Clouds 6 1004 93 10000 6.2 190 21:20 09.11.2019
4690 Clouds 6 1005 93 10000 4.1 170 20:44 09.11.2019
4691 Drizzle 6 1004 93 10000 6.7 190 20:23 09.11.2019
4692 Rain 6 1005 87 4800 4.6 150 19:58 09.11.2019
4693 Rain 6 1005 87 4800 4.6 150 19:40 09.11.2019
4694 Clouds 6 1004 87 10000 6.7 200 19:22 09.11.2019
4695 Rain 7 1005 93 10000 4.6 140 18:57 09.11.2019
4696 Rain 7 1005 93 10000 4.6 140 18:38 09.11.2019
4697 Drizzle 7 1003 87 10000 8.2 200 18:18 09.11.2019
4698 Rain 7 1005 93 6000 3.6 140 17:42 09.11.2019
4699 Clouds 7 1003 87 10000 7.7 190 17:23 09.11.2019
4700 Clouds 7 1003 87 10000 7.7 190 16:57 09.11.2019
4701 Rain 7 1005 87 5000 3.1 140 16:39 09.11.2019
4702 Rain 7 1003 93 7000 5.7 160 16:19 09.11.2019
4703 Rain 7 1005 93 10000 3.6 170 15:42 09.11.2019
4704 Drizzle 7 1003 93 5000 5.1 160 15:24 09.11.2019
4705 Drizzle 7 1003 93 5000 5.1 160 14:57 09.11.2019
4706 Rain 7 1003 93 7000 5.1 160 14:39 09.11.2019
4707 Rain 7 1003 93 6000 5.7 150 14:18 09.11.2019
4708 Clouds 7 1004 93 8000 5.1 160 13:55 09.11.2019
4709 Clouds 6 1005 93 2100 4.6 180 13:36 09.11.2019
4710 Clouds 7 1004 93 7000 5.1 160 13:18 09.11.2019
4711 Clouds 6 1005 81 10000 4.1 180 12:41 09.11.2019
4712 Mist 6 1005 100 3600 4.1 160 12:22 09.11.2019
4713 Mist 6 1005 100 3600 4.1 160 11:56 09.11.2019
4714 Clouds 5 1006 93 10000 2.6 180 11:38 09.11.2019
4715 Mist 5 1005 100 1600 4.1 170 11:18 09.11.2019
4716 Clouds 4 1006 93 9000 1 0 10:41 09.11.2019
4717 Mist 4 1005 100 2500 4.1 170 10:19 09.11.2019
4718 Mist 4 1005 100 2400 3.1 150 09:56 09.11.2019
4719 Mist 3 1005 100 2400 3.1 150 09:38 09.11.2019
4720 Drizzle 3 1005 100 2400 3.6 150 09:18 09.11.2019
4721 Clouds 2 1007 87 350 1.5 100 08:43 09.11.2019
4722 Mist 1 1006 100 2200 2.1 140 08:24 09.11.2019
4723 Clear 1 1006 100 450 1.5 220 07:47 09.11.2019
4724 Mist 1 1006 89 2400 2.1 130 07:24 09.11.2019
4725 Clear 1 1007 89 100 1 150 06:51 09.11.2019
4726 Mist 1 1006 100 2100 2.1 120 06:32 09.11.2019
4727 Clear 1 1007 89 200 1.5 110 05:54 09.11.2019
4728 Fog 1 1006 89 450 1.5 120 05:34 09.11.2019
4729 Fog 1 1006 92 400 1 0 03:57 09.11.2019
4730 Clear 1 1007 87 150 0.5 170 02:45 09.11.2019
4731 Fog 1 1007 85 400 0.5 90 02:22 09.11.2019
4732 Fog 1 1007 86 450 0.5 90 01:18 09.11.2019
4733 Clouds 2 1007 100 250 3.05 174 00:39 09.11.2019
4734 Fog 2 1007 86 500 0.5 120 00:21 09.11.2019
4735 Clouds 2 1008 100 100 1.5 90 23:40 08.11.2019
4736 Clouds 2 1008 93 150 1 120 23:22 08.11.2019
4737 Clouds 2 1008 93 150 1 120 22:56 08.11.2019
4738 Clouds 3 1008 93 150 1 120 22:38 08.11.2019
4739 Fog 2 1007 100 400 3.49 182 22:19 08.11.2019
4740 Clouds 3 1008 100 350 0.5 100 21:41 08.11.2019
4741 Mist 3 1007 100 1300 0.5 130 21:23 08.11.2019
4742 Clouds 3 1007 100 100 1 90 20:57 08.11.2019
4743 Clouds 4 1007 100 100 1 90 20:39 08.11.2019
4744 Clear 4 1007 100 10000 2.6 110 20:19 08.11.2019
4745 Fog 4 1007 93 10000 0.5 100 19:54 08.11.2019
4746 Mist 4 1007 100 2600 1 110 19:36 08.11.2019
4747 Clouds 4 1007 93 10000 1 120 19:18 08.11.2019
4748 Clouds 4 1007 93 10000 1 120 18:54 08.11.2019
4749 Mist 5 1007 100 3300 1 120 18:36 08.11.2019
4750 Clouds 5 1006 93 10000 1 60 18:18 08.11.2019
4751 Clouds 5 1007 93 10000 3.74 167 17:54 08.11.2019
4752 Clouds 6 1006 100 10000 1 0 17:36 08.11.2019
4753 Clear 7 1006 87 10000 1.5 200 17:18 08.11.2019
4754 Clouds 7 1006 75 10000 1.5 160 16:57 08.11.2019
4755 Clouds 7 1006 75 10000 1.5 160 16:57 08.11.2019
4756 Clouds 8 1006 75 10000 1.5 160 16:38 08.11.2019
4757 Clear 8 1006 81 10000 2.1 170 16:18 08.11.2019
4758 Clouds 9 1006 66 10000 3.6 180 15:41 08.11.2019
4759 Clear 9 1005 76 10000 3.1 180 15:23 08.11.2019
4760 Clear 9 1005 76 10000 3.1 180 14:58 08.11.2019
4761 Clear 9 1005 76 10000 3.1 180 14:58 08.11.2019
4762 Clouds 9 1006 66 10000 2.6 170 14:38 08.11.2019
4763 Clear 10 1005 76 10000 3.1 190 14:20 08.11.2019
4764 Clear 10 1005 76 10000 3.1 190 13:59 08.11.2019
4765 Clouds 9 1006 66 10000 2.6 200 13:41 08.11.2019
4766 Clear 9 1005 76 10000 3.1 190 13:22 08.11.2019
4767 Clouds 9 1006 70 10000 3.1 190 12:49 08.11.2019
4768 Clear 9 1005 76 10000 4.1 190 12:29 08.11.2019
4769 Clear 8 1006 81 10000 3.1 190 11:59 08.11.2019
4770 Clouds 8 1006 75 10000 3.1 190 11:59 08.11.2019
4771 Clouds 8 1006 75 10000 3.1 190 11:41 08.11.2019
4772 Clear 7 1005 81 10000 3.1 170 11:22 08.11.2019
4773 Clear 7 1005 81 10000 3.1 170 10:59 08.11.2019
4774 Clear 7 1006 87 10000 2.6 180 10:41 08.11.2019
4775 Clear 6 1005 87 10000 3.1 190 10:22 08.11.2019
4776 Clear 5 1006 86 10000 2.6 180 09:58 08.11.2019
4777 Clear 5 1006 86 10000 2.6 180 09:38 08.11.2019
4778 Clear 3 1005 93 10000 3.1 180 09:19 08.11.2019
4779 Clear 3 1005 93 10000 3.1 180 08:45 08.11.2019
4780 Clear 3 1004 93 10000 3.1 170 08:23 08.11.2019
4781 Clear 4 1004 93 10000 2.1 180 07:55 08.11.2019
4782 Clear 4 1004 93 10000 4.1 180 07:37 08.11.2019
4783 Clear 4 1003 93 10000 4.6 170 07:19 08.11.2019
4784 Clear 4 1004 93 10000 4.1 190 06:38 08.11.2019
4785 Clear 3 1003 93 10000 4.1 170 06:19 08.11.2019
4786 Clear 4 1003 93 10000 2.6 180 05:38 08.11.2019
4787 Clear 4 1002 93 10000 3.1 180 04:30 08.11.2019
4788 Clear 5 1002 93 10000 3.1 180 03:43 08.11.2019
4789 Clear 5 1002 93 10000 3.6 180 03:19 08.11.2019
4790 Clear 5 1001 93 10000 4.1 180 02:24 08.11.2019
4791 Clouds 5 1001 93 10000 3.6 200 01:42 08.11.2019
4792 Clouds 6 1001 87 10000 4.6 190 00:59 08.11.2019
4793 Clouds 6 1000 87 10000 4.6 190 00:24 08.11.2019
4794 Clouds 6 1000 87 10000 4.1 200 23:55 07.11.2019
4795 Clouds 6 1000 87 10000 4.1 200 23:55 07.11.2019
4796 Clouds 6 1000 93 10000 4.6 200 23:36 07.11.2019
4797 Rain 6 999 87 10000 5.1 190 23:18 07.11.2019
4798 Rain 7 999 87 10000 4.1 200 22:41 07.11.2019
4799 Clouds 7 999 93 10000 5.7 200 22:21 07.11.2019
4800 Rain 7 998 93 10000 3.6 200 21:55 07.11.2019
4801 Rain 7 998 93 10000 3.6 200 21:37 07.11.2019
4802 Clouds 7 998 87 10000 4.6 200 21:18 07.11.2019
4803 Rain 8 998 93 10000 4.6 150 20:55 07.11.2019
4804 Rain 8 998 93 10000 4.6 150 20:37 07.11.2019
4805 Rain 8 998 93 10000 4.6 150 20:37 07.11.2019
4806 Clouds 8 997 93 10000 5.1 200 20:18 07.11.2019
4807 Drizzle 8 998 93 4000 5.7 110 19:41 07.11.2019
4808 Clouds 8 996 87 10000 4.6 190 19:23 07.11.2019
4809 Clouds 8 996 87 10000 4.6 190 18:58 07.11.2019
4810 Drizzle 8 998 93 6000 6.2 100 18:40 07.11.2019
4811 Rain 8 995 100 5000 3.6 110 18:20 07.11.2019
4812 Drizzle 8 998 93 6000 6.7 110 17:59 07.11.2019
4813 Drizzle 8 998 93 6000 6.7 110 17:39 07.11.2019
4814 Rain 8 995 93 7000 4.1 100 17:20 07.11.2019
4815 Drizzle 8 998 87 10000 6.7 110 16:58 07.11.2019
4816 Drizzle 8 998 87 10000 6.7 110 16:39 07.11.2019
4817 Drizzle 8 995 93 10000 4.1 100 16:19 07.11.2019
4818 Clouds 8 998 87 10000 6.7 110 15:56 07.11.2019
4819 Clouds 8 998 87 10000 6.7 110 15:37 07.11.2019
4820 Drizzle 8 996 87 10000 3.6 100 15:18 07.11.2019
4821 Clouds 8 998 93 10000 6.2 110 14:44 07.11.2019
4822 Clouds 8 996 87 10000 4.1 110 14:26 07.11.2019
4823 Clouds 8 998 87 10000 6.2 110 13:56 07.11.2019
4824 Clouds 8 998 87 10000 6.2 110 13:38 07.11.2019
4825 Clouds 8 996 87 10000 4.6 100 13:20 07.11.2019
4826 Clouds 8 999 81 10000 6.2 110 12:58 07.11.2019
4827 Clouds 7 999 81 10000 6.2 110 12:39 07.11.2019
4828 Clouds 7 997 87 10000 3.6 110 12:21 07.11.2019
4829 Clouds 7 999 93 10000 4.6 120 11:58 07.11.2019
4830 Clouds 7 997 87 10000 4.1 90 11:39 07.11.2019
4831 Clouds 7 997 87 10000 4.1 90 11:20 07.11.2019
4832 Fog 6 1000 93 8000 3.6 100 10:40 07.11.2019
4833 Clouds 6 998 93 10000 3.6 110 10:19 07.11.2019
4834 Clouds 5 998 93 8000 3.1 110 09:43 07.11.2019
4835 Clouds 5 998 93 7000 3.1 100 09:22 07.11.2019
4836 Clouds 5 998 93 8000 3.1 100 08:57 07.11.2019
4837 Clouds 5 998 93 10000 2.6 100 08:38 07.11.2019
4838 Rain 4 998 93 10000 2.6 100 08:20 07.11.2019
4839 -273 0 0 0 0 0 07:44 07.11.2019
4840 Clouds 4 999 93 10000 3.1 100 07:23 07.11.2019
4841 Clouds 4 999 93 10000 3.1 100 07:22 07.11.2019
4842 Clouds 4 999 93 10000 2.6 100 06:58 07.11.2019
4843 Rain 4 999 93 9000 2.6 100 06:40 07.11.2019
4844 Rain 4 999 93 9000 2.6 100 06:22 07.11.2019
4845 Fog 3 1000 100 600 2.1 90 05:47 07.11.2019
4846 Fog 3 1000 100 500 1 90 05:29 07.11.2019
4847 Clouds 3 1001 100 200 1 160 04:49 07.11.2019
4848 Clouds 3 1000 93 10000 1.5 120 04:27 07.11.2019
4849 Mist 2 1001 100 3400 0.5 160 01:18 07.11.2019
4850 Mist 3 1001 100 4700 1.5 120 00:26 07.11.2019
4851 Rain 3 1002 93 1600 0.5 170 23:50 06.11.2019
4852 Clouds 4 1002 93 10000 1 190 23:23 06.11.2019
4853 Rain 4 1002 93 300 1 220 22:59 06.11.2019
4854 Rain 4 1002 93 300 1 220 22:39 06.11.2019
4855 Clouds 4 1002 100 10000 0.5 180 22:20 06.11.2019
4856 Rain 4 1002 93 650 1 260 21:57 06.11.2019
4857 Rain 4 1002 93 650 1 260 21:39 06.11.2019
4858 Clouds 4 1002 100 10000 0.5 220 21:19 06.11.2019
4859 Rain 5 1002 93 10000 1.5 240 20:56 06.11.2019
4860 Rain 5 1002 93 10000 1.5 240 20:38 06.11.2019
4861 Rain 5 1002 100 10000 2.1 220 20:20 06.11.2019
4862 Clouds 5 1002 93 10000 1.5 240 19:56 06.11.2019
4863 Clouds 5 1002 93 10000 1.5 240 19:36 06.11.2019
4864 Rain 6 1002 93 10000 0.5 210 19:18 06.11.2019
4865 Clouds 6 1002 81 10000 2.1 260 18:55 06.11.2019
4866 Clouds 6 1002 93 10000 0.5 350 18:36 06.11.2019
4867 Clouds 6 1002 87 10000 2.1 360 18:18 06.11.2019
4868 Clouds 7 1001 87 10000 1.5 250 17:42 06.11.2019
4869 Clouds 7 1002 87 10000 2.6 270 17:23 06.11.2019
4870 Clouds 7 1001 87 10000 1 270 16:57 06.11.2019
4871 Clouds 7 1001 87 10000 1 270 16:39 06.11.2019
4872 Clouds 7 1001 87 10000 1 270 16:39 06.11.2019
4873 Rain 8 1002 75 10000 1.5 300 16:21 06.11.2019
4874 Clouds 8 1001 75 10000 2.1 310 15:58 06.11.2019
4875 Clouds 8 1001 75 10000 2.1 310 15:38 06.11.2019
4876 Clouds 8 1001 70 10000 2.6 300 15:19 06.11.2019
4877 Clouds 9 1001 81 10000 2.1 320 14:57 06.11.2019
4878 Clouds 9 1001 81 10000 2.1 320 14:39 06.11.2019
4879 Clouds 9 1001 70 10000 3.6 310 14:21 06.11.2019
4880 Clouds 9 1001 70 10000 3.6 310 13:59 06.11.2019
4881 Clouds 9 1001 76 10000 1 300 13:37 06.11.2019
4882 Rain 9 1001 71 10000 3.6 290 13:19 06.11.2019
4883 Clouds 9 1001 81 10000 2.1 360 12:55 06.11.2019
4884 Clouds 9 1001 70 10000 2.6 280 12:37 06.11.2019
4885 Drizzle 9 1001 81 10000 2.6 280 12:18 06.11.2019
4886 Clouds 8 1001 87 10000 0.5 310 11:56 06.11.2019
4887 Clouds 8 1001 87 10000 0.5 310 11:36 06.11.2019
4888 Clouds 8 1001 87 10000 2.1 260 11:18 06.11.2019
4889 Clouds 8 1000 87 10000 0.5 60 10:55 06.11.2019
4890 Clouds 8 1000 87 10000 0.5 60 10:37 06.11.2019
4891 Clouds 8 1001 93 10000 2.1 250 10:18 06.11.2019
4892 Clouds 7 1000 93 10000 1 290 09:41 06.11.2019
4893 Clouds 7 1001 93 10000 1.5 320 09:21 06.11.2019
4894 Drizzle 7 1001 93 7000 2.6 310 08:56 06.11.2019
4895 Drizzle 7 1001 93 7000 2.6 310 08:38 06.11.2019
4896 Clouds 7 1000 93 10000 1.5 260 08:18 06.11.2019
4897 Clouds 7 999 93 10000 2.1 330 07:47 06.11.2019
4898 Clouds 7 1000 100 10000 1.5 280 07:29 06.11.2019
4899 Clouds 7 1000 100 10000 1.5 280 06:59 06.11.2019
4900 Fog 7 999 93 10000 1 270 06:38 06.11.2019
4901 Clouds 7 999 93 10000 0.5 320 06:20 06.11.2019
4902 Rain 8 999 100 2100 1.5 10 03:52 06.11.2019
4903 Clouds 8 999 100 10000 1.5 350 02:18 06.11.2019
4904 Rain 8 998 93 2400 1.5 10 00:55 06.11.2019
4905 Rain 8 998 93 10000 1.5 30 00:27 06.11.2019
4906 Rain 8 998 93 10000 1.5 30 23:57 05.11.2019
4907 Rain 8 998 93 10000 1.5 30 23:37 05.11.2019
4908 Drizzle 8 998 93 10000 2.6 10 23:19 05.11.2019
4909 Rain 9 998 93 10000 2.6 40 22:43 05.11.2019
4910 Drizzle 9 998 100 10000 3.1 10 22:19 05.11.2019
4911 Rain 9 997 93 10000 2.6 30 21:58 05.11.2019
4912 Rain 9 997 93 10000 2.6 30 21:40 05.11.2019
4913 Drizzle 9 997 93 7000 2.6 10 21:20 05.11.2019
4914 Rain 9 997 93 6000 1.5 360 20:57 05.11.2019
4915 Rain 9 997 93 6000 1.5 360 20:38 05.11.2019
4916 Drizzle 9 997 93 5000 2.1 20 20:20 05.11.2019
4917 Drizzle 10 997 93 7000 3.1 30 19:56 05.11.2019
4918 Drizzle 9 997 93 3200 2.1 320 19:37 05.11.2019
4919 Mist 9 997 93 3400 2.1 290 19:19 05.11.2019
4920 Drizzle 10 996 100 6000 3.1 360 18:56 05.11.2019
4921 Mist 10 997 100 4200 1.5 270 18:38 05.11.2019
4922 Mist 10 996 93 5000 1 250 18:19 05.11.2019
4923 Drizzle 10 996 93 4000 2.6 270 17:56 05.11.2019
4924 Drizzle 10 996 93 4000 2.6 270 17:37 05.11.2019
4925 Drizzle 10 995 93 4000 2.6 270 17:18 05.11.2019
4926 Drizzle 10 995 93 4000 2.6 270 16:42 05.11.2019
4927 Clouds 10 996 87 9000 2.6 250 16:22 05.11.2019
4928 Drizzle 10 995 87 4000 1 0 15:59 05.11.2019
4929 Drizzle 11 995 87 4000 1 0 15:37 05.11.2019
4930 Drizzle 11 995 87 4000 1.5 250 15:18 05.11.2019
4931 Rain 11 995 87 10000 2.1 270 14:55 05.11.2019
4932 Rain 11 995 87 10000 2.1 270 14:37 05.11.2019
4933 Clouds 11 995 87 8000 3.1 250 14:19 05.11.2019
4934 Clouds 11 995 87 10000 1.5 260 13:43 05.11.2019
4935 Mist 10 995 93 5000 3.1 240 13:24 05.11.2019
4936 Mist 10 995 93 5000 3.1 240 12:59 05.11.2019
4937 Clouds 10 995 87 6000 1.5 330 12:39 05.11.2019
4938 Mist 10 995 87 5000 3.6 240 12:18 05.11.2019
4939 Mist 10 995 100 4000 1.5 0 11:41 05.11.2019
4940 Mist 10 995 100 4100 2.6 240 11:21 05.11.2019
4941 Mist 10 994 100 1600 1.5 280 10:59 05.11.2019
4942 Mist 10 994 100 1600 1.5 280 10:59 05.11.2019
4943 Mist 10 994 100 1600 1.5 280 10:41 05.11.2019
4944 Mist 10 994 100 3000 2.1 230 10:22 05.11.2019
4945 Mist 10 994 93 2300 1.5 220 09:56 05.11.2019
4946 Mist 9 994 93 2300 1.5 220 09:38 05.11.2019
4947 Mist 9 994 100 1700 0.5 170 09:18 05.11.2019
4948 Mist 9 993 100 1700 1.16 217 08:40 05.11.2019
4949 Mist 9 993 100 1200 0.5 150 08:21 05.11.2019
4950 Mist 9 993 100 1200 0.5 150 07:59 05.11.2019
4951 Mist 9 993 100 1200 1 150 07:41 05.11.2019
4952 Fog 9 992 100 750 1.5 290 07:23 05.11.2019
4953 Mist 9 992 93 1800 1.5 220 06:51 05.11.2019
4954 Mist 9 992 93 3000 0.5 0 05:52 05.11.2019
4955 Mist 9 992 100 1500 1 220 05:34 05.11.2019
4956 Mist 9 992 100 1800 1 190 04:47 05.11.2019
4957 Mist 9 991 100 2400 2.1 190 03:58 05.11.2019
4958 Mist 9 991 100 2500 1 0 03:23 05.11.2019
4959 Rain 9 991 100 1500 1 130 02:41 05.11.2019
4960 Mist 9 991 93 2600 1 120 01:27 05.11.2019
4961 Clouds 9 991 100 150 1 130 00:39 05.11.2019
4962 Mist 9 990 93 2700 1 0 00:18 05.11.2019
4963 Clouds 9 991 100 750 1 100 23:41 04.11.2019
4964 Mist 9 990 100 3400 1 0 23:19 04.11.2019
4965 Clouds 10 990 93 250 1 100 22:55 04.11.2019
4966 Clouds 10 990 93 250 1 100 22:37 04.11.2019
4967 Mist 9 990 100 5000 2.1 180 22:19 04.11.2019
4968 Clouds 9 990 100 6000 1 130 21:54 04.11.2019
4969 Clouds 9 990 100 6000 1 130 21:54 04.11.2019
4970 Drizzle 9 989 93 10000 2.1 190 21:36 04.11.2019
4971 Drizzle 9 989 93 10000 1.5 160 21:18 04.11.2019
4972 Clouds 9 990 100 200 1 130 20:54 04.11.2019
4973 Clouds 9 990 100 200 1 130 20:36 04.11.2019
4974 Clouds 9 989 93 10000 1.5 150 20:18 04.11.2019
4975 Fog 9 990 93 5000 1 130 19:42 04.11.2019
4976 Clouds 9 989 93 10000 1.5 130 19:23 04.11.2019
4977 Clouds 10 989 93 10000 1 120 18:58 04.11.2019
4978 Clouds 10 989 93 10000 1 120 18:39 04.11.2019
4979 Clouds 10 989 93 10000 1 120 18:39 04.11.2019
4980 Clouds 10 988 93 10000 2.1 90 18:21 04.11.2019
4981 Clouds 10 989 87 10000 1 160 17:58 04.11.2019
4982 Clouds 10 989 87 10000 1 160 17:36 04.11.2019
4983 Clouds 10 988 93 10000 1.5 120 17:18 04.11.2019
4984 Clouds 11 988 87 10000 2.6 170 16:43 04.11.2019
4985 Clouds 11 988 93 10000 1 0 16:24 04.11.2019
4986 Clouds 11 988 93 10000 1 0 15:59 04.11.2019
4987 Clouds 11 988 87 10000 2.6 180 15:59 04.11.2019
4988 Clouds 11 988 87 10000 2.6 180 15:41 04.11.2019
4989 Clouds 12 987 81 10000 2.1 180 15:21 04.11.2019
4990 Clouds 12 987 76 10000 2.6 190 14:58 04.11.2019
4991 Clouds 12 987 76 10000 2.6 190 14:40 04.11.2019
4992 Clouds 12 987 87 10000 2.6 190 14:20 04.11.2019
4993 Clouds 12 987 76 10000 2.6 200 13:58 04.11.2019
4994 Clouds 12 987 76 10000 2.6 200 13:39 04.11.2019
4995 Clouds 11 987 93 10000 2.1 190 13:21 04.11.2019
4996 Clouds 11 987 81 10000 3.1 220 12:56 04.11.2019
4997 Clouds 11 987 100 6000 2.1 190 12:38 04.11.2019
4998 Drizzle 11 987 93 3500 3.1 190 12:18 04.11.2019
4999 Clouds 11 987 93 10000 3.1 180 11:42 04.11.2019
5000 Clouds 11 987 93 7000 3.1 190 11:23 04.11.2019
5001 Clouds 10 986 87 6000 3.6 190 10:59 04.11.2019
5002 Clouds 10 987 87 6000 2.6 190 10:41 04.11.2019
5003 Clouds 10 987 93 7000 1.5 190 10:23 04.11.2019
5004 Mist 10 986 93 5000 2.6 170 09:45 04.11.2019
5005 Mist 10 986 93 3400 2.1 170 09:27 04.11.2019
5006 Clouds 9 987 93 10000 4.1 210 08:58 04.11.2019
5007 Clouds 9 987 93 10000 4.1 210 08:38 04.11.2019
5008 Mist 9 986 100 2400 2.6 170 08:19 04.11.2019
5009 Clouds 9 986 93 10000 4.6 230 07:43 04.11.2019
5010 Mist 9 986 100 2100 2.6 180 07:21 04.11.2019
5011 Mist 9 986 100 3200 4.6 210 06:56 04.11.2019
5012 Mist 9 986 93 5000 4.1 200 06:33 04.11.2019
5013 Clouds 9 985 93 10000 3.1 240 05:48 04.11.2019
5014 Mist 9 985 93 4200 3.1 230 04:43 04.11.2019
5015 Clouds 10 985 100 7000 5.7 240 04:21 04.11.2019
5016 Clouds 10 985 100 7000 5.7 240 04:21 04.11.2019
5017 Mist 11 985 100 5000 4.6 240 02:32 04.11.2019
5018 Mist 11 984 100 5000 1.5 170 01:22 04.11.2019
5019 Clouds 11 984 93 8000 3.1 120 00:43 04.11.2019
5020 Mist 11 983 100 5000 1 0 00:21 04.11.2019
5021 Clouds 11 984 100 6000 4.1 90 23:44 03.11.2019
5022 Clouds 11 983 93 7000 2.6 110 23:22 03.11.2019
5023 Rain 11 985 93 4500 3.1 90 22:59 03.11.2019
5024 Rain 11 985 93 4500 3.1 90 22:41 03.11.2019
5025 Rain 11 984 93 5000 3.1 100 22:21 03.11.2019
5026 Rain 11 984 93 5000 3.1 100 21:59 03.11.2019
5027 Rain 11 985 93 9000 2.6 90 21:41 03.11.2019
5028 Rain 10 984 100 7000 2.6 70 21:21 03.11.2019
5029 Rain 10 985 93 10000 3.1 90 20:56 03.11.2019
5030 Rain 10 985 93 10000 3.1 90 20:37 03.11.2019
5031 Rain 11 984 100 7000 3.1 70 20:18 03.11.2019
5032 Drizzle 11 986 87 10000 2.6 110 19:56 03.11.2019
5033 Drizzle 11 986 87 10000 2.6 110 19:38 03.11.2019
5034 Rain 11 985 93 10000 2.1 80 19:19 03.11.2019
5035 Drizzle 11 986 87 10000 2.1 110 18:39 03.11.2019
5036 Rain 11 985 87 10000 2.1 90 18:19 03.11.2019
5037 Rain 11 985 87 10000 2.1 90 17:59 03.11.2019
5038 Clouds 11 986 87 10000 3.1 110 17:41 03.11.2019
5039 Clouds 11 985 87 10000 2.1 110 17:19 03.11.2019
5040 Clouds 12 985 81 10000 2.1 100 16:56 03.11.2019
5041 Clouds 12 985 81 10000 2.1 100 16:38 03.11.2019
5042 Clouds 12 984 81 10000 2.6 110 16:20 03.11.2019
5043 Clouds 12 984 81 10000 2.6 110 15:57 03.11.2019
5044 Clouds 12 986 76 10000 2.1 150 15:39 03.11.2019
5045 Clouds 12 985 81 10000 3.1 150 15:20 03.11.2019
5046 Clouds 12 986 81 10000 3.1 170 14:42 03.11.2019
5047 Clouds 13 985 81 10000 2.6 160 14:19 03.11.2019
5048 Clouds 13 985 81 10000 2.6 160 13:58 03.11.2019
5049 Clouds 12 985 81 10000 3.6 170 13:40 03.11.2019
5050 Clouds 12 985 76 10000 2.6 170 13:18 03.11.2019
5051 Clouds 12 986 81 10000 3.1 190 12:39 03.11.2019
5052 Clouds 12 985 81 10000 3.1 180 12:20 03.11.2019
5053 Clouds 12 985 81 10000 3.1 180 12:20 03.11.2019
5054 Clouds 12 985 81 10000 3.1 180 12:20 03.11.2019
5055 Clouds 12 986 87 10000 3.6 190 11:58 03.11.2019
5056 Clouds 11 986 87 10000 3.6 190 11:40 03.11.2019
5057 Clouds 11 985 87 10000 3.6 180 11:20 03.11.2019
5058 Clouds 11 985 87 10000 3.6 180 11:20 03.11.2019
5059 Clouds 11 986 87 10000 4.1 160 10:55 03.11.2019
5060 Clouds 10 986 87 10000 4.1 160 10:36 03.11.2019
5061 Clouds 10 985 87 10000 3.6 160 10:18 03.11.2019
5062 Clouds 10 985 87 10000 3.6 160 10:18 03.11.2019
5063 Clouds 10 985 87 10000 2.6 150 09:42 03.11.2019
5064 Rain 10 984 87 10000 3.6 160 09:23 03.11.2019
5065 Drizzle 9 985 87 10000 3.6 170 08:56 03.11.2019
5066 Rain 9 984 93 10000 3.1 160 08:36 03.11.2019
5067 Drizzle 9 984 93 10000 3.6 170 08:18 03.11.2019
5068 Clouds 10 985 87 10000 3.1 160 07:44 03.11.2019
5069 Drizzle 10 984 87 10000 4.6 170 07:20 03.11.2019
5070 Drizzle 10 984 87 10000 4.6 170 07:20 03.11.2019
5071 Clouds 10 984 87 10000 4.1 170 06:39 03.11.2019
5072 Clouds 10 985 81 10000 2.6 160 05:54 03.11.2019
5073 Clouds 10 984 87 10000 4.1 160 05:34 03.11.2019
5074 Clouds 10 985 81 10000 4.1 170 04:52 03.11.2019
5075 Clouds 10 984 81 10000 5.1 170 03:58 03.11.2019
5076 Clouds 10 984 81 10000 5.1 180 03:19 03.11.2019
5077 Rain 10 984 87 10000 4.6 170 02:23 03.11.2019
5078 Rain 11 985 81 10000 4.6 190 01:49 03.11.2019
5079 Rain 11 984 93 10000 5.1 180 01:25 03.11.2019
5080 Clouds 11 985 71 10000 5.7 190 00:59 03.11.2019
5081 Clouds 11 985 71 10000 5.7 190 00:38 03.11.2019
5082 Drizzle 11 984 81 10000 7.2 190 00:20 03.11.2019
5083 Clouds 12 985 76 10000 5.7 180 23:54 02.11.2019
5084 Drizzle 12 984 76 10000 6.7 190 23:36 02.11.2019
5085 Clouds 12 984 76 10000 7.2 190 23:18 02.11.2019
5086 Clouds 12 985 76 10000 5.7 180 22:54 02.11.2019
5087 Clouds 12 984 76 10000 6.7 180 22:36 02.11.2019
5088 Clouds 12 984 76 10000 7.2 180 22:18 02.11.2019
5089 Clouds 12 985 76 10000 6.7 180 21:55 02.11.2019
5090 Clouds 12 985 76 10000 6.7 180 21:36 02.11.2019
5091 Drizzle 12 984 81 10000 6.7 180 21:18 02.11.2019
5092 Drizzle 12 984 81 10000 6.7 180 21:18 02.11.2019
5093 Clouds 12 985 76 10000 5.7 180 20:41 02.11.2019
5094 Clouds 12 986 81 10000 4.1 160 20:22 02.11.2019
5095 Clouds 12 984 71 10000 7.2 180 19:59 02.11.2019
5096 Clouds 12 986 81 10000 4.1 160 19:38 02.11.2019
5097 Clouds 12 984 81 10000 5.7 170 19:19 02.11.2019
5098 Clouds 11 986 76 10000 4.1 180 18:54 02.11.2019
5099 Clouds 11 986 76 10000 4.1 180 18:36 02.11.2019
5100 Clouds 11 985 76 10000 5.1 160 18:18 02.11.2019
5101 Clouds 11 986 81 10000 3.1 180 17:55 02.11.2019
5102 Clouds 11 986 81 10000 3.1 180 17:36 02.11.2019
5103 Rain 12 985 71 10000 4.1 170 17:18 02.11.2019
5104 Clouds 12 986 76 10000 4.1 190 16:40 02.11.2019
5105 Rain 12 986 81 10000 4.6 170 16:20 02.11.2019
5106 Clouds 12 987 76 10000 4.6 200 15:44 02.11.2019
5107 Rain 12 986 81 10000 5.7 190 15:22 02.11.2019
5108 Rain 12 986 81 10000 5.7 190 14:59 02.11.2019
5109 Clouds 12 987 76 10000 4.1 220 14:41 02.11.2019
5110 Rain 12 987 81 10000 5.1 200 14:22 02.11.2019
5111 Rain 12 987 87 10000 5.7 210 13:55 02.11.2019
5112 Clouds 12 987 87 10000 5.7 210 13:37 02.11.2019
5113 Clouds 12 987 87 10000 7.7 230 13:18 02.11.2019
5114 Clouds 13 987 77 10000 5.1 220 12:40 02.11.2019
5115 Clouds 14 987 82 10000 8.2 210 12:22 02.11.2019
5116 Clouds 14 986 87 10000 5.7 230 11:57 02.11.2019
5117 Clouds 14 986 87 10000 5.7 230 11:38 02.11.2019
5118 Clouds 14 986 82 10000 5.7 210 11:19 02.11.2019
5119 Clouds 14 986 93 10000 4.6 220 10:44 02.11.2019
5120 Clouds 13 986 87 10000 6.7 220 10:25 02.11.2019
5121 Drizzle 13 986 93 3700 3.6 200 09:56 02.11.2019
5122 Drizzle 13 986 93 3700 3.6 200 09:38 02.11.2019
5123 Rain 13 986 96 0 2.24 237 09:18 02.11.2019
5124 Rain 13 986 100 3700 4.1 190 08:42 02.11.2019
5125 Rain 13 986 93 3000 4.1 170 08:21 02.11.2019
5126 Rain 13 986 93 3000 4.1 170 07:47 02.11.2019
5127 Clouds 13 986 100 10000 4.1 200 07:28 02.11.2019
5128 Clouds 13 986 100 10000 4.1 200 07:28 02.11.2019
5129 Drizzle 12 987 100 4000 4.1 170 06:54 02.11.2019
5130 Rain 12 986 100 10000 4.6 180 06:29 02.11.2019
5131 Drizzle 12 987 93 4300 4.1 170 05:56 02.11.2019
5132 Drizzle 12 987 100 4300 4.1 180 05:20 02.11.2019
5133 Fog 11 989 93 900 3.1 160 04:21 02.11.2019
5134 Fog 11 989 93 900 3.1 160 04:21 02.11.2019
5135 Drizzle 11 990 93 5000 3.1 170 03:47 02.11.2019
5136 Mist 11 990 100 3000 4.1 170 02:40 02.11.2019
5137 Drizzle 10 992 93 2500 3.1 160 01:44 02.11.2019
5138 Rain 10 991 100 4900 3.6 180 01:23 02.11.2019
5139 Drizzle 10 993 100 4000 3.6 160 00:51 02.11.2019
5140 Drizzle 10 993 93 2200 4.1 160 00:26 02.11.2019
5141 Drizzle 9 994 93 3500 4.1 160 23:48 01.11.2019
5142 Mist 9 993 100 2400 3.6 160 23:22 01.11.2019
5143 Mist 9 993 100 2400 3.6 160 22:58 01.11.2019
5144 Drizzle 9 995 100 3000 3.6 150 22:39 01.11.2019
5145 Mist 8 994 100 2600 4.1 160 22:20 01.11.2019
5146 Drizzle 8 996 93 3000 3.6 150 21:41 01.11.2019
5147 Mist 8 995 100 4400 3.6 150 21:23 01.11.2019
5148 Drizzle 8 996 100 3900 3.6 150 20:57 01.11.2019
5149 Drizzle 7 997 100 3000 4.1 160 20:39 01.11.2019
5150 Drizzle 7 996 100 3100 3.6 150 20:19 01.11.2019
5151 Clouds 7 998 93 6000 3.6 160 19:56 01.11.2019
5152 Clouds 7 998 93 6000 3.6 160 19:37 01.11.2019
5153 Drizzle 7 998 100 2400 4.1 150 19:19 01.11.2019
5154 Drizzle 6 1000 100 6000 4.1 160 18:39 01.11.2019
5155 Drizzle 6 1000 100 6000 4.1 160 18:39 01.11.2019
5156 Mist 6 999 100 2500 4.6 150 18:21 01.11.2019
5157 Drizzle 6 1000 93 6000 4.1 150 17:55 01.11.2019
5158 Drizzle 6 1000 93 6000 4.1 150 17:37 01.11.2019
5159 Mist 6 1000 93 2700 3.6 150 17:19 01.11.2019
5160 Mist 6 1000 93 2700 3.6 150 17:19 01.11.2019
5161 Drizzle 6 1002 93 4000 4.1 150 16:38 01.11.2019
5162 Drizzle 6 1001 100 3000 4.1 150 16:19 01.11.2019
5163 Drizzle 6 1003 93 7000 4.1 160 15:55 01.11.2019
5164 Drizzle 6 1003 93 7000 4.1 160 15:36 01.11.2019
5165 Rain 6 1002 93 3100 4.1 150 15:18 01.11.2019
5166 Drizzle 5 1004 86 7000 3.6 150 14:42 01.11.2019
5167 Drizzle 5 1004 93 3500 4.1 150 14:24 01.11.2019
5168 Drizzle 5 1004 93 2800 4.1 150 13:57 01.11.2019
5169 Drizzle 5 1004 93 3500 4.1 150 13:57 01.11.2019
5170 Drizzle 5 1004 93 2800 4.1 150 13:38 01.11.2019
5171 Rain 5 1005 86 5000 3.6 160 13:20 01.11.2019
5172 Drizzle 5 1007 86 8000 4.6 160 12:43 01.11.2019
5173 Drizzle 5 1007 80 10000 3.6 150 12:25 01.11.2019
5174 Clouds 4 1007 86 10000 3.1 150 11:59 01.11.2019
5175 Clouds 4 1007 86 10000 3.1 150 11:40 01.11.2019
5176 Clouds 4 1007 80 10000 3.1 140 11:22 01.11.2019
5177 Clouds 3 1009 74 10000 3.1 150 10:42 01.11.2019
5178 Clouds 3 1009 74 10000 3.6 150 10:22 01.11.2019
5179 Clouds 2 1010 86 10000 3.6 150 09:57 01.11.2019
5180 Clouds 2 1010 86 10000 3.6 150 09:39 01.11.2019
5181 Clouds 2 1010 86 10000 2.6 140 09:20 01.11.2019
5182 Clouds 1 1011 74 10000 2.6 120 08:45 01.11.2019
5183 Clouds 0 1010 77 10000 2.6 120 08:22 01.11.2019
5184 Clouds 0 1011 76 10000 3.1 120 07:57 01.11.2019
5185 Clouds 0 1011 76 10000 3.1 120 07:38 01.11.2019
5186 Clouds 0 1011 76 10000 2.6 120 07:20 01.11.2019
5187 Fog 0 1013 92 10000 2.1 130 06:47 01.11.2019
5188 Clouds 0 1013 76 10000 3.1 120 06:22 01.11.2019
5189 Fog 0 1015 92 10000 2.1 120 05:44 01.11.2019
5190 Fog 0 1015 92 10000 2.1 120 05:44 01.11.2019
5191 Clouds 0 1014 78 10000 2.1 110 04:28 01.11.2019
5192 Clouds 0 1016 78 8000 3.1 110 03:24 01.11.2019
5193 Clouds 0 1019 77 10000 3.1 120 01:37 01.11.2019
5194 Clouds 1 1020 80 10000 3.1 120 00:42 01.11.2019
5195 Clear 1 1019 86 9000 3.1 100 00:19 01.11.2019
5196 Clouds 1 1021 80 10000 3.1 110 23:43 31.10.2019
5197 Clear 2 1020 86 10000 2.1 110 23:23 31.10.2019
5198 Clear 2 1021 80 10000 3.1 130 22:57 31.10.2019
5199 Clear 2 1021 80 10000 3.1 130 22:39 31.10.2019
5200 Clear 2 1020 77 10000 3.1 100 22:21 31.10.2019
5201 Clear 2 1022 77 10000 2.1 120 21:44 31.10.2019
5202 Clear 2 1021 77 10000 3.1 90 21:21 31.10.2019
5203 Clear 2 1022 86 10000 2.6 100 20:57 31.10.2019
5204 Clear 2 1022 86 10000 2.6 100 20:39 31.10.2019
5205 Clear 3 1022 77 10000 2.1 90 20:21 31.10.2019
5206 Clear 3 1023 77 10000 2.6 90 19:42 31.10.2019
5207 Clear 3 1022 77 10000 2.1 100 19:23 31.10.2019
5208 Clear 4 1022 77 10000 2.1 100 18:58 31.10.2019
5209 Clouds 4 1023 77 10000 3.1 110 18:39 31.10.2019
5210 Clear 4 1022 77 10000 2.6 90 18:20 31.10.2019
5211 Clouds 5 1023 75 10000 2.6 110 17:43 31.10.2019
5212 Clouds 5 1023 75 10000 2.6 110 17:43 31.10.2019
5213 Clear 6 1022 70 10000 2.1 100 17:22 31.10.2019
5214 Clear 6 1022 70 10000 2.1 100 16:59 31.10.2019
5215 Clouds 7 1023 65 10000 3.1 100 16:40 31.10.2019
5216 Clear 8 1022 61 10000 3.1 110 16:20 31.10.2019
5217 Clear 8 1023 61 10000 3.6 100 15:58 31.10.2019
5218 Clear 8 1023 61 10000 3.6 100 15:39 31.10.2019
5219 Clear 8 1023 61 10000 3.6 110 15:20 31.10.2019
5220 Clouds 8 1024 61 10000 4.1 110 14:56 31.10.2019
5221 Clouds 8 1024 61 10000 4.1 110 14:38 31.10.2019
5222 Clear 8 1023 65 10000 4.1 100 14:20 31.10.2019
5223 Clear 8 1023 65 10000 4.1 100 13:57 31.10.2019
5224 Clouds 8 1025 63 10000 3.6 120 13:38 31.10.2019
5225 Clear 8 1024 65 10000 4.1 110 13:19 31.10.2019
5226 Clouds 8 1026 56 10000 3.6 120 12:54 31.10.2019
5227 Clouds 7 1026 56 10000 3.6 120 12:36 31.10.2019
5228 Clear 7 1025 75 10000 3.6 90 12:18 31.10.2019
5229 Clouds 6 1026 70 10000 3.6 120 11:43 31.10.2019
5230 Clear 5 1025 75 10000 3.1 120 11:19 31.10.2019
5231 Clear 5 1025 75 10000 3.1 120 11:19 31.10.2019
5232 Clouds 4 1026 86 10000 3.1 110 10:57 31.10.2019
5233 Clouds 4 1026 86 10000 3.1 110 10:38 31.10.2019
5234 Clear 3 1026 86 10000 3.1 90 10:20 31.10.2019
5235 Clouds 1 1027 100 9000 2.1 90 09:44 31.10.2019
5236 Fog 1 1027 72 8000 1.5 90 09:19 31.10.2019
5237 Fog 0 1027 72 300 1 80 08:57 31.10.2019
5238 Fog 0 1027 72 300 1 80 08:39 31.10.2019
5239 Clear 0 1026 100 6000 2.1 90 08:20 31.10.2019
5240 Fog -1 1026 80 400 1.5 80 07:45 31.10.2019
5241 Fog 0 1026 80 800 1.5 90 07:24 31.10.2019
5242 Fog -1 1026 80 10000 1.5 90 06:51 31.10.2019
5243 Mist -1 1026 100 4100 2.6 70 06:30 31.10.2019
5244 Mist 0 1026 92 5000 3.1 60 05:19 31.10.2019
5245 Mist 0 1026 92 5000 3.1 60 05:19 31.10.2019
5246 Fog 0 1028 100 10000 2.1 70 02:49 31.10.2019
5247 Clear 0 1027 100 8000 2.6 60 02:22 31.10.2019
5248 Fog 0 1028 81 10000 1.5 80 00:51 31.10.2019
5249 Clear 1 1028 81 9000 2.1 50 00:25 31.10.2019
5250 Fog 1 1028 81 10000 1 90 23:42 30.10.2019
5251 Clear 1 1028 80 10000 1.5 80 23:23 30.10.2019
5252 Fog 1 1029 80 10000 1.5 80 22:42 30.10.2019
5253 Clear 2 1028 80 10000 2.1 70 22:19 30.10.2019
5254 Clear 2 1029 80 10000 1.5 80 21:55 30.10.2019
5255 Clear 2 1029 80 10000 1.5 80 21:55 30.10.2019
5256 Clear 2 1029 80 10000 1.5 80 21:37 30.10.2019
5257 Clear 2 1028 80 10000 2.1 80 21:18 30.10.2019
5258 Clouds 3 1029 93 10000 1.5 80 20:58 30.10.2019
5259 Clouds 3 1029 93 10000 1.5 80 20:39 30.10.2019
5260 Clear 3 1028 76 10000 2.6 70 20:21 30.10.2019
5261 Clear 3 1029 76 10000 1.5 80 19:54 30.10.2019
5262 Clear 3 1028 76 10000 1.5 80 19:36 30.10.2019
5263 Clear 4 1028 86 10000 1.5 70 19:18 30.10.2019
5264 Clear 5 1028 80 10000 2.6 50 18:39 30.10.2019
5265 Clear 5 1028 76 10000 2.6 50 18:19 30.10.2019
5266 Clouds 5 1029 75 10000 1.5 70 17:57 30.10.2019
5267 Clouds 6 1029 75 10000 1.5 70 17:38 30.10.2019
5268 Clear 6 1028 67 10000 2.6 80 17:18 30.10.2019
5269 Clouds 7 1029 61 10000 2.6 80 16:55 30.10.2019
5270 Clouds 8 1029 61 10000 2.6 80 16:37 30.10.2019
5271 Clear 8 1028 57 10000 3.1 90 16:18 30.10.2019
5272 Clouds 9 1029 65 10000 3.1 80 15:54 30.10.2019
5273 Clear 9 1028 57 10000 3.1 110 15:36 30.10.2019
5274 Clear 9 1028 57 10000 3.6 90 15:18 30.10.2019
5275 Clouds 9 1029 57 10000 3.1 90 14:41 30.10.2019
5276 Clouds 9 1029 61 10000 3.1 110 14:22 30.10.2019
5277 Clouds 9 1030 57 10000 3.1 90 13:58 30.10.2019
5278 Clouds 9 1030 57 10000 3.1 90 13:40 30.10.2019
5279 Clouds 9 1030 61 10000 3.1 90 13:20 30.10.2019
5280 Clouds 9 1030 61 10000 3.1 100 12:56 30.10.2019
5281 Clouds 9 1030 61 10000 3.1 100 12:37 30.10.2019
5282 Clouds 9 1030 70 10000 3.6 110 12:19 30.10.2019
5283 Clouds 8 1031 65 10000 2.6 120 11:41 30.10.2019
5284 Clouds 7 1030 75 10000 2.6 90 11:22 30.10.2019
5285 Clouds 6 1031 81 10000 1.5 130 10:45 30.10.2019
5286 Clouds 6 1031 81 10000 1.5 130 10:45 30.10.2019
5287 Clouds 5 1030 80 10000 3.6 80 10:26 30.10.2019
5288 Clouds 4 1030 80 10000 3.6 80 09:58 30.10.2019
5289 Clouds 4 1030 80 10000 3.6 80 09:58 30.10.2019
5290 Clouds 3 1031 86 10000 1 100 09:39 30.10.2019
5291 Clouds 2 1030 93 10000 2.6 80 09:21 30.10.2019
5292 Clouds 1 1031 72 10000 1 100 08:42 30.10.2019
5293 Clear 0 1030 75 10000 2.6 80 08:23 30.10.2019
5294 Fog 0 1030 92 10000 0.5 60 07:59 30.10.2019
5295 Fog 0 1030 92 10000 0.5 60 07:39 30.10.2019
5296 Clear 0 1030 92 10000 1 60 06:46 30.10.2019
5297 Clear 0 1029 75 10000 2.1 70 06:27 30.10.2019
5298 Clear 0 1030 92 10000 1.5 70 05:55 30.10.2019
5299 Clear 0 1030 92 10000 1.5 70 05:37 30.10.2019
5300 Clear 1 1030 92 10000 0.5 30 03:51 30.10.2019
5301 Clear 1 1030 73 10000 2.6 60 03:21 30.10.2019
5302 Clear 1 1030 92 10000 0.5 270 02:48 30.10.2019
5303 Clear 2 1030 70 10000 0.5 30 01:43 30.10.2019
5304 Clear 2 1030 70 10000 1 60 00:37 30.10.2019
5305 Clear 2 1030 70 7000 2.1 50 00:19 30.10.2019
5306 Clear 2 1030 70 10000 4.65 105 23:39 29.10.2019
5307 Clear 3 1029 93 10000 1.5 60 23:19 29.10.2019
5308 Clear 3 1030 69 10000 0.5 80 22:41 29.10.2019
5309 Clear 3 1029 69 10000 1.5 50 22:19 29.10.2019
5310 Clear 3 1029 69 10000 1.5 50 22:19 29.10.2019
5311 Clear 3 1030 93 10000 2.1 60 21:55 29.10.2019
5312 Clear 3 1030 93 10000 2.1 60 21:37 29.10.2019
5313 Clear 4 1029 93 10000 0.5 30 21:19 29.10.2019
5314 Clear 4 1029 93 10000 0.5 30 20:42 29.10.2019
5315 Clouds 4 1029 93 10000 1.5 70 20:23 29.10.2019
5316 Clouds 4 1029 93 10000 1.5 70 19:59 29.10.2019
5317 Clouds 5 1029 93 10000 4.89 81 19:40 29.10.2019
5318 Clouds 5 1028 86 10000 1.5 50 19:22 29.10.2019
5319 Clouds 5 1029 86 10000 1 50 18:58 29.10.2019
5320 Clouds 6 1029 86 10000 1 50 18:40 29.10.2019
5321 Clouds 6 1028 81 10000 2.1 40 18:21 29.10.2019
5322 Clouds 7 1028 81 10000 1.5 40 17:57 29.10.2019
5323 Clouds 7 1028 81 10000 1.5 40 17:39 29.10.2019
5324 Clouds 8 1027 70 10000 2.1 60 17:21 29.10.2019
5325 Clouds 9 1028 70 10000 3.1 50 16:57 29.10.2019
5326 Clouds 9 1028 70 10000 3.1 50 16:38 29.10.2019
5327 Clouds 9 1027 66 10000 3.6 60 16:18 29.10.2019
5328 Clouds 10 1027 66 10000 4.6 50 15:42 29.10.2019
5329 Clouds 10 1027 66 10000 4.1 60 15:22 29.10.2019
5330 Clouds 10 1027 66 10000 4.1 60 14:59 29.10.2019
5331 Clouds 10 1027 66 10000 5.1 50 14:41 29.10.2019
5332 Clouds 10 1026 66 10000 4.6 60 14:23 29.10.2019
5333 Clouds 11 1026 66 10000 4.6 60 13:57 29.10.2019
5334 Clouds 10 1027 66 10000 5.1 80 13:39 29.10.2019
5335 Clouds 10 1027 66 10000 4.1 60 13:21 29.10.2019
5336 Clouds 10 1027 66 10000 3.6 90 12:43 29.10.2019
5337 Clouds 10 1026 71 10000 4.1 50 12:25 29.10.2019
5338 Clouds 10 1027 76 10000 4.1 80 11:55 29.10.2019
5339 Clouds 10 1027 76 10000 4.1 80 11:37 29.10.2019
5340 Rain 10 1026 76 10000 3.1 60 11:18 29.10.2019
5341 Clouds 9 1026 76 10000 3.6 60 10:57 29.10.2019
5342 Clouds 9 1026 76 10000 3.6 60 10:38 29.10.2019
5343 Clouds 8 1026 81 10000 2.1 80 10:19 29.10.2019
5344 Clouds 7 1026 100 10000 0.5 0 09:42 29.10.2019
5345 Rain 6 1025 100 6000 0.5 260 09:23 29.10.2019
5346 Rain 7 1025 100 6000 0.5 260 08:57 29.10.2019
5347 Clouds 6 1025 93 10000 0.5 290 08:39 29.10.2019
5348 Fog 3 1024 69 600 0.5 0 08:20 29.10.2019
5349 Clouds 2 1024 100 10000 1 30 07:48 29.10.2019
5350 Fog 2 1024 69 800 5.25 34 07:21 29.10.2019
5351 Clouds 2 1023 93 10000 0.5 270 06:54 29.10.2019
5352 Mist 2 1023 69 4400 1 0 06:33 29.10.2019
5353 Clouds 3 1023 100 10000 1 330 05:59 29.10.2019
5354 Clouds 3 1023 100 10000 1 330 05:39 29.10.2019
5355 Clouds 4 1023 93 10000 1.5 250 04:52 29.10.2019
5356 Clouds 4 1023 100 10000 1.5 340 03:31 29.10.2019
5357 Fog 4 1023 100 500 1.5 230 01:57 29.10.2019
5358 Clouds 5 1022 93 10000 0.5 0 01:36 29.10.2019
5359 Clouds 5 1022 93 10000 1.5 290 00:54 29.10.2019
5360 Clouds 5 1023 100 10000 1.5 60 00:26 29.10.2019
5361 Clouds 5 1022 93 10000 1.5 290 23:40 28.10.2019
5362 Clouds 5 1023 93 10000 1.5 280 23:20 28.10.2019
5363 Clouds 5 1022 87 10000 2.1 240 22:57 28.10.2019
5364 Clouds 5 1023 100 10000 1 310 22:36 28.10.2019
5365 Clouds 5 1022 93 10000 1 240 22:18 28.10.2019
5366 Clouds 6 1022 93 10000 1 300 21:54 28.10.2019
5367 Clouds 6 1022 93 10000 1 300 21:54 28.10.2019
5368 Clouds 6 1022 93 10000 1 300 21:36 28.10.2019
5369 Clouds 6 1022 93 10000 0.5 250 21:18 28.10.2019
5370 Clouds 6 1022 93 10000 0.5 0 20:42 28.10.2019
5371 -273 0 0 0 0 0 20:24 28.10.2019
5372 Clouds 6 1023 100 10000 2.1 260 20:24 28.10.2019
5373 Clouds 7 1022 87 10000 0.5 300 19:58 28.10.2019
5374 Clouds 7 1022 87 10000 0.5 300 19:39 28.10.2019
5375 Clouds 7 1022 93 10000 1.5 320 19:20 28.10.2019
5376 Clouds 7 1021 87 10000 1 250 18:58 28.10.2019
5377 Clouds 7 1021 87 10000 1 250 18:39 28.10.2019
5378 Rain 8 1022 87 10000 1 280 18:21 28.10.2019
5379 Clouds 8 1021 81 10000 1 350 17:56 28.10.2019
5380 Clouds 9 1021 81 10000 1 350 17:38 28.10.2019
5381 Drizzle 9 1022 76 10000 4.1 310 17:19 28.10.2019
5382 Clouds 10 1021 76 10000 1.5 300 16:56 28.10.2019
5383 Clouds 10 1021 76 10000 1.5 300 16:38 28.10.2019
5384 Rain 10 1022 71 10000 3.6 330 16:19 28.10.2019
5385 Clouds 10 1021 76 10000 2.6 360 15:56 28.10.2019
5386 Clouds 11 1021 76 10000 2.6 360 15:38 28.10.2019
5387 Clouds 11 1022 66 10000 5.7 320 15:19 28.10.2019
5388 Clouds 11 1021 62 10000 5.7 310 14:56 28.10.2019
5389 Clouds 11 1021 62 10000 5.7 310 14:37 28.10.2019
5390 Rain 11 1022 66 10000 3.6 300 14:18 28.10.2019
5391 Clouds 12 1021 66 10000 6.2 310 13:54 28.10.2019
5392 Clouds 12 1022 71 10000 3.6 280 13:36 28.10.2019
5393 Rain 12 1022 71 6000 6.7 290 13:18 28.10.2019
5394 Clouds 12 1021 62 10000 6.2 300 12:41 28.10.2019
5395 Clouds 11 1022 62 10000 4.1 330 12:20 28.10.2019
5396 Clouds 11 1022 62 10000 4.1 330 12:20 28.10.2019
5397 Clouds 11 1021 81 10000 2.6 250 11:40 28.10.2019
5398 Clouds 11 1021 81 10000 2.6 250 11:21 28.10.2019
5399 Rain 10 1021 76 9000 6.2 310 10:57 28.10.2019
5400 Rain 10 1021 76 9000 6.2 310 10:38 28.10.2019
5401 Rain 10 1022 81 10000 3.1 280 10:20 28.10.2019
5402 Clouds 9 1021 81 10000 3.1 280 09:55 28.10.2019
5403 Clouds 9 1021 81 10000 3.1 280 09:37 28.10.2019
5404 Clouds 8 1022 87 10000 2.6 240 09:18 28.10.2019
5405 Clouds 7 1020 87 10000 2.1 230 08:56 28.10.2019
5406 Clouds 7 1020 87 10000 2.1 230 08:56 28.10.2019
5407 Clouds 7 1020 87 10000 2.1 230 08:37 28.10.2019
5408 Clouds 7 1020 87 10000 2.1 230 08:37 28.10.2019
5409 Rain 7 1021 100 10000 3.1 240 08:18 28.10.2019
5410 Rain 7 1020 87 10000 6.7 300 07:54 28.10.2019
5411 Rain 7 1020 87 10000 6.7 300 07:36 28.10.2019
5412 Clouds 7 1021 93 10000 2.6 260 07:18 28.10.2019
5413 Clouds 7 1020 93 10000 3.1 260 06:39 28.10.2019
5414 Rain 8 1021 87 10000 3.1 260 05:29 28.10.2019
5415 Clouds 7 1019 87 10000 3.1 250 03:44 28.10.2019
5416 Clouds 7 1019 87 10000 3.6 260 02:46 28.10.2019
5417 Clouds 8 1019 87 10000 4.1 270 01:52 28.10.2019
5418 Clouds 8 1019 87 10000 4.1 270 01:52 28.10.2019
5419 Clouds 8 1019 87 10000 3.6 250 00:47 28.10.2019
5420 Clouds 8 1020 87 10000 4.1 250 00:26 28.10.2019
5421 Clouds 8 1018 81 10000 4.6 240 23:46 27.10.2019
5422 Rain 8 1020 81 10000 3.6 240 23:22 27.10.2019
5423 Clouds 8 1018 87 10000 3.6 230 22:57 27.10.2019
5424 Clouds 8 1018 87 10000 3.6 230 22:57 27.10.2019
5425 Clouds 8 1018 87 10000 3.6 230 22:39 27.10.2019
5426 Clouds 8 1020 87 10000 3.6 240 22:20 27.10.2019
5427 Clouds 8 1018 81 10000 4.1 240 21:57 27.10.2019
5428 Clouds 8 1018 81 10000 4.1 240 21:39 27.10.2019
5429 Rain 8 1020 87 10000 4.1 250 21:20 27.10.2019
5430 Clouds 8 1018 81 10000 4.1 250 20:55 27.10.2019
5431 Clouds 8 1018 81 10000 4.1 250 20:37 27.10.2019
5432 Clouds 8 1020 87 10000 4.1 240 20:19 27.10.2019
5433 Clouds 9 1018 76 10000 5.1 250 19:40 27.10.2019
5434 Clouds 9 1020 87 10000 3.6 240 19:21 27.10.2019
5435 Clouds 9 1018 71 10000 5.7 250 18:58 27.10.2019
5436 Clouds 9 1018 71 10000 5.7 250 18:40 27.10.2019
5437 Clouds 9 1019 81 10000 3.6 240 18:22 27.10.2019
5438 Clouds 10 1017 71 10000 6.2 260 17:58 27.10.2019
5439 Clouds 10 1017 71 10000 6.2 260 17:39 27.10.2019
5440 -273 0 0 0 0 0 17:39 27.10.2019
5441 Clouds 11 1019 71 10000 3.6 260 17:19 27.10.2019
5442 Clouds 11 1019 71 10000 3.6 260 17:19 27.10.2019
5443 Clouds 11 1017 66 10000 7.2 260 16:57 27.10.2019
5444 Clouds 11 1017 66 10000 7.2 260 16:39 27.10.2019
5445 Clouds 11 1019 66 10000 5.1 270 16:20 27.10.2019
5446 Clouds 12 1017 62 10000 9.8 270 15:56 27.10.2019
5447 Clouds 12 1017 62 10000 9.8 270 15:37 27.10.2019
5448 Clouds 12 1018 58 10000 7.7 260 15:19 27.10.2019
5449 Clouds 12 1017 58 10000 9.8 270 14:42 27.10.2019
5450 Clouds 12 1018 66 10000 6.7 270 14:21 27.10.2019
5451 Clouds 12 1017 66 10000 7.2 260 13:58 27.10.2019
5452 Clouds 13 1017 66 10000 7.2 260 13:38 27.10.2019
5453 Clouds 12 1018 66 10000 6.2 250 13:20 27.10.2019
5454 Clouds 12 1017 66 10000 6.7 250 12:55 27.10.2019
5455 Clouds 12 1017 66 10000 6.7 250 12:37 27.10.2019
5456 Clouds 12 1018 66 10000 5.1 250 12:19 27.10.2019
5457 Clouds 12 1016 66 10000 5.7 260 11:41 27.10.2019
5458 Clouds 11 1018 71 10000 5.7 260 11:21 27.10.2019
5459 Rain 11 1016 66 10000 5.1 250 10:45 27.10.2019
5460 Clouds 10 1017 76 10000 4.6 250 10:26 27.10.2019
5461 Clouds 10 1015 76 10000 5.7 240 09:58 27.10.2019
5462 Clouds 10 1015 76 10000 5.7 240 09:39 27.10.2019
5463 Clouds 9 1016 81 10000 4.1 220 09:18 27.10.2019
5464 Clouds 8 1015 70 10000 4.1 240 08:56 27.10.2019
5465 Clouds 8 1015 70 10000 4.1 240 08:37 27.10.2019
5466 Clouds 8 1014 61 10000 4.1 260 08:18 27.10.2019
5467 Clouds 8 1014 61 10000 4.1 260 07:44 27.10.2019
5468 Clouds 8 1015 75 10000 3.6 240 07:24 27.10.2019
5469 Clouds 8 1013 61 10000 5.1 270 06:51 27.10.2019
5470 Clouds 8 1014 75 10000 3.1 250 06:27 27.10.2019
5471 Clouds 9 1012 66 10000 6.7 270 05:41 27.10.2019
5472 Clouds 9 1011 71 10000 6.2 280 04:54 27.10.2019
5473 Rain 10 1009 93 10000 7.7 290 03:24 27.10.2019
5474 Drizzle 11 1008 87 4000 7.2 290 02:21 27.10.2019
5475 Rain 13 1005 87 5000 7.7 230 01:54 27.10.2019
5476 Rain 14 1005 87 6000 6.7 220 01:23 27.10.2019
5477 Rain 15 1006 87 6000 7.2 230 00:51 27.10.2019
5478 Drizzle 15 1006 93 6000 8.2 220 00:28 27.10.2019
5479 Rain 16 1006 77 10000 5.7 230 23:57 26.10.2019
5480 Rain 16 1006 77 10000 5.7 230 23:38 26.10.2019
5481 Clouds 16 1006 77 10000 8.7 220 23:20 26.10.2019
5482 Clouds 16 1006 72 10000 6.7 230 22:56 26.10.2019
5483 Clouds 16 1006 72 10000 6.7 230 22:37 26.10.2019
5484 Clouds 17 1006 67 10000 8.7 230 22:18 26.10.2019
5485 Rain 17 1006 67 10000 6.7 220 21:44 26.10.2019
5486 Clouds 17 1006 67 10000 8.2 210 21:22 26.10.2019
5487 Rain 17 1006 63 10000 6.2 220 20:58 26.10.2019
5488 Drizzle 17 1006 67 10000 7.7 210 20:38 26.10.2019
5489 Clouds 17 1006 67 10000 7.2 200 20:18 26.10.2019
5490 Clouds 17 1006 67 10000 7.2 200 20:18 26.10.2019
5491 Clouds 17 1007 67 10000 6.2 220 19:42 26.10.2019
5492 Clouds 17 1007 63 10000 6.7 210 19:21 26.10.2019
5493 Clouds 17 1007 67 10000 5.1 220 18:57 26.10.2019
5494 Clouds 17 1007 67 10000 5.1 220 18:39 26.10.2019
5495 Rain 17 1007 67 10000 8.7 220 18:19 26.10.2019
5496 Clouds 17 1007 67 10000 5.1 210 17:57 26.10.2019
5497 Clouds 17 1007 67 10000 5.1 210 17:38 26.10.2019
5498 Clouds 17 1007 72 10000 6.7 200 17:20 26.10.2019
5499 Clouds 18 1007 67 10000 7.2 230 16:45 26.10.2019
5500 Clouds 18 1008 72 10000 6.7 210 16:25 26.10.2019
5501 Squall 18 1008 67 10000 9.8 230 15:59 26.10.2019
5502 Squall 18 1008 67 10000 9.8 230 15:39 26.10.2019
5503 Clouds 18 1008 72 10000 8.7 220 15:18 26.10.2019
5504 Clouds 17 1008 72 10000 7.2 220 14:39 26.10.2019
5505 Clouds 17 1009 72 10000 8.7 210 14:19 26.10.2019
5506 Clouds 17 1009 72 10000 8.2 220 13:58 26.10.2019
5507 Clouds 15 1008 77 0 11 225 13:37 26.10.2019
5508 Clouds 15 1008 77 0 11 225 13:19 26.10.2019
5509 Clouds 16 1008 76 0 2.24 171 12:44 26.10.2019
5510 Clouds 16 1010 77 10000 10.3 210 12:21 26.10.2019
5511 Clouds 16 1010 77 10000 10.3 210 11:48 26.10.2019
5512 Clouds 16 1010 77 10000 10.3 210 11:26 26.10.2019
5513 Clouds 16 1010 77 10000 10.3 210 11:26 26.10.2019
5514 Clouds 15 1009 77 10000 8.7 220 10:47 26.10.2019
5515 Clouds 15 1009 82 10000 7.7 200 10:27 26.10.2019
5516 Clouds 15 1009 82 10000 7.7 200 10:27 26.10.2019
5517 Clouds 15 1009 77 10000 8.2 210 09:56 26.10.2019
5518 Clouds 15 1009 77 10000 8.2 210 09:38 26.10.2019
5519 Clouds 15 1009 77 10000 8.7 210 09:20 26.10.2019
5520 Clouds 15 1009 77 10000 8.7 220 08:42 26.10.2019
5521 Clouds 15 1009 77 10000 8.7 210 08:24 26.10.2019
5522 Clouds 15 1009 77 10000 8.2 220 07:44 26.10.2019
5523 Clouds 15 1009 77 10000 10.3 210 07:24 26.10.2019
5524 Clouds 15 1009 77 10000 8.7 220 06:41 26.10.2019
5525 Clouds 15 1009 77 10000 9.8 210 06:18 26.10.2019
5526 Clouds 15 1009 77 10000 9.8 210 05:19 26.10.2019
5527 Clouds 15 1010 77 10000 9.8 200 04:23 26.10.2019
5528 Clouds 15 1010 77 10000 8.7 210 02:45 26.10.2019
5529 Clouds 15 1010 77 10000 9.8 210 01:51 26.10.2019
5530 Clouds 15 1011 82 10000 8.2 200 01:20 26.10.2019
5531 Clouds 15 1012 77 10000 7.2 200 00:23 26.10.2019
5532 Clouds 15 1012 72 10000 7.7 210 23:43 25.10.2019
5533 Clouds 14 1012 77 10000 7.7 190 23:20 25.10.2019
5534 Clouds 14 1012 71 10000 7.2 200 22:40 25.10.2019
5535 Clouds 14 1013 76 10000 7.2 200 22:22 25.10.2019
5536 Clouds 14 1013 76 10000 7.2 200 21:58 25.10.2019
5537 Clouds 14 1013 76 10000 6.7 190 21:39 25.10.2019
5538 Clouds 13 1013 71 10000 7.2 190 21:19 25.10.2019
5539 Clouds 13 1013 71 10000 7.2 190 21:19 25.10.2019
5540 Clouds 14 1014 76 10000 5.7 180 20:55 25.10.2019
5541 Clouds 13 1014 76 10000 5.7 180 20:37 25.10.2019
5542 Clouds 13 1014 71 10000 6.2 180 20:18 25.10.2019
5543 Clouds 13 1015 82 10000 4.6 180 19:43 25.10.2019
5544 Clouds 13 1015 82 10000 5.1 180 19:23 25.10.2019
5545 Clouds 13 1015 76 10000 4.1 190 18:44 25.10.2019
5546 Clouds 14 1015 76 10000 3.6 190 18:22 25.10.2019
5547 Clouds 14 1016 76 10000 3.6 220 17:41 25.10.2019
5548 Rain 14 1016 76 10000 6.7 210 17:21 25.10.2019
5549 Clouds 14 1016 76 10000 6.2 230 16:56 25.10.2019
5550 Rain 15 1016 72 10000 6.7 210 16:37 25.10.2019
5551 Clouds 15 1016 72 10000 7.7 220 16:19 25.10.2019
5552 Clouds 15 1016 87 10000 4.1 250 15:40 25.10.2019
5553 Clouds 15 1016 82 10000 6.7 210 15:22 25.10.2019
5554 Clouds 14 1016 82 10000 5.7 230 14:58 25.10.2019
5555 Clouds 14 1016 82 10000 5.7 230 14:39 25.10.2019
5556 Clouds 14 1016 82 10000 7.2 210 14:20 25.10.2019
5557 Clouds 14 1016 82 10000 5.1 220 13:44 25.10.2019
5558 Clouds 14 1016 82 10000 6.2 230 13:24 25.10.2019
5559 Clouds 14 1015 87 10000 5.7 230 12:57 25.10.2019
5560 Clouds 14 1016 82 10000 5.7 210 12:39 25.10.2019
5561 Clouds 13 1016 87 10000 6.2 210 12:19 25.10.2019
5562 Clouds 13 1015 87 10000 6.2 220 11:41 25.10.2019
5563 Clouds 13 1015 87 10000 6.7 210 11:23 25.10.2019
5564 Clouds 13 1015 87 10000 6.7 210 10:59 25.10.2019
5565 Clouds 12 1015 87 10000 4.6 230 10:39 25.10.2019
5566 Clouds 12 1015 93 9000 6.2 210 10:21 25.10.2019
5567 Clouds 12 1014 87 10000 5.7 220 09:57 25.10.2019
5568 Clouds 12 1014 87 10000 5.7 220 09:38 25.10.2019
5569 Clouds 12 1014 93 9000 5.7 210 09:19 25.10.2019
5570 Clouds 12 1013 93 10000 4.6 220 08:44 25.10.2019
5571 Clouds 12 1013 93 9000 5.7 220 08:24 25.10.2019
5572 Clouds 12 1012 87 10000 4.6 230 07:52 25.10.2019
5573 Clouds 12 1013 93 8000 5.7 210 07:34 25.10.2019
5574 Clouds 12 1012 93 10000 4.6 230 06:41 25.10.2019
5575 Rain 12 1011 93 8000 4.6 240 05:51 25.10.2019
5576 Clouds 12 1010 93 8000 4.6 230 05:32 25.10.2019
5577 Clouds 12 1010 93 8000 4.6 230 04:42 25.10.2019
5578 Drizzle 13 1011 100 5000 5.1 220 03:29 25.10.2019
5579 Clouds 13 1009 82 10000 5.1 240 01:53 25.10.2019
5580 Clouds 14 1008 87 10000 7.7 230 00:47 25.10.2019
5581 Clouds 14 1008 87 10000 7.2 220 00:20 25.10.2019
5582 Clouds 14 1007 77 10000 5.1 210 23:40 24.10.2019
5583 Rain 15 1007 82 10000 9.3 210 23:22 24.10.2019
5584 Clouds 15 1007 82 10000 4.6 210 22:54 24.10.2019
5585 Clouds 15 1007 82 10000 4.6 210 22:36 24.10.2019
5586 Clouds 15 1007 77 10000 4.6 210 22:18 24.10.2019
5587 Clouds 15 1006 82 10000 4.1 190 21:56 24.10.2019
5588 Clouds 16 1006 82 10000 4.1 190 21:37 24.10.2019
5589 Clouds 16 1006 82 10000 4.1 190 21:37 24.10.2019
5590 Clouds 16 1006 77 10000 5.7 200 21:18 24.10.2019
5591 Clouds 15 1006 82 10000 3.6 180 20:56 24.10.2019
5592 Clouds 15 1006 82 10000 3.6 180 20:37 24.10.2019
5593 Clouds 15 1006 82 10000 4.1 170 20:19 24.10.2019
5594 Clouds 15 1006 82 10000 3.1 190 19:43 24.10.2019
5595 Clouds 15 1006 87 10000 3.1 170 19:23 24.10.2019
5596 Clouds 15 1006 87 10000 3.1 170 18:58 24.10.2019
5597 Clouds 15 1006 87 10000 3.1 180 18:39 24.10.2019
5598 Clouds 16 1005 82 10000 3.6 180 18:21 24.10.2019
5599 Clouds 16 1005 82 10000 3.1 190 17:57 24.10.2019
5600 Clouds 16 1005 82 10000 3.1 190 17:38 24.10.2019
5601 Clouds 17 1005 77 10000 3.6 180 17:19 24.10.2019
5602 Clouds 17 1005 77 10000 3.6 190 16:54 24.10.2019
5603 Clouds 17 1005 77 10000 3.6 190 16:54 24.10.2019
5604 Clouds 17 1005 77 10000 3.6 190 16:36 24.10.2019
5605 -273 0 0 0 0 0 16:18 24.10.2019
5606 Clouds 17 1005 77 10000 3.6 180 15:54 24.10.2019
5607 Clouds 17 1005 77 10000 3.6 180 15:36 24.10.2019
5608 Clouds 17 1005 77 10000 4.1 180 15:18 24.10.2019
5609 Clouds 16 1006 82 10000 4.6 200 14:42 24.10.2019
5610 Clouds 16 1006 82 10000 4.6 190 14:23 24.10.2019
5611 Clouds 16 1006 82 10000 4.1 180 13:58 24.10.2019
5612 Clouds 16 1006 82 10000 3.6 170 13:37 24.10.2019
5613 Clouds 16 1006 87 8000 3.6 170 13:18 24.10.2019
5614 Clouds 15 1006 87 7000 4.6 180 12:56 24.10.2019
5615 Clouds 14 1006 87 7000 4.6 180 12:37 24.10.2019
5616 Clouds 14 1006 87 7000 3.6 190 12:18 24.10.2019
5617 Mist 13 1006 87 5000 3.6 170 11:55 24.10.2019
5618 Mist 13 1006 93 5000 3.1 200 11:36 24.10.2019
5619 Mist 13 1006 87 5000 3.6 180 11:18 24.10.2019
5620 Mist 12 1006 93 3700 3.1 170 10:42 24.10.2019
5621 Mist 12 1006 93 3700 2.6 160 10:23 24.10.2019
5622 Mist 11 1006 93 2500 2.6 160 09:40 24.10.2019
5623 Mist 11 1006 93 2700 1.5 170 09:19 24.10.2019
5624 Mist 11 1006 100 1200 2.6 160 08:58 24.10.2019
5625 Mist 11 1006 100 1200 2.6 160 08:39 24.10.2019
5626 Mist 11 1006 100 1200 3.1 170 08:20 24.10.2019
5627 Mist 11 1006 100 2000 3.1 140 07:47 24.10.2019
5628 Mist 11 1005 100 2600 1.5 100 07:23 24.10.2019
5629 Mist 11 1006 100 1200 2.1 140 06:54 24.10.2019
5630 Mist 11 1005 100 2600 2.1 130 06:36 24.10.2019
5631 Fog 11 1007 100 400 3.6 160 05:55 24.10.2019
5632 Mist 11 1006 93 2900 2.1 120 05:31 24.10.2019
5633 Mist 11 1008 100 2500 1.5 120 04:23 24.10.2019
5634 Mist 11 1008 100 2500 2.1 140 03:35 24.10.2019
5635 Mist 11 1008 93 3500 2.6 100 02:41 24.10.2019
5636 Mist 12 1008 93 3000 1 0 02:20 24.10.2019
5637 Mist 11 1008 93 3000 2.6 110 01:31 24.10.2019
5638 Clouds 11 1010 87 6000 1.5 120 00:56 24.10.2019
5639 Mist 11 1009 100 2500 1.5 80 00:30 24.10.2019
5640 Clouds 11 1010 93 8000 4.1 110 23:57 23.10.2019
5641 Clouds 12 1010 93 8000 4.1 110 23:38 23.10.2019
5642 Mist 12 1009 93 5000 2.1 120 23:19 23.10.2019
5643 Clouds 12 1011 93 10000 3.1 120 22:56 23.10.2019
5644 Mist 12 1010 93 5000 2.6 120 22:37 23.10.2019
5645 Clouds 12 1010 93 6000 2.6 110 22:18 23.10.2019
5646 Clouds 12 1011 93 10000 3.1 120 21:56 23.10.2019
5647 Clouds 12 1011 93 10000 3.1 120 21:37 23.10.2019
5648 Clouds 12 1011 93 6000 3.1 100 21:19 23.10.2019
5649 Clouds 12 1012 87 10000 3.1 120 20:54 23.10.2019
5650 Clouds 12 1011 87 6000 3.1 90 20:36 23.10.2019
5651 Clouds 12 1011 87 7000 3.1 100 20:18 23.10.2019
5652 Clouds 12 1013 87 10000 3.1 110 19:42 23.10.2019
5653 Clouds 12 1012 82 7000 2.6 90 19:19 23.10.2019
5654 Clouds 12 1013 82 10000 3.6 100 18:57 23.10.2019
5655 Clouds 13 1013 82 10000 3.6 100 18:39 23.10.2019
5656 Clouds 13 1012 87 7000 4.1 90 18:19 23.10.2019
5657 Clouds 13 1014 76 10000 3.6 110 17:55 23.10.2019
5658 Clouds 13 1014 76 10000 3.6 110 17:55 23.10.2019
5659 Mist 13 1013 82 5000 4.1 80 17:36 23.10.2019
5660 Clouds 14 1014 76 10000 3.6 110 17:36 23.10.2019
5661 Mist 14 1013 82 5000 4.1 80 17:18 23.10.2019
5662 Clouds 14 1015 87 8000 3.1 80 16:40 23.10.2019
5663 Clouds 14 1014 82 6000 4.1 80 16:21 23.10.2019
5664 Clouds 14 1016 87 6000 3.1 90 15:57 23.10.2019
5665 Clouds 14 1015 82 7000 3.6 70 15:39 23.10.2019
5666 Clouds 14 1016 87 6000 2.6 80 15:20 23.10.2019
5667 Clouds 14 1017 82 6000 2.1 120 14:56 23.10.2019
5668 Clouds 13 1017 82 6000 2.1 120 14:37 23.10.2019
5669 Mist 13 1016 93 5000 2.6 100 14:18 23.10.2019
5670 Mist 12 1017 87 5000 2.6 120 13:43 23.10.2019
5671 Clouds 12 1017 87 7000 3.6 110 13:25 23.10.2019
5672 Clouds 12 1018 93 7000 2.6 110 12:57 23.10.2019
5673 -273 0 0 0 0 0 12:39 23.10.2019
5674 Clouds 11 1018 87 10000 3.6 90 12:19 23.10.2019
5675 Mist 11 1019 93 5000 2.6 110 11:58 23.10.2019
5676 Mist 11 1019 93 5000 2.6 110 11:39 23.10.2019
5677 Mist 10 1020 93 4000 2.6 140 11:21 23.10.2019
5678 Clouds 10 1020 93 6000 1.5 130 10:56 23.10.2019
5679 Clouds 10 1020 93 6000 1.5 130 10:38 23.10.2019
5680 Mist 9 1019 100 4500 1 0 10:18 23.10.2019
5681 Fog 8 1020 93 10000 1 130 09:40 23.10.2019
5682 Fog 7 1020 100 10000 0.5 150 09:22 23.10.2019
5683 Fog 7 1020 100 400 1 120 08:55 23.10.2019
5684 Fog 7 1020 100 400 1 120 08:55 23.10.2019
5685 Fog 6 1020 100 400 1 120 08:37 23.10.2019
5686 Clouds 6 1019 93 9000 0.5 130 08:18 23.10.2019
5687 Fog 6 1020 93 200 3.2 156 07:44 23.10.2019
5688 Fog 6 1020 93 700 1 100 07:20 23.10.2019
5689 Fog 6 1020 100 400 0.5 150 06:43 23.10.2019
5690 Fog 6 1020 100 550 0.5 130 06:19 23.10.2019
5691 Fog 7 1021 100 300 2.12 205 05:20 23.10.2019
5692 Fog 8 1021 93 800 0.5 130 03:58 23.10.2019
5693 Mist 9 1022 93 4000 1 260 02:44 23.10.2019
5694 Clouds 10 1022 93 10000 1.5 180 01:43 23.10.2019
5695 Clouds 11 1022 93 10000 1 260 01:19 23.10.2019
5696 Clouds 11 1023 100 10000 1 260 00:35 23.10.2019
5697 Clouds 11 1022 93 10000 3.37 228 23:57 22.10.2019
5698 Clouds 11 1022 93 10000 3.37 228 23:37 22.10.2019
5699 Clouds 11 1022 93 10000 1 260 23:18 22.10.2019
5700 Clouds 11 1022 93 10000 1 260 23:18 22.10.2019
5701 Clouds 11 1023 93 10000 1 260 22:54 22.10.2019
5702 Clouds 11 1023 93 10000 1 260 22:36 22.10.2019
5703 Clouds 11 1023 100 10000 1 270 22:18 22.10.2019
5704 Clouds 12 1023 93 8000 1 250 21:55 22.10.2019
5705 Clouds 11 1023 100 10000 1.5 280 21:36 22.10.2019
5706 Clouds 12 1023 93 10000 1 260 21:18 22.10.2019
5707 Clouds 12 1023 93 8000 1 220 20:42 22.10.2019
5708 Clouds 12 1023 87 10000 1 310 20:23 22.10.2019
5709 Clouds 12 1023 93 10000 1.5 240 19:59 22.10.2019
5710 Clouds 12 1023 93 10000 1.5 240 19:41 22.10.2019
5711 Clouds 13 1022 93 10000 1.5 310 19:23 22.10.2019
5712 Clouds 13 1022 87 10000 2.1 250 18:57 22.10.2019
5713 Clouds 13 1022 87 10000 2.1 250 18:39 22.10.2019
5714 Drizzle 13 1022 93 8000 1.5 260 18:20 22.10.2019
5715 Rain 13 1022 93 7000 2.6 210 17:56 22.10.2019
5716 Rain 14 1022 93 7000 2.6 210 17:37 22.10.2019
5717 Clouds 14 1022 87 10000 2.6 210 17:19 22.10.2019
5718 Clouds 14 1022 82 10000 3.6 220 16:56 22.10.2019
5719 Clouds 14 1022 82 10000 3.6 220 16:37 22.10.2019
5720 Clouds 14 1022 87 10000 3.6 220 16:18 22.10.2019
5721 Clouds 14 1022 82 10000 4.6 230 15:43 22.10.2019
5722 Clouds 14 1022 87 10000 4.6 210 15:20 22.10.2019
5723 Clouds 14 1022 82 10000 4.1 220 14:57 22.10.2019
5724 Clouds 14 1022 82 10000 4.1 220 14:39 22.10.2019
5725 Clouds 14 1022 87 10000 3.6 200 14:18 22.10.2019
5726 Clouds 14 1022 87 10000 3.6 230 13:41 22.10.2019
5727 Mist 13 1022 87 5000 3.6 220 13:20 22.10.2019
5728 Clouds 13 1022 87 8000 3.6 220 12:57 22.10.2019
5729 Clouds 13 1022 87 8000 3.6 220 12:38 22.10.2019
5730 Clouds 13 1022 87 7000 4.1 240 12:20 22.10.2019
5731 Clouds 13 1022 93 7000 4.6 240 11:42 22.10.2019
5732 Mist 13 1022 100 2900 3.6 240 11:23 22.10.2019
5733 Mist 12 1022 100 2900 3.6 240 10:59 22.10.2019
5734 Mist 12 1022 100 2900 3.6 240 10:59 22.10.2019
5735 Clouds 12 1022 87 7000 4.6 240 10:38 22.10.2019
5736 Mist 12 1021 93 3900 4.6 220 10:19 22.10.2019
5737 Mist 12 1021 93 3900 4.6 220 09:59 22.10.2019
5738 Clouds 12 1021 87 7000 4.1 220 09:41 22.10.2019
5739 Clouds 12 1021 93 8000 4.1 220 09:21 22.10.2019
5740 Mist 11 1021 100 3900 3.6 200 08:59 22.10.2019
5741 Clouds 11 1020 93 8000 3.6 200 08:40 22.10.2019
5742 Mist 11 1020 93 4100 3.6 210 08:19 22.10.2019
5743 Clouds 11 1020 93 10000 3.6 240 07:44 22.10.2019
5744 Clouds 11 1020 93 10000 4.6 230 07:25 22.10.2019
5745 Clouds 11 1019 87 10000 3.6 220 06:45 22.10.2019
5746 Mist 11 1019 100 4800 3.1 210 06:27 22.10.2019
5747 Clouds 11 1019 93 10000 2.6 240 05:48 22.10.2019
5748 Clouds 11 1019 87 10000 2.1 210 04:50 22.10.2019
5749 Clouds 11 1020 93 10000 2.6 200 02:31 22.10.2019
5750 Clouds 11 1020 87 10000 2.6 190 01:39 22.10.2019
5751 Clouds 11 1019 87 10000 1.5 180 01:19 22.10.2019
5752 Clouds 11 1019 87 10000 2.6 210 00:56 22.10.2019
5753 Clouds 11 1019 87 10000 2.6 210 00:38 22.10.2019
5754 Clouds 11 1019 87 10000 2.1 190 00:19 22.10.2019
5755 Clouds 11 1019 81 10000 2.6 210 23:39 21.10.2019
5756 Clouds 11 1019 81 10000 3.1 190 23:19 21.10.2019
5757 Clouds 11 1019 81 10000 3.1 190 23:19 21.10.2019
5758 Clouds 12 1019 81 10000 2.6 200 22:59 21.10.2019
5759 Clouds 11 1019 81 10000 2.6 200 22:40 21.10.2019
5760 Clouds 12 1018 87 10000 3.1 200 22:20 21.10.2019
5761 Clouds 12 1018 87 10000 3.1 200 21:58 21.10.2019
5762 Clouds 12 1019 87 10000 2.6 210 21:39 21.10.2019
5763 Clouds 12 1018 82 10000 3.1 200 21:20 21.10.2019
5764 Clouds 13 1018 82 10000 3.1 200 20:58 21.10.2019
5765 Clouds 13 1018 82 10000 2.6 200 20:39 21.10.2019
5766 Clouds 13 1018 82 10000 3.6 200 20:20 21.10.2019
5767 Clouds 13 1018 82 10000 3.6 200 20:20 21.10.2019
5768 Clouds 13 1018 93 10000 3.1 210 19:57 21.10.2019
5769 Clouds 13 1018 93 10000 3.1 210 19:39 21.10.2019
5770 Clouds 13 1017 87 10000 4.6 210 19:21 21.10.2019
5771 Clouds 14 1017 93 9000 1 230 18:55 21.10.2019
5772 Clouds 14 1017 93 9000 1 230 18:37 21.10.2019
5773 Clouds 14 1017 93 10000 0.5 180 18:18 21.10.2019
5774 Clouds 14 1016 87 10000 1 230 17:55 21.10.2019
5775 Clouds 15 1016 87 10000 1 230 17:37 21.10.2019
5776 Clouds 15 1016 82 10000 4.1 220 17:18 21.10.2019
5777 Clouds 15 1016 87 10000 2.6 210 16:55 21.10.2019
5778 Clouds 16 1016 87 10000 2.6 210 16:37 21.10.2019
5779 Clouds 16 1016 87 10000 2.1 230 16:18 21.10.2019
5780 Clouds 15 1016 93 9000 2.6 210 15:42 21.10.2019
5781 Clouds 15 1016 93 9000 2.6 210 15:42 21.10.2019
5782 Clouds 15 1015 87 8000 3.1 210 15:23 21.10.2019
5783 Mist 15 1016 100 5000 2.1 200 14:57 21.10.2019
5784 Mist 14 1016 100 5000 2.1 200 14:38 21.10.2019
5785 Mist 14 1015 93 4000 2.6 170 14:19 21.10.2019
5786 Mist 14 1015 93 3000 2.1 150 13:55 21.10.2019
5787 Mist 13 1015 93 3000 2.1 150 13:37 21.10.2019
5788 Mist 13 1015 93 3000 2.6 130 13:18 21.10.2019
5789 Drizzle 12 1015 100 600 2.6 110 12:41 21.10.2019
5790 Drizzle 12 1015 100 2400 2.6 80 12:22 21.10.2019
5791 Drizzle 12 1015 93 3000 3.1 80 11:55 21.10.2019
5792 Drizzle 12 1015 93 3000 3.1 80 11:37 21.10.2019
5793 Drizzle 12 1014 100 2000 3.6 70 11:19 21.10.2019
5794 Drizzle 12 1015 100 3500 3.6 70 10:56 21.10.2019
5795 Drizzle 11 1015 100 3500 3.6 70 10:37 21.10.2019
5796 Drizzle 11 1015 100 3500 4.1 80 10:18 21.10.2019
5797 Drizzle 11 1014 93 4000 4.1 70 09:44 21.10.2019
5798 Drizzle 11 1014 93 10000 5.7 60 09:25 21.10.2019
5799 Drizzle 11 1014 93 10000 4.6 50 08:56 21.10.2019
5800 Drizzle 11 1014 93 10000 4.6 50 08:37 21.10.2019
5801 Drizzle 11 1013 93 5000 5.7 40 08:18 21.10.2019
5802 Drizzle 11 1014 93 8000 5.1 50 07:38 21.10.2019
5803 Drizzle 11 1013 93 5000 5.7 40 07:20 21.10.2019
5804 Drizzle 11 1013 93 3700 4.6 50 06:54 21.10.2019
5805 Drizzle 11 1013 93 3800 4.1 30 06:36 21.10.2019
5806 Drizzle 11 1013 93 2500 4.1 40 05:56 21.10.2019
5807 Clouds 11 1013 81 10000 3.6 50 04:45 21.10.2019
5808 Clouds 11 1013 87 10000 4.1 50 03:37 21.10.2019
5809 Clouds 11 1012 93 6000 3.6 60 02:25 21.10.2019
5810 Mist 11 1013 87 10000 3.6 50 01:59 21.10.2019
5811 Mist 11 1012 93 5000 3.1 30 01:23 21.10.2019
5812 Mist 11 1012 100 4200 2.6 30 00:50 21.10.2019
5813 Mist 11 1012 100 3700 3.1 40 00:27 21.10.2019
5814 Mist 11 1013 93 10000 2.6 20 23:43 20.10.2019
5815 Rain 11 1012 100 3100 2.6 20 23:22 20.10.2019
5816 Rain 11 1012 93 5000 1.5 70 22:57 20.10.2019
5817 Rain 11 1012 93 5000 1.5 70 22:39 20.10.2019
5818 Rain 11 1012 93 6000 2.1 40 22:19 20.10.2019
5819 Rain 11 1012 93 6000 2.1 40 21:59 20.10.2019
5820 Rain 11 1012 93 6000 2.1 40 21:39 20.10.2019
5821 Mist 11 1011 100 3200 2.1 10 21:21 20.10.2019
5822 Mist 11 1012 93 3500 0.5 30 20:42 20.10.2019
5823 Mist 11 1011 100 2500 0.5 30 20:20 20.10.2019
5824 Mist 11 1011 93 3500 1.5 60 19:57 20.10.2019
5825 Mist 11 1011 93 3500 1.5 60 19:39 20.10.2019
5826 Mist 11 1011 93 3500 1.5 60 19:39 20.10.2019
5827 Mist 11 1011 93 5000 1 80 19:20 20.10.2019
5828 Mist 12 1011 93 5000 1 80 18:58 20.10.2019
5829 Clouds 12 1011 87 7000 1.5 100 18:40 20.10.2019
5830 Clouds 12 1010 93 7000 2.1 80 18:20 20.10.2019
5831 Clouds 12 1010 93 6000 1.5 140 17:56 20.10.2019
5832 Clouds 13 1010 93 6000 1.5 140 17:37 20.10.2019
5833 Clouds 13 1010 87 9000 1 90 17:19 20.10.2019
5834 Clouds 13 1010 82 6000 1.5 150 16:43 20.10.2019
5835 Clouds 13 1010 87 9000 1.5 140 16:24 20.10.2019
5836 Clouds 13 1010 87 9000 1.5 140 15:59 20.10.2019
5837 Clouds 13 1010 82 6000 1.5 160 15:38 20.10.2019
5838 Clouds 13 1009 87 8000 1 0 15:20 20.10.2019
5839 Clouds 13 1009 87 8000 1 0 14:58 20.10.2019
5840 Clouds 13 1010 82 6000 2.1 160 14:38 20.10.2019
5841 Clouds 12 1009 93 8000 1.5 160 14:19 20.10.2019
5842 Clouds 12 1010 87 6000 1.5 220 13:56 20.10.2019
5843 Clouds 12 1010 87 6000 1.5 220 13:37 20.10.2019
5844 Clouds 12 1009 87 7000 1.5 190 13:18 20.10.2019
5845 Clouds 12 1009 87 9000 2.1 190 12:56 20.10.2019
5846 Clouds 12 1009 87 9000 2.1 190 12:38 20.10.2019
5847 Clouds 11 1009 93 7000 2.6 190 12:20 20.10.2019
5848 Clouds 11 1009 93 10000 1.5 210 11:57 20.10.2019
5849 Clouds 11 1009 93 10000 1.5 210 11:38 20.10.2019
5850 Clouds 11 1008 93 7000 2.1 190 11:20 20.10.2019
5851 Clouds 10 1008 93 6000 2.1 200 10:54 20.10.2019
5852 Mist 10 1008 93 6000 1.5 170 10:36 20.10.2019
5853 Mist 10 1008 100 6000 2.6 180 10:18 20.10.2019
5854 Mist 9 1008 93 4500 1.5 180 09:42 20.10.2019
5855 Mist 9 1007 93 4700 2.1 200 09:22 20.10.2019
5856 Mist 9 1008 93 4500 1.5 190 08:49 20.10.2019
5857 Mist 9 1007 100 5000 2.1 210 08:27 20.10.2019
5858 Clouds 9 1007 100 6000 2.1 160 07:57 20.10.2019
5859 Clouds 9 1007 100 6000 2.1 160 07:39 20.10.2019
5860 Clouds 9 1006 93 7000 1.5 200 07:20 20.10.2019
5861 Clouds 9 1006 100 9000 3.1 190 06:23 20.10.2019
5862 Clouds 10 1006 93 10000 3.6 190 04:28 20.10.2019
5863 Clouds 10 1006 100 10000 2.1 180 03:49 20.10.2019
5864 Clouds 10 1006 93 10000 3.1 200 03:21 20.10.2019
5865 Clouds 10 1006 93 10000 2.1 190 02:45 20.10.2019
5866 Clouds 10 1005 93 10000 4.1 200 02:18 20.10.2019
5867 Clouds 10 1006 100 10000 2.1 190 01:45 20.10.2019
5868 Clouds 10 1005 93 10000 3.1 190 01:19 20.10.2019
5869 Clouds 10 1005 100 10000 2.6 180 00:47 20.10.2019
5870 Clouds 10 1005 87 10000 3.6 180 00:20 20.10.2019
5871 Clouds 10 1005 93 10000 2.6 180 23:44 19.10.2019
5872 Clouds 10 1004 87 10000 3.1 180 23:24 19.10.2019
5873 Clouds 11 1004 87 10000 3.1 180 22:59 19.10.2019
5874 Clouds 11 1005 93 10000 2.1 180 22:40 19.10.2019
5875 Clouds 11 1004 87 10000 3.6 190 22:20 19.10.2019
5876 Clouds 11 1004 87 10000 2.6 200 21:54 19.10.2019
5877 Clouds 11 1004 87 10000 2.6 200 21:36 19.10.2019
5878 Rain 11 1003 87 10000 3.6 180 21:18 19.10.2019
5879 Clouds 11 1004 93 10000 3.6 200 20:41 19.10.2019
5880 Rain 11 1003 81 10000 3.1 190 20:20 19.10.2019
5881 Clouds 11 1003 93 10000 2.1 180 19:42 19.10.2019
5882 Rain 12 1003 81 10000 3.6 190 19:24 19.10.2019
5883 Clouds 12 1003 87 10000 2.6 190 18:55 19.10.2019
5884 Clouds 12 1003 87 10000 2.6 190 18:37 19.10.2019
5885 Rain 13 1003 82 10000 4.6 200 18:18 19.10.2019
5886 Clouds 13 1003 87 10000 2.6 190 17:41 19.10.2019
5887 Clouds 13 1002 76 10000 4.1 190 17:21 19.10.2019
5888 Rain 13 1002 76 10000 4.6 190 16:57 19.10.2019
5889 Clouds 13 1003 87 10000 3.6 220 16:37 19.10.2019
5890 Rain 13 1003 87 10000 3.6 210 16:18 19.10.2019
5891 Rain 13 1003 87 10000 3.6 210 16:18 19.10.2019
5892 Drizzle 13 1002 87 8000 4.6 190 15:41 19.10.2019
5893 Clouds 13 1002 82 10000 4.6 190 15:23 19.10.2019
5894 Clouds 13 1003 87 10000 4.1 190 14:39 19.10.2019
5895 Drizzle 13 1002 82 10000 4.6 180 14:20 19.10.2019
5896 Drizzle 13 1002 82 10000 4.6 180 13:58 19.10.2019
5897 Drizzle 13 1003 87 10000 3.6 190 13:40 19.10.2019
5898 Drizzle 13 1003 87 10000 3.6 190 13:40 19.10.2019
5899 Drizzle 13 1003 87 10000 4.6 200 13:19 19.10.2019
5900 Drizzle 13 1003 87 10000 4.6 200 13:19 19.10.2019
5901 Clouds 13 1003 82 10000 4.6 200 12:57 19.10.2019
5902 Clouds 13 1003 82 10000 4.6 200 12:37 19.10.2019
5903 Clouds 13 1003 82 10000 6.2 190 12:19 19.10.2019
5904 Clouds 13 1003 76 10000 5.7 190 11:41 19.10.2019
5905 Rain 12 1003 87 10000 5.1 180 11:23 19.10.2019
5906 Rain 12 1003 87 10000 5.1 180 10:58 19.10.2019
5907 Clouds 12 1003 87 10000 5.1 180 10:39 19.10.2019
5908 Clouds 12 1003 81 10000 5.1 190 10:21 19.10.2019
5909 Clouds 11 1003 81 10000 5.1 190 09:55 19.10.2019
5910 Clouds 11 1002 87 10000 5.1 180 09:37 19.10.2019
5911 Clouds 11 1002 87 10000 5.1 180 09:18 19.10.2019
5912 Clouds 10 1003 87 10000 5.7 180 08:40 19.10.2019
5913 Clouds 10 1002 81 10000 5.7 180 08:21 19.10.2019
5914 Clouds 10 1003 81 10000 5.1 180 07:46 19.10.2019
5915 Clouds 10 1002 81 10000 5.7 180 07:26 19.10.2019
5916 Clouds 10 1002 81 10000 5.7 180 07:26 19.10.2019
5917 Clouds 10 1002 81 10000 5.7 180 07:26 19.10.2019
5918 Clouds 10 1003 81 10000 5.1 180 06:48 19.10.2019
5919 Clouds 10 1003 87 10000 4.1 180 06:30 19.10.2019
5920 Clouds 10 1003 87 10000 4.1 180 06:30 19.10.2019
5921 Clouds 10 1003 81 10000 5.1 180 05:35 19.10.2019
5922 Clouds 10 1004 81 10000 4.6 190 04:26 19.10.2019
5923 Clouds 10 1004 81 10000 4.6 180 02:56 19.10.2019
5924 Clouds 10 1004 76 10000 5.7 210 01:56 19.10.2019
5925 Clouds 10 1004 76 10000 5.7 210 01:37 19.10.2019
5926 Clouds 11 1004 76 10000 7.2 220 00:51 19.10.2019
5927 Clouds 11 1004 76 10000 5.7 200 00:28 19.10.2019
5928 Clouds 11 1004 76 10000 7.7 210 23:56 18.10.2019
5929 Clouds 11 1004 76 10000 7.7 210 23:56 18.10.2019
5930 Clouds 11 1004 76 10000 7.7 210 23:38 18.10.2019
5931 Clouds 11 1003 76 10000 7.2 200 23:19 18.10.2019
5932 Clouds 11 1003 76 10000 6.7 210 22:54 18.10.2019
5933 Clouds 11 1003 76 10000 6.7 200 22:36 18.10.2019
5934 Clouds 11 1003 76 10000 6.2 200 22:18 18.10.2019
5935 Clouds 11 1003 76 10000 6.7 210 21:55 18.10.2019
5936 Clouds 11 1003 76 10000 7.2 200 21:36 18.10.2019
5937 Clouds 11 1003 76 10000 7.7 210 21:18 18.10.2019
5938 Clouds 11 1003 71 10000 7.2 210 20:42 18.10.2019
5939 Rain 12 1003 81 10000 8.2 210 20:22 18.10.2019
5940 Rain 12 1003 81 10000 8.2 210 19:58 18.10.2019
5941 Clouds 12 1002 76 10000 7.2 210 19:40 18.10.2019
5942 Rain 12 1002 76 10000 9.3 220 19:22 18.10.2019
5943 Clouds 12 1002 76 10000 6.7 220 18:58 18.10.2019
5944 Clouds 12 1002 76 10000 6.7 220 18:40 18.10.2019
5945 Clouds 12 1001 76 10000 9.3 220 18:22 18.10.2019
5946 Clouds 12 1001 71 10000 8.7 220 17:55 18.10.2019
5947 Clouds 13 1001 71 10000 8.7 220 17:36 18.10.2019
5948 Rain 13 1001 82 10000 9.3 210 17:18 18.10.2019
5949 Rain 12 1000 76 10000 8.2 210 16:39 18.10.2019
5950 Clouds 13 1000 76 10000 9.3 210 16:20 18.10.2019
5951 Clouds 13 1000 82 10000 4.6 200 15:57 18.10.2019
5952 Clouds 13 1000 82 10000 4.6 200 15:38 18.10.2019
5953 Thunderstorm 13 999 87 10000 7.2 190 15:19 18.10.2019
5954 Thunderstorm 13 1000 87 8000 8.7 200 14:56 18.10.2019
5955 Thunderstorm 13 1000 87 8000 8.7 200 14:38 18.10.2019
5956 Thunderstorm 13 999 82 9000 4.6 170 14:19 18.10.2019
5957 Rain 14 1000 77 10000 5.7 170 13:55 18.10.2019
5958 Rain 14 1000 77 10000 5.7 170 13:36 18.10.2019
5959 Clouds 15 1000 77 10000 7.2 170 13:18 18.10.2019
5960 Clouds 15 1002 77 10000 5.1 190 12:55 18.10.2019
5961 Clouds 15 1002 77 10000 5.1 190 12:36 18.10.2019
5962 Clouds 15 1001 82 10000 6.2 180 12:18 18.10.2019
5963 Clouds 15 1003 82 10000 5.7 180 11:41 18.10.2019
5964 Clouds 14 1003 87 10000 5.7 170 11:20 18.10.2019
5965 Clouds 14 1003 87 10000 5.1 180 10:57 18.10.2019
5966 Clouds 14 1003 87 10000 5.1 180 10:39 18.10.2019
5967 Clouds 13 1003 93 10000 4.6 180 10:20 18.10.2019
5968 Clouds 13 1004 87 10000 4.6 160 09:57 18.10.2019
5969 Clouds 13 1004 87 10000 4.6 160 09:39 18.10.2019
5970 Clouds 13 1003 87 10000 4.6 170 09:19 18.10.2019
5971 Rain 12 1004 93 8000 3.1 160 08:45 18.10.2019
5972 Clouds 12 1005 93 8000 3.1 160 08:25 18.10.2019
5973 Clouds 12 1005 93 8000 3.1 160 07:53 18.10.2019
5974 Clouds 12 1004 93 9000 3.6 160 07:35 18.10.2019
5975 Clouds 12 1005 87 8000 2.6 170 06:56 18.10.2019
5976 Clouds 12 1005 87 8000 2.6 170 06:36 18.10.2019
5977 Mist 12 1005 100 5000 3.6 160 06:18 18.10.2019
5978 Mist 12 1006 87 8000 4.1 180 05:52 18.10.2019
5979 Mist 12 1006 93 4000 2.6 150 05:19 18.10.2019
5980 Mist 12 1007 100 5000 2.6 210 03:38 18.10.2019
5981 Clouds 12 1007 93 8000 2.6 190 02:56 18.10.2019
5982 Clouds 12 1007 93 8000 2.6 190 02:56 18.10.2019
5983 Clouds 12 1007 93 8000 2.6 190 02:32 18.10.2019
5984 Clouds 12 1008 93 9000 2.1 190 01:42 18.10.2019
5985 Clouds 12 1007 93 7000 4.6 190 01:23 18.10.2019
5986 Clouds 12 1008 93 9000 1.5 190 00:43 18.10.2019
5987 Clouds 12 1008 93 7000 3.1 180 00:20 18.10.2019
5988 Clouds 12 1008 93 10000 2.6 180 23:40 17.10.2019
5989 Rain 12 1008 100 6000 2.6 170 23:21 17.10.2019
5990 Rain 12 1009 87 10000 3.1 150 22:58 17.10.2019
5991 Rain 12 1008 100 6000 2.6 170 22:58 17.10.2019
5992 Rain 12 1009 87 10000 3.1 150 22:39 17.10.2019
5993 Rain 12 1008 93 9000 2.6 160 22:19 17.10.2019
5994 Rain 13 1008 93 9000 2.6 160 21:58 17.10.2019
5995 Clouds 13 1009 82 10000 2.6 140 21:39 17.10.2019
5996 Rain 13 1008 93 10000 1.5 150 21:20 17.10.2019
5997 Rain 13 1008 93 10000 1.5 150 20:58 17.10.2019
5998 Clouds 13 1009 82 10000 2.6 140 20:39 17.10.2019
5999 Clouds 13 1008 93 10000 1.5 140 20:19 17.10.2019
6000 Clouds 13 1008 93 10000 1.5 140 20:19 17.10.2019
6001 Clouds 13 1008 93 10000 1.5 140 20:19 17.10.2019
6002 Clouds 13 1009 82 10000 2.1 140 19:59 17.10.2019
6003 Clouds 13 1009 82 10000 2.1 140 19:39 17.10.2019
6004 Rain 13 1008 93 10000 1 130 19:19 17.10.2019
6005 Clouds 13 1009 76 10000 2.1 160 18:58 17.10.2019
6006 Clouds 14 1009 76 10000 2.1 160 18:38 17.10.2019
6007 Clouds 14 1009 82 10000 2.1 0 18:20 17.10.2019
6008 Clouds 14 1009 67 10000 2.1 190 17:42 17.10.2019
6009 Clouds 15 1009 72 10000 3.1 170 17:23 17.10.2019
6010 Clouds 15 1010 67 10000 2.6 200 16:57 17.10.2019
6011 Clouds 15 1010 67 10000 2.6 200 16:39 17.10.2019
6012 Clouds 15 1009 62 10000 4.1 200 16:18 17.10.2019
6013 Clouds 16 1010 72 10000 3.1 230 15:56 17.10.2019
6014 Clouds 16 1010 72 10000 3.1 230 15:56 17.10.2019
6015 Clouds 16 1010 72 10000 3.1 230 15:38 17.10.2019
6016 Clouds 16 1009 67 10000 4.1 220 15:19 17.10.2019
6017 -273 0 0 0 0 0 14:55 17.10.2019
6018 Clouds 15 1009 67 10000 3.1 260 14:37 17.10.2019
6019 Clouds 15 1009 63 10000 4.1 250 14:18 17.10.2019
6020 Clouds 15 1009 77 10000 3.1 240 13:39 17.10.2019
6021 Rain 15 1009 82 10000 4.6 220 13:20 17.10.2019
6022 Clouds 14 1009 82 10000 2.6 220 12:55 17.10.2019
6023 Clouds 14 1009 82 10000 2.6 220 12:37 17.10.2019
6024 Clouds 14 1009 87 10000 4.1 210 12:18 17.10.2019
6025 Clouds 13 1009 93 9000 2.6 230 11:41 17.10.2019
6026 Clouds 13 1009 93 9000 2.6 230 11:41 17.10.2019
6027 Clouds 13 1008 93 10000 3.1 210 11:22 17.10.2019
6028 Clouds 13 1008 93 10000 3.1 210 10:59 17.10.2019
6029 Drizzle 13 1008 100 4500 3.6 260 10:41 17.10.2019
6030 Drizzle 12 1008 100 8000 3.1 290 10:19 17.10.2019
6031 Drizzle 12 1007 93 4500 3.6 270 09:56 17.10.2019
6032 Drizzle 12 1007 93 4500 3.6 270 09:37 17.10.2019
6033 Clouds 12 1007 93 8000 3.1 290 09:19 17.10.2019
6034 Drizzle 12 1006 93 6000 3.1 230 08:48 17.10.2019
6035 Mist 12 1006 93 4800 3.1 280 08:27 17.10.2019
6036 Drizzle 13 1005 93 7000 3.6 210 07:59 17.10.2019
6037 Drizzle 13 1005 93 7000 3.6 210 07:41 17.10.2019
6038 Drizzle 13 1006 100 3700 2.6 290 07:21 17.10.2019
6039 Drizzle 13 1006 100 3700 2.6 290 07:21 17.10.2019
6040 Drizzle 13 1005 93 6000 4.1 200 06:43 17.10.2019
6041 Drizzle 13 1005 93 4900 4.1 210 06:24 17.10.2019
6042 Drizzle 14 1005 93 4900 4.1 210 05:59 17.10.2019
6043 Rain 14 1005 93 5000 5.1 200 05:37 17.10.2019
6044 Drizzle 14 1005 93 9000 5.1 200 05:19 17.10.2019
6045 Rain 14 1005 93 9000 4.6 210 04:45 17.10.2019
6046 Rain 14 1005 93 7000 4.6 200 03:45 17.10.2019
6047 Rain 14 1005 93 4000 3.6 190 01:57 17.10.2019
6048 Rain 14 1005 93 3800 4.1 190 00:42 17.10.2019
6049 Rain 14 1005 93 10000 5.1 190 00:21 17.10.2019
6050 Rain 14 1005 93 10000 5.1 190 23:59 16.10.2019
6051 Rain 14 1005 93 10000 4.6 190 23:40 16.10.2019
6052 Drizzle 14 1006 100 4000 4.1 180 23:18 16.10.2019
6053 Drizzle 14 1006 93 4000 4.1 180 22:54 16.10.2019
6054 Rain 14 1005 93 8000 4.6 190 22:36 16.10.2019
6055 Rain 14 1005 93 8000 4.6 190 22:36 16.10.2019
6056 Drizzle 14 1005 93 4400 5.1 190 22:18 16.10.2019
6057 Clouds 13 1006 93 6000 4.1 170 21:54 16.10.2019
6058 Clouds 13 1006 93 6000 4.1 170 21:36 16.10.2019
6059 Rain 13 1005 95 0 2.68 338 21:18 16.10.2019
6060 Rain 13 1004 99 0 3.58 168 20:56 16.10.2019
6061 Rain 13 1005 94 0 3.13 338 20:37 16.10.2019
6062 Drizzle 13 1005 100 3700 4.1 160 20:19 16.10.2019
6063 Clouds 13 1006 82 10000 3.6 170 19:41 16.10.2019
6064 Mist 13 1005 100 4200 4.1 160 19:21 16.10.2019
6065 Mist 13 1005 100 4200 4.1 160 19:21 16.10.2019
6066 Mist 13 1006 100 4100 3.6 160 18:58 16.10.2019
6067 Mist 14 1006 100 4100 3.6 160 18:39 16.10.2019
6068 Clouds 14 1006 93 10000 3.6 150 18:19 16.10.2019
6069 Clouds 14 1007 72 10000 3.6 180 17:56 16.10.2019
6070 Clouds 14 1007 72 10000 3.6 180 17:37 16.10.2019
6071 Clouds 14 1006 82 10000 4.1 180 17:19 16.10.2019
6072 Clouds 14 1006 82 10000 4.1 180 16:58 16.10.2019
6073 Clouds 15 1007 72 10000 4.1 200 16:38 16.10.2019
6074 Clouds 15 1006 77 10000 4.6 170 16:20 16.10.2019
6075 Clouds 15 1007 72 10000 4.6 200 15:55 16.10.2019
6076 Clouds 15 1006 77 10000 4.6 180 15:36 16.10.2019
6077 Clouds 15 1006 77 10000 4.1 180 15:18 16.10.2019
6078 Clouds 15 1006 77 10000 4.1 180 15:18 16.10.2019
6079 Clouds 15 1006 77 10000 4.1 180 14:55 16.10.2019
6080 Clouds 15 1007 76 10000 3.1 220 14:37 16.10.2019
6081 Clouds 15 1007 76 10000 3.1 220 14:37 16.10.2019
6082 Clouds 15 1007 76 10000 3.6 210 14:18 16.10.2019
6083 Clouds 15 1007 77 10000 4.6 190 13:55 16.10.2019
6084 Clouds 15 1007 77 10000 4.6 190 13:36 16.10.2019
6085 Clouds 14 1007 82 10000 4.1 190 13:18 16.10.2019
6086 Clouds 13 1008 82 10000 4.6 230 12:40 16.10.2019
6087 Clouds 13 1007 82 10000 3.6 230 12:18 16.10.2019
6088 Clouds 12 1008 93 10000 4.1 230 11:43 16.10.2019
6089 Clouds 12 1008 93 6000 4.6 210 11:18 16.10.2019
6090 Mist 12 1007 93 5000 4.1 220 10:39 16.10.2019
6091 Clouds 12 1007 93 6000 4.6 210 10:20 16.10.2019
6092 Drizzle 12 1007 93 3700 3.1 220 09:56 16.10.2019
6093 Drizzle 12 1007 93 3700 3.1 220 09:38 16.10.2019
6094 Mist 12 1007 93 5000 4.1 210 09:19 16.10.2019
6095 Drizzle 12 1007 93 6000 3.1 240 08:43 16.10.2019
6096 Mist 12 1007 93 4200 4.1 210 08:24 16.10.2019
6097 Drizzle 12 1006 93 7000 3.1 240 07:55 16.10.2019
6098 Drizzle 12 1006 93 7000 3.1 240 07:37 16.10.2019
6099 Drizzle 12 1007 100 3800 3.6 200 07:18 16.10.2019
6100 Drizzle 13 1006 93 6000 2.6 240 06:39 16.10.2019
6101 Drizzle 13 1006 93 6000 2.6 240 06:39 16.10.2019
6102 Drizzle 13 1006 100 5000 2.6 230 05:55 16.10.2019
6103 Drizzle 13 1006 100 3500 3.1 230 03:27 16.10.2019
6104 Drizzle 13 1006 93 6000 1.5 260 02:50 16.10.2019
6105 Rain 13 1006 100 2700 2.6 210 01:20 16.10.2019
6106 Rain 13 1006 93 5000 1.5 240 00:54 16.10.2019
6107 Drizzle 14 1006 100 3200 3.1 200 00:35 16.10.2019
6108 Rain 14 1006 93 6000 1.5 240 23:42 15.10.2019
6109 Rain 14 1007 93 2700 2.6 210 23:22 15.10.2019
6110 Drizzle 14 1006 93 6000 1.5 170 22:57 15.10.2019
6111 Drizzle 14 1006 93 6000 1.5 170 22:38 15.10.2019
6112 Rain 14 1006 100 3500 2.1 200 22:20 15.10.2019
6113 Drizzle 14 1006 93 9000 1.5 180 21:57 15.10.2019
6114 Drizzle 14 1006 93 9000 1.5 180 21:38 15.10.2019
6115 Rain 14 1006 100 4200 1 240 21:20 15.10.2019
6116 Rain 15 1006 87 10000 1.5 200 20:58 15.10.2019
6117 Rain 15 1006 87 10000 1.5 200 20:40 15.10.2019
6118 Rain 15 1006 87 10000 1.5 200 20:40 15.10.2019
6119 Drizzle 15 1006 93 10000 1.5 140 20:21 15.10.2019
6120 Drizzle 15 1006 93 10000 1.5 140 19:59 15.10.2019
6121 Clouds 15 1006 87 10000 0.5 0 19:41 15.10.2019
6122 Drizzle 15 1005 93 10000 1 0 19:20 15.10.2019
6123 Clouds 15 1005 82 10000 1.5 220 18:55 15.10.2019
6124 Rain 16 1005 82 10000 2.6 200 18:37 15.10.2019
6125 Clouds 16 1005 82 10000 2.6 200 18:19 15.10.2019
6126 Clouds 16 1005 77 10000 2.6 240 17:42 15.10.2019
6127 Clouds 17 1005 82 10000 4.1 210 17:21 15.10.2019
6128 Clouds 17 1005 82 10000 4.1 210 16:59 15.10.2019
6129 Clouds 17 1005 72 10000 3.6 240 16:41 15.10.2019
6130 Clouds 17 1005 77 10000 3.6 210 16:21 15.10.2019
6131 Clouds 17 1005 77 10000 4.1 230 15:55 15.10.2019
6132 Clouds 18 1005 68 10000 3.1 220 15:37 15.10.2019
6133 Clouds 18 1005 82 10000 4.6 220 15:19 15.10.2019
6134 Clouds 18 1005 72 10000 4.1 220 14:55 15.10.2019
6135 Clouds 18 1005 72 10000 4.1 220 14:36 15.10.2019
6136 Clouds 18 1005 77 10000 4.6 200 14:18 15.10.2019
6137 Clouds 18 1005 72 10000 4.1 240 13:43 15.10.2019
6138 Clouds 17 1005 82 10000 4.6 210 13:20 15.10.2019
6139 Clouds 17 1005 77 10000 3.1 210 12:56 15.10.2019
6140 Clouds 17 1005 77 10000 3.1 210 12:37 15.10.2019
6141 Clouds 16 1005 87 10000 4.1 200 12:18 15.10.2019
6142 Clouds 16 1005 77 10000 4.1 210 11:42 15.10.2019
6143 Clouds 16 1005 87 10000 3.6 200 11:20 15.10.2019
6144 Clouds 16 1005 82 10000 2.1 180 10:55 15.10.2019
6145 Clouds 15 1005 82 10000 2.1 180 10:37 15.10.2019
6146 Clouds 15 1004 87 10000 2.6 190 10:18 15.10.2019
6147 Clouds 14 1005 93 10000 1 190 09:40 15.10.2019
6148 Fog 13 1004 100 10000 2.1 190 09:21 15.10.2019
6149 Fog 13 1004 100 10000 2.1 190 09:21 15.10.2019
6150 Fog 13 1004 93 10000 2.1 190 08:58 15.10.2019
6151 Fog 13 1004 93 10000 2.1 190 08:58 15.10.2019
6152 Fog 13 1004 93 10000 2.1 190 08:58 15.10.2019
6153 Clouds 13 1004 100 8000 2.1 210 08:40 15.10.2019
6154 Clouds 13 1004 100 8000 1.5 200 08:20 15.10.2019
6155 Clouds 13 1004 93 10000 1.5 170 07:48 15.10.2019
6156 Clouds 13 1004 87 10000 2.6 200 07:23 15.10.2019
6157 Clouds 13 1004 93 10000 2.1 140 06:58 15.10.2019
6158 Clouds 13 1004 93 10000 2.1 140 06:40 15.10.2019
6159 Clouds 13 1004 93 10000 2.1 140 05:58 15.10.2019
6160 Clouds 14 1004 93 10000 2.1 140 05:37 15.10.2019
6161 Clouds 14 1005 93 10000 2.6 130 04:54 15.10.2019
6162 Clouds 14 1004 93 8000 2.1 140 04:20 15.10.2019
6163 Clouds 14 1004 93 6000 2.1 120 03:35 15.10.2019
6164 Clouds 14 1004 93 6000 2.1 120 03:35 15.10.2019
6165 Clouds 14 1005 93 7000 2.6 110 02:22 15.10.2019
6166 Clouds 14 1006 93 10000 3.6 120 01:47 15.10.2019
6167 Clouds 14 1005 93 9000 2.1 110 01:18 15.10.2019
6168 Clouds 14 1007 82 10000 5.1 110 00:46 15.10.2019
6169 Rain 14 1006 93 10000 2.6 120 00:20 15.10.2019
6170 Clouds 14 1007 87 10000 5.7 110 23:39 14.10.2019
6171 Rain 14 1006 93 10000 3.1 100 23:19 14.10.2019
6172 Clouds 14 1008 82 10000 6.7 100 22:41 14.10.2019
6173 Rain 14 1007 87 10000 3.1 100 22:21 14.10.2019
6174 Rain 14 1007 87 10000 3.1 100 22:21 14.10.2019
6175 Clouds 14 1009 87 10000 5.7 90 21:59 14.10.2019
6176 Clouds 14 1009 87 10000 5.7 90 21:40 14.10.2019
6177 Rain 14 1008 87 10000 4.1 90 21:21 14.10.2019
6178 Rain 14 1008 87 10000 4.1 90 20:59 14.10.2019
6179 Clouds 14 1010 87 10000 5.7 80 20:39 14.10.2019
6180 Rain 14 1008 87 10000 4.6 90 20:20 14.10.2019
6181 Clouds 14 1010 87 10000 4.1 70 19:58 14.10.2019
6182 Clouds 14 1010 87 10000 4.1 70 19:40 14.10.2019
6183 Rain 14 1008 87 10000 5.1 80 19:22 14.10.2019
6184 Clouds 14 1010 87 10000 6.2 90 18:58 14.10.2019
6185 Clouds 14 1010 87 10000 6.2 90 18:38 14.10.2019
6186 Rain 14 1009 87 10000 5.1 60 18:19 14.10.2019
6187 Rain 14 1012 87 10000 4.1 30 17:44 14.10.2019
6188 Clouds 14 1010 87 10000 4.6 60 17:26 14.10.2019
6189 Rain 14 1012 77 10000 3.1 70 16:59 14.10.2019
6190 Rain 15 1012 77 10000 3.1 70 16:40 14.10.2019
6191 Clouds 15 1011 87 10000 4.1 50 16:20 14.10.2019
6192 Rain 15 1012 77 10000 3.6 110 15:42 14.10.2019
6193 Clouds 15 1012 77 10000 2.6 90 15:22 14.10.2019
6194 Clouds 15 1013 77 10000 3.1 100 14:56 14.10.2019
6195 Clouds 15 1013 77 10000 3.1 100 14:38 14.10.2019
6196 Clouds 15 1012 77 10000 3.1 60 14:19 14.10.2019
6197 Clouds 15 1014 77 10000 1.5 120 13:43 14.10.2019
6198 Clouds 15 1012 77 10000 4.1 70 13:21 14.10.2019
6199 Clouds 15 1014 82 10000 1.5 210 12:55 14.10.2019
6200 Clouds 15 1014 82 10000 1.5 210 12:55 14.10.2019
6201 Clouds 15 1014 87 10000 1.5 90 12:36 14.10.2019
6202 Clouds 14 1014 87 10000 1.5 140 12:18 14.10.2019
6203 Clouds 14 1014 87 10000 1.5 140 12:18 14.10.2019
6204 Clouds 14 1014 87 10000 1.5 140 12:18 14.10.2019
6205 Clouds 14 1014 82 10000 2.1 230 11:44 14.10.2019
6206 Clouds 14 1014 93 10000 1.5 190 11:26 14.10.2019
6207 Clouds 13 1014 87 10000 2.1 190 10:57 14.10.2019
6208 Clouds 13 1014 87 10000 2.1 190 10:57 14.10.2019
6209 Clouds 13 1014 87 10000 2.1 190 10:38 14.10.2019
6210 Clouds 13 1013 87 10000 1.5 170 10:19 14.10.2019
6211 -273 0 0 0 0 0 09:42 14.10.2019
6212 Clouds 12 1013 93 10000 2.1 210 09:21 14.10.2019
6213 Clouds 12 1013 87 10000 2.6 220 08:51 14.10.2019
6214 Clouds 12 1012 93 10000 2.1 210 08:23 14.10.2019
6215 Clouds 12 1012 87 10000 3.1 210 07:47 14.10.2019
6216 Clouds 12 1012 87 10000 2.6 190 07:26 14.10.2019
6217 Clouds 12 1011 87 10000 3.1 230 06:59 14.10.2019
6218 Clouds 12 1012 93 10000 3.1 210 06:29 14.10.2019
6219 Clouds 12 1011 82 10000 4.6 230 05:57 14.10.2019
6220 Clouds 12 1010 82 10000 4.6 250 05:29 14.10.2019
6221 Clouds 13 1010 82 10000 4.6 250 04:34 14.10.2019
6222 Clouds 13 1010 87 10000 5.1 230 03:27 14.10.2019
6223 Clouds 14 1010 93 10000 5.7 230 02:36 14.10.2019
6224 Clouds 15 1008 87 10000 6.7 240 01:22 14.10.2019
6225 Clouds 15 1007 82 10000 6.7 240 00:53 14.10.2019
6226 Clouds 15 1008 82 10000 8.7 240 00:19 14.10.2019
6227 Clouds 16 1006 77 10000 6.7 240 23:44 13.10.2019
6228 Clouds 16 1006 82 10000 7.7 230 23:20 13.10.2019
6229 Rain 16 1006 82 10000 8.7 230 22:58 13.10.2019
6230 Rain 16 1006 82 10000 8.7 230 22:40 13.10.2019
6231 Drizzle 17 1006 87 10000 8.7 230 22:21 13.10.2019
6232 Drizzle 17 1006 87 10000 8.7 230 22:21 13.10.2019
6233 Drizzle 17 1006 87 10000 8.7 230 21:58 13.10.2019
6234 Drizzle 17 1005 82 10000 10.3 230 21:37 13.10.2019
6235 Clouds 17 1005 72 10000 10.8 240 21:19 13.10.2019
6236 Rain 18 1003 72 10000 6.7 210 20:57 13.10.2019
6237 Rain 19 1003 72 10000 6.7 210 20:38 13.10.2019
6238 Clouds 19 1004 82 10000 5.7 210 20:20 13.10.2019
6239 Clouds 19 1003 82 10000 6.7 190 19:58 13.10.2019
6240 Clouds 19 1003 82 10000 6.7 190 19:39 13.10.2019
6241 -273 0 0 0 0 0 19:39 13.10.2019
6242 Clouds 19 1003 82 10000 6.7 190 19:39 13.10.2019
6243 Clouds 19 1003 77 10000 6.2 200 19:21 13.10.2019
6244 -273 0 0 0 0 0 18:57 13.10.2019
6245 -273 0 0 0 0 0 18:57 13.10.2019
6246 Clouds 19 1003 82 10000 5.7 190 18:37 13.10.2019
6247 Clouds 19 1003 77 10000 6.2 190 18:19 13.10.2019
6248 Clouds 19 1003 77 10000 6.2 190 18:19 13.10.2019
6249 Clouds 19 1004 88 10000 4.1 170 17:57 13.10.2019
6250 Clouds 19 1004 88 10000 4.1 170 17:39 13.10.2019
6251 Clouds 19 1003 82 10000 5.7 180 17:21 13.10.2019
6252 Clouds 19 1004 93 10000 3.1 160 16:43 13.10.2019
6253 Clouds 19 1004 93 10000 3.6 160 16:19 13.10.2019
6254 -273 0 0 0 0 0 15:57 13.10.2019
6255 Clouds 19 1005 88 9000 3.1 160 15:57 13.10.2019
6256 Clouds 19 1005 88 9000 3.1 160 15:57 13.10.2019
6257 Clouds 18 1005 88 9000 3.1 160 15:38 13.10.2019
6258 Clouds 18 1006 93 8000 3.6 170 15:19 13.10.2019
6259 Drizzle 18 1006 93 7000 2.6 170 14:57 13.10.2019
6260 Drizzle 18 1006 93 7000 2.6 170 14:38 13.10.2019
6261 Drizzle 17 1005 93 10000 4.1 160 14:19 13.10.2019
6262 Drizzle 17 1007 93 7000 3.6 170 13:42 13.10.2019
6263 Drizzle 17 1007 93 7000 3.6 170 13:42 13.10.2019
6264 Rain 17 1006 93 7000 3.1 180 13:23 13.10.2019
6265 Rain 17 1006 93 7000 3.1 180 12:59 13.10.2019
6266 Drizzle 16 1007 87 8000 3.1 170 12:39 13.10.2019
6267 Clouds 16 1007 93 7000 3.1 150 12:21 13.10.2019
6268 Mist 15 1007 93 4500 2.1 150 11:59 13.10.2019
6269 Mist 15 1007 93 4500 2.1 150 11:39 13.10.2019
6270 Mist 14 1007 93 3300 2.6 140 11:21 13.10.2019
6271 Mist 14 1008 93 2000 1.5 140 10:59 13.10.2019
6272 -273 0 0 0 0 0 10:40 13.10.2019
6273 Drizzle 13 1007 100 1900 2.1 110 10:22 13.10.2019
6274 Drizzle 12 1008 100 1000 2.6 100 09:40 13.10.2019
6275 Mist 12 1007 100 1600 2.1 60 09:21 13.10.2019
6276 Mist 12 1008 100 1700 1.5 100 08:55 13.10.2019
6277 Mist 11 1007 100 1200 2.1 110 08:27 13.10.2019
6278 Mist 11 1007 100 1200 2.1 110 08:27 13.10.2019
6279 Mist 11 1008 93 7000 2.6 110 07:56 13.10.2019
6280 Mist 11 1008 93 7000 2.6 110 07:38 13.10.2019
6281 Drizzle 11 1009 93 6000 2.1 100 06:55 13.10.2019
6282 Drizzle 11 1008 100 7000 2.6 90 06:26 13.10.2019
6283 Drizzle 11 1008 100 3200 2.6 70 05:34 13.10.2019
6284 Drizzle 11 1010 93 6000 0.5 0 04:38 13.10.2019
6285 Drizzle 11 1010 93 10000 2.6 170 03:37 13.10.2019
6286 Drizzle 11 1010 100 8000 1 90 02:35 13.10.2019
6287 Drizzle 11 1010 93 10000 2.1 180 01:51 13.10.2019
6288 Drizzle 11 1010 100 7000 1.5 150 01:22 13.10.2019
6289 Drizzle 11 1010 93 10000 2.1 200 00:44 13.10.2019
6290 Drizzle 11 1010 100 6000 0.5 300 00:21 13.10.2019
6291 Drizzle 11 1010 100 9000 2.1 210 23:55 12.10.2019
6292 Drizzle 11 1010 100 5000 0.5 300 23:36 12.10.2019
6293 Drizzle 11 1010 100 7000 1.5 200 23:18 12.10.2019
6294 Drizzle 11 1010 93 10000 2.6 200 22:55 12.10.2019
6295 Drizzle 11 1010 93 10000 2.6 200 22:36 12.10.2019
6296 Drizzle 11 1010 100 6000 2.6 170 22:18 12.10.2019
6297 Drizzle 11 1010 100 10000 2.1 200 21:41 12.10.2019
6298 Drizzle 11 1009 100 10000 1.5 180 21:23 12.10.2019
6299 Drizzle 12 1009 100 10000 1.5 180 20:57 12.10.2019
6300 Drizzle 12 1009 93 10000 2.6 200 20:39 12.10.2019
6301 Rain 12 1010 93 10000 2.6 200 20:20 12.10.2019
6302 Drizzle 12 1010 93 10000 2.1 200 19:37 12.10.2019
6303 Rain 12 1009 93 10000 2.6 210 19:19 12.10.2019
6304 Rain 12 1009 87 9000 2.6 220 18:56 12.10.2019
6305 Rain 12 1009 93 10000 3.1 210 18:36 12.10.2019
6306 Rain 12 1009 93 10000 3.1 210 18:18 12.10.2019
6307 Rain 13 1009 87 10000 2.6 230 17:42 12.10.2019
6308 Drizzle 13 1009 87 10000 4.6 210 17:19 12.10.2019
6309 -273 0 0 0 0 0 16:54 12.10.2019
6310 Rain 13 1009 87 10000 4.6 220 16:36 12.10.2019
6311 Rain 13 1009 87 10000 5.1 210 16:18 12.10.2019
6312 Rain 14 1009 82 10000 4.1 240 15:40 12.10.2019
6313 Clouds 14 1009 87 10000 4.6 230 15:22 12.10.2019
6314 Clouds 14 1008 82 10000 4.1 240 14:41 12.10.2019
6315 Clouds 13 1008 87 10000 5.7 230 14:22 12.10.2019
6316 Clouds 13 1008 87 10000 4.6 240 13:57 12.10.2019
6317 Clouds 13 1008 87 10000 4.6 240 13:38 12.10.2019
6318 Clouds 13 1008 93 10000 5.7 220 13:20 12.10.2019
6319 Clouds 13 1007 87 10000 4.1 220 12:39 12.10.2019
6320 Drizzle 13 1008 93 10000 5.1 220 12:21 12.10.2019
6321 Drizzle 12 1007 93 10000 4.1 220 11:58 12.10.2019
6322 Drizzle 12 1007 93 10000 4.1 220 11:39 12.10.2019
6323 Drizzle 12 1007 93 10000 4.6 220 11:19 12.10.2019
6324 Drizzle 12 1007 93 10000 3.1 230 10:43 12.10.2019
6325 Drizzle 11 1007 100 10000 3.1 240 10:23 12.10.2019
6326 Drizzle 11 1006 93 8000 3.6 230 09:58 12.10.2019
6327 Drizzle 11 1006 93 8000 3.6 230 09:39 12.10.2019
6328 Drizzle 11 1006 100 2800 2.1 260 09:21 12.10.2019
6329 Drizzle 11 1005 93 10000 3.1 230 08:57 12.10.2019
6330 Drizzle 11 1005 93 10000 3.1 230 08:38 12.10.2019
6331 Drizzle 11 1005 93 5000 3.1 290 08:19 12.10.2019
6332 Drizzle 11 1005 100 4200 2.1 270 07:34 12.10.2019
6333 Drizzle 11 1004 93 9000 3.1 230 06:56 12.10.2019
6334 Drizzle 11 1004 93 9000 5.7 270 05:47 12.10.2019
6335 Drizzle 11 1004 93 5000 3.1 230 05:23 12.10.2019
6336 Drizzle 12 1004 93 4000 4.6 240 04:24 12.10.2019
6337 Drizzle 13 1004 93 9000 4.1 260 03:31 12.10.2019
6338 Drizzle 15 1003 87 10000 8.2 230 01:45 12.10.2019
6339 Drizzle 15 1003 87 10000 8.7 230 01:21 12.10.2019
6340 Drizzle 15 1003 87 10000 8.7 230 01:21 12.10.2019
6341 Drizzle 15 1003 87 10000 8.7 230 00:42 12.10.2019
6342 Drizzle 15 1003 87 9000 9.3 230 23:59 11.10.2019
6343 Drizzle 15 1003 87 9000 9.3 230 23:40 11.10.2019
6344 Drizzle 15 1003 87 9000 9.3 230 23:40 11.10.2019
6345 Drizzle 15 1003 87 10000 10.3 220 23:20 11.10.2019
6346 Drizzle 14 1003 93 8000 9.3 230 22:41 11.10.2019
6347 Drizzle 14 1003 87 7000 10.8 220 22:22 11.10.2019
6348 Drizzle 14 1003 87 7000 10.8 220 21:59 11.10.2019
6349 Drizzle 14 1003 93 6000 8.7 220 21:40 11.10.2019
6350 Drizzle 14 1004 93 3700 10.3 220 21:21 11.10.2019
6351 Drizzle 14 1003 93 9000 8.2 220 20:45 11.10.2019
6352 Drizzle 14 1003 93 6000 8.7 220 20:27 11.10.2019
6353 Drizzle 14 1004 93 7000 9.3 210 19:59 11.10.2019
6354 Drizzle 14 1004 87 8000 8.7 220 19:39 11.10.2019
6355 Drizzle 14 1004 93 3600 9.3 210 19:18 11.10.2019
6356 Drizzle 14 1004 93 3600 9.3 210 19:18 11.10.2019
6357 Drizzle 14 1004 93 3600 9.3 210 19:18 11.10.2019
6358 Drizzle 14 1004 87 5000 8.7 220 18:59 11.10.2019
6359 Drizzle 14 1005 93 8000 9.3 210 18:39 11.10.2019
6360 Rain 14 1005 93 7000 9.8 210 18:19 11.10.2019
6361 Rain 14 1004 87 10000 9.3 220 17:59 11.10.2019
6362 Rain 14 1004 87 10000 9.3 220 17:38 11.10.2019
6363 Drizzle 14 1005 93 10000 10.3 210 17:19 11.10.2019
6364 Drizzle 14 1004 82 10000 9.3 220 16:59 11.10.2019
6365 Drizzle 14 1004 82 10000 9.3 220 16:39 11.10.2019
6366 Drizzle 14 1004 82 10000 9.3 220 16:39 11.10.2019
6367 Drizzle 14 1004 82 10000 9.3 220 16:39 11.10.2019
6368 Drizzle 15 1005 87 10000 10.8 210 16:19 11.10.2019
6369 Drizzle 15 1005 87 10000 8.2 220 15:55 11.10.2019
6370 Drizzle 15 1005 87 10000 8.2 220 15:36 11.10.2019
6371 Rain 15 1006 87 10000 10.8 210 15:18 11.10.2019
6372 Rain 14 1005 93 10000 8.7 220 14:43 11.10.2019
6373 Drizzle 14 1006 87 10000 10.3 210 14:23 11.10.2019
6374 Drizzle 14 1006 87 8000 6.7 220 13:47 11.10.2019
6375 Drizzle 14 1006 87 6000 6.7 220 13:27 11.10.2019
6376 Drizzle 14 1007 93 10000 9.8 210 12:58 11.10.2019
6377 Drizzle 14 1006 87 6000 7.2 220 12:40 11.10.2019
6378 Rain 14 1007 93 9000 8.7 210 12:21 11.10.2019
6379 Rain 14 1007 93 9000 8.7 210 11:59 11.10.2019
6380 Rain 14 1007 93 5000 7.7 220 11:39 11.10.2019
6381 Rain 13 1007 93 5000 6.7 220 11:21 11.10.2019
6382 Rain 14 1007 93 10000 7.2 220 10:56 11.10.2019
6383 Rain 13 1007 93 10000 7.2 220 10:38 11.10.2019
6384 Rain 13 1007 93 10000 7.2 220 10:19 11.10.2019
6385 Drizzle 13 1007 93 10000 6.7 220 09:43 11.10.2019
6386 Drizzle 13 1007 93 7000 7.7 210 09:22 11.10.2019
6387 Drizzle 13 1007 93 7000 7.7 210 08:59 11.10.2019
6388 Clouds 13 1006 87 10000 6.7 230 08:39 11.10.2019
6389 Drizzle 13 1007 93 10000 8.7 220 08:21 11.10.2019
6390 Drizzle 13 1007 93 10000 8.7 220 07:58 11.10.2019
6391 Drizzle 13 1006 87 10000 6.2 220 07:40 11.10.2019
6392 Clouds 13 1007 93 10000 9.8 230 07:20 11.10.2019
6393 Drizzle 12 1007 93 10000 6.7 230 06:43 11.10.2019
6394 Rain 12 1006 87 10000 7.7 220 06:21 11.10.2019
6395 Drizzle 13 1007 87 10000 9.8 210 05:32 11.10.2019
6396 Clouds 13 1007 82 10000 7.2 210 04:59 11.10.2019
6397 Clouds 13 1008 82 10000 8.7 210 04:24 11.10.2019
6398 Clouds 12 1009 81 10000 6.7 220 01:58 11.10.2019
6399 Clouds 12 1009 81 10000 6.7 220 00:42 11.10.2019
6400 Rain 12 1010 87 10000 7.2 210 00:23 11.10.2019
6401 Clouds 12 1010 81 10000 5.1 220 23:42 10.10.2019
6402 Clouds 12 1010 81 10000 6.7 200 23:21 10.10.2019
6403 Clouds 11 1010 81 10000 4.6 220 22:57 10.10.2019
6404 Rain 11 1010 87 10000 5.1 200 22:38 10.10.2019
6405 Rain 11 1010 87 10000 4.6 200 22:20 10.10.2019
6406 Clouds 11 1010 81 10000 4.1 220 21:57 10.10.2019
6407 Clouds 11 1010 81 10000 4.1 220 21:38 10.10.2019
6408 Rain 11 1011 87 10000 4.1 210 21:20 10.10.2019
6409 Clouds 11 1010 81 10000 4.1 230 20:42 10.10.2019
6410 Clouds 11 1011 81 10000 3.6 220 20:21 10.10.2019
6411 Clouds 11 1011 81 10000 3.6 220 20:21 10.10.2019
6412 Clouds 11 1010 76 10000 4.6 240 19:59 10.10.2019
6413 Clouds 11 1010 76 10000 4.6 240 19:40 10.10.2019
6414 Clouds 12 1010 81 10000 4.1 230 19:20 10.10.2019
6415 Clouds 12 1009 71 10000 5.7 250 18:57 10.10.2019
6416 Clouds 12 1009 71 10000 5.7 250 18:39 10.10.2019
6417 Clouds 12 1010 81 10000 4.6 250 18:20 10.10.2019
6418 Clouds 13 1010 76 10000 5.7 250 17:54 10.10.2019
6419 Clouds 13 1010 76 10000 5.7 250 17:36 10.10.2019
6420 Clouds 13 1010 76 10000 5.7 250 17:36 10.10.2019
6421 Clouds 14 1010 67 10000 5.7 260 17:18 10.10.2019
6422 Clouds 14 1010 67 10000 5.7 260 17:18 10.10.2019
6423 Clouds 14 1010 67 10000 5.7 260 17:18 10.10.2019
6424 Clouds 13 1008 67 10000 7.2 260 16:41 10.10.2019
6425 Rain 14 1009 67 10000 9.3 250 16:22 10.10.2019
6426 Rain 14 1008 76 10000 5.7 260 15:54 10.10.2019
6427 Rain 14 1009 71 10000 6.7 250 15:36 10.10.2019
6428 Rain 14 1009 67 10000 7.7 250 15:18 10.10.2019
6429 Clouds 14 1008 76 10000 6.7 250 14:54 10.10.2019
6430 Clouds 13 1008 67 10000 7.7 250 14:36 10.10.2019
6431 Rain 13 1008 76 10000 7.2 240 14:18 10.10.2019
6432 Clouds 12 1007 87 10000 4.6 250 13:41 10.10.2019
6433 Rain 12 1007 71 4000 6.7 240 13:23 10.10.2019
6434 Rain 13 1007 71 10000 6.7 240 12:57 10.10.2019
6435 Rain 13 1007 71 10000 6.7 240 12:39 10.10.2019
6436 Drizzle 13 1007 82 10000 7.2 230 12:20 10.10.2019
6437 Clouds 13 1006 81 10000 6.2 230 11:56 10.10.2019
6438 Clouds 12 1006 81 10000 6.2 230 11:38 10.10.2019
6439 Clouds 12 1007 87 10000 7.7 220 11:19 10.10.2019
6440 Clouds 11 1006 87 10000 5.7 230 10:44 10.10.2019
6441 Clouds 11 1006 93 10000 5.7 220 10:26 10.10.2019
6442 Clouds 10 1005 87 8000 5.1 220 09:56 10.10.2019
6443 Rain 10 1006 93 10000 5.7 220 09:38 10.10.2019
6444 Rain 10 1006 93 10000 5.7 220 09:38 10.10.2019
6445 Clouds 10 1005 100 10000 5.7 210 09:19 10.10.2019
6446 Clouds 9 1005 93 7000 4.6 230 08:56 10.10.2019
6447 Clouds 9 1005 100 6000 5.1 210 08:37 10.10.2019
6448 Clouds 9 1005 100 6000 5.7 210 08:18 10.10.2019
6449 Clouds 9 1004 93 10000 4.6 230 07:42 10.10.2019
6450 Clouds 9 1004 100 8000 6.2 220 07:20 10.10.2019
6451 Clouds 9 1003 93 10000 3.6 230 06:46 10.10.2019
6452 Clouds 9 1004 100 10000 5.1 210 06:26 10.10.2019
6453 Rain 9 1004 93 10000 5.1 210 05:27 10.10.2019
6454 Clouds 9 1003 87 10000 4.6 230 04:39 10.10.2019
6455 Clouds 9 1004 93 10000 5.1 210 04:21 10.10.2019
6456 Drizzle 9 1002 87 10000 3.6 220 01:43 10.10.2019
6457 Rain 9 1003 100 10000 3.6 210 01:24 10.10.2019
6458 Clouds 9 1002 93 10000 3.6 230 00:54 10.10.2019
6459 Clouds 9 1003 100 10000 3.1 240 00:22 10.10.2019
6460 Clouds 9 1002 93 10000 3.1 230 23:40 09.10.2019
6461 Rain 9 1002 93 10000 3.6 190 23:21 09.10.2019
6462 Rain 10 1002 93 10000 3.1 220 22:56 09.10.2019
6463 Rain 9 1002 93 10000 3.1 220 22:38 09.10.2019
6464 Rain 10 1003 93 10000 4.6 210 22:20 09.10.2019
6465 Rain 10 1002 93 10000 3.1 220 21:41 09.10.2019
6466 Clouds 10 1002 100 10000 4.6 210 21:21 09.10.2019
6467 Clouds 10 1002 87 10000 2.6 220 20:56 09.10.2019
6468 Clouds 9 1002 87 10000 2.6 220 20:38 09.10.2019
6469 Rain 10 1002 93 10000 4.1 210 20:19 09.10.2019
6470 Rain 10 1002 93 10000 4.1 210 19:58 09.10.2019
6471 Clouds 10 1002 87 10000 3.1 220 19:40 09.10.2019
6472 Rain 10 1002 93 10000 4.6 230 19:21 09.10.2019
6473 Clouds 10 1002 87 10000 3.1 230 18:38 09.10.2019
6474 Rain 10 1002 87 10000 3.6 240 18:20 09.10.2019
6475 Clouds 11 1001 81 10000 4.1 240 17:57 09.10.2019
6476 Clouds 11 1001 81 10000 4.1 240 17:37 09.10.2019
6477 Clouds 11 1001 81 10000 4.1 240 17:37 09.10.2019
6478 Rain 11 1002 93 10000 5.1 220 17:19 09.10.2019
6479 Rain 11 1002 87 9000 5.1 220 16:56 09.10.2019
6480 Rain 11 1002 87 9000 5.1 220 16:37 09.10.2019
6481 -273 0 0 0 0 0 16:18 09.10.2019
6482 Rain 11 1002 81 9000 5.1 240 15:55 09.10.2019
6483 Rain 11 1002 81 9000 5.1 240 15:37 09.10.2019
6484 Rain 11 1003 93 7000 3.6 240 15:18 09.10.2019
6485 Rain 11 1002 82 10000 6.7 220 14:44 09.10.2019
6486 Rain 11 1002 82 10000 6.7 220 14:44 09.10.2019
6487 Clouds 12 1003 93 10000 3.1 230 14:19 09.10.2019
6488 Rain 12 1002 82 10000 6.7 220 13:59 09.10.2019
6489 Rain 12 1002 82 10000 6.7 220 13:38 09.10.2019
6490 Rain 12 1003 87 7000 7.7 220 13:18 09.10.2019
6491 Clouds 13 1003 82 10000 7.2 220 12:44 09.10.2019
6492 Clouds 13 1003 82 10000 7.2 210 12:23 09.10.2019
6493 Clouds 12 1003 82 10000 7.2 220 11:58 09.10.2019
6494 Clouds 12 1003 82 10000 7.2 220 11:40 09.10.2019
6495 Clouds 12 1003 87 10000 6.7 220 11:20 09.10.2019
6496 Clouds 12 1003 87 10000 6.7 220 10:58 09.10.2019
6497 Clouds 12 1003 87 10000 6.7 220 10:40 09.10.2019
6498 Clouds 11 1003 93 10000 6.7 210 10:18 09.10.2019
6499 Clouds 11 1003 87 10000 5.7 210 09:43 09.10.2019
6500 Clouds 11 1003 93 10000 5.7 200 09:20 09.10.2019
6501 Clouds 10 1003 93 10000 5.1 220 08:58 09.10.2019
6502 Clouds 10 1003 93 10000 5.1 220 08:38 09.10.2019
6503 Rain 10 1003 93 10000 5.7 200 08:19 09.10.2019
6504 Rain 10 1003 93 10000 5.7 200 08:19 09.10.2019
6505 Clouds 10 1003 93 10000 4.6 220 07:47 09.10.2019
6506 Clouds 10 1003 93 10000 4.6 220 07:47 09.10.2019
6507 Rain 10 1004 93 10000 4.6 200 07:24 09.10.2019
6508 Clouds 10 1003 93 10000 3.6 220 06:57 09.10.2019
6509 Rain 10 1004 93 10000 4.6 210 06:35 09.10.2019
6510 Rain 10 1003 93 10000 4.6 230 05:52 09.10.2019
6511 Rain 10 1003 93 10000 4.6 220 04:50 09.10.2019
6512 Clouds 11 1002 93 10000 4.1 220 03:47 09.10.2019
6513 Rain 11 1003 93 10000 5.1 210 02:27 09.10.2019
6514 Rain 11 1002 87 6000 5.7 230 01:39 09.10.2019
6515 Rain 12 1002 93 10000 6.2 220 01:18 09.10.2019
6516 Clouds 11 1001 87 10000 3.6 230 00:41 09.10.2019
6517 Rain 11 1002 93 10000 5.7 210 00:23 09.10.2019
6518 Rain 11 1001 87 10000 5.1 210 23:58 08.10.2019
6519 Rain 11 1002 87 10000 5.1 200 23:38 08.10.2019
6520 Rain 11 1003 87 8000 5.7 250 23:18 08.10.2019
6521 Rain 11 1003 87 8000 5.7 250 23:18 08.10.2019
6522 Clouds 12 1002 87 10000 4.1 220 22:55 08.10.2019
6523 Clouds 12 1002 93 10000 6.2 210 22:36 08.10.2019
6524 Rain 12 1002 93 10000 4.6 210 22:18 08.10.2019
6525 Clouds 12 1002 87 10000 3.6 210 21:55 08.10.2019
6526 Rain 12 1002 93 10000 3.6 200 21:36 08.10.2019
6527 Clouds 12 1002 87 10000 4.1 210 21:18 08.10.2019
6528 Clouds 12 1002 81 10000 3.6 230 20:54 08.10.2019
6529 Clouds 12 1003 93 10000 3.6 210 20:36 08.10.2019
6530 Clouds 12 1003 87 10000 4.1 210 20:18 08.10.2019
6531 Clouds 13 1002 76 10000 4.1 240 19:42 08.10.2019
6532 Clouds 13 1003 82 10000 5.1 220 19:23 08.10.2019
6533 Clouds 13 1003 82 10000 5.1 220 18:59 08.10.2019
6534 Clouds 14 1002 71 10000 4.6 240 18:41 08.10.2019
6535 Clouds 14 1003 82 10000 4.1 230 18:22 08.10.2019
6536 Clouds 15 1002 72 10000 5.1 250 17:57 08.10.2019
6537 Clouds 14 1002 72 10000 5.1 250 17:39 08.10.2019
6538 Clouds 15 1003 72 10000 6.2 250 17:18 08.10.2019
6539 Clouds 15 1003 77 10000 5.1 240 16:55 08.10.2019
6540 Clouds 15 1003 77 10000 5.1 240 16:37 08.10.2019
6541 Clouds 16 1003 72 10000 5.7 240 16:18 08.10.2019
6542 Clouds 16 1002 72 10000 4.6 250 15:38 08.10.2019
6543 Rain 16 1003 77 10000 5.1 250 15:20 08.10.2019
6544 Rain 16 1002 72 10000 4.1 260 14:55 08.10.2019
6545 Rain 16 1002 72 10000 4.1 260 14:37 08.10.2019
6546 Clouds 16 1003 77 10000 6.7 240 14:19 08.10.2019
6547 -273 0 0 0 0 0 13:54 08.10.2019
6548 Clouds 16 1003 72 10000 7.2 260 13:54 08.10.2019
6549 Clouds 15 1004 77 10000 5.1 240 13:36 08.10.2019
6550 Clouds 15 1004 77 10000 5.1 240 13:18 08.10.2019
6551 Clouds 15 1004 77 10000 5.1 240 13:18 08.10.2019
6552 Clouds 15 1003 82 10000 5.1 250 12:40 08.10.2019
6553 Clouds 15 1003 82 10000 5.7 260 12:20 08.10.2019
6554 Clouds 15 1003 82 10000 5.1 260 11:57 08.10.2019
6555 Clouds 15 1003 82 10000 5.1 260 11:57 08.10.2019
6556 Clouds 14 1003 82 10000 5.1 260 11:38 08.10.2019
6557 Clouds 14 1004 93 10000 5.7 230 11:20 08.10.2019
6558 Clouds 14 1003 87 10000 5.1 250 10:42 08.10.2019
6559 Clouds 13 1004 93 10000 4.6 230 10:23 08.10.2019
6560 Clouds 13 1004 93 10000 4.6 230 09:59 08.10.2019
6561 Clouds 13 1003 93 10000 4.1 230 09:40 08.10.2019
6562 Clouds 12 1003 87 10000 4.6 230 09:22 08.10.2019
6563 Clouds 12 1003 93 10000 3.6 250 08:45 08.10.2019
6564 Drizzle 12 1003 93 10000 5.1 230 08:25 08.10.2019
6565 Drizzle 12 1003 93 10000 5.1 230 07:58 08.10.2019
6566 Drizzle 12 1003 93 10000 5.1 230 07:40 08.10.2019
6567 Clouds 12 1004 100 10000 5.7 220 07:19 08.10.2019
6568 Clouds 12 1003 93 8000 5.7 230 06:46 08.10.2019
6569 Drizzle 12 1005 100 9000 6.2 220 06:23 08.10.2019
6570 Drizzle 12 1004 93 5000 5.1 200 05:43 08.10.2019
6571 Drizzle 12 1004 93 5000 5.1 200 05:43 08.10.2019
6572 Drizzle 12 1005 93 5000 6.2 200 05:19 08.10.2019
6573 Rain 11 1007 100 2600 5.1 190 03:32 08.10.2019
6574 Drizzle 11 1008 93 10000 4.1 180 02:44 08.10.2019
6575 Drizzle 11 1009 93 4100 5.1 190 02:25 08.10.2019
6576 Rain 11 1009 87 10000 4.1 180 01:42 08.10.2019
6577 Clouds 11 1010 87 10000 3.6 180 00:57 08.10.2019
6578 Clouds 11 1010 87 10000 3.6 180 00:57 08.10.2019
6579 Clouds 11 1010 87 9000 4.6 190 00:36 08.10.2019
6580 Clouds 11 1011 87 10000 4.6 190 00:18 08.10.2019
6581 Clouds 11 1012 81 10000 2.6 170 23:38 07.10.2019
6582 Clouds 11 1012 87 10000 4.1 180 23:19 07.10.2019
6583 Clouds 11 1013 76 10000 3.6 160 22:55 07.10.2019
6584 Clouds 10 1013 76 10000 3.6 160 22:37 07.10.2019
6585 Rain 10 1012 87 10000 4.1 170 22:19 07.10.2019
6586 Clouds 10 1014 76 10000 3.1 160 21:55 07.10.2019
6587 Clouds 10 1014 76 10000 3.1 160 21:37 07.10.2019
6588 Clouds 10 1014 81 10000 3.6 180 21:18 07.10.2019
6589 Clouds 10 1014 81 10000 3.6 180 21:18 07.10.2019
6590 Clouds 10 1015 76 10000 2.6 140 20:57 07.10.2019
6591 Clouds 10 1014 81 10000 3.1 180 20:38 07.10.2019
6592 Clouds 10 1015 81 10000 3.1 170 20:19 07.10.2019
6593 Clouds 10 1016 76 10000 2.6 130 19:56 07.10.2019
6594 Clouds 11 1015 76 10000 2.6 180 19:38 07.10.2019
6595 Clouds 11 1015 76 10000 2.6 170 19:18 07.10.2019
6596 Clouds 11 1016 66 10000 2.1 130 18:55 07.10.2019
6597 Clouds 11 1016 66 10000 2.1 130 18:37 07.10.2019
6598 Clouds 11 1015 71 10000 2.6 170 18:18 07.10.2019
6599 Clouds 12 1016 62 10000 3.6 120 17:41 07.10.2019
6600 Clouds 12 1016 66 10000 3.1 170 17:19 07.10.2019
6601 Clouds 12 1017 53 10000 3.1 140 16:55 07.10.2019
6602 Clouds 12 1017 53 10000 3.1 140 16:37 07.10.2019
6603 Clouds 12 1016 62 10000 3.1 140 16:19 07.10.2019
6604 Clouds 12 1018 50 10000 3.6 150 15:42 07.10.2019
6605 Clouds 12 1017 58 10000 4.6 140 15:24 07.10.2019
6606 Clouds 12 1018 50 10000 3.6 130 14:42 07.10.2019
6607 Clouds 12 1018 66 10000 4.1 120 14:23 07.10.2019
6608 Clouds 11 1020 50 10000 4.6 150 13:59 07.10.2019
6609 Clouds 11 1020 50 10000 4.6 150 13:59 07.10.2019
6610 Clouds 11 1020 50 10000 4.6 150 13:40 07.10.2019
6611 Clouds 11 1018 71 10000 4.6 110 13:19 07.10.2019
6612 Clouds 10 1020 53 10000 5.7 140 12:55 07.10.2019
6613 Clouds 10 1020 53 10000 5.7 140 12:37 07.10.2019
6614 Clouds 10 1019 76 10000 3.1 100 12:18 07.10.2019
6615 Clouds 10 1021 66 10000 4.6 140 11:56 07.10.2019
6616 Clouds 9 1019 76 10000 3.1 110 11:37 07.10.2019
6617 Clouds 9 1019 81 10000 3.6 100 11:18 07.10.2019
6618 Clouds 8 1020 70 10000 4.1 130 10:41 07.10.2019
6619 Clouds 7 1019 81 10000 3.6 110 10:20 07.10.2019
6620 Clouds 7 1019 81 10000 3.6 110 10:20 07.10.2019
6621 Clouds 5 1020 80 10000 3.1 100 09:42 07.10.2019
6622 Clouds 6 1020 80 10000 3.1 100 09:42 07.10.2019
6623 Clouds 5 1019 86 10000 3.6 90 09:23 07.10.2019
6624 Clouds 4 1020 86 10000 2.1 100 08:57 07.10.2019
6625 Clouds 3 1020 86 10000 2.1 100 08:38 07.10.2019
6626 Clear 3 1019 86 10000 4.1 80 08:19 07.10.2019
6627 Clouds 3 1020 86 10000 1 90 07:41 07.10.2019
6628 Clear 3 1019 86 10000 3.1 70 07:22 07.10.2019
6629 Clear 3 1020 86 10000 2.6 80 06:54 07.10.2019
6630 Clear 4 1019 86 10000 3.1 80 06:34 07.10.2019
6631 Clear 4 1020 86 10000 3.1 90 05:47 07.10.2019
6632 Clear 4 1020 86 10000 3.1 80 05:22 07.10.2019
6633 Clear 4 1018 93 10000 3.6 60 04:28 07.10.2019
6634 Clear 5 1019 80 10000 3.6 80 03:45 07.10.2019
6635 Clear 5 1019 80 10000 3.6 80 03:45 07.10.2019
6636 Clouds 5 1018 93 10000 3.1 70 03:21 07.10.2019
6637 Clouds 6 1017 87 10000 4.1 70 02:22 07.10.2019
6638 Clouds 6 1019 86 10000 3.6 70 01:52 07.10.2019
6639 Clouds 6 1017 87 10000 4.1 70 01:22 07.10.2019
6640 Clouds 7 1018 81 10000 3.6 90 00:41 07.10.2019
6641 Clouds 7 1017 87 10000 5.7 70 00:22 07.10.2019
6642 Clouds 7 1018 81 10000 4.1 90 23:56 06.10.2019
6643 Clouds 8 1018 81 10000 4.1 90 23:38 06.10.2019
6644 Clouds 8 1016 81 10000 5.1 70 23:18 06.10.2019
6645 Clouds 8 1018 81 10000 5.7 90 22:54 06.10.2019
6646 Clouds 8 1016 81 10000 4.6 80 22:36 06.10.2019
6647 Clouds 8 1015 81 10000 5.7 80 22:18 06.10.2019
6648 -273 0 0 0 0 0 21:54 06.10.2019
6649 Clouds 9 1015 81 10000 5.1 80 21:36 06.10.2019
6650 Clouds 9 1014 81 10000 5.1 80 21:18 06.10.2019
6651 Clouds 9 1016 76 10000 6.2 100 20:54 06.10.2019
6652 Clouds 9 1014 81 10000 5.7 80 20:36 06.10.2019
6653 Clouds 9 1015 76 10000 5.7 100 20:18 06.10.2019
6654 Clouds 9 1015 76 10000 5.7 100 19:54 06.10.2019
6655 Clouds 9 1013 76 10000 5.7 90 19:36 06.10.2019
6656 Clouds 9 1013 76 10000 6.7 90 19:18 06.10.2019
6657 Clouds 10 1015 71 10000 6.7 100 18:54 06.10.2019
6658 Clouds 10 1013 76 10000 6.2 90 18:36 06.10.2019
6659 Clouds 10 1013 76 10000 5.7 90 18:18 06.10.2019
6660 Clouds 10 1015 66 10000 7.7 100 17:42 06.10.2019
6661 Clouds 10 1012 76 10000 5.1 100 17:19 06.10.2019
6662 Clouds 10 1015 66 10000 7.2 100 16:54 06.10.2019
6663 Clouds 10 1012 76 10000 5.1 100 16:36 06.10.2019
6664 Clouds 10 1013 71 10000 5.7 100 16:18 06.10.2019
6665 Clouds 10 1016 66 10000 7.2 110 15:42 06.10.2019
6666 Clouds 10 1013 76 10000 5.7 100 15:19 06.10.2019
6667 Clouds 10 1013 76 10000 5.7 100 15:19 06.10.2019
6668 Clouds 10 1013 76 10000 5.7 100 15:19 06.10.2019
6669 Clouds 10 1013 76 10000 5.7 100 15:19 06.10.2019
6670 Clouds 10 1016 71 10000 7.2 110 14:44 06.10.2019
6671 Clouds 10 1014 71 10000 6.7 100 14:25 06.10.2019
6672 Clouds 10 1017 76 10000 6.2 120 13:59 06.10.2019
6673 Clouds 10 1017 76 10000 6.2 120 13:39 06.10.2019
6674 Clouds 10 1014 76 10000 6.2 100 13:21 06.10.2019
6675 Clouds 10 1017 81 10000 6.7 120 12:58 06.10.2019
6676 Clouds 9 1017 81 10000 6.7 120 12:39 06.10.2019
6677 Clouds 9 1015 81 10000 5.1 110 12:21 06.10.2019
6678 Clouds 9 1018 87 10000 5.7 120 11:58 06.10.2019
6679 Clouds 9 1018 87 10000 5.7 120 11:39 06.10.2019
6680 Clouds 9 1015 81 10000 5.1 100 11:21 06.10.2019
6681 Clouds 8 1018 87 10000 6.2 110 10:54 06.10.2019
6682 Clouds 8 1016 87 10000 5.7 100 10:36 06.10.2019
6683 Clouds 8 1016 87 10000 5.1 100 10:18 06.10.2019
6684 Clouds 8 1018 87 10000 5.7 120 09:41 06.10.2019
6685 Clouds 8 1016 87 10000 4.6 100 09:19 06.10.2019
6686 Clouds 7 1019 93 10000 4.6 110 08:47 06.10.2019
6687 Clouds 7 1017 93 10000 4.1 100 08:21 06.10.2019
6688 Clouds 7 1019 93 10000 4.6 110 07:57 06.10.2019
6689 Clouds 7 1019 93 10000 4.6 110 07:38 06.10.2019
6690 Clouds 7 1017 87 10000 3.1 100 06:39 06.10.2019
6691 Clouds 7 1018 93 10000 3.6 100 05:36 06.10.2019
6692 Clouds 7 1018 87 10000 3.6 100 04:29 06.10.2019
6693 Clouds 8 1020 93 10000 3.6 110 02:52 06.10.2019
6694 Clouds 8 1019 87 10000 3.1 100 02:29 06.10.2019
6695 Clouds 8 1021 87 10000 3.6 110 01:46 06.10.2019
6696 Clouds 8 1019 87 10000 2.6 90 01:28 06.10.2019
6697 Clouds 8 1021 87 10000 3.6 100 00:59 06.10.2019
6698 Clouds 8 1020 93 10000 2.6 90 00:31 06.10.2019
6699 Clouds 9 1021 87 10000 2.1 100 23:55 05.10.2019
6700 Clouds 9 1020 87 9000 2.6 80 23:36 05.10.2019
6701 Clouds 9 1020 87 6000 2.6 80 23:18 05.10.2019
6702 Clouds 9 1021 87 10000 4.1 80 22:54 05.10.2019
6703 Clouds 9 1020 93 10000 1.5 70 22:36 05.10.2019
6704 Clouds 9 1020 93 10000 1.5 60 22:18 05.10.2019
6705 Clouds 9 1020 93 10000 1.5 60 22:18 05.10.2019
6706 Clouds 9 1020 81 10000 3.6 90 21:41 05.10.2019
6707 Clouds 9 1019 100 10000 1 70 21:22 05.10.2019
6708 Clouds 10 1020 81 10000 2.1 80 20:57 05.10.2019
6709 Clouds 10 1020 81 10000 2.1 80 20:39 05.10.2019
6710 Clouds 10 1019 87 10000 1.5 70 20:19 05.10.2019
6711 -273 0 0 0 0 0 19:55 05.10.2019
6712 Clouds 11 1019 81 10000 1 0 19:36 05.10.2019
6713 Clouds 11 1019 81 10000 1.5 80 19:18 05.10.2019
6714 Clouds 11 1019 76 10000 2.6 50 18:54 05.10.2019
6715 Clouds